<?xml version="1.0" encoding="UTF-8" standalone="no" ?>
<gpx xmlns="http://www.topografix.com/GPX/1/1" xmlns:xsi="http://www.w3.org/2001/XMLSchema-instance" xsi:schemaLocation="http://www.topografix.com/GPX/1/1 http://www.topografix.com/GPX/1/1/gpx.xsd" version="1.1" creator="VisuGPX - https://www.visugpx.com">
  <metadata>
    <name>Boucle Vérignon</name>
    <desc><![CDATA[Boucle au départ de Plérimond. ]]></desc>
  </metadata>
  <trk>
    <name><![CDATA[PLERIMOND VERIGNON ND LIESSE]]></name>
    <trkseg>
      <trkpt lat="43.59985" lon="6.25044">
        <ele>355.34</ele>
        <time>2015-03-08T09:13:34Z</time>
      </trkpt>
      <trkpt lat="43.59987" lon="6.25039">
        <ele>353.9</ele>
        <time>2015-03-08T09:13:40Z</time>
      </trkpt>
      <trkpt lat="43.59989" lon="6.25038">
        <ele>353.9</ele>
        <time>2015-03-08T09:13:51Z</time>
      </trkpt>
      <trkpt lat="43.59998" lon="6.25021">
        <ele>352.46</ele>
        <time>2015-03-08T09:14:08Z</time>
      </trkpt>
      <trkpt lat="43.59999" lon="6.25021">
        <ele>352.94</ele>
        <time>2015-03-08T09:14:12Z</time>
      </trkpt>
      <trkpt lat="43.5999" lon="6.25002">
        <ele>352.46</ele>
        <time>2015-03-08T09:14:24Z</time>
      </trkpt>
      <trkpt lat="43.59985" lon="6.24997">
        <ele>355.83</ele>
        <time>2015-03-08T09:14:37Z</time>
      </trkpt>
      <trkpt lat="43.59985" lon="6.24996">
        <ele>359.19</ele>
        <time>2015-03-08T09:14:38Z</time>
      </trkpt>
      <trkpt lat="43.59984" lon="6.24995">
        <ele>362.07</ele>
        <time>2015-03-08T09:14:39Z</time>
      </trkpt>
      <trkpt lat="43.59983" lon="6.24994">
        <ele>367.84</ele>
        <time>2015-03-08T09:14:41Z</time>
      </trkpt>
      <trkpt lat="43.59981" lon="6.24992">
        <ele>373.61</ele>
        <time>2015-03-08T09:14:43Z</time>
      </trkpt>
      <trkpt lat="43.5998" lon="6.24991">
        <ele>378.42</ele>
        <time>2015-03-08T09:14:45Z</time>
      </trkpt>
      <trkpt lat="43.5998" lon="6.24991">
        <ele>383.7</ele>
        <time>2015-03-08T09:14:47Z</time>
      </trkpt>
      <trkpt lat="43.59979" lon="6.24989">
        <ele>388.51</ele>
        <time>2015-03-08T09:14:49Z</time>
      </trkpt>
      <trkpt lat="43.59978" lon="6.24987">
        <ele>392.84</ele>
        <time>2015-03-08T09:14:51Z</time>
      </trkpt>
      <trkpt lat="43.59978" lon="6.24986">
        <ele>396.68</ele>
        <time>2015-03-08T09:14:53Z</time>
      </trkpt>
      <trkpt lat="43.59978" lon="6.24986">
        <ele>400.53</ele>
        <time>2015-03-08T09:14:55Z</time>
      </trkpt>
      <trkpt lat="43.59978" lon="6.24986">
        <ele>404.85</ele>
        <time>2015-03-08T09:14:57Z</time>
      </trkpt>
      <trkpt lat="43.59978" lon="6.24986">
        <ele>408.22</ele>
        <time>2015-03-08T09:14:59Z</time>
      </trkpt>
      <trkpt lat="43.59977" lon="6.24986">
        <ele>413.02</ele>
        <time>2015-03-08T09:15:02Z</time>
      </trkpt>
      <trkpt lat="43.59977" lon="6.24986">
        <ele>416.39</ele>
        <time>2015-03-08T09:15:04Z</time>
      </trkpt>
      <trkpt lat="43.59977" lon="6.24986">
        <ele>420.23</ele>
        <time>2015-03-08T09:15:07Z</time>
      </trkpt>
      <trkpt lat="43.59976" lon="6.24982">
        <ele>423.6</ele>
        <time>2015-03-08T09:15:10Z</time>
      </trkpt>
      <trkpt lat="43.59976" lon="6.24979">
        <ele>427.92</ele>
        <time>2015-03-08T09:15:13Z</time>
      </trkpt>
      <trkpt lat="43.59976" lon="6.24978">
        <ele>431.77</ele>
        <time>2015-03-08T09:15:16Z</time>
      </trkpt>
      <trkpt lat="43.59977" lon="6.24977">
        <ele>436.1</ele>
        <time>2015-03-08T09:15:20Z</time>
      </trkpt>
      <trkpt lat="43.59977" lon="6.24976">
        <ele>439.46</ele>
        <time>2015-03-08T09:15:24Z</time>
      </trkpt>
      <trkpt lat="43.59977" lon="6.24976">
        <ele>442.82</ele>
        <time>2015-03-08T09:15:28Z</time>
      </trkpt>
      <trkpt lat="43.59977" lon="6.24976">
        <ele>443.79</ele>
        <time>2015-03-08T09:15:30Z</time>
      </trkpt>
      <trkpt lat="43.59977" lon="6.24976">
        <ele>447.63</ele>
        <time>2015-03-08T09:15:36Z</time>
      </trkpt>
      <trkpt lat="43.59977" lon="6.24976">
        <ele>448.59</ele>
        <time>2015-03-08T09:15:38Z</time>
      </trkpt>
      <trkpt lat="43.59977" lon="6.24975">
        <ele>451.96</ele>
        <time>2015-03-08T09:15:44Z</time>
      </trkpt>
      <trkpt lat="43.59978" lon="6.24976">
        <ele>455.32</ele>
        <time>2015-03-08T09:15:51Z</time>
      </trkpt>
      <trkpt lat="43.59978" lon="6.24976">
        <ele>458.21</ele>
        <time>2015-03-08T09:15:58Z</time>
      </trkpt>
      <trkpt lat="43.59978" lon="6.24975">
        <ele>459.65</ele>
        <time>2015-03-08T09:16:04Z</time>
      </trkpt>
      <trkpt lat="43.59978" lon="6.24976">
        <ele>462.05</ele>
        <time>2015-03-08T09:16:13Z</time>
      </trkpt>
      <trkpt lat="43.59978" lon="6.24976">
        <ele>464.45</ele>
        <time>2015-03-08T09:16:24Z</time>
      </trkpt>
      <trkpt lat="43.59977" lon="6.24974">
        <ele>466.86</ele>
        <time>2015-03-08T09:16:38Z</time>
      </trkpt>
      <trkpt lat="43.59977" lon="6.24975">
        <ele>466.38</ele>
        <time>2015-03-08T09:16:56Z</time>
      </trkpt>
      <trkpt lat="43.59977" lon="6.24974">
        <ele>466.38</ele>
        <time>2015-03-08T09:17:08Z</time>
      </trkpt>
      <trkpt lat="43.59978" lon="6.24971">
        <ele>465.9</ele>
        <time>2015-03-08T09:17:11Z</time>
      </trkpt>
      <trkpt lat="43.59983" lon="6.24949">
        <ele>464.93</ele>
        <time>2015-03-08T09:17:26Z</time>
      </trkpt>
      <trkpt lat="43.59985" lon="6.24946">
        <ele>466.38</ele>
        <time>2015-03-08T09:17:37Z</time>
      </trkpt>
      <trkpt lat="43.59985" lon="6.24947">
        <ele>465.42</ele>
        <time>2015-03-08T09:17:55Z</time>
      </trkpt>
      <trkpt lat="43.59985" lon="6.24941">
        <ele>464.93</ele>
        <time>2015-03-08T09:18:11Z</time>
      </trkpt>
      <trkpt lat="43.59988" lon="6.24927">
        <ele>464.45</ele>
        <time>2015-03-08T09:18:19Z</time>
      </trkpt>
      <trkpt lat="43.59992" lon="6.24921">
        <ele>463.97</ele>
        <time>2015-03-08T09:18:24Z</time>
      </trkpt>
      <trkpt lat="43.59994" lon="6.24913">
        <ele>463.97</ele>
        <time>2015-03-08T09:18:28Z</time>
      </trkpt>
      <trkpt lat="43.59991" lon="6.24893">
        <ele>463.01</ele>
        <time>2015-03-08T09:18:38Z</time>
      </trkpt>
      <trkpt lat="43.59986" lon="6.24884">
        <ele>462.53</ele>
        <time>2015-03-08T09:18:46Z</time>
      </trkpt>
      <trkpt lat="43.59979" lon="6.24872">
        <ele>461.09</ele>
        <time>2015-03-08T09:18:53Z</time>
      </trkpt>
      <trkpt lat="43.59967" lon="6.24849">
        <ele>460.61</ele>
        <time>2015-03-08T09:19:07Z</time>
      </trkpt>
      <trkpt lat="43.59959" lon="6.24834">
        <ele>459.65</ele>
        <time>2015-03-08T09:19:18Z</time>
      </trkpt>
      <trkpt lat="43.59963" lon="6.24807">
        <ele>457.24</ele>
        <time>2015-03-08T09:19:29Z</time>
      </trkpt>
      <trkpt lat="43.59973" lon="6.24782">
        <ele>456.76</ele>
        <time>2015-03-08T09:19:44Z</time>
      </trkpt>
      <trkpt lat="43.5998" lon="6.24753">
        <ele>456.76</ele>
        <time>2015-03-08T09:19:57Z</time>
      </trkpt>
      <trkpt lat="43.59988" lon="6.24725">
        <ele>455.8</ele>
        <time>2015-03-08T09:20:11Z</time>
      </trkpt>
      <trkpt lat="43.59997" lon="6.24703">
        <ele>454.84</ele>
        <time>2015-03-08T09:20:25Z</time>
      </trkpt>
      <trkpt lat="43.60005" lon="6.24685">
        <ele>454.84</ele>
        <time>2015-03-08T09:20:40Z</time>
      </trkpt>
      <trkpt lat="43.60015" lon="6.24666">
        <ele>454.36</ele>
        <time>2015-03-08T09:20:54Z</time>
      </trkpt>
      <trkpt lat="43.60022" lon="6.2465">
        <ele>454.36</ele>
        <time>2015-03-08T09:21:07Z</time>
      </trkpt>
      <trkpt lat="43.60024" lon="6.24645">
        <ele>454.36</ele>
        <time>2015-03-08T09:21:10Z</time>
      </trkpt>
      <trkpt lat="43.60031" lon="6.24622">
        <ele>453.88</ele>
        <time>2015-03-08T09:21:25Z</time>
      </trkpt>
      <trkpt lat="43.60031" lon="6.24595">
        <ele>453.88</ele>
        <time>2015-03-08T09:21:39Z</time>
      </trkpt>
      <trkpt lat="43.60027" lon="6.24571">
        <ele>452.92</ele>
        <time>2015-03-08T09:21:52Z</time>
      </trkpt>
      <trkpt lat="43.60023" lon="6.24548">
        <ele>451.96</ele>
        <time>2015-03-08T09:22:05Z</time>
      </trkpt>
      <trkpt lat="43.60021" lon="6.24529">
        <ele>451.48</ele>
        <time>2015-03-08T09:22:19Z</time>
      </trkpt>
      <trkpt lat="43.60029" lon="6.24505">
        <ele>450.03</ele>
        <time>2015-03-08T09:22:37Z</time>
      </trkpt>
      <trkpt lat="43.60037" lon="6.24486">
        <ele>448.11</ele>
        <time>2015-03-08T09:22:51Z</time>
      </trkpt>
      <trkpt lat="43.60047" lon="6.24466">
        <ele>447.15</ele>
        <time>2015-03-08T09:23:05Z</time>
      </trkpt>
      <trkpt lat="43.60055" lon="6.2445">
        <ele>446.19</ele>
        <time>2015-03-08T09:23:17Z</time>
      </trkpt>
      <trkpt lat="43.60065" lon="6.24429">
        <ele>445.71</ele>
        <time>2015-03-08T09:23:31Z</time>
      </trkpt>
      <trkpt lat="43.6007" lon="6.24421">
        <ele>445.23</ele>
        <time>2015-03-08T09:23:37Z</time>
      </trkpt>
      <trkpt lat="43.60076" lon="6.24406">
        <ele>445.23</ele>
        <time>2015-03-08T09:23:46Z</time>
      </trkpt>
      <trkpt lat="43.60087" lon="6.24382">
        <ele>444.75</ele>
        <time>2015-03-08T09:24:01Z</time>
      </trkpt>
      <trkpt lat="43.60095" lon="6.24359">
        <ele>444.27</ele>
        <time>2015-03-08T09:24:14Z</time>
      </trkpt>
      <trkpt lat="43.60105" lon="6.24333">
        <ele>444.75</ele>
        <time>2015-03-08T09:24:28Z</time>
      </trkpt>
      <trkpt lat="43.60116" lon="6.24306">
        <ele>444.75</ele>
        <time>2015-03-08T09:24:44Z</time>
      </trkpt>
      <trkpt lat="43.60123" lon="6.24274">
        <ele>445.23</ele>
        <time>2015-03-08T09:25:00Z</time>
      </trkpt>
      <trkpt lat="43.60131" lon="6.24248">
        <ele>445.23</ele>
        <time>2015-03-08T09:25:15Z</time>
      </trkpt>
      <trkpt lat="43.60136" lon="6.24226">
        <ele>446.19</ele>
        <time>2015-03-08T09:25:28Z</time>
      </trkpt>
      <trkpt lat="43.60141" lon="6.24203">
        <ele>446.19</ele>
        <time>2015-03-08T09:25:42Z</time>
      </trkpt>
      <trkpt lat="43.60142" lon="6.242">
        <ele>446.67</ele>
        <time>2015-03-08T09:25:45Z</time>
      </trkpt>
      <trkpt lat="43.60155" lon="6.24182">
        <ele>446.19</ele>
        <time>2015-03-08T09:25:59Z</time>
      </trkpt>
      <trkpt lat="43.60167" lon="6.24165">
        <ele>446.19</ele>
        <time>2015-03-08T09:26:12Z</time>
      </trkpt>
      <trkpt lat="43.6018" lon="6.24146">
        <ele>445.71</ele>
        <time>2015-03-08T09:26:26Z</time>
      </trkpt>
      <trkpt lat="43.60194" lon="6.24129">
        <ele>445.23</ele>
        <time>2015-03-08T09:26:40Z</time>
      </trkpt>
      <trkpt lat="43.60205" lon="6.24112">
        <ele>445.23</ele>
        <time>2015-03-08T09:26:54Z</time>
      </trkpt>
      <trkpt lat="43.60214" lon="6.24096">
        <ele>445.23</ele>
        <time>2015-03-08T09:27:08Z</time>
      </trkpt>
      <trkpt lat="43.60216" lon="6.24092">
        <ele>445.23</ele>
        <time>2015-03-08T09:27:11Z</time>
      </trkpt>
      <trkpt lat="43.60225" lon="6.24075">
        <ele>444.75</ele>
        <time>2015-03-08T09:27:24Z</time>
      </trkpt>
      <trkpt lat="43.60226" lon="6.24072">
        <ele>444.75</ele>
        <time>2015-03-08T09:27:26Z</time>
      </trkpt>
      <trkpt lat="43.60232" lon="6.24066">
        <ele>444.75</ele>
        <time>2015-03-08T09:27:31Z</time>
      </trkpt>
      <trkpt lat="43.60237" lon="6.24059">
        <ele>445.23</ele>
        <time>2015-03-08T09:27:35Z</time>
      </trkpt>
      <trkpt lat="43.6025" lon="6.24033">
        <ele>446.19</ele>
        <time>2015-03-08T09:27:50Z</time>
      </trkpt>
      <trkpt lat="43.60261" lon="6.24014">
        <ele>447.15</ele>
        <time>2015-03-08T09:28:03Z</time>
      </trkpt>
      <trkpt lat="43.60269" lon="6.23995">
        <ele>448.59</ele>
        <time>2015-03-08T09:28:16Z</time>
      </trkpt>
      <trkpt lat="43.60276" lon="6.23978">
        <ele>448.59</ele>
        <time>2015-03-08T09:28:27Z</time>
      </trkpt>
      <trkpt lat="43.60291" lon="6.23962">
        <ele>449.55</ele>
        <time>2015-03-08T09:28:42Z</time>
      </trkpt>
      <trkpt lat="43.60296" lon="6.23964">
        <ele>450.03</ele>
        <time>2015-03-08T09:28:47Z</time>
      </trkpt>
      <trkpt lat="43.60303" lon="6.2396">
        <ele>450.03</ele>
        <time>2015-03-08T09:28:54Z</time>
      </trkpt>
      <trkpt lat="43.60313" lon="6.23946">
        <ele>448.11</ele>
        <time>2015-03-08T09:29:01Z</time>
      </trkpt>
      <trkpt lat="43.6032" lon="6.23934">
        <ele>447.15</ele>
        <time>2015-03-08T09:29:08Z</time>
      </trkpt>
      <trkpt lat="43.60327" lon="6.2393">
        <ele>447.15</ele>
        <time>2015-03-08T09:29:13Z</time>
      </trkpt>
      <trkpt lat="43.60337" lon="6.23927">
        <ele>447.63</ele>
        <time>2015-03-08T09:29:21Z</time>
      </trkpt>
      <trkpt lat="43.60347" lon="6.23926">
        <ele>447.63</ele>
        <time>2015-03-08T09:29:28Z</time>
      </trkpt>
      <trkpt lat="43.6036" lon="6.23933">
        <ele>448.11</ele>
        <time>2015-03-08T09:29:42Z</time>
      </trkpt>
      <trkpt lat="43.6037" lon="6.23947">
        <ele>448.59</ele>
        <time>2015-03-08T09:29:55Z</time>
      </trkpt>
      <trkpt lat="43.60384" lon="6.23965">
        <ele>448.59</ele>
        <time>2015-03-08T09:30:06Z</time>
      </trkpt>
      <trkpt lat="43.60395" lon="6.23981">
        <ele>449.07</ele>
        <time>2015-03-08T09:30:17Z</time>
      </trkpt>
      <trkpt lat="43.6041" lon="6.24001">
        <ele>450.03</ele>
        <time>2015-03-08T09:30:33Z</time>
      </trkpt>
      <trkpt lat="43.60413" lon="6.24005">
        <ele>450.52</ele>
        <time>2015-03-08T09:30:37Z</time>
      </trkpt>
      <trkpt lat="43.60435" lon="6.2401">
        <ele>451</ele>
        <time>2015-03-08T09:30:52Z</time>
      </trkpt>
      <trkpt lat="43.60436" lon="6.2401">
        <ele>451</ele>
        <time>2015-03-08T09:30:53Z</time>
      </trkpt>
      <trkpt lat="43.60447" lon="6.24015">
        <ele>451.48</ele>
        <time>2015-03-08T09:31:06Z</time>
      </trkpt>
      <trkpt lat="43.60459" lon="6.24025">
        <ele>453.88</ele>
        <time>2015-03-08T09:31:19Z</time>
      </trkpt>
      <trkpt lat="43.60473" lon="6.24036">
        <ele>456.28</ele>
        <time>2015-03-08T09:31:31Z</time>
      </trkpt>
      <trkpt lat="43.60475" lon="6.24039">
        <ele>456.28</ele>
        <time>2015-03-08T09:31:35Z</time>
      </trkpt>
      <trkpt lat="43.60473" lon="6.24065">
        <ele>457.24</ele>
        <time>2015-03-08T09:31:53Z</time>
      </trkpt>
      <trkpt lat="43.60459" lon="6.24084">
        <ele>458.21</ele>
        <time>2015-03-08T09:32:08Z</time>
      </trkpt>
      <trkpt lat="43.60454" lon="6.24086">
        <ele>458.21</ele>
        <time>2015-03-08T09:32:13Z</time>
      </trkpt>
      <trkpt lat="43.60443" lon="6.24095">
        <ele>457.72</ele>
        <time>2015-03-08T09:32:22Z</time>
      </trkpt>
      <trkpt lat="43.6044" lon="6.24105">
        <ele>458.21</ele>
        <time>2015-03-08T09:32:27Z</time>
      </trkpt>
      <trkpt lat="43.60446" lon="6.24117">
        <ele>458.69</ele>
        <time>2015-03-08T09:32:35Z</time>
      </trkpt>
      <trkpt lat="43.60447" lon="6.2412">
        <ele>458.69</ele>
        <time>2015-03-08T09:32:37Z</time>
      </trkpt>
      <trkpt lat="43.60462" lon="6.2414">
        <ele>459.17</ele>
        <time>2015-03-08T09:32:52Z</time>
      </trkpt>
      <trkpt lat="43.60466" lon="6.24144">
        <ele>459.65</ele>
        <time>2015-03-08T09:32:58Z</time>
      </trkpt>
      <trkpt lat="43.60468" lon="6.24147">
        <ele>459.17</ele>
        <time>2015-03-08T09:33:00Z</time>
      </trkpt>
      <trkpt lat="43.60474" lon="6.24157">
        <ele>460.13</ele>
        <time>2015-03-08T09:33:06Z</time>
      </trkpt>
      <trkpt lat="43.60478" lon="6.24174">
        <ele>463.01</ele>
        <time>2015-03-08T09:33:16Z</time>
      </trkpt>
      <trkpt lat="43.60481" lon="6.24186">
        <ele>463.01</ele>
        <time>2015-03-08T09:33:27Z</time>
      </trkpt>
      <trkpt lat="43.60487" lon="6.24193">
        <ele>463.49</ele>
        <time>2015-03-08T09:33:31Z</time>
      </trkpt>
      <trkpt lat="43.60505" lon="6.242">
        <ele>467.82</ele>
        <time>2015-03-08T09:33:39Z</time>
      </trkpt>
      <trkpt lat="43.60506" lon="6.24201">
        <ele>467.82</ele>
        <time>2015-03-08T09:33:40Z</time>
      </trkpt>
      <trkpt lat="43.60508" lon="6.24203">
        <ele>467.34</ele>
        <time>2015-03-08T09:33:42Z</time>
      </trkpt>
      <trkpt lat="43.60512" lon="6.24204">
        <ele>466.86</ele>
        <time>2015-03-08T09:33:45Z</time>
      </trkpt>
      <trkpt lat="43.60514" lon="6.24205">
        <ele>467.34</ele>
        <time>2015-03-08T09:33:47Z</time>
      </trkpt>
      <trkpt lat="43.60527" lon="6.24223">
        <ele>466.86</ele>
        <time>2015-03-08T09:33:59Z</time>
      </trkpt>
      <trkpt lat="43.60529" lon="6.24226">
        <ele>466.86</ele>
        <time>2015-03-08T09:34:01Z</time>
      </trkpt>
      <trkpt lat="43.60536" lon="6.24236">
        <ele>467.34</ele>
        <time>2015-03-08T09:34:08Z</time>
      </trkpt>
      <trkpt lat="43.60541" lon="6.24265">
        <ele>468.3</ele>
        <time>2015-03-08T09:34:23Z</time>
      </trkpt>
      <trkpt lat="43.60543" lon="6.24291">
        <ele>469.26</ele>
        <time>2015-03-08T09:34:37Z</time>
      </trkpt>
      <trkpt lat="43.60541" lon="6.24311">
        <ele>468.78</ele>
        <time>2015-03-08T09:34:48Z</time>
      </trkpt>
      <trkpt lat="43.60537" lon="6.24326">
        <ele>467.82</ele>
        <time>2015-03-08T09:34:55Z</time>
      </trkpt>
      <trkpt lat="43.60538" lon="6.24353">
        <ele>468.78</ele>
        <time>2015-03-08T09:35:06Z</time>
      </trkpt>
      <trkpt lat="43.60539" lon="6.24355">
        <ele>468.78</ele>
        <time>2015-03-08T09:35:07Z</time>
      </trkpt>
      <trkpt lat="43.60543" lon="6.24362">
        <ele>469.26</ele>
        <time>2015-03-08T09:35:11Z</time>
      </trkpt>
      <trkpt lat="43.6055" lon="6.24368">
        <ele>469.74</ele>
        <time>2015-03-08T09:35:15Z</time>
      </trkpt>
      <trkpt lat="43.60554" lon="6.24374">
        <ele>470.22</ele>
        <time>2015-03-08T09:35:19Z</time>
      </trkpt>
      <trkpt lat="43.60576" lon="6.24383">
        <ele>471.66</ele>
        <time>2015-03-08T09:35:28Z</time>
      </trkpt>
      <trkpt lat="43.60583" lon="6.24387">
        <ele>472.63</ele>
        <time>2015-03-08T09:35:32Z</time>
      </trkpt>
      <trkpt lat="43.60585" lon="6.24386">
        <ele>473.11</ele>
        <time>2015-03-08T09:35:33Z</time>
      </trkpt>
      <trkpt lat="43.60589" lon="6.24385">
        <ele>474.55</ele>
        <time>2015-03-08T09:35:36Z</time>
      </trkpt>
      <trkpt lat="43.60596" lon="6.24383">
        <ele>474.55</ele>
        <time>2015-03-08T09:35:40Z</time>
      </trkpt>
      <trkpt lat="43.60606" lon="6.24373">
        <ele>474.07</ele>
        <time>2015-03-08T09:35:46Z</time>
      </trkpt>
      <trkpt lat="43.60618" lon="6.2437">
        <ele>473.59</ele>
        <time>2015-03-08T09:35:54Z</time>
      </trkpt>
      <trkpt lat="43.60637" lon="6.24368">
        <ele>472.63</ele>
        <time>2015-03-08T09:36:08Z</time>
      </trkpt>
      <trkpt lat="43.60638" lon="6.24368">
        <ele>472.63</ele>
        <time>2015-03-08T09:36:09Z</time>
      </trkpt>
      <trkpt lat="43.60651" lon="6.2437">
        <ele>471.18</ele>
        <time>2015-03-08T09:36:19Z</time>
      </trkpt>
      <trkpt lat="43.6066" lon="6.24372">
        <ele>469.74</ele>
        <time>2015-03-08T09:36:27Z</time>
      </trkpt>
      <trkpt lat="43.60668" lon="6.24372">
        <ele>469.74</ele>
        <time>2015-03-08T09:36:32Z</time>
      </trkpt>
      <trkpt lat="43.60683" lon="6.24372">
        <ele>469.26</ele>
        <time>2015-03-08T09:36:44Z</time>
      </trkpt>
      <trkpt lat="43.60691" lon="6.2437">
        <ele>468.78</ele>
        <time>2015-03-08T09:36:51Z</time>
      </trkpt>
      <trkpt lat="43.60709" lon="6.24367">
        <ele>468.3</ele>
        <time>2015-03-08T09:37:05Z</time>
      </trkpt>
      <trkpt lat="43.60718" lon="6.24368">
        <ele>467.82</ele>
        <time>2015-03-08T09:37:10Z</time>
      </trkpt>
      <trkpt lat="43.60735" lon="6.24376">
        <ele>468.78</ele>
        <time>2015-03-08T09:37:17Z</time>
      </trkpt>
      <trkpt lat="43.60761" lon="6.24391">
        <ele>469.74</ele>
        <time>2015-03-08T09:37:29Z</time>
      </trkpt>
      <trkpt lat="43.60776" lon="6.24411">
        <ele>470.7</ele>
        <time>2015-03-08T09:37:39Z</time>
      </trkpt>
      <trkpt lat="43.60782" lon="6.24419">
        <ele>471.18</ele>
        <time>2015-03-08T09:37:45Z</time>
      </trkpt>
      <trkpt lat="43.60803" lon="6.24439">
        <ele>472.14</ele>
        <time>2015-03-08T09:37:58Z</time>
      </trkpt>
      <trkpt lat="43.60821" lon="6.24463">
        <ele>472.14</ele>
        <time>2015-03-08T09:38:13Z</time>
      </trkpt>
      <trkpt lat="43.60833" lon="6.24485">
        <ele>472.63</ele>
        <time>2015-03-08T09:38:20Z</time>
      </trkpt>
      <trkpt lat="43.60836" lon="6.2449">
        <ele>473.59</ele>
        <time>2015-03-08T09:38:21Z</time>
      </trkpt>
      <trkpt lat="43.60838" lon="6.24495">
        <ele>473.59</ele>
        <time>2015-03-08T09:38:22Z</time>
      </trkpt>
      <trkpt lat="43.60841" lon="6.245">
        <ele>474.07</ele>
        <time>2015-03-08T09:38:23Z</time>
      </trkpt>
      <trkpt lat="43.60843" lon="6.24507">
        <ele>475.03</ele>
        <time>2015-03-08T09:38:24Z</time>
      </trkpt>
      <trkpt lat="43.60845" lon="6.24514">
        <ele>475.03</ele>
        <time>2015-03-08T09:38:25Z</time>
      </trkpt>
      <trkpt lat="43.60848" lon="6.2452">
        <ele>475.99</ele>
        <time>2015-03-08T09:38:26Z</time>
      </trkpt>
      <trkpt lat="43.60851" lon="6.24524">
        <ele>476.95</ele>
        <time>2015-03-08T09:38:27Z</time>
      </trkpt>
      <trkpt lat="43.60854" lon="6.24528">
        <ele>477.43</ele>
        <time>2015-03-08T09:38:28Z</time>
      </trkpt>
      <trkpt lat="43.6087" lon="6.24546">
        <ele>481.28</ele>
        <time>2015-03-08T09:38:32Z</time>
      </trkpt>
      <trkpt lat="43.60875" lon="6.24551">
        <ele>481.76</ele>
        <time>2015-03-08T09:38:33Z</time>
      </trkpt>
      <trkpt lat="43.60878" lon="6.24557">
        <ele>483.68</ele>
        <time>2015-03-08T09:38:34Z</time>
      </trkpt>
      <trkpt lat="43.60881" lon="6.24564">
        <ele>484.16</ele>
        <time>2015-03-08T09:38:35Z</time>
      </trkpt>
      <trkpt lat="43.60883" lon="6.2457">
        <ele>484.16</ele>
        <time>2015-03-08T09:38:36Z</time>
      </trkpt>
      <trkpt lat="43.60884" lon="6.24578">
        <ele>485.12</ele>
        <time>2015-03-08T09:38:37Z</time>
      </trkpt>
      <trkpt lat="43.60886" lon="6.24604">
        <ele>485.6</ele>
        <time>2015-03-08T09:38:40Z</time>
      </trkpt>
      <trkpt lat="43.60887" lon="6.24614">
        <ele>485.6</ele>
        <time>2015-03-08T09:38:41Z</time>
      </trkpt>
      <trkpt lat="43.60889" lon="6.24635">
        <ele>485.12</ele>
        <time>2015-03-08T09:38:43Z</time>
      </trkpt>
      <trkpt lat="43.60891" lon="6.24646">
        <ele>486.08</ele>
        <time>2015-03-08T09:38:44Z</time>
      </trkpt>
      <trkpt lat="43.60896" lon="6.24665">
        <ele>486.56</ele>
        <time>2015-03-08T09:38:46Z</time>
      </trkpt>
      <trkpt lat="43.60904" lon="6.24715">
        <ele>488.97</ele>
        <time>2015-03-08T09:38:51Z</time>
      </trkpt>
      <trkpt lat="43.60905" lon="6.24725">
        <ele>489.45</ele>
        <time>2015-03-08T09:38:52Z</time>
      </trkpt>
      <trkpt lat="43.60905" lon="6.24735">
        <ele>489.93</ele>
        <time>2015-03-08T09:38:53Z</time>
      </trkpt>
      <trkpt lat="43.60904" lon="6.24744">
        <ele>490.41</ele>
        <time>2015-03-08T09:38:54Z</time>
      </trkpt>
      <trkpt lat="43.60904" lon="6.24754">
        <ele>491.37</ele>
        <time>2015-03-08T09:38:55Z</time>
      </trkpt>
      <trkpt lat="43.60905" lon="6.24763">
        <ele>491.85</ele>
        <time>2015-03-08T09:38:56Z</time>
      </trkpt>
      <trkpt lat="43.60909" lon="6.24794">
        <ele>493.77</ele>
        <time>2015-03-08T09:38:59Z</time>
      </trkpt>
      <trkpt lat="43.60909" lon="6.24843">
        <ele>495.7</ele>
        <time>2015-03-08T09:39:04Z</time>
      </trkpt>
      <trkpt lat="43.60907" lon="6.24853">
        <ele>496.18</ele>
        <time>2015-03-08T09:39:05Z</time>
      </trkpt>
      <trkpt lat="43.60903" lon="6.24862">
        <ele>496.66</ele>
        <time>2015-03-08T09:39:06Z</time>
      </trkpt>
      <trkpt lat="43.60893" lon="6.24879">
        <ele>497.62</ele>
        <time>2015-03-08T09:39:08Z</time>
      </trkpt>
      <trkpt lat="43.60877" lon="6.24903">
        <ele>499.54</ele>
        <time>2015-03-08T09:39:11Z</time>
      </trkpt>
      <trkpt lat="43.60873" lon="6.24912">
        <ele>500.5</ele>
        <time>2015-03-08T09:39:12Z</time>
      </trkpt>
      <trkpt lat="43.60871" lon="6.24919">
        <ele>500.98</ele>
        <time>2015-03-08T09:39:13Z</time>
      </trkpt>
      <trkpt lat="43.60869" lon="6.24925">
        <ele>500.98</ele>
        <time>2015-03-08T09:39:14Z</time>
      </trkpt>
      <trkpt lat="43.60856" lon="6.24971">
        <ele>499.06</ele>
        <time>2015-03-08T09:39:23Z</time>
      </trkpt>
      <trkpt lat="43.60848" lon="6.24999">
        <ele>498.1</ele>
        <time>2015-03-08T09:39:34Z</time>
      </trkpt>
      <trkpt lat="43.60845" lon="6.25006">
        <ele>498.1</ele>
        <time>2015-03-08T09:39:38Z</time>
      </trkpt>
      <trkpt lat="43.60845" lon="6.25008">
        <ele>497.62</ele>
        <time>2015-03-08T09:39:39Z</time>
      </trkpt>
      <trkpt lat="43.60844" lon="6.2501">
        <ele>498.58</ele>
        <time>2015-03-08T09:39:40Z</time>
      </trkpt>
      <trkpt lat="43.60841" lon="6.25017">
        <ele>497.14</ele>
        <time>2015-03-08T09:39:44Z</time>
      </trkpt>
      <trkpt lat="43.60841" lon="6.2502">
        <ele>497.14</ele>
        <time>2015-03-08T09:39:45Z</time>
      </trkpt>
      <trkpt lat="43.6084" lon="6.25021">
        <ele>497.14</ele>
        <time>2015-03-08T09:39:46Z</time>
      </trkpt>
      <trkpt lat="43.60837" lon="6.2503">
        <ele>496.66</ele>
        <time>2015-03-08T09:39:51Z</time>
      </trkpt>
      <trkpt lat="43.60838" lon="6.25039">
        <ele>497.14</ele>
        <time>2015-03-08T09:39:56Z</time>
      </trkpt>
      <trkpt lat="43.60839" lon="6.2504">
        <ele>497.14</ele>
        <time>2015-03-08T09:39:57Z</time>
      </trkpt>
      <trkpt lat="43.6084" lon="6.25042">
        <ele>497.14</ele>
        <time>2015-03-08T09:39:59Z</time>
      </trkpt>
      <trkpt lat="43.60846" lon="6.25044">
        <ele>497.14</ele>
        <time>2015-03-08T09:40:12Z</time>
      </trkpt>
      <trkpt lat="43.60849" lon="6.25046">
        <ele>496.66</ele>
        <time>2015-03-08T09:40:25Z</time>
      </trkpt>
      <trkpt lat="43.60849" lon="6.25045">
        <ele>497.62</ele>
        <time>2015-03-08T09:40:43Z</time>
      </trkpt>
      <trkpt lat="43.6085" lon="6.25046">
        <ele>497.14</ele>
        <time>2015-03-08T09:40:46Z</time>
      </trkpt>
      <trkpt lat="43.60856" lon="6.25048">
        <ele>497.62</ele>
        <time>2015-03-08T09:40:51Z</time>
      </trkpt>
      <trkpt lat="43.60873" lon="6.25053">
        <ele>498.1</ele>
        <time>2015-03-08T09:41:02Z</time>
      </trkpt>
      <trkpt lat="43.60888" lon="6.25054">
        <ele>498.1</ele>
        <time>2015-03-08T09:41:08Z</time>
      </trkpt>
      <trkpt lat="43.60891" lon="6.25055">
        <ele>498.1</ele>
        <time>2015-03-08T09:41:09Z</time>
      </trkpt>
      <trkpt lat="43.60894" lon="6.25057">
        <ele>498.58</ele>
        <time>2015-03-08T09:41:10Z</time>
      </trkpt>
      <trkpt lat="43.60896" lon="6.25058">
        <ele>498.58</ele>
        <time>2015-03-08T09:41:11Z</time>
      </trkpt>
      <trkpt lat="43.60898" lon="6.2506">
        <ele>498.58</ele>
        <time>2015-03-08T09:41:12Z</time>
      </trkpt>
      <trkpt lat="43.609" lon="6.25062">
        <ele>498.58</ele>
        <time>2015-03-08T09:41:13Z</time>
      </trkpt>
      <trkpt lat="43.60902" lon="6.25063">
        <ele>498.58</ele>
        <time>2015-03-08T09:41:14Z</time>
      </trkpt>
      <trkpt lat="43.60904" lon="6.25064">
        <ele>498.58</ele>
        <time>2015-03-08T09:41:15Z</time>
      </trkpt>
      <trkpt lat="43.60907" lon="6.25066">
        <ele>499.06</ele>
        <time>2015-03-08T09:41:16Z</time>
      </trkpt>
      <trkpt lat="43.60909" lon="6.25068">
        <ele>499.06</ele>
        <time>2015-03-08T09:41:17Z</time>
      </trkpt>
      <trkpt lat="43.60911" lon="6.25071">
        <ele>499.06</ele>
        <time>2015-03-08T09:41:18Z</time>
      </trkpt>
      <trkpt lat="43.60913" lon="6.25073">
        <ele>499.54</ele>
        <time>2015-03-08T09:41:19Z</time>
      </trkpt>
      <trkpt lat="43.60916" lon="6.25076">
        <ele>499.54</ele>
        <time>2015-03-08T09:41:20Z</time>
      </trkpt>
      <trkpt lat="43.60932" lon="6.25106">
        <ele>501.46</ele>
        <time>2015-03-08T09:41:29Z</time>
      </trkpt>
      <trkpt lat="43.60941" lon="6.25154">
        <ele>503.39</ele>
        <time>2015-03-08T09:41:41Z</time>
      </trkpt>
      <trkpt lat="43.60933" lon="6.25202">
        <ele>503.87</ele>
        <time>2015-03-08T09:41:53Z</time>
      </trkpt>
      <trkpt lat="43.60937" lon="6.25243">
        <ele>506.27</ele>
        <time>2015-03-08T09:42:03Z</time>
      </trkpt>
      <trkpt lat="43.60947" lon="6.25284">
        <ele>509.16</ele>
        <time>2015-03-08T09:42:13Z</time>
      </trkpt>
      <trkpt lat="43.60956" lon="6.25318">
        <ele>512.52</ele>
        <time>2015-03-08T09:42:23Z</time>
      </trkpt>
      <trkpt lat="43.60975" lon="6.25353">
        <ele>515.4</ele>
        <time>2015-03-08T09:42:32Z</time>
      </trkpt>
      <trkpt lat="43.60985" lon="6.25383">
        <ele>517.33</ele>
        <time>2015-03-08T09:42:40Z</time>
      </trkpt>
      <trkpt lat="43.60984" lon="6.25408">
        <ele>520.69</ele>
        <time>2015-03-08T09:42:46Z</time>
      </trkpt>
      <trkpt lat="43.60984" lon="6.25418">
        <ele>522.13</ele>
        <time>2015-03-08T09:42:49Z</time>
      </trkpt>
      <trkpt lat="43.60983" lon="6.25422">
        <ele>523.09</ele>
        <time>2015-03-08T09:42:50Z</time>
      </trkpt>
      <trkpt lat="43.60979" lon="6.25433">
        <ele>524.06</ele>
        <time>2015-03-08T09:42:53Z</time>
      </trkpt>
      <trkpt lat="43.60978" lon="6.25436">
        <ele>524.06</ele>
        <time>2015-03-08T09:42:54Z</time>
      </trkpt>
      <trkpt lat="43.60974" lon="6.25442">
        <ele>525.98</ele>
        <time>2015-03-08T09:42:56Z</time>
      </trkpt>
      <trkpt lat="43.60965" lon="6.25456">
        <ele>527.42</ele>
        <time>2015-03-08T09:43:00Z</time>
      </trkpt>
      <trkpt lat="43.60965" lon="6.25466">
        <ele>528.38</ele>
        <time>2015-03-08T09:43:02Z</time>
      </trkpt>
      <trkpt lat="43.60965" lon="6.25504">
        <ele>532.23</ele>
        <time>2015-03-08T09:43:10Z</time>
      </trkpt>
      <trkpt lat="43.60969" lon="6.25531">
        <ele>534.63</ele>
        <time>2015-03-08T09:43:17Z</time>
      </trkpt>
      <trkpt lat="43.60973" lon="6.25544">
        <ele>536.07</ele>
        <time>2015-03-08T09:43:20Z</time>
      </trkpt>
      <trkpt lat="43.60968" lon="6.25579">
        <ele>538.96</ele>
        <time>2015-03-08T09:43:29Z</time>
      </trkpt>
      <trkpt lat="43.6096" lon="6.25612">
        <ele>540.4</ele>
        <time>2015-03-08T09:43:38Z</time>
      </trkpt>
      <trkpt lat="43.60952" lon="6.25642">
        <ele>539.92</ele>
        <time>2015-03-08T09:43:51Z</time>
      </trkpt>
      <trkpt lat="43.60949" lon="6.2565">
        <ele>539.44</ele>
        <time>2015-03-08T09:43:54Z</time>
      </trkpt>
      <trkpt lat="43.60942" lon="6.25679">
        <ele>537.51</ele>
        <time>2015-03-08T09:44:07Z</time>
      </trkpt>
      <trkpt lat="43.60938" lon="6.25695">
        <ele>536.55</ele>
        <time>2015-03-08T09:44:14Z</time>
      </trkpt>
      <trkpt lat="43.60937" lon="6.25704">
        <ele>536.07</ele>
        <time>2015-03-08T09:44:19Z</time>
      </trkpt>
      <trkpt lat="43.60936" lon="6.25725">
        <ele>535.11</ele>
        <time>2015-03-08T09:44:28Z</time>
      </trkpt>
      <trkpt lat="43.60934" lon="6.25735">
        <ele>534.63</ele>
        <time>2015-03-08T09:44:33Z</time>
      </trkpt>
      <trkpt lat="43.60929" lon="6.25763">
        <ele>534.15</ele>
        <time>2015-03-08T09:44:48Z</time>
      </trkpt>
      <trkpt lat="43.60924" lon="6.25781">
        <ele>534.15</ele>
        <time>2015-03-08T09:44:59Z</time>
      </trkpt>
      <trkpt lat="43.60927" lon="6.2579">
        <ele>534.15</ele>
        <time>2015-03-08T09:45:06Z</time>
      </trkpt>
      <trkpt lat="43.6093" lon="6.25796">
        <ele>533.67</ele>
        <time>2015-03-08T09:45:09Z</time>
      </trkpt>
      <trkpt lat="43.60936" lon="6.25806">
        <ele>533.67</ele>
        <time>2015-03-08T09:45:16Z</time>
      </trkpt>
      <trkpt lat="43.60942" lon="6.2581">
        <ele>534.15</ele>
        <time>2015-03-08T09:45:21Z</time>
      </trkpt>
      <trkpt lat="43.60946" lon="6.25818">
        <ele>534.15</ele>
        <time>2015-03-08T09:45:26Z</time>
      </trkpt>
      <trkpt lat="43.60957" lon="6.25851">
        <ele>535.11</ele>
        <time>2015-03-08T09:45:44Z</time>
      </trkpt>
      <trkpt lat="43.60959" lon="6.25854">
        <ele>535.11</ele>
        <time>2015-03-08T09:45:46Z</time>
      </trkpt>
      <trkpt lat="43.60971" lon="6.25883">
        <ele>536.07</ele>
        <time>2015-03-08T09:46:03Z</time>
      </trkpt>
      <trkpt lat="43.60978" lon="6.25905">
        <ele>536.55</ele>
        <time>2015-03-08T09:46:16Z</time>
      </trkpt>
      <trkpt lat="43.6098" lon="6.25911">
        <ele>537.03</ele>
        <time>2015-03-08T09:46:19Z</time>
      </trkpt>
      <trkpt lat="43.6099" lon="6.25937">
        <ele>538.48</ele>
        <time>2015-03-08T09:46:35Z</time>
      </trkpt>
      <trkpt lat="43.61005" lon="6.2596">
        <ele>538.96</ele>
        <time>2015-03-08T09:46:49Z</time>
      </trkpt>
      <trkpt lat="43.61019" lon="6.25984">
        <ele>537.99</ele>
        <time>2015-03-08T09:47:04Z</time>
      </trkpt>
      <trkpt lat="43.61031" lon="6.26004">
        <ele>537.03</ele>
        <time>2015-03-08T09:47:18Z</time>
      </trkpt>
      <trkpt lat="43.61049" lon="6.26019">
        <ele>537.03</ele>
        <time>2015-03-08T09:47:33Z</time>
      </trkpt>
      <trkpt lat="43.61061" lon="6.26037">
        <ele>537.51</ele>
        <time>2015-03-08T09:47:45Z</time>
      </trkpt>
      <trkpt lat="43.61063" lon="6.26051">
        <ele>538.48</ele>
        <time>2015-03-08T09:47:55Z</time>
      </trkpt>
      <trkpt lat="43.61072" lon="6.26067">
        <ele>538.48</ele>
        <time>2015-03-08T09:48:07Z</time>
      </trkpt>
      <trkpt lat="43.6109" lon="6.26086">
        <ele>538.96</ele>
        <time>2015-03-08T09:48:22Z</time>
      </trkpt>
      <trkpt lat="43.61105" lon="6.26098">
        <ele>539.44</ele>
        <time>2015-03-08T09:48:36Z</time>
      </trkpt>
      <trkpt lat="43.61105" lon="6.26098">
        <ele>539.44</ele>
        <time>2015-03-08T09:48:37Z</time>
      </trkpt>
      <trkpt lat="43.61121" lon="6.26096">
        <ele>539.92</ele>
        <time>2015-03-08T09:48:48Z</time>
      </trkpt>
      <trkpt lat="43.61138" lon="6.26097">
        <ele>539.44</ele>
        <time>2015-03-08T09:49:03Z</time>
      </trkpt>
      <trkpt lat="43.6114" lon="6.26098">
        <ele>539.44</ele>
        <time>2015-03-08T09:49:05Z</time>
      </trkpt>
      <trkpt lat="43.61161" lon="6.26118">
        <ele>537.99</ele>
        <time>2015-03-08T09:49:20Z</time>
      </trkpt>
      <trkpt lat="43.61172" lon="6.26117">
        <ele>537.51</ele>
        <time>2015-03-08T09:49:29Z</time>
      </trkpt>
      <trkpt lat="43.61195" lon="6.26106">
        <ele>537.51</ele>
        <time>2015-03-08T09:49:45Z</time>
      </trkpt>
      <trkpt lat="43.6121" lon="6.26099">
        <ele>537.51</ele>
        <time>2015-03-08T09:49:57Z</time>
      </trkpt>
      <trkpt lat="43.61232" lon="6.26085">
        <ele>537.51</ele>
        <time>2015-03-08T09:50:15Z</time>
      </trkpt>
      <trkpt lat="43.61248" lon="6.26076">
        <ele>537.99</ele>
        <time>2015-03-08T09:50:29Z</time>
      </trkpt>
      <trkpt lat="43.61269" lon="6.26078">
        <ele>537.99</ele>
        <time>2015-03-08T09:50:44Z</time>
      </trkpt>
      <trkpt lat="43.61284" lon="6.26067">
        <ele>538.96</ele>
        <time>2015-03-08T09:50:58Z</time>
      </trkpt>
      <trkpt lat="43.61296" lon="6.26039">
        <ele>539.44</ele>
        <time>2015-03-08T09:51:09Z</time>
      </trkpt>
      <trkpt lat="43.61322" lon="6.26004">
        <ele>541.36</ele>
        <time>2015-03-08T09:51:21Z</time>
      </trkpt>
      <trkpt lat="43.61353" lon="6.25978">
        <ele>541.84</ele>
        <time>2015-03-08T09:51:31Z</time>
      </trkpt>
      <trkpt lat="43.61366" lon="6.25975">
        <ele>542.32</ele>
        <time>2015-03-08T09:51:34Z</time>
      </trkpt>
      <trkpt lat="43.61413" lon="6.25974">
        <ele>542.32</ele>
        <time>2015-03-08T09:51:45Z</time>
      </trkpt>
      <trkpt lat="43.61448" lon="6.25978">
        <ele>542.32</ele>
        <time>2015-03-08T09:51:56Z</time>
      </trkpt>
      <trkpt lat="43.61462" lon="6.25988">
        <ele>539.44</ele>
        <time>2015-03-08T09:52:09Z</time>
      </trkpt>
      <trkpt lat="43.61487" lon="6.25986">
        <ele>537.51</ele>
        <time>2015-03-08T09:52:20Z</time>
      </trkpt>
      <trkpt lat="43.61504" lon="6.25983">
        <ele>535.11</ele>
        <time>2015-03-08T09:52:32Z</time>
      </trkpt>
      <trkpt lat="43.61523" lon="6.25973">
        <ele>531.75</ele>
        <time>2015-03-08T09:52:45Z</time>
      </trkpt>
      <trkpt lat="43.61524" lon="6.25972">
        <ele>531.27</ele>
        <time>2015-03-08T09:52:46Z</time>
      </trkpt>
      <trkpt lat="43.61525" lon="6.2597">
        <ele>531.27</ele>
        <time>2015-03-08T09:52:47Z</time>
      </trkpt>
      <trkpt lat="43.61529" lon="6.25961">
        <ele>530.3</ele>
        <time>2015-03-08T09:52:52Z</time>
      </trkpt>
      <trkpt lat="43.61529" lon="6.25958">
        <ele>529.82</ele>
        <time>2015-03-08T09:52:53Z</time>
      </trkpt>
      <trkpt lat="43.6153" lon="6.25956">
        <ele>529.82</ele>
        <time>2015-03-08T09:52:54Z</time>
      </trkpt>
      <trkpt lat="43.61531" lon="6.25954">
        <ele>529.34</ele>
        <time>2015-03-08T09:52:55Z</time>
      </trkpt>
      <trkpt lat="43.61531" lon="6.25952">
        <ele>529.34</ele>
        <time>2015-03-08T09:52:56Z</time>
      </trkpt>
      <trkpt lat="43.61534" lon="6.25946">
        <ele>527.9</ele>
        <time>2015-03-08T09:52:59Z</time>
      </trkpt>
      <trkpt lat="43.6154" lon="6.2592">
        <ele>525.02</ele>
        <time>2015-03-08T09:53:13Z</time>
      </trkpt>
      <trkpt lat="43.6154" lon="6.25914">
        <ele>523.58</ele>
        <time>2015-03-08T09:53:16Z</time>
      </trkpt>
      <trkpt lat="43.61552" lon="6.25894">
        <ele>521.17</ele>
        <time>2015-03-08T09:53:28Z</time>
      </trkpt>
      <trkpt lat="43.61558" lon="6.2588">
        <ele>522.61</ele>
        <time>2015-03-08T09:53:38Z</time>
      </trkpt>
      <trkpt lat="43.61562" lon="6.25869">
        <ele>524.54</ele>
        <time>2015-03-08T09:53:43Z</time>
      </trkpt>
      <trkpt lat="43.6157" lon="6.25849">
        <ele>525.5</ele>
        <time>2015-03-08T09:53:54Z</time>
      </trkpt>
      <trkpt lat="43.61588" lon="6.25838">
        <ele>526.94</ele>
        <time>2015-03-08T09:54:10Z</time>
      </trkpt>
      <trkpt lat="43.61609" lon="6.25845">
        <ele>529.34</ele>
        <time>2015-03-08T09:54:27Z</time>
      </trkpt>
      <trkpt lat="43.61621" lon="6.2585">
        <ele>530.3</ele>
        <time>2015-03-08T09:54:42Z</time>
      </trkpt>
      <trkpt lat="43.61643" lon="6.25853">
        <ele>531.27</ele>
        <time>2015-03-08T09:54:57Z</time>
      </trkpt>
      <trkpt lat="43.61672" lon="6.25855">
        <ele>533.67</ele>
        <time>2015-03-08T09:55:14Z</time>
      </trkpt>
      <trkpt lat="43.61687" lon="6.25857">
        <ele>535.11</ele>
        <time>2015-03-08T09:55:28Z</time>
      </trkpt>
      <trkpt lat="43.61705" lon="6.25866">
        <ele>536.55</ele>
        <time>2015-03-08T09:55:46Z</time>
      </trkpt>
      <trkpt lat="43.6173" lon="6.25872">
        <ele>538.96</ele>
        <time>2015-03-08T09:56:04Z</time>
      </trkpt>
      <trkpt lat="43.61739" lon="6.25884">
        <ele>539.92</ele>
        <time>2015-03-08T09:56:13Z</time>
      </trkpt>
      <trkpt lat="43.61741" lon="6.25888">
        <ele>540.4</ele>
        <time>2015-03-08T09:56:16Z</time>
      </trkpt>
      <trkpt lat="43.61759" lon="6.25903">
        <ele>542.32</ele>
        <time>2015-03-08T09:56:33Z</time>
      </trkpt>
      <trkpt lat="43.61769" lon="6.25901">
        <ele>543.28</ele>
        <time>2015-03-08T09:56:40Z</time>
      </trkpt>
      <trkpt lat="43.61775" lon="6.259">
        <ele>543.76</ele>
        <time>2015-03-08T09:56:45Z</time>
      </trkpt>
      <trkpt lat="43.6179" lon="6.25892">
        <ele>544.72</ele>
        <time>2015-03-08T09:57:00Z</time>
      </trkpt>
      <trkpt lat="43.618" lon="6.25896">
        <ele>545.69</ele>
        <time>2015-03-08T09:57:09Z</time>
      </trkpt>
      <trkpt lat="43.61816" lon="6.25893">
        <ele>546.17</ele>
        <time>2015-03-08T09:57:24Z</time>
      </trkpt>
      <trkpt lat="43.61829" lon="6.25878">
        <ele>545.69</ele>
        <time>2015-03-08T09:57:38Z</time>
      </trkpt>
      <trkpt lat="43.61837" lon="6.25868">
        <ele>545.69</ele>
        <time>2015-03-08T09:57:46Z</time>
      </trkpt>
      <trkpt lat="43.61852" lon="6.25855">
        <ele>544.72</ele>
        <time>2015-03-08T09:57:58Z</time>
      </trkpt>
      <trkpt lat="43.61859" lon="6.25845">
        <ele>544.72</ele>
        <time>2015-03-08T09:58:08Z</time>
      </trkpt>
      <trkpt lat="43.6186" lon="6.25844">
        <ele>544.72</ele>
        <time>2015-03-08T09:58:09Z</time>
      </trkpt>
      <trkpt lat="43.61872" lon="6.25823">
        <ele>545.2</ele>
        <time>2015-03-08T09:58:23Z</time>
      </trkpt>
      <trkpt lat="43.61889" lon="6.25797">
        <ele>546.17</ele>
        <time>2015-03-08T09:58:39Z</time>
      </trkpt>
      <trkpt lat="43.61902" lon="6.25783">
        <ele>547.61</ele>
        <time>2015-03-08T09:58:53Z</time>
      </trkpt>
      <trkpt lat="43.61914" lon="6.25762">
        <ele>549.05</ele>
        <time>2015-03-08T09:59:07Z</time>
      </trkpt>
      <trkpt lat="43.61927" lon="6.25746">
        <ele>550.01</ele>
        <time>2015-03-08T09:59:22Z</time>
      </trkpt>
      <trkpt lat="43.61942" lon="6.25734">
        <ele>551.45</ele>
        <time>2015-03-08T09:59:36Z</time>
      </trkpt>
      <trkpt lat="43.61956" lon="6.2572">
        <ele>552.41</ele>
        <time>2015-03-08T09:59:50Z</time>
      </trkpt>
      <trkpt lat="43.6196" lon="6.25715">
        <ele>552.9</ele>
        <time>2015-03-08T09:59:55Z</time>
      </trkpt>
      <trkpt lat="43.61971" lon="6.25688">
        <ele>554.34</ele>
        <time>2015-03-08T10:00:13Z</time>
      </trkpt>
      <trkpt lat="43.61985" lon="6.25667">
        <ele>555.78</ele>
        <time>2015-03-08T10:00:31Z</time>
      </trkpt>
      <trkpt lat="43.61993" lon="6.25657">
        <ele>557.22</ele>
        <time>2015-03-08T10:00:40Z</time>
      </trkpt>
      <trkpt lat="43.61994" lon="6.25655">
        <ele>557.22</ele>
        <time>2015-03-08T10:00:41Z</time>
      </trkpt>
      <trkpt lat="43.62001" lon="6.25644">
        <ele>560.11</ele>
        <time>2015-03-08T10:00:50Z</time>
      </trkpt>
      <trkpt lat="43.62008" lon="6.25635">
        <ele>561.07</ele>
        <time>2015-03-08T10:00:56Z</time>
      </trkpt>
      <trkpt lat="43.62018" lon="6.25615">
        <ele>562.03</ele>
        <time>2015-03-08T10:01:10Z</time>
      </trkpt>
      <trkpt lat="43.62018" lon="6.25604">
        <ele>562.51</ele>
        <time>2015-03-08T10:01:16Z</time>
      </trkpt>
      <trkpt lat="43.62019" lon="6.25572">
        <ele>563.47</ele>
        <time>2015-03-08T10:01:31Z</time>
      </trkpt>
      <trkpt lat="43.6202" lon="6.25568">
        <ele>563.47</ele>
        <time>2015-03-08T10:01:33Z</time>
      </trkpt>
      <trkpt lat="43.62027" lon="6.25555">
        <ele>564.91</ele>
        <time>2015-03-08T10:01:42Z</time>
      </trkpt>
      <trkpt lat="43.62028" lon="6.25554">
        <ele>564.43</ele>
        <time>2015-03-08T10:01:43Z</time>
      </trkpt>
      <trkpt lat="43.62029" lon="6.25552">
        <ele>564.43</ele>
        <time>2015-03-08T10:01:44Z</time>
      </trkpt>
      <trkpt lat="43.62031" lon="6.25539">
        <ele>564.91</ele>
        <time>2015-03-08T10:01:54Z</time>
      </trkpt>
      <trkpt lat="43.62032" lon="6.25538">
        <ele>564.91</ele>
        <time>2015-03-08T10:01:55Z</time>
      </trkpt>
      <trkpt lat="43.62033" lon="6.25537">
        <ele>564.91</ele>
        <time>2015-03-08T10:01:56Z</time>
      </trkpt>
      <trkpt lat="43.62048" lon="6.25518">
        <ele>566.83</ele>
        <time>2015-03-08T10:02:11Z</time>
      </trkpt>
      <trkpt lat="43.6206" lon="6.25502">
        <ele>567.32</ele>
        <time>2015-03-08T10:02:25Z</time>
      </trkpt>
      <trkpt lat="43.62067" lon="6.25484">
        <ele>568.28</ele>
        <time>2015-03-08T10:02:37Z</time>
      </trkpt>
      <trkpt lat="43.62074" lon="6.25461">
        <ele>569.24</ele>
        <time>2015-03-08T10:02:52Z</time>
      </trkpt>
      <trkpt lat="43.62081" lon="6.25438">
        <ele>570.2</ele>
        <time>2015-03-08T10:03:06Z</time>
      </trkpt>
      <trkpt lat="43.6209" lon="6.2541">
        <ele>571.64</ele>
        <time>2015-03-08T10:03:22Z</time>
      </trkpt>
      <trkpt lat="43.62103" lon="6.25403">
        <ele>572.6</ele>
        <time>2015-03-08T10:03:38Z</time>
      </trkpt>
      <trkpt lat="43.62105" lon="6.25401">
        <ele>572.6</ele>
        <time>2015-03-08T10:03:40Z</time>
      </trkpt>
      <trkpt lat="43.62112" lon="6.25387">
        <ele>572.6</ele>
        <time>2015-03-08T10:03:53Z</time>
      </trkpt>
      <trkpt lat="43.62116" lon="6.25384">
        <ele>573.08</ele>
        <time>2015-03-08T10:04:08Z</time>
      </trkpt>
      <trkpt lat="43.62115" lon="6.25383">
        <ele>573.08</ele>
        <time>2015-03-08T10:04:32Z</time>
      </trkpt>
      <trkpt lat="43.62116" lon="6.25383">
        <ele>573.08</ele>
        <time>2015-03-08T10:04:59Z</time>
      </trkpt>
      <trkpt lat="43.6212" lon="6.25371">
        <ele>573.08</ele>
        <time>2015-03-08T10:05:13Z</time>
      </trkpt>
      <trkpt lat="43.62125" lon="6.2535">
        <ele>573.08</ele>
        <time>2015-03-08T10:05:28Z</time>
      </trkpt>
      <trkpt lat="43.62131" lon="6.25334">
        <ele>573.08</ele>
        <time>2015-03-08T10:05:42Z</time>
      </trkpt>
      <trkpt lat="43.62141" lon="6.25309">
        <ele>573.56</ele>
        <time>2015-03-08T10:05:57Z</time>
      </trkpt>
      <trkpt lat="43.6215" lon="6.25291">
        <ele>574.04</ele>
        <time>2015-03-08T10:06:10Z</time>
      </trkpt>
      <trkpt lat="43.62158" lon="6.25285">
        <ele>575.01</ele>
        <time>2015-03-08T10:06:22Z</time>
      </trkpt>
      <trkpt lat="43.62165" lon="6.25288">
        <ele>575.49</ele>
        <time>2015-03-08T10:06:27Z</time>
      </trkpt>
      <trkpt lat="43.62181" lon="6.25304">
        <ele>578.85</ele>
        <time>2015-03-08T10:06:35Z</time>
      </trkpt>
      <trkpt lat="43.62183" lon="6.25317">
        <ele>581.25</ele>
        <time>2015-03-08T10:06:40Z</time>
      </trkpt>
      <trkpt lat="43.62186" lon="6.25319">
        <ele>580.29</ele>
        <time>2015-03-08T10:06:54Z</time>
      </trkpt>
      <trkpt lat="43.62188" lon="6.25323">
        <ele>581.73</ele>
        <time>2015-03-08T10:07:05Z</time>
      </trkpt>
      <trkpt lat="43.62195" lon="6.25321">
        <ele>583.18</ele>
        <time>2015-03-08T10:07:16Z</time>
      </trkpt>
      <trkpt lat="43.62208" lon="6.25307">
        <ele>586.06</ele>
        <time>2015-03-08T10:07:30Z</time>
      </trkpt>
      <trkpt lat="43.62224" lon="6.25305">
        <ele>589.43</ele>
        <time>2015-03-08T10:07:43Z</time>
      </trkpt>
      <trkpt lat="43.6223" lon="6.25311">
        <ele>589.91</ele>
        <time>2015-03-08T10:08:01Z</time>
      </trkpt>
      <trkpt lat="43.62229" lon="6.25312">
        <ele>589.91</ele>
        <time>2015-03-08T10:08:21Z</time>
      </trkpt>
      <trkpt lat="43.6223" lon="6.2531">
        <ele>590.39</ele>
        <time>2015-03-08T10:08:42Z</time>
      </trkpt>
      <trkpt lat="43.62243" lon="6.25295">
        <ele>592.31</ele>
        <time>2015-03-08T10:08:57Z</time>
      </trkpt>
      <trkpt lat="43.6225" lon="6.25283">
        <ele>593.27</ele>
        <time>2015-03-08T10:09:13Z</time>
      </trkpt>
      <trkpt lat="43.62255" lon="6.25284">
        <ele>594.71</ele>
        <time>2015-03-08T10:09:27Z</time>
      </trkpt>
      <trkpt lat="43.6226" lon="6.25291">
        <ele>596.64</ele>
        <time>2015-03-08T10:09:40Z</time>
      </trkpt>
      <trkpt lat="43.62263" lon="6.2531">
        <ele>597.6</ele>
        <time>2015-03-08T10:09:51Z</time>
      </trkpt>
      <trkpt lat="43.62266" lon="6.25321">
        <ele>598.56</ele>
        <time>2015-03-08T10:10:03Z</time>
      </trkpt>
      <trkpt lat="43.62269" lon="6.2533">
        <ele>599.52</ele>
        <time>2015-03-08T10:10:13Z</time>
      </trkpt>
      <trkpt lat="43.62273" lon="6.25332">
        <ele>600</ele>
        <time>2015-03-08T10:10:25Z</time>
      </trkpt>
      <trkpt lat="43.62277" lon="6.25334">
        <ele>600.96</ele>
        <time>2015-03-08T10:10:31Z</time>
      </trkpt>
      <trkpt lat="43.62289" lon="6.25335">
        <ele>602.88</ele>
        <time>2015-03-08T10:10:46Z</time>
      </trkpt>
      <trkpt lat="43.62306" lon="6.25348">
        <ele>605.77</ele>
        <time>2015-03-08T10:11:02Z</time>
      </trkpt>
      <trkpt lat="43.62312" lon="6.25377">
        <ele>607.69</ele>
        <time>2015-03-08T10:11:17Z</time>
      </trkpt>
      <trkpt lat="43.62314" lon="6.25384">
        <ele>608.65</ele>
        <time>2015-03-08T10:11:23Z</time>
      </trkpt>
      <trkpt lat="43.62328" lon="6.25395">
        <ele>611.06</ele>
        <time>2015-03-08T10:11:37Z</time>
      </trkpt>
      <trkpt lat="43.6234" lon="6.25402">
        <ele>613.94</ele>
        <time>2015-03-08T10:11:50Z</time>
      </trkpt>
      <trkpt lat="43.6235" lon="6.25416">
        <ele>615.86</ele>
        <time>2015-03-08T10:12:03Z</time>
      </trkpt>
      <trkpt lat="43.62362" lon="6.25431">
        <ele>617.3</ele>
        <time>2015-03-08T10:12:16Z</time>
      </trkpt>
      <trkpt lat="43.62363" lon="6.25433">
        <ele>617.78</ele>
        <time>2015-03-08T10:12:17Z</time>
      </trkpt>
      <trkpt lat="43.62363" lon="6.25435">
        <ele>617.78</ele>
        <time>2015-03-08T10:12:18Z</time>
      </trkpt>
      <trkpt lat="43.62364" lon="6.2544">
        <ele>618.26</ele>
        <time>2015-03-08T10:12:22Z</time>
      </trkpt>
      <trkpt lat="43.62364" lon="6.25455">
        <ele>619.71</ele>
        <time>2015-03-08T10:12:34Z</time>
      </trkpt>
      <trkpt lat="43.62364" lon="6.25453">
        <ele>620.19</ele>
        <time>2015-03-08T10:12:51Z</time>
      </trkpt>
      <trkpt lat="43.62364" lon="6.25453">
        <ele>620.19</ele>
        <time>2015-03-08T10:13:17Z</time>
      </trkpt>
      <trkpt lat="43.62373" lon="6.25471">
        <ele>621.63</ele>
        <time>2015-03-08T10:13:34Z</time>
      </trkpt>
      <trkpt lat="43.62381" lon="6.25487">
        <ele>622.59</ele>
        <time>2015-03-08T10:13:48Z</time>
      </trkpt>
      <trkpt lat="43.62387" lon="6.25507">
        <ele>624.03</ele>
        <time>2015-03-08T10:14:02Z</time>
      </trkpt>
      <trkpt lat="43.62395" lon="6.25524">
        <ele>625.47</ele>
        <time>2015-03-08T10:14:16Z</time>
      </trkpt>
      <trkpt lat="43.62405" lon="6.25545">
        <ele>626.92</ele>
        <time>2015-03-08T10:14:30Z</time>
      </trkpt>
      <trkpt lat="43.62413" lon="6.25561">
        <ele>628.84</ele>
        <time>2015-03-08T10:14:44Z</time>
      </trkpt>
      <trkpt lat="43.62424" lon="6.25574">
        <ele>630.76</ele>
        <time>2015-03-08T10:14:58Z</time>
      </trkpt>
      <trkpt lat="43.62434" lon="6.2559">
        <ele>632.68</ele>
        <time>2015-03-08T10:15:12Z</time>
      </trkpt>
      <trkpt lat="43.62449" lon="6.25607">
        <ele>635.57</ele>
        <time>2015-03-08T10:15:31Z</time>
      </trkpt>
      <trkpt lat="43.6246" lon="6.25631">
        <ele>637.49</ele>
        <time>2015-03-08T10:15:48Z</time>
      </trkpt>
      <trkpt lat="43.62472" lon="6.25653">
        <ele>637.97</ele>
        <time>2015-03-08T10:16:06Z</time>
      </trkpt>
      <trkpt lat="43.62479" lon="6.25667">
        <ele>638.45</ele>
        <time>2015-03-08T10:16:17Z</time>
      </trkpt>
      <trkpt lat="43.62482" lon="6.25674">
        <ele>638.45</ele>
        <time>2015-03-08T10:16:22Z</time>
      </trkpt>
      <trkpt lat="43.62482" lon="6.25676">
        <ele>638.45</ele>
        <time>2015-03-08T10:16:23Z</time>
      </trkpt>
      <trkpt lat="43.62483" lon="6.25678">
        <ele>638.45</ele>
        <time>2015-03-08T10:16:24Z</time>
      </trkpt>
      <trkpt lat="43.62484" lon="6.25684">
        <ele>638.93</ele>
        <time>2015-03-08T10:16:30Z</time>
      </trkpt>
      <trkpt lat="43.62489" lon="6.25704">
        <ele>639.41</ele>
        <time>2015-03-08T10:16:42Z</time>
      </trkpt>
      <trkpt lat="43.62489" lon="6.25717">
        <ele>640.38</ele>
        <time>2015-03-08T10:16:54Z</time>
      </trkpt>
      <trkpt lat="43.62489" lon="6.25726">
        <ele>640.86</ele>
        <time>2015-03-08T10:17:01Z</time>
      </trkpt>
      <trkpt lat="43.62492" lon="6.25746">
        <ele>641.82</ele>
        <time>2015-03-08T10:17:12Z</time>
      </trkpt>
      <trkpt lat="43.62493" lon="6.25747">
        <ele>641.82</ele>
        <time>2015-03-08T10:17:13Z</time>
      </trkpt>
      <trkpt lat="43.62493" lon="6.25771">
        <ele>643.74</ele>
        <time>2015-03-08T10:17:24Z</time>
      </trkpt>
      <trkpt lat="43.62492" lon="6.25793">
        <ele>645.18</ele>
        <time>2015-03-08T10:17:36Z</time>
      </trkpt>
      <trkpt lat="43.62494" lon="6.25815">
        <ele>647.59</ele>
        <time>2015-03-08T10:17:49Z</time>
      </trkpt>
      <trkpt lat="43.62501" lon="6.25835">
        <ele>648.55</ele>
        <time>2015-03-08T10:18:05Z</time>
      </trkpt>
      <trkpt lat="43.62512" lon="6.25852">
        <ele>649.03</ele>
        <time>2015-03-08T10:18:20Z</time>
      </trkpt>
      <trkpt lat="43.62519" lon="6.2587">
        <ele>649.51</ele>
        <time>2015-03-08T10:18:33Z</time>
      </trkpt>
      <trkpt lat="43.62522" lon="6.25888">
        <ele>650.47</ele>
        <time>2015-03-08T10:18:46Z</time>
      </trkpt>
      <trkpt lat="43.62517" lon="6.25919">
        <ele>651.91</ele>
        <time>2015-03-08T10:19:04Z</time>
      </trkpt>
      <trkpt lat="43.62511" lon="6.25935">
        <ele>652.87</ele>
        <time>2015-03-08T10:19:16Z</time>
      </trkpt>
      <trkpt lat="43.62508" lon="6.25951">
        <ele>653.35</ele>
        <time>2015-03-08T10:19:36Z</time>
      </trkpt>
      <trkpt lat="43.62515" lon="6.25974">
        <ele>656.72</ele>
        <time>2015-03-08T10:19:51Z</time>
      </trkpt>
      <trkpt lat="43.62521" lon="6.25994">
        <ele>658.64</ele>
        <time>2015-03-08T10:20:07Z</time>
      </trkpt>
      <trkpt lat="43.6252" lon="6.26009">
        <ele>661.52</ele>
        <time>2015-03-08T10:20:22Z</time>
      </trkpt>
      <trkpt lat="43.62516" lon="6.26025">
        <ele>662.49</ele>
        <time>2015-03-08T10:20:35Z</time>
      </trkpt>
      <trkpt lat="43.62517" lon="6.26032">
        <ele>663.93</ele>
        <time>2015-03-08T10:20:48Z</time>
      </trkpt>
      <trkpt lat="43.6252" lon="6.26056">
        <ele>666.81</ele>
        <time>2015-03-08T10:21:05Z</time>
      </trkpt>
      <trkpt lat="43.62517" lon="6.2607">
        <ele>667.77</ele>
        <time>2015-03-08T10:21:21Z</time>
      </trkpt>
      <trkpt lat="43.62519" lon="6.26077">
        <ele>669.7</ele>
        <time>2015-03-08T10:21:35Z</time>
      </trkpt>
      <trkpt lat="43.62517" lon="6.26083">
        <ele>670.66</ele>
        <time>2015-03-08T10:21:51Z</time>
      </trkpt>
      <trkpt lat="43.62511" lon="6.26113">
        <ele>673.06</ele>
        <time>2015-03-08T10:22:04Z</time>
      </trkpt>
      <trkpt lat="43.6251" lon="6.26123">
        <ele>674.98</ele>
        <time>2015-03-08T10:22:16Z</time>
      </trkpt>
      <trkpt lat="43.62509" lon="6.26134">
        <ele>677.87</ele>
        <time>2015-03-08T10:22:28Z</time>
      </trkpt>
      <trkpt lat="43.62508" lon="6.26153">
        <ele>679.79</ele>
        <time>2015-03-08T10:22:39Z</time>
      </trkpt>
      <trkpt lat="43.62507" lon="6.26167">
        <ele>681.71</ele>
        <time>2015-03-08T10:22:51Z</time>
      </trkpt>
      <trkpt lat="43.62506" lon="6.26176">
        <ele>684.12</ele>
        <time>2015-03-08T10:23:02Z</time>
      </trkpt>
      <trkpt lat="43.62504" lon="6.2619">
        <ele>687.48</ele>
        <time>2015-03-08T10:23:11Z</time>
      </trkpt>
      <trkpt lat="43.62501" lon="6.26223">
        <ele>687.96</ele>
        <time>2015-03-08T10:23:24Z</time>
      </trkpt>
      <trkpt lat="43.62502" lon="6.26236">
        <ele>689.4</ele>
        <time>2015-03-08T10:23:40Z</time>
      </trkpt>
      <trkpt lat="43.62507" lon="6.26243">
        <ele>690.84</ele>
        <time>2015-03-08T10:23:50Z</time>
      </trkpt>
      <trkpt lat="43.62508" lon="6.26246">
        <ele>691.33</ele>
        <time>2015-03-08T10:24:02Z</time>
      </trkpt>
      <trkpt lat="43.62508" lon="6.26249">
        <ele>691.81</ele>
        <time>2015-03-08T10:24:09Z</time>
      </trkpt>
      <trkpt lat="43.6251" lon="6.26251">
        <ele>692.29</ele>
        <time>2015-03-08T10:24:12Z</time>
      </trkpt>
      <trkpt lat="43.6251" lon="6.26253">
        <ele>692.29</ele>
        <time>2015-03-08T10:24:13Z</time>
      </trkpt>
      <trkpt lat="43.62513" lon="6.26265">
        <ele>693.25</ele>
        <time>2015-03-08T10:24:21Z</time>
      </trkpt>
      <trkpt lat="43.62514" lon="6.26278">
        <ele>694.69</ele>
        <time>2015-03-08T10:24:31Z</time>
      </trkpt>
      <trkpt lat="43.62517" lon="6.26283">
        <ele>695.17</ele>
        <time>2015-03-08T10:24:37Z</time>
      </trkpt>
      <trkpt lat="43.62522" lon="6.26291">
        <ele>696.61</ele>
        <time>2015-03-08T10:24:43Z</time>
      </trkpt>
      <trkpt lat="43.62542" lon="6.26307">
        <ele>699.02</ele>
        <time>2015-03-08T10:24:56Z</time>
      </trkpt>
      <trkpt lat="43.62552" lon="6.26321">
        <ele>700.94</ele>
        <time>2015-03-08T10:25:07Z</time>
      </trkpt>
      <trkpt lat="43.62553" lon="6.26323">
        <ele>700.46</ele>
        <time>2015-03-08T10:25:08Z</time>
      </trkpt>
      <trkpt lat="43.62554" lon="6.26326">
        <ele>701.42</ele>
        <time>2015-03-08T10:25:09Z</time>
      </trkpt>
      <trkpt lat="43.62555" lon="6.26328">
        <ele>701.42</ele>
        <time>2015-03-08T10:25:10Z</time>
      </trkpt>
      <trkpt lat="43.62556" lon="6.2633">
        <ele>702.38</ele>
        <time>2015-03-08T10:25:11Z</time>
      </trkpt>
      <trkpt lat="43.62557" lon="6.26331">
        <ele>703.82</ele>
        <time>2015-03-08T10:25:12Z</time>
      </trkpt>
      <trkpt lat="43.62554" lon="6.26351">
        <ele>704.3</ele>
        <time>2015-03-08T10:25:23Z</time>
      </trkpt>
      <trkpt lat="43.62556" lon="6.26362">
        <ele>706.23</ele>
        <time>2015-03-08T10:25:30Z</time>
      </trkpt>
      <trkpt lat="43.62556" lon="6.26374">
        <ele>707.67</ele>
        <time>2015-03-08T10:25:39Z</time>
      </trkpt>
      <trkpt lat="43.62563" lon="6.26384">
        <ele>710.07</ele>
        <time>2015-03-08T10:25:58Z</time>
      </trkpt>
      <trkpt lat="43.62573" lon="6.264">
        <ele>712.95</ele>
        <time>2015-03-08T10:26:12Z</time>
      </trkpt>
      <trkpt lat="43.62578" lon="6.26402">
        <ele>713.92</ele>
        <time>2015-03-08T10:26:16Z</time>
      </trkpt>
      <trkpt lat="43.62581" lon="6.26407">
        <ele>714.4</ele>
        <time>2015-03-08T10:26:20Z</time>
      </trkpt>
      <trkpt lat="43.62591" lon="6.26419">
        <ele>717.28</ele>
        <time>2015-03-08T10:26:31Z</time>
      </trkpt>
      <trkpt lat="43.62597" lon="6.26423">
        <ele>718.72</ele>
        <time>2015-03-08T10:26:36Z</time>
      </trkpt>
      <trkpt lat="43.62598" lon="6.26424">
        <ele>718.72</ele>
        <time>2015-03-08T10:26:37Z</time>
      </trkpt>
      <trkpt lat="43.62608" lon="6.26435">
        <ele>721.61</ele>
        <time>2015-03-08T10:26:47Z</time>
      </trkpt>
      <trkpt lat="43.62619" lon="6.26449">
        <ele>724.49</ele>
        <time>2015-03-08T10:26:59Z</time>
      </trkpt>
      <trkpt lat="43.62623" lon="6.26469">
        <ele>728.34</ele>
        <time>2015-03-08T10:27:12Z</time>
      </trkpt>
      <trkpt lat="43.62624" lon="6.26476">
        <ele>728.34</ele>
        <time>2015-03-08T10:27:15Z</time>
      </trkpt>
      <trkpt lat="43.62623" lon="6.26499">
        <ele>731.7</ele>
        <time>2015-03-08T10:27:28Z</time>
      </trkpt>
      <trkpt lat="43.62623" lon="6.26511">
        <ele>734.1</ele>
        <time>2015-03-08T10:27:37Z</time>
      </trkpt>
      <trkpt lat="43.62624" lon="6.26523">
        <ele>736.99</ele>
        <time>2015-03-08T10:27:46Z</time>
      </trkpt>
      <trkpt lat="43.62623" lon="6.2653">
        <ele>737.95</ele>
        <time>2015-03-08T10:27:54Z</time>
      </trkpt>
      <trkpt lat="43.62625" lon="6.26533">
        <ele>738.43</ele>
        <time>2015-03-08T10:27:57Z</time>
      </trkpt>
      <trkpt lat="43.62632" lon="6.2654">
        <ele>739.87</ele>
        <time>2015-03-08T10:28:06Z</time>
      </trkpt>
      <trkpt lat="43.62634" lon="6.2654">
        <ele>739.87</ele>
        <time>2015-03-08T10:28:07Z</time>
      </trkpt>
      <trkpt lat="43.62642" lon="6.26548">
        <ele>741.31</ele>
        <time>2015-03-08T10:28:14Z</time>
      </trkpt>
      <trkpt lat="43.62645" lon="6.26567">
        <ele>742.76</ele>
        <time>2015-03-08T10:28:24Z</time>
      </trkpt>
      <trkpt lat="43.62645" lon="6.26569">
        <ele>743.24</ele>
        <time>2015-03-08T10:28:25Z</time>
      </trkpt>
      <trkpt lat="43.62646" lon="6.26585">
        <ele>744.2</ele>
        <time>2015-03-08T10:28:34Z</time>
      </trkpt>
      <trkpt lat="43.62648" lon="6.2659">
        <ele>744.68</ele>
        <time>2015-03-08T10:28:38Z</time>
      </trkpt>
      <trkpt lat="43.62658" lon="6.26603">
        <ele>745.16</ele>
        <time>2015-03-08T10:28:53Z</time>
      </trkpt>
      <trkpt lat="43.62675" lon="6.2661">
        <ele>745.64</ele>
        <time>2015-03-08T10:29:11Z</time>
      </trkpt>
      <trkpt lat="43.62689" lon="6.26605">
        <ele>746.12</ele>
        <time>2015-03-08T10:29:26Z</time>
      </trkpt>
      <trkpt lat="43.6269" lon="6.26605">
        <ele>746.12</ele>
        <time>2015-03-08T10:29:27Z</time>
      </trkpt>
      <trkpt lat="43.62702" lon="6.26596">
        <ele>745.64</ele>
        <time>2015-03-08T10:29:40Z</time>
      </trkpt>
      <trkpt lat="43.62726" lon="6.26597">
        <ele>745.16</ele>
        <time>2015-03-08T10:29:57Z</time>
      </trkpt>
      <trkpt lat="43.62731" lon="6.26598">
        <ele>745.16</ele>
        <time>2015-03-08T10:30:00Z</time>
      </trkpt>
      <trkpt lat="43.62741" lon="6.26604">
        <ele>745.64</ele>
        <time>2015-03-08T10:30:16Z</time>
      </trkpt>
      <trkpt lat="43.6274" lon="6.26605">
        <ele>745.64</ele>
        <time>2015-03-08T10:30:37Z</time>
      </trkpt>
      <trkpt lat="43.62739" lon="6.26604">
        <ele>746.12</ele>
        <time>2015-03-08T10:30:52Z</time>
      </trkpt>
      <trkpt lat="43.6274" lon="6.26603">
        <ele>746.12</ele>
        <time>2015-03-08T10:31:10Z</time>
      </trkpt>
      <trkpt lat="43.62741" lon="6.26603">
        <ele>745.64</ele>
        <time>2015-03-08T10:31:11Z</time>
      </trkpt>
      <trkpt lat="43.62743" lon="6.26603">
        <ele>746.6</ele>
        <time>2015-03-08T10:31:12Z</time>
      </trkpt>
      <trkpt lat="43.62762" lon="6.26604">
        <ele>746.12</ele>
        <time>2015-03-08T10:31:28Z</time>
      </trkpt>
      <trkpt lat="43.62775" lon="6.26597">
        <ele>746.12</ele>
        <time>2015-03-08T10:31:39Z</time>
      </trkpt>
      <trkpt lat="43.62799" lon="6.26583">
        <ele>744.68</ele>
        <time>2015-03-08T10:32:01Z</time>
      </trkpt>
      <trkpt lat="43.62825" lon="6.26572">
        <ele>743.24</ele>
        <time>2015-03-08T10:32:22Z</time>
      </trkpt>
      <trkpt lat="43.62848" lon="6.26569">
        <ele>742.76</ele>
        <time>2015-03-08T10:32:41Z</time>
      </trkpt>
      <trkpt lat="43.62863" lon="6.2657">
        <ele>742.76</ele>
        <time>2015-03-08T10:32:52Z</time>
      </trkpt>
      <trkpt lat="43.62864" lon="6.26572">
        <ele>742.76</ele>
        <time>2015-03-08T10:32:53Z</time>
      </trkpt>
      <trkpt lat="43.62865" lon="6.26586">
        <ele>743.24</ele>
        <time>2015-03-08T10:33:02Z</time>
      </trkpt>
      <trkpt lat="43.62865" lon="6.26588">
        <ele>743.24</ele>
        <time>2015-03-08T10:33:03Z</time>
      </trkpt>
      <trkpt lat="43.62865" lon="6.2659">
        <ele>743.24</ele>
        <time>2015-03-08T10:33:04Z</time>
      </trkpt>
      <trkpt lat="43.62865" lon="6.26592">
        <ele>743.72</ele>
        <time>2015-03-08T10:33:05Z</time>
      </trkpt>
      <trkpt lat="43.62864" lon="6.26596">
        <ele>743.72</ele>
        <time>2015-03-08T10:33:06Z</time>
      </trkpt>
      <trkpt lat="43.62864" lon="6.26599">
        <ele>743.72</ele>
        <time>2015-03-08T10:33:07Z</time>
      </trkpt>
      <trkpt lat="43.62864" lon="6.26602">
        <ele>743.72</ele>
        <time>2015-03-08T10:33:08Z</time>
      </trkpt>
      <trkpt lat="43.62864" lon="6.26607">
        <ele>743.72</ele>
        <time>2015-03-08T10:33:09Z</time>
      </trkpt>
      <trkpt lat="43.62864" lon="6.26611">
        <ele>743.72</ele>
        <time>2015-03-08T10:33:10Z</time>
      </trkpt>
      <trkpt lat="43.62864" lon="6.26615">
        <ele>743.72</ele>
        <time>2015-03-08T10:33:11Z</time>
      </trkpt>
      <trkpt lat="43.62864" lon="6.26619">
        <ele>743.72</ele>
        <time>2015-03-08T10:33:12Z</time>
      </trkpt>
      <trkpt lat="43.62864" lon="6.26623">
        <ele>744.68</ele>
        <time>2015-03-08T10:33:13Z</time>
      </trkpt>
      <trkpt lat="43.62859" lon="6.26661">
        <ele>745.64</ele>
        <time>2015-03-08T10:33:25Z</time>
      </trkpt>
      <trkpt lat="43.62862" lon="6.26712">
        <ele>747.56</ele>
        <time>2015-03-08T10:33:34Z</time>
      </trkpt>
      <trkpt lat="43.62864" lon="6.26727">
        <ele>747.56</ele>
        <time>2015-03-08T10:33:36Z</time>
      </trkpt>
      <trkpt lat="43.62866" lon="6.26736">
        <ele>748.04</ele>
        <time>2015-03-08T10:33:37Z</time>
      </trkpt>
      <trkpt lat="43.62867" lon="6.26745">
        <ele>748.52</ele>
        <time>2015-03-08T10:33:38Z</time>
      </trkpt>
      <trkpt lat="43.62868" lon="6.26755">
        <ele>748.52</ele>
        <time>2015-03-08T10:33:39Z</time>
      </trkpt>
      <trkpt lat="43.62868" lon="6.26763">
        <ele>749</ele>
        <time>2015-03-08T10:33:40Z</time>
      </trkpt>
      <trkpt lat="43.62867" lon="6.26771">
        <ele>749.49</ele>
        <time>2015-03-08T10:33:41Z</time>
      </trkpt>
      <trkpt lat="43.62866" lon="6.26788">
        <ele>749</ele>
        <time>2015-03-08T10:33:43Z</time>
      </trkpt>
      <trkpt lat="43.62864" lon="6.26796">
        <ele>749.97</ele>
        <time>2015-03-08T10:33:44Z</time>
      </trkpt>
      <trkpt lat="43.62862" lon="6.26804">
        <ele>750.93</ele>
        <time>2015-03-08T10:33:45Z</time>
      </trkpt>
      <trkpt lat="43.62858" lon="6.26812">
        <ele>751.41</ele>
        <time>2015-03-08T10:33:46Z</time>
      </trkpt>
      <trkpt lat="43.62854" lon="6.2682">
        <ele>752.37</ele>
        <time>2015-03-08T10:33:47Z</time>
      </trkpt>
      <trkpt lat="43.62846" lon="6.26836">
        <ele>752.85</ele>
        <time>2015-03-08T10:33:49Z</time>
      </trkpt>
      <trkpt lat="43.62843" lon="6.26846">
        <ele>753.33</ele>
        <time>2015-03-08T10:33:50Z</time>
      </trkpt>
      <trkpt lat="43.62842" lon="6.26856">
        <ele>754.29</ele>
        <time>2015-03-08T10:33:51Z</time>
      </trkpt>
      <trkpt lat="43.6284" lon="6.26876">
        <ele>755.73</ele>
        <time>2015-03-08T10:33:53Z</time>
      </trkpt>
      <trkpt lat="43.62842" lon="6.26898">
        <ele>757.18</ele>
        <time>2015-03-08T10:33:55Z</time>
      </trkpt>
      <trkpt lat="43.62845" lon="6.26907">
        <ele>757.18</ele>
        <time>2015-03-08T10:33:56Z</time>
      </trkpt>
      <trkpt lat="43.62867" lon="6.26955">
        <ele>760.06</ele>
        <time>2015-03-08T10:34:01Z</time>
      </trkpt>
      <trkpt lat="43.62874" lon="6.26976">
        <ele>762.46</ele>
        <time>2015-03-08T10:34:03Z</time>
      </trkpt>
      <trkpt lat="43.62876" lon="6.26987">
        <ele>762.94</ele>
        <time>2015-03-08T10:34:04Z</time>
      </trkpt>
      <trkpt lat="43.62877" lon="6.26998">
        <ele>763.42</ele>
        <time>2015-03-08T10:34:05Z</time>
      </trkpt>
      <trkpt lat="43.62881" lon="6.27044">
        <ele>766.79</ele>
        <time>2015-03-08T10:34:09Z</time>
      </trkpt>
      <trkpt lat="43.62883" lon="6.27054">
        <ele>767.75</ele>
        <time>2015-03-08T10:34:10Z</time>
      </trkpt>
      <trkpt lat="43.62896" lon="6.27093">
        <ele>771.11</ele>
        <time>2015-03-08T10:34:15Z</time>
      </trkpt>
      <trkpt lat="43.62898" lon="6.27099">
        <ele>771.6</ele>
        <time>2015-03-08T10:34:16Z</time>
      </trkpt>
      <trkpt lat="43.629" lon="6.27107">
        <ele>772.08</ele>
        <time>2015-03-08T10:34:17Z</time>
      </trkpt>
      <trkpt lat="43.62901" lon="6.27116">
        <ele>772.56</ele>
        <time>2015-03-08T10:34:18Z</time>
      </trkpt>
      <trkpt lat="43.62906" lon="6.27142">
        <ele>774</ele>
        <time>2015-03-08T10:34:21Z</time>
      </trkpt>
      <trkpt lat="43.62908" lon="6.27152">
        <ele>774.96</ele>
        <time>2015-03-08T10:34:22Z</time>
      </trkpt>
      <trkpt lat="43.62911" lon="6.27162">
        <ele>775.44</ele>
        <time>2015-03-08T10:34:23Z</time>
      </trkpt>
      <trkpt lat="43.62913" lon="6.27171">
        <ele>776.4</ele>
        <time>2015-03-08T10:34:24Z</time>
      </trkpt>
      <trkpt lat="43.62915" lon="6.27179">
        <ele>776.88</ele>
        <time>2015-03-08T10:34:25Z</time>
      </trkpt>
      <trkpt lat="43.62917" lon="6.27187">
        <ele>777.36</ele>
        <time>2015-03-08T10:34:26Z</time>
      </trkpt>
      <trkpt lat="43.62918" lon="6.27195">
        <ele>778.32</ele>
        <time>2015-03-08T10:34:27Z</time>
      </trkpt>
      <trkpt lat="43.6292" lon="6.27202">
        <ele>778.32</ele>
        <time>2015-03-08T10:34:28Z</time>
      </trkpt>
      <trkpt lat="43.62923" lon="6.27224">
        <ele>780.25</ele>
        <time>2015-03-08T10:34:31Z</time>
      </trkpt>
      <trkpt lat="43.62924" lon="6.27233">
        <ele>781.21</ele>
        <time>2015-03-08T10:34:32Z</time>
      </trkpt>
      <trkpt lat="43.62927" lon="6.27264">
        <ele>783.13</ele>
        <time>2015-03-08T10:34:35Z</time>
      </trkpt>
      <trkpt lat="43.6293" lon="6.27273">
        <ele>784.57</ele>
        <time>2015-03-08T10:34:36Z</time>
      </trkpt>
      <trkpt lat="43.62935" lon="6.27281">
        <ele>785.05</ele>
        <time>2015-03-08T10:34:37Z</time>
      </trkpt>
      <trkpt lat="43.62938" lon="6.27288">
        <ele>786.98</ele>
        <time>2015-03-08T10:34:38Z</time>
      </trkpt>
      <trkpt lat="43.62942" lon="6.27295">
        <ele>788.42</ele>
        <time>2015-03-08T10:34:39Z</time>
      </trkpt>
      <trkpt lat="43.62944" lon="6.27302">
        <ele>789.86</ele>
        <time>2015-03-08T10:34:40Z</time>
      </trkpt>
      <trkpt lat="43.62946" lon="6.27309">
        <ele>791.3</ele>
        <time>2015-03-08T10:34:41Z</time>
      </trkpt>
      <trkpt lat="43.62947" lon="6.27316">
        <ele>792.26</ele>
        <time>2015-03-08T10:34:42Z</time>
      </trkpt>
      <trkpt lat="43.62952" lon="6.27339">
        <ele>796.11</ele>
        <time>2015-03-08T10:34:45Z</time>
      </trkpt>
      <trkpt lat="43.62953" lon="6.27356">
        <ele>798.03</ele>
        <time>2015-03-08T10:34:47Z</time>
      </trkpt>
      <trkpt lat="43.62952" lon="6.27364">
        <ele>798.51</ele>
        <time>2015-03-08T10:34:48Z</time>
      </trkpt>
      <trkpt lat="43.62951" lon="6.27372">
        <ele>799.47</ele>
        <time>2015-03-08T10:34:49Z</time>
      </trkpt>
      <trkpt lat="43.6295" lon="6.2738">
        <ele>801.4</ele>
        <time>2015-03-08T10:34:50Z</time>
      </trkpt>
      <trkpt lat="43.62947" lon="6.27389">
        <ele>803.32</ele>
        <time>2015-03-08T10:34:51Z</time>
      </trkpt>
      <trkpt lat="43.62945" lon="6.27398">
        <ele>804.28</ele>
        <time>2015-03-08T10:34:52Z</time>
      </trkpt>
      <trkpt lat="43.62941" lon="6.27415">
        <ele>806.68</ele>
        <time>2015-03-08T10:34:54Z</time>
      </trkpt>
      <trkpt lat="43.62939" lon="6.27423">
        <ele>808.13</ele>
        <time>2015-03-08T10:34:55Z</time>
      </trkpt>
      <trkpt lat="43.62937" lon="6.2743">
        <ele>809.09</ele>
        <time>2015-03-08T10:34:56Z</time>
      </trkpt>
      <trkpt lat="43.62934" lon="6.27437">
        <ele>809.57</ele>
        <time>2015-03-08T10:34:57Z</time>
      </trkpt>
      <trkpt lat="43.62931" lon="6.27444">
        <ele>810.53</ele>
        <time>2015-03-08T10:34:58Z</time>
      </trkpt>
      <trkpt lat="43.62928" lon="6.2745">
        <ele>811.49</ele>
        <time>2015-03-08T10:34:59Z</time>
      </trkpt>
      <trkpt lat="43.62925" lon="6.27457">
        <ele>812.45</ele>
        <time>2015-03-08T10:35:00Z</time>
      </trkpt>
      <trkpt lat="43.62922" lon="6.27464">
        <ele>812.93</ele>
        <time>2015-03-08T10:35:01Z</time>
      </trkpt>
      <trkpt lat="43.62919" lon="6.27475">
        <ele>814.37</ele>
        <time>2015-03-08T10:35:03Z</time>
      </trkpt>
      <trkpt lat="43.62918" lon="6.27481">
        <ele>815.34</ele>
        <time>2015-03-08T10:35:04Z</time>
      </trkpt>
      <trkpt lat="43.62916" lon="6.27487">
        <ele>816.3</ele>
        <time>2015-03-08T10:35:05Z</time>
      </trkpt>
      <trkpt lat="43.62914" lon="6.27492">
        <ele>815.82</ele>
        <time>2015-03-08T10:35:06Z</time>
      </trkpt>
      <trkpt lat="43.62913" lon="6.27497">
        <ele>816.78</ele>
        <time>2015-03-08T10:35:07Z</time>
      </trkpt>
      <trkpt lat="43.62911" lon="6.27502">
        <ele>816.78</ele>
        <time>2015-03-08T10:35:08Z</time>
      </trkpt>
      <trkpt lat="43.62909" lon="6.27506">
        <ele>817.74</ele>
        <time>2015-03-08T10:35:09Z</time>
      </trkpt>
      <trkpt lat="43.62902" lon="6.27527">
        <ele>819.66</ele>
        <time>2015-03-08T10:35:14Z</time>
      </trkpt>
      <trkpt lat="43.62894" lon="6.27558">
        <ele>822.06</ele>
        <time>2015-03-08T10:35:24Z</time>
      </trkpt>
      <trkpt lat="43.62886" lon="6.27589">
        <ele>824.95</ele>
        <time>2015-03-08T10:35:35Z</time>
      </trkpt>
      <trkpt lat="43.62879" lon="6.27613">
        <ele>827.83</ele>
        <time>2015-03-08T10:35:47Z</time>
      </trkpt>
      <trkpt lat="43.62871" lon="6.27633">
        <ele>830.24</ele>
        <time>2015-03-08T10:35:58Z</time>
      </trkpt>
      <trkpt lat="43.6287" lon="6.27636">
        <ele>830.72</ele>
        <time>2015-03-08T10:35:59Z</time>
      </trkpt>
      <trkpt lat="43.62863" lon="6.27654">
        <ele>834.08</ele>
        <time>2015-03-08T10:36:08Z</time>
      </trkpt>
      <trkpt lat="43.62862" lon="6.27662">
        <ele>836</ele>
        <time>2015-03-08T10:36:13Z</time>
      </trkpt>
      <trkpt lat="43.62863" lon="6.27683">
        <ele>839.37</ele>
        <time>2015-03-08T10:36:25Z</time>
      </trkpt>
      <trkpt lat="43.62864" lon="6.27704">
        <ele>842.73</ele>
        <time>2015-03-08T10:36:36Z</time>
      </trkpt>
      <trkpt lat="43.62863" lon="6.2772">
        <ele>845.62</ele>
        <time>2015-03-08T10:36:47Z</time>
      </trkpt>
      <trkpt lat="43.62857" lon="6.27742">
        <ele>848.5</ele>
        <time>2015-03-08T10:37:02Z</time>
      </trkpt>
      <trkpt lat="43.62847" lon="6.27764">
        <ele>849.94</ele>
        <time>2015-03-08T10:37:16Z</time>
      </trkpt>
      <trkpt lat="43.62845" lon="6.27769">
        <ele>850.42</ele>
        <time>2015-03-08T10:37:19Z</time>
      </trkpt>
      <trkpt lat="43.62844" lon="6.2777">
        <ele>850.9</ele>
        <time>2015-03-08T10:37:20Z</time>
      </trkpt>
      <trkpt lat="43.62838" lon="6.2779">
        <ele>853.31</ele>
        <time>2015-03-08T10:37:34Z</time>
      </trkpt>
      <trkpt lat="43.62831" lon="6.2781">
        <ele>856.19</ele>
        <time>2015-03-08T10:37:49Z</time>
      </trkpt>
      <trkpt lat="43.62822" lon="6.27827">
        <ele>858.11</ele>
        <time>2015-03-08T10:38:03Z</time>
      </trkpt>
      <trkpt lat="43.62807" lon="6.27848">
        <ele>860.04</ele>
        <time>2015-03-08T10:38:17Z</time>
      </trkpt>
      <trkpt lat="43.62796" lon="6.27869">
        <ele>862.44</ele>
        <time>2015-03-08T10:38:29Z</time>
      </trkpt>
      <trkpt lat="43.62789" lon="6.2789">
        <ele>866.29</ele>
        <time>2015-03-08T10:38:40Z</time>
      </trkpt>
      <trkpt lat="43.62788" lon="6.27906">
        <ele>869.17</ele>
        <time>2015-03-08T10:38:47Z</time>
      </trkpt>
      <trkpt lat="43.62794" lon="6.27926">
        <ele>872.53</ele>
        <time>2015-03-08T10:38:59Z</time>
      </trkpt>
      <trkpt lat="43.62797" lon="6.27939">
        <ele>874.94</ele>
        <time>2015-03-08T10:39:08Z</time>
      </trkpt>
      <trkpt lat="43.62796" lon="6.27943">
        <ele>874.94</ele>
        <time>2015-03-08T10:39:11Z</time>
      </trkpt>
      <trkpt lat="43.6279" lon="6.27968">
        <ele>878.3</ele>
        <time>2015-03-08T10:39:27Z</time>
      </trkpt>
      <trkpt lat="43.62788" lon="6.27974">
        <ele>879.26</ele>
        <time>2015-03-08T10:39:33Z</time>
      </trkpt>
      <trkpt lat="43.62769" lon="6.27993">
        <ele>879.74</ele>
        <time>2015-03-08T10:39:51Z</time>
      </trkpt>
      <trkpt lat="43.62751" lon="6.28011">
        <ele>880.71</ele>
        <time>2015-03-08T10:40:09Z</time>
      </trkpt>
      <trkpt lat="43.62736" lon="6.28029">
        <ele>882.15</ele>
        <time>2015-03-08T10:40:22Z</time>
      </trkpt>
      <trkpt lat="43.62727" lon="6.28046">
        <ele>883.59</ele>
        <time>2015-03-08T10:40:34Z</time>
      </trkpt>
      <trkpt lat="43.62724" lon="6.28054">
        <ele>884.07</ele>
        <time>2015-03-08T10:40:40Z</time>
      </trkpt>
      <trkpt lat="43.62721" lon="6.2806">
        <ele>884.55</ele>
        <time>2015-03-08T10:40:44Z</time>
      </trkpt>
      <trkpt lat="43.62715" lon="6.28087">
        <ele>885.51</ele>
        <time>2015-03-08T10:40:59Z</time>
      </trkpt>
      <trkpt lat="43.62711" lon="6.28107">
        <ele>885.99</ele>
        <time>2015-03-08T10:41:11Z</time>
      </trkpt>
      <trkpt lat="43.62707" lon="6.28133">
        <ele>886.47</ele>
        <time>2015-03-08T10:41:25Z</time>
      </trkpt>
      <trkpt lat="43.62709" lon="6.28152">
        <ele>886.95</ele>
        <time>2015-03-08T10:41:35Z</time>
      </trkpt>
      <trkpt lat="43.62709" lon="6.28158">
        <ele>887.43</ele>
        <time>2015-03-08T10:41:38Z</time>
      </trkpt>
      <trkpt lat="43.6271" lon="6.28165">
        <ele>886.95</ele>
        <time>2015-03-08T10:41:42Z</time>
      </trkpt>
      <trkpt lat="43.62722" lon="6.28187">
        <ele>887.43</ele>
        <time>2015-03-08T10:41:55Z</time>
      </trkpt>
      <trkpt lat="43.62737" lon="6.28207">
        <ele>888.88</ele>
        <time>2015-03-08T10:42:09Z</time>
      </trkpt>
      <trkpt lat="43.62748" lon="6.28228">
        <ele>890.32</ele>
        <time>2015-03-08T10:42:23Z</time>
      </trkpt>
      <trkpt lat="43.6276" lon="6.2825">
        <ele>892.72</ele>
        <time>2015-03-08T10:42:39Z</time>
      </trkpt>
      <trkpt lat="43.62763" lon="6.28257">
        <ele>893.2</ele>
        <time>2015-03-08T10:42:46Z</time>
      </trkpt>
      <trkpt lat="43.62762" lon="6.28261">
        <ele>893.2</ele>
        <time>2015-03-08T10:42:48Z</time>
      </trkpt>
      <trkpt lat="43.62762" lon="6.28289">
        <ele>894.16</ele>
        <time>2015-03-08T10:43:06Z</time>
      </trkpt>
      <trkpt lat="43.6276" lon="6.28308">
        <ele>894.64</ele>
        <time>2015-03-08T10:43:16Z</time>
      </trkpt>
      <trkpt lat="43.62752" lon="6.28338">
        <ele>894.64</ele>
        <time>2015-03-08T10:43:30Z</time>
      </trkpt>
      <trkpt lat="43.62755" lon="6.2835">
        <ele>894.64</ele>
        <time>2015-03-08T10:43:40Z</time>
      </trkpt>
      <trkpt lat="43.62753" lon="6.28356">
        <ele>894.64</ele>
        <time>2015-03-08T10:43:42Z</time>
      </trkpt>
      <trkpt lat="43.62743" lon="6.28394">
        <ele>895.12</ele>
        <time>2015-03-08T10:43:58Z</time>
      </trkpt>
      <trkpt lat="43.62733" lon="6.28422">
        <ele>896.57</ele>
        <time>2015-03-08T10:44:13Z</time>
      </trkpt>
      <trkpt lat="43.62733" lon="6.28426">
        <ele>897.05</ele>
        <time>2015-03-08T10:44:16Z</time>
      </trkpt>
      <trkpt lat="43.62732" lon="6.28432">
        <ele>897.53</ele>
        <time>2015-03-08T10:44:19Z</time>
      </trkpt>
      <trkpt lat="43.62737" lon="6.28446">
        <ele>898.01</ele>
        <time>2015-03-08T10:44:28Z</time>
      </trkpt>
      <trkpt lat="43.62742" lon="6.28478">
        <ele>900.41</ele>
        <time>2015-03-08T10:44:41Z</time>
      </trkpt>
      <trkpt lat="43.62748" lon="6.2851">
        <ele>903.78</ele>
        <time>2015-03-08T10:44:52Z</time>
      </trkpt>
      <trkpt lat="43.62755" lon="6.28552">
        <ele>906.66</ele>
        <time>2015-03-08T10:45:03Z</time>
      </trkpt>
      <trkpt lat="43.62768" lon="6.28597">
        <ele>910.51</ele>
        <time>2015-03-08T10:45:14Z</time>
      </trkpt>
      <trkpt lat="43.6277" lon="6.286">
        <ele>910.03</ele>
        <time>2015-03-08T10:45:15Z</time>
      </trkpt>
      <trkpt lat="43.62781" lon="6.28611">
        <ele>912.43</ele>
        <time>2015-03-08T10:45:21Z</time>
      </trkpt>
      <trkpt lat="43.62795" lon="6.28633">
        <ele>913.39</ele>
        <time>2015-03-08T10:45:35Z</time>
      </trkpt>
      <trkpt lat="43.62801" lon="6.28654">
        <ele>914.35</ele>
        <time>2015-03-08T10:45:47Z</time>
      </trkpt>
      <trkpt lat="43.628" lon="6.28677">
        <ele>914.83</ele>
        <time>2015-03-08T10:46:02Z</time>
      </trkpt>
      <trkpt lat="43.62809" lon="6.28705">
        <ele>915.79</ele>
        <time>2015-03-08T10:46:20Z</time>
      </trkpt>
      <trkpt lat="43.6281" lon="6.28706">
        <ele>915.79</ele>
        <time>2015-03-08T10:46:21Z</time>
      </trkpt>
      <trkpt lat="43.62828" lon="6.28718">
        <ele>918.68</ele>
        <time>2015-03-08T10:46:36Z</time>
      </trkpt>
      <trkpt lat="43.62838" lon="6.28723">
        <ele>921.08</ele>
        <time>2015-03-08T10:46:52Z</time>
      </trkpt>
      <trkpt lat="43.62846" lon="6.28727">
        <ele>923.48</ele>
        <time>2015-03-08T10:47:05Z</time>
      </trkpt>
      <trkpt lat="43.62852" lon="6.28731">
        <ele>923.48</ele>
        <time>2015-03-08T10:47:15Z</time>
      </trkpt>
      <trkpt lat="43.6288" lon="6.28738">
        <ele>925.41</ele>
        <time>2015-03-08T10:47:34Z</time>
      </trkpt>
      <trkpt lat="43.62905" lon="6.28744">
        <ele>926.37</ele>
        <time>2015-03-08T10:47:50Z</time>
      </trkpt>
      <trkpt lat="43.62923" lon="6.28755">
        <ele>927.81</ele>
        <time>2015-03-08T10:48:07Z</time>
      </trkpt>
      <trkpt lat="43.62931" lon="6.28762">
        <ele>928.29</ele>
        <time>2015-03-08T10:48:16Z</time>
      </trkpt>
      <trkpt lat="43.62942" lon="6.28772">
        <ele>928.77</ele>
        <time>2015-03-08T10:48:25Z</time>
      </trkpt>
      <trkpt lat="43.62946" lon="6.28779">
        <ele>929.25</ele>
        <time>2015-03-08T10:48:31Z</time>
      </trkpt>
      <trkpt lat="43.62958" lon="6.28784">
        <ele>929.25</ele>
        <time>2015-03-08T10:48:36Z</time>
      </trkpt>
      <trkpt lat="43.62963" lon="6.28787">
        <ele>929.73</ele>
        <time>2015-03-08T10:48:40Z</time>
      </trkpt>
      <trkpt lat="43.62969" lon="6.28803">
        <ele>930.21</ele>
        <time>2015-03-08T10:48:51Z</time>
      </trkpt>
      <trkpt lat="43.62987" lon="6.28827">
        <ele>930.21</ele>
        <time>2015-03-08T10:49:09Z</time>
      </trkpt>
      <trkpt lat="43.63005" lon="6.28841">
        <ele>930.21</ele>
        <time>2015-03-08T10:49:25Z</time>
      </trkpt>
      <trkpt lat="43.63007" lon="6.28842">
        <ele>930.21</ele>
        <time>2015-03-08T10:49:27Z</time>
      </trkpt>
      <trkpt lat="43.63028" lon="6.28847">
        <ele>932.62</ele>
        <time>2015-03-08T10:49:45Z</time>
      </trkpt>
      <trkpt lat="43.63032" lon="6.2885">
        <ele>933.58</ele>
        <time>2015-03-08T10:49:49Z</time>
      </trkpt>
      <trkpt lat="43.63035" lon="6.28852">
        <ele>933.58</ele>
        <time>2015-03-08T10:49:51Z</time>
      </trkpt>
      <trkpt lat="43.63045" lon="6.28868">
        <ele>935.5</ele>
        <time>2015-03-08T10:50:06Z</time>
      </trkpt>
      <trkpt lat="43.63063" lon="6.28885">
        <ele>937.9</ele>
        <time>2015-03-08T10:50:24Z</time>
      </trkpt>
      <trkpt lat="43.63066" lon="6.28887">
        <ele>938.38</ele>
        <time>2015-03-08T10:50:27Z</time>
      </trkpt>
      <trkpt lat="43.63074" lon="6.28888">
        <ele>939.35</ele>
        <time>2015-03-08T10:50:43Z</time>
      </trkpt>
      <trkpt lat="43.63075" lon="6.28888">
        <ele>939.35</ele>
        <time>2015-03-08T10:50:44Z</time>
      </trkpt>
      <trkpt lat="43.63081" lon="6.2889">
        <ele>939.83</ele>
        <time>2015-03-08T10:50:49Z</time>
      </trkpt>
      <trkpt lat="43.63105" lon="6.28898">
        <ele>942.71</ele>
        <time>2015-03-08T10:51:09Z</time>
      </trkpt>
      <trkpt lat="43.63128" lon="6.28906">
        <ele>944.63</ele>
        <time>2015-03-08T10:51:28Z</time>
      </trkpt>
      <trkpt lat="43.63147" lon="6.28906">
        <ele>946.56</ele>
        <time>2015-03-08T10:51:45Z</time>
      </trkpt>
      <trkpt lat="43.63155" lon="6.28907">
        <ele>947.04</ele>
        <time>2015-03-08T10:51:52Z</time>
      </trkpt>
      <trkpt lat="43.63162" lon="6.28909">
        <ele>948</ele>
        <time>2015-03-08T10:51:59Z</time>
      </trkpt>
      <trkpt lat="43.63171" lon="6.28929">
        <ele>948.96</ele>
        <time>2015-03-08T10:52:15Z</time>
      </trkpt>
      <trkpt lat="43.6318" lon="6.28957">
        <ele>949.92</ele>
        <time>2015-03-08T10:52:32Z</time>
      </trkpt>
      <trkpt lat="43.63183" lon="6.28982">
        <ele>950.4</ele>
        <time>2015-03-08T10:52:47Z</time>
      </trkpt>
      <trkpt lat="43.63186" lon="6.29014">
        <ele>950.4</ele>
        <time>2015-03-08T10:53:04Z</time>
      </trkpt>
      <trkpt lat="43.63199" lon="6.29048">
        <ele>949.92</ele>
        <time>2015-03-08T10:53:26Z</time>
      </trkpt>
      <trkpt lat="43.63218" lon="6.29075">
        <ele>950.88</ele>
        <time>2015-03-08T10:53:50Z</time>
      </trkpt>
      <trkpt lat="43.63243" lon="6.29102">
        <ele>951.36</ele>
        <time>2015-03-08T10:54:14Z</time>
      </trkpt>
      <trkpt lat="43.6327" lon="6.2912">
        <ele>949.92</ele>
        <time>2015-03-08T10:54:35Z</time>
      </trkpt>
      <trkpt lat="43.63285" lon="6.29122">
        <ele>950.88</ele>
        <time>2015-03-08T10:54:45Z</time>
      </trkpt>
      <trkpt lat="43.6329" lon="6.29122">
        <ele>950.88</ele>
        <time>2015-03-08T10:54:49Z</time>
      </trkpt>
      <trkpt lat="43.63302" lon="6.29122">
        <ele>951.36</ele>
        <time>2015-03-08T10:55:04Z</time>
      </trkpt>
      <trkpt lat="43.63302" lon="6.29123">
        <ele>950.88</ele>
        <time>2015-03-08T10:55:18Z</time>
      </trkpt>
      <trkpt lat="43.63301" lon="6.29123">
        <ele>950.88</ele>
        <time>2015-03-08T10:55:33Z</time>
      </trkpt>
      <trkpt lat="43.63301" lon="6.29119">
        <ele>951.84</ele>
        <time>2015-03-08T10:55:46Z</time>
      </trkpt>
      <trkpt lat="43.63309" lon="6.29125">
        <ele>950.4</ele>
        <time>2015-03-08T10:55:56Z</time>
      </trkpt>
      <trkpt lat="43.63312" lon="6.29131">
        <ele>949.44</ele>
        <time>2015-03-08T10:56:01Z</time>
      </trkpt>
      <trkpt lat="43.63324" lon="6.29144">
        <ele>947.52</ele>
        <time>2015-03-08T10:56:15Z</time>
      </trkpt>
      <trkpt lat="43.63325" lon="6.29145">
        <ele>944.15</ele>
        <time>2015-03-08T10:56:33Z</time>
      </trkpt>
      <trkpt lat="43.63325" lon="6.29145">
        <ele>948.96</ele>
        <time>2015-03-08T10:56:34Z</time>
      </trkpt>
      <trkpt lat="43.6333" lon="6.2915">
        <ele>945.11</ele>
        <time>2015-03-08T10:56:40Z</time>
      </trkpt>
      <trkpt lat="43.63342" lon="6.29172">
        <ele>943.19</ele>
        <time>2015-03-08T10:56:53Z</time>
      </trkpt>
      <trkpt lat="43.63345" lon="6.29175">
        <ele>941.75</ele>
        <time>2015-03-08T10:56:58Z</time>
      </trkpt>
      <trkpt lat="43.63353" lon="6.29181">
        <ele>939.35</ele>
        <time>2015-03-08T10:57:06Z</time>
      </trkpt>
      <trkpt lat="43.63368" lon="6.29192">
        <ele>935.98</ele>
        <time>2015-03-08T10:57:18Z</time>
      </trkpt>
      <trkpt lat="43.63382" lon="6.29195">
        <ele>934.54</ele>
        <time>2015-03-08T10:57:30Z</time>
      </trkpt>
      <trkpt lat="43.6339" lon="6.29202">
        <ele>931.65</ele>
        <time>2015-03-08T10:57:40Z</time>
      </trkpt>
      <trkpt lat="43.63408" lon="6.29213">
        <ele>929.25</ele>
        <time>2015-03-08T10:57:53Z</time>
      </trkpt>
      <trkpt lat="43.6342" lon="6.29212">
        <ele>926.37</ele>
        <time>2015-03-08T10:58:04Z</time>
      </trkpt>
      <trkpt lat="43.63435" lon="6.2921">
        <ele>923</ele>
        <time>2015-03-08T10:58:16Z</time>
      </trkpt>
      <trkpt lat="43.63439" lon="6.29209">
        <ele>922.52</ele>
        <time>2015-03-08T10:58:19Z</time>
      </trkpt>
      <trkpt lat="43.63461" lon="6.29198">
        <ele>919.16</ele>
        <time>2015-03-08T10:58:37Z</time>
      </trkpt>
      <trkpt lat="43.63469" lon="6.29189">
        <ele>916.27</ele>
        <time>2015-03-08T10:58:46Z</time>
      </trkpt>
      <trkpt lat="43.63485" lon="6.29185">
        <ele>913.39</ele>
        <time>2015-03-08T10:58:59Z</time>
      </trkpt>
      <trkpt lat="43.635" lon="6.29182">
        <ele>910.03</ele>
        <time>2015-03-08T10:59:10Z</time>
      </trkpt>
      <trkpt lat="43.63501" lon="6.29179">
        <ele>909.54</ele>
        <time>2015-03-08T10:59:12Z</time>
      </trkpt>
      <trkpt lat="43.63506" lon="6.29164">
        <ele>908.1</ele>
        <time>2015-03-08T10:59:20Z</time>
      </trkpt>
      <trkpt lat="43.63513" lon="6.29146">
        <ele>907.62</ele>
        <time>2015-03-08T10:59:31Z</time>
      </trkpt>
      <trkpt lat="43.63531" lon="6.29131">
        <ele>905.22</ele>
        <time>2015-03-08T10:59:47Z</time>
      </trkpt>
      <trkpt lat="43.63553" lon="6.29126">
        <ele>901.85</ele>
        <time>2015-03-08T11:00:01Z</time>
      </trkpt>
      <trkpt lat="43.63578" lon="6.29117">
        <ele>900.89</ele>
        <time>2015-03-08T11:00:17Z</time>
      </trkpt>
      <trkpt lat="43.63585" lon="6.29113">
        <ele>900.41</ele>
        <time>2015-03-08T11:00:22Z</time>
      </trkpt>
      <trkpt lat="43.63595" lon="6.29104">
        <ele>899.93</ele>
        <time>2015-03-08T11:00:32Z</time>
      </trkpt>
      <trkpt lat="43.636" lon="6.29093">
        <ele>899.45</ele>
        <time>2015-03-08T11:00:42Z</time>
      </trkpt>
      <trkpt lat="43.63601" lon="6.2909">
        <ele>899.45</ele>
        <time>2015-03-08T11:00:44Z</time>
      </trkpt>
      <trkpt lat="43.63603" lon="6.29082">
        <ele>898.49</ele>
        <time>2015-03-08T11:00:49Z</time>
      </trkpt>
      <trkpt lat="43.63607" lon="6.29052">
        <ele>895.12</ele>
        <time>2015-03-08T11:01:04Z</time>
      </trkpt>
      <trkpt lat="43.63615" lon="6.29032">
        <ele>892.72</ele>
        <time>2015-03-08T11:01:14Z</time>
      </trkpt>
      <trkpt lat="43.63637" lon="6.29028">
        <ele>889.36</ele>
        <time>2015-03-08T11:01:30Z</time>
      </trkpt>
      <trkpt lat="43.63645" lon="6.29022">
        <ele>888.88</ele>
        <time>2015-03-08T11:01:36Z</time>
      </trkpt>
      <trkpt lat="43.63659" lon="6.29004">
        <ele>885.99</ele>
        <time>2015-03-08T11:01:50Z</time>
      </trkpt>
      <trkpt lat="43.63661" lon="6.29002">
        <ele>885.51</ele>
        <time>2015-03-08T11:01:52Z</time>
      </trkpt>
      <trkpt lat="43.63665" lon="6.28996">
        <ele>885.03</ele>
        <time>2015-03-08T11:01:55Z</time>
      </trkpt>
      <trkpt lat="43.63677" lon="6.28975">
        <ele>881.67</ele>
        <time>2015-03-08T11:02:07Z</time>
      </trkpt>
      <trkpt lat="43.63687" lon="6.28954">
        <ele>878.78</ele>
        <time>2015-03-08T11:02:19Z</time>
      </trkpt>
      <trkpt lat="43.63699" lon="6.2894">
        <ele>875.42</ele>
        <time>2015-03-08T11:02:32Z</time>
      </trkpt>
      <trkpt lat="43.63712" lon="6.28924">
        <ele>873.01</ele>
        <time>2015-03-08T11:02:45Z</time>
      </trkpt>
      <trkpt lat="43.63719" lon="6.28905">
        <ele>870.13</ele>
        <time>2015-03-08T11:02:56Z</time>
      </trkpt>
      <trkpt lat="43.63723" lon="6.28892">
        <ele>868.21</ele>
        <time>2015-03-08T11:03:05Z</time>
      </trkpt>
      <trkpt lat="43.63732" lon="6.28875">
        <ele>864.84</ele>
        <time>2015-03-08T11:03:17Z</time>
      </trkpt>
      <trkpt lat="43.63735" lon="6.2886">
        <ele>862.44</ele>
        <time>2015-03-08T11:03:29Z</time>
      </trkpt>
      <trkpt lat="43.63742" lon="6.28833">
        <ele>859.08</ele>
        <time>2015-03-08T11:03:40Z</time>
      </trkpt>
      <trkpt lat="43.63744" lon="6.28822">
        <ele>857.63</ele>
        <time>2015-03-08T11:03:44Z</time>
      </trkpt>
      <trkpt lat="43.63753" lon="6.28795">
        <ele>855.71</ele>
        <time>2015-03-08T11:03:54Z</time>
      </trkpt>
      <trkpt lat="43.63755" lon="6.2879">
        <ele>855.23</ele>
        <time>2015-03-08T11:03:55Z</time>
      </trkpt>
      <trkpt lat="43.63761" lon="6.28777">
        <ele>853.79</ele>
        <time>2015-03-08T11:04:01Z</time>
      </trkpt>
      <trkpt lat="43.63769" lon="6.28748">
        <ele>851.87</ele>
        <time>2015-03-08T11:04:13Z</time>
      </trkpt>
      <trkpt lat="43.63783" lon="6.28738">
        <ele>848.5</ele>
        <time>2015-03-08T11:04:24Z</time>
      </trkpt>
      <trkpt lat="43.63804" lon="6.28745">
        <ele>846.1</ele>
        <time>2015-03-08T11:04:38Z</time>
      </trkpt>
      <trkpt lat="43.63805" lon="6.28747">
        <ele>845.62</ele>
        <time>2015-03-08T11:04:52Z</time>
      </trkpt>
      <trkpt lat="43.63807" lon="6.28747">
        <ele>846.1</ele>
        <time>2015-03-08T11:05:12Z</time>
      </trkpt>
      <trkpt lat="43.63806" lon="6.28747">
        <ele>846.58</ele>
        <time>2015-03-08T11:05:27Z</time>
      </trkpt>
      <trkpt lat="43.63807" lon="6.28748">
        <ele>846.58</ele>
        <time>2015-03-08T11:05:45Z</time>
      </trkpt>
      <trkpt lat="43.63828" lon="6.28765">
        <ele>845.14</ele>
        <time>2015-03-08T11:06:01Z</time>
      </trkpt>
      <trkpt lat="43.63833" lon="6.28771">
        <ele>845.14</ele>
        <time>2015-03-08T11:06:04Z</time>
      </trkpt>
      <trkpt lat="43.63845" lon="6.28801">
        <ele>844.18</ele>
        <time>2015-03-08T11:06:19Z</time>
      </trkpt>
      <trkpt lat="43.63848" lon="6.28808">
        <ele>843.69</ele>
        <time>2015-03-08T11:06:23Z</time>
      </trkpt>
      <trkpt lat="43.63852" lon="6.28831">
        <ele>843.21</ele>
        <time>2015-03-08T11:06:35Z</time>
      </trkpt>
      <trkpt lat="43.6385" lon="6.2886">
        <ele>843.21</ele>
        <time>2015-03-08T11:06:49Z</time>
      </trkpt>
      <trkpt lat="43.63851" lon="6.2887">
        <ele>843.21</ele>
        <time>2015-03-08T11:06:55Z</time>
      </trkpt>
      <trkpt lat="43.63855" lon="6.28897">
        <ele>843.69</ele>
        <time>2015-03-08T11:07:10Z</time>
      </trkpt>
      <trkpt lat="43.63856" lon="6.28899">
        <ele>843.69</ele>
        <time>2015-03-08T11:07:11Z</time>
      </trkpt>
      <trkpt lat="43.63863" lon="6.28915">
        <ele>844.66</ele>
        <time>2015-03-08T11:07:22Z</time>
      </trkpt>
      <trkpt lat="43.63892" lon="6.28919">
        <ele>844.66</ele>
        <time>2015-03-08T11:07:42Z</time>
      </trkpt>
      <trkpt lat="43.63914" lon="6.28909">
        <ele>844.66</ele>
        <time>2015-03-08T11:07:58Z</time>
      </trkpt>
      <trkpt lat="43.63918" lon="6.28908">
        <ele>844.18</ele>
        <time>2015-03-08T11:08:01Z</time>
      </trkpt>
      <trkpt lat="43.63945" lon="6.28899">
        <ele>843.21</ele>
        <time>2015-03-08T11:08:17Z</time>
      </trkpt>
      <trkpt lat="43.63969" lon="6.28895">
        <ele>842.73</ele>
        <time>2015-03-08T11:08:31Z</time>
      </trkpt>
      <trkpt lat="43.63989" lon="6.2889">
        <ele>842.25</ele>
        <time>2015-03-08T11:08:45Z</time>
      </trkpt>
      <trkpt lat="43.64013" lon="6.2889">
        <ele>841.77</ele>
        <time>2015-03-08T11:08:59Z</time>
      </trkpt>
      <trkpt lat="43.64034" lon="6.28883">
        <ele>840.33</ele>
        <time>2015-03-08T11:09:14Z</time>
      </trkpt>
      <trkpt lat="43.64052" lon="6.28874">
        <ele>841.29</ele>
        <time>2015-03-08T11:09:27Z</time>
      </trkpt>
      <trkpt lat="43.64075" lon="6.28871">
        <ele>841.29</ele>
        <time>2015-03-08T11:09:42Z</time>
      </trkpt>
      <trkpt lat="43.64078" lon="6.2887">
        <ele>840.81</ele>
        <time>2015-03-08T11:09:44Z</time>
      </trkpt>
      <trkpt lat="43.64096" lon="6.28866">
        <ele>841.29</ele>
        <time>2015-03-08T11:09:58Z</time>
      </trkpt>
      <trkpt lat="43.6412" lon="6.28864">
        <ele>839.85</ele>
        <time>2015-03-08T11:10:13Z</time>
      </trkpt>
      <trkpt lat="43.64134" lon="6.28862">
        <ele>839.85</ele>
        <time>2015-03-08T11:10:22Z</time>
      </trkpt>
      <trkpt lat="43.64143" lon="6.28861">
        <ele>839.85</ele>
        <time>2015-03-08T11:10:27Z</time>
      </trkpt>
      <trkpt lat="43.64162" lon="6.28858">
        <ele>839.85</ele>
        <time>2015-03-08T11:10:42Z</time>
      </trkpt>
      <trkpt lat="43.64181" lon="6.2886">
        <ele>839.85</ele>
        <time>2015-03-08T11:10:56Z</time>
      </trkpt>
      <trkpt lat="43.64198" lon="6.28846">
        <ele>842.25</ele>
        <time>2015-03-08T11:11:10Z</time>
      </trkpt>
      <trkpt lat="43.642" lon="6.28845">
        <ele>842.25</ele>
        <time>2015-03-08T11:11:12Z</time>
      </trkpt>
      <trkpt lat="43.6421" lon="6.28841">
        <ele>842.25</ele>
        <time>2015-03-08T11:11:29Z</time>
      </trkpt>
      <trkpt lat="43.64215" lon="6.2884">
        <ele>841.77</ele>
        <time>2015-03-08T11:11:50Z</time>
      </trkpt>
      <trkpt lat="43.64216" lon="6.28834">
        <ele>842.25</ele>
        <time>2015-03-08T11:12:00Z</time>
      </trkpt>
      <trkpt lat="43.64223" lon="6.28824">
        <ele>843.21</ele>
        <time>2015-03-08T11:12:15Z</time>
      </trkpt>
      <trkpt lat="43.64224" lon="6.28819">
        <ele>843.69</ele>
        <time>2015-03-08T11:12:30Z</time>
      </trkpt>
      <trkpt lat="43.64228" lon="6.28815">
        <ele>843.21</ele>
        <time>2015-03-08T11:12:58Z</time>
      </trkpt>
      <trkpt lat="43.64231" lon="6.28808">
        <ele>845.14</ele>
        <time>2015-03-08T11:13:13Z</time>
      </trkpt>
      <trkpt lat="43.64246" lon="6.28789">
        <ele>846.58</ele>
        <time>2015-03-08T11:13:25Z</time>
      </trkpt>
      <trkpt lat="43.64255" lon="6.28781">
        <ele>846.58</ele>
        <time>2015-03-08T11:13:32Z</time>
      </trkpt>
      <trkpt lat="43.64258" lon="6.28774">
        <ele>847.06</ele>
        <time>2015-03-08T11:13:36Z</time>
      </trkpt>
      <trkpt lat="43.6426" lon="6.28741">
        <ele>848.98</ele>
        <time>2015-03-08T11:13:51Z</time>
      </trkpt>
      <trkpt lat="43.64262" lon="6.28728">
        <ele>850.42</ele>
        <time>2015-03-08T11:14:03Z</time>
      </trkpt>
      <trkpt lat="43.6427" lon="6.28714">
        <ele>849.46</ele>
        <time>2015-03-08T11:14:18Z</time>
      </trkpt>
      <trkpt lat="43.64274" lon="6.2871">
        <ele>848.5</ele>
        <time>2015-03-08T11:14:37Z</time>
      </trkpt>
      <trkpt lat="43.64277" lon="6.28712">
        <ele>847.54</ele>
        <time>2015-03-08T11:14:44Z</time>
      </trkpt>
      <trkpt lat="43.64272" lon="6.28725">
        <ele>847.54</ele>
        <time>2015-03-08T11:14:58Z</time>
      </trkpt>
      <trkpt lat="43.64273" lon="6.28726">
        <ele>847.54</ele>
        <time>2015-03-08T11:14:59Z</time>
      </trkpt>
      <trkpt lat="43.64271" lon="6.28733">
        <ele>847.06</ele>
        <time>2015-03-08T11:15:03Z</time>
      </trkpt>
      <trkpt lat="43.6427" lon="6.28742">
        <ele>846.1</ele>
        <time>2015-03-08T11:15:08Z</time>
      </trkpt>
      <trkpt lat="43.6427" lon="6.28746">
        <ele>846.1</ele>
        <time>2015-03-08T11:15:11Z</time>
      </trkpt>
      <trkpt lat="43.64269" lon="6.2875">
        <ele>845.62</ele>
        <time>2015-03-08T11:15:14Z</time>
      </trkpt>
      <trkpt lat="43.64263" lon="6.28776">
        <ele>843.69</ele>
        <time>2015-03-08T11:15:26Z</time>
      </trkpt>
      <trkpt lat="43.64258" lon="6.28799">
        <ele>842.25</ele>
        <time>2015-03-08T11:15:40Z</time>
      </trkpt>
      <trkpt lat="43.64258" lon="6.2881">
        <ele>841.77</ele>
        <time>2015-03-08T11:15:44Z</time>
      </trkpt>
      <trkpt lat="43.64257" lon="6.28822">
        <ele>840.81</ele>
        <time>2015-03-08T11:15:55Z</time>
      </trkpt>
      <trkpt lat="43.64258" lon="6.28827">
        <ele>841.77</ele>
        <time>2015-03-08T11:15:59Z</time>
      </trkpt>
      <trkpt lat="43.6426" lon="6.28842">
        <ele>840.33</ele>
        <time>2015-03-08T11:16:04Z</time>
      </trkpt>
      <trkpt lat="43.64273" lon="6.28847">
        <ele>838.41</ele>
        <time>2015-03-08T11:16:17Z</time>
      </trkpt>
      <trkpt lat="43.64286" lon="6.28833">
        <ele>837.45</ele>
        <time>2015-03-08T11:16:29Z</time>
      </trkpt>
      <trkpt lat="43.643" lon="6.28819">
        <ele>836.48</ele>
        <time>2015-03-08T11:16:42Z</time>
      </trkpt>
      <trkpt lat="43.64316" lon="6.28807">
        <ele>833.12</ele>
        <time>2015-03-08T11:16:55Z</time>
      </trkpt>
      <trkpt lat="43.64328" lon="6.28787">
        <ele>832.16</ele>
        <time>2015-03-08T11:17:07Z</time>
      </trkpt>
      <trkpt lat="43.64331" lon="6.28777">
        <ele>831.2</ele>
        <time>2015-03-08T11:17:14Z</time>
      </trkpt>
      <trkpt lat="43.64339" lon="6.2875">
        <ele>829.27</ele>
        <time>2015-03-08T11:17:28Z</time>
      </trkpt>
      <trkpt lat="43.64348" lon="6.28726">
        <ele>827.83</ele>
        <time>2015-03-08T11:17:41Z</time>
      </trkpt>
      <trkpt lat="43.64355" lon="6.28711">
        <ele>828.79</ele>
        <time>2015-03-08T11:17:49Z</time>
      </trkpt>
      <trkpt lat="43.64374" lon="6.28695">
        <ele>827.35</ele>
        <time>2015-03-08T11:18:02Z</time>
      </trkpt>
      <trkpt lat="43.64396" lon="6.28677">
        <ele>826.87</ele>
        <time>2015-03-08T11:18:18Z</time>
      </trkpt>
      <trkpt lat="43.64414" lon="6.28659">
        <ele>826.39</ele>
        <time>2015-03-08T11:18:32Z</time>
      </trkpt>
      <trkpt lat="43.64437" lon="6.2864">
        <ele>827.35</ele>
        <time>2015-03-08T11:18:44Z</time>
      </trkpt>
      <trkpt lat="43.64479" lon="6.28605">
        <ele>827.35</ele>
        <time>2015-03-08T11:18:56Z</time>
      </trkpt>
      <trkpt lat="43.64539" lon="6.28556">
        <ele>827.83</ele>
        <time>2015-03-08T11:19:08Z</time>
      </trkpt>
      <trkpt lat="43.64599" lon="6.28529">
        <ele>829.76</ele>
        <time>2015-03-08T11:19:17Z</time>
      </trkpt>
      <trkpt lat="43.6465" lon="6.28517">
        <ele>827.35</ele>
        <time>2015-03-08T11:19:25Z</time>
      </trkpt>
      <trkpt lat="43.64652" lon="6.28513">
        <ele>828.31</ele>
        <time>2015-03-08T11:19:26Z</time>
      </trkpt>
      <trkpt lat="43.64652" lon="6.2851">
        <ele>828.79</ele>
        <time>2015-03-08T11:19:27Z</time>
      </trkpt>
      <trkpt lat="43.64652" lon="6.28508">
        <ele>828.79</ele>
        <time>2015-03-08T11:19:28Z</time>
      </trkpt>
      <trkpt lat="43.64653" lon="6.28506">
        <ele>828.79</ele>
        <time>2015-03-08T11:19:29Z</time>
      </trkpt>
      <trkpt lat="43.64652" lon="6.28503">
        <ele>830.24</ele>
        <time>2015-03-08T11:19:41Z</time>
      </trkpt>
      <trkpt lat="43.64638" lon="6.28506">
        <ele>830.24</ele>
        <time>2015-03-08T11:19:52Z</time>
      </trkpt>
      <trkpt lat="43.64635" lon="6.28506">
        <ele>830.24</ele>
        <time>2015-03-08T11:19:54Z</time>
      </trkpt>
      <trkpt lat="43.64628" lon="6.28502">
        <ele>832.16</ele>
        <time>2015-03-08T11:20:00Z</time>
      </trkpt>
      <trkpt lat="43.64623" lon="6.28502">
        <ele>832.64</ele>
        <time>2015-03-08T11:20:17Z</time>
      </trkpt>
      <trkpt lat="43.64618" lon="6.28506">
        <ele>832.64</ele>
        <time>2015-03-08T11:20:21Z</time>
      </trkpt>
      <trkpt lat="43.64613" lon="6.28508">
        <ele>832.64</ele>
        <time>2015-03-08T11:20:25Z</time>
      </trkpt>
      <trkpt lat="43.64593" lon="6.28516">
        <ele>831.68</ele>
        <time>2015-03-08T11:20:39Z</time>
      </trkpt>
      <trkpt lat="43.64574" lon="6.28526">
        <ele>830.72</ele>
        <time>2015-03-08T11:20:52Z</time>
      </trkpt>
      <trkpt lat="43.6457" lon="6.28528">
        <ele>830.72</ele>
        <time>2015-03-08T11:21:03Z</time>
      </trkpt>
      <trkpt lat="43.6457" lon="6.28524">
        <ele>832.16</ele>
        <time>2015-03-08T11:21:10Z</time>
      </trkpt>
      <trkpt lat="43.64574" lon="6.28505">
        <ele>835.04</ele>
        <time>2015-03-08T11:21:21Z</time>
      </trkpt>
      <trkpt lat="43.64581" lon="6.28492">
        <ele>836</ele>
        <time>2015-03-08T11:21:36Z</time>
      </trkpt>
      <trkpt lat="43.64581" lon="6.2849">
        <ele>836</ele>
        <time>2015-03-08T11:21:50Z</time>
      </trkpt>
      <trkpt lat="43.64581" lon="6.28489">
        <ele>836.48</ele>
        <time>2015-03-08T11:21:59Z</time>
      </trkpt>
      <trkpt lat="43.64579" lon="6.28481">
        <ele>836.96</ele>
        <time>2015-03-08T11:22:04Z</time>
      </trkpt>
      <trkpt lat="43.64582" lon="6.28458">
        <ele>838.89</ele>
        <time>2015-03-08T11:22:18Z</time>
      </trkpt>
      <trkpt lat="43.64584" lon="6.28458">
        <ele>839.37</ele>
        <time>2015-03-08T11:22:20Z</time>
      </trkpt>
      <trkpt lat="43.64594" lon="6.28441">
        <ele>839.85</ele>
        <time>2015-03-08T11:22:32Z</time>
      </trkpt>
      <trkpt lat="43.64603" lon="6.28431">
        <ele>838.41</ele>
        <time>2015-03-08T11:22:43Z</time>
      </trkpt>
      <trkpt lat="43.64609" lon="6.28424">
        <ele>837.93</ele>
        <time>2015-03-08T11:22:48Z</time>
      </trkpt>
      <trkpt lat="43.64617" lon="6.28406">
        <ele>837.93</ele>
        <time>2015-03-08T11:22:59Z</time>
      </trkpt>
      <trkpt lat="43.64622" lon="6.2839">
        <ele>837.93</ele>
        <time>2015-03-08T11:23:11Z</time>
      </trkpt>
      <trkpt lat="43.64628" lon="6.28371">
        <ele>837.45</ele>
        <time>2015-03-08T11:23:26Z</time>
      </trkpt>
      <trkpt lat="43.64631" lon="6.28363">
        <ele>837.45</ele>
        <time>2015-03-08T11:23:32Z</time>
      </trkpt>
      <trkpt lat="43.64634" lon="6.28347">
        <ele>838.41</ele>
        <time>2015-03-08T11:23:47Z</time>
      </trkpt>
      <trkpt lat="43.64645" lon="6.28329">
        <ele>836.48</ele>
        <time>2015-03-08T11:24:01Z</time>
      </trkpt>
      <trkpt lat="43.64645" lon="6.28326">
        <ele>836.96</ele>
        <time>2015-03-08T11:24:09Z</time>
      </trkpt>
      <trkpt lat="43.64634" lon="6.28321">
        <ele>840.81</ele>
        <time>2015-03-08T11:24:19Z</time>
      </trkpt>
      <trkpt lat="43.64636" lon="6.28306">
        <ele>842.25</ele>
        <time>2015-03-08T11:24:28Z</time>
      </trkpt>
      <trkpt lat="43.64647" lon="6.28279">
        <ele>841.77</ele>
        <time>2015-03-08T11:24:42Z</time>
      </trkpt>
      <trkpt lat="43.64649" lon="6.28274">
        <ele>841.77</ele>
        <time>2015-03-08T11:24:44Z</time>
      </trkpt>
      <trkpt lat="43.64658" lon="6.28252">
        <ele>842.25</ele>
        <time>2015-03-08T11:24:59Z</time>
      </trkpt>
      <trkpt lat="43.64659" lon="6.2825">
        <ele>842.25</ele>
        <time>2015-03-08T11:25:00Z</time>
      </trkpt>
      <trkpt lat="43.64668" lon="6.28227">
        <ele>842.25</ele>
        <time>2015-03-08T11:25:12Z</time>
      </trkpt>
      <trkpt lat="43.6468" lon="6.28203">
        <ele>843.21</ele>
        <time>2015-03-08T11:25:27Z</time>
      </trkpt>
      <trkpt lat="43.64685" lon="6.28191">
        <ele>842.73</ele>
        <time>2015-03-08T11:25:35Z</time>
      </trkpt>
      <trkpt lat="43.64698" lon="6.28167">
        <ele>843.69</ele>
        <time>2015-03-08T11:25:50Z</time>
      </trkpt>
      <trkpt lat="43.64714" lon="6.28147">
        <ele>843.69</ele>
        <time>2015-03-08T11:26:05Z</time>
      </trkpt>
      <trkpt lat="43.64726" lon="6.28131">
        <ele>843.69</ele>
        <time>2015-03-08T11:26:17Z</time>
      </trkpt>
      <trkpt lat="43.64732" lon="6.28123">
        <ele>843.69</ele>
        <time>2015-03-08T11:26:24Z</time>
      </trkpt>
      <trkpt lat="43.64737" lon="6.28118">
        <ele>844.18</ele>
        <time>2015-03-08T11:26:27Z</time>
      </trkpt>
      <trkpt lat="43.64753" lon="6.281">
        <ele>845.14</ele>
        <time>2015-03-08T11:26:41Z</time>
      </trkpt>
      <trkpt lat="43.64767" lon="6.28087">
        <ele>844.66</ele>
        <time>2015-03-08T11:26:53Z</time>
      </trkpt>
      <trkpt lat="43.64772" lon="6.28085">
        <ele>844.66</ele>
        <time>2015-03-08T11:26:58Z</time>
      </trkpt>
      <trkpt lat="43.64792" lon="6.28064">
        <ele>845.14</ele>
        <time>2015-03-08T11:27:13Z</time>
      </trkpt>
      <trkpt lat="43.6481" lon="6.28053">
        <ele>845.14</ele>
        <time>2015-03-08T11:27:30Z</time>
      </trkpt>
      <trkpt lat="43.64821" lon="6.28046">
        <ele>845.62</ele>
        <time>2015-03-08T11:27:38Z</time>
      </trkpt>
      <trkpt lat="43.64836" lon="6.28033">
        <ele>845.62</ele>
        <time>2015-03-08T11:27:52Z</time>
      </trkpt>
      <trkpt lat="43.64847" lon="6.28019">
        <ele>845.62</ele>
        <time>2015-03-08T11:28:02Z</time>
      </trkpt>
      <trkpt lat="43.64865" lon="6.27998">
        <ele>845.62</ele>
        <time>2015-03-08T11:28:17Z</time>
      </trkpt>
      <trkpt lat="43.6488" lon="6.27975">
        <ele>845.62</ele>
        <time>2015-03-08T11:28:30Z</time>
      </trkpt>
      <trkpt lat="43.64881" lon="6.27973">
        <ele>845.62</ele>
        <time>2015-03-08T11:28:32Z</time>
      </trkpt>
      <trkpt lat="43.64889" lon="6.27968">
        <ele>845.62</ele>
        <time>2015-03-08T11:28:39Z</time>
      </trkpt>
      <trkpt lat="43.64901" lon="6.27956">
        <ele>846.1</ele>
        <time>2015-03-08T11:28:50Z</time>
      </trkpt>
      <trkpt lat="43.64921" lon="6.27933">
        <ele>846.1</ele>
        <time>2015-03-08T11:29:04Z</time>
      </trkpt>
      <trkpt lat="43.64931" lon="6.2792">
        <ele>846.1</ele>
        <time>2015-03-08T11:29:17Z</time>
      </trkpt>
      <trkpt lat="43.64932" lon="6.27913">
        <ele>846.1</ele>
        <time>2015-03-08T11:29:24Z</time>
      </trkpt>
      <trkpt lat="43.64933" lon="6.27895">
        <ele>846.1</ele>
        <time>2015-03-08T11:29:35Z</time>
      </trkpt>
      <trkpt lat="43.64938" lon="6.27886">
        <ele>845.62</ele>
        <time>2015-03-08T11:29:42Z</time>
      </trkpt>
      <trkpt lat="43.64943" lon="6.27882">
        <ele>845.14</ele>
        <time>2015-03-08T11:29:46Z</time>
      </trkpt>
      <trkpt lat="43.64945" lon="6.2788">
        <ele>845.14</ele>
        <time>2015-03-08T11:29:48Z</time>
      </trkpt>
      <trkpt lat="43.64951" lon="6.27876">
        <ele>845.62</ele>
        <time>2015-03-08T11:29:54Z</time>
      </trkpt>
      <trkpt lat="43.64954" lon="6.27875">
        <ele>845.14</ele>
        <time>2015-03-08T11:29:57Z</time>
      </trkpt>
      <trkpt lat="43.64977" lon="6.27864">
        <ele>845.62</ele>
        <time>2015-03-08T11:30:11Z</time>
      </trkpt>
      <trkpt lat="43.64992" lon="6.27849">
        <ele>844.18</ele>
        <time>2015-03-08T11:30:24Z</time>
      </trkpt>
      <trkpt lat="43.65008" lon="6.2783">
        <ele>844.66</ele>
        <time>2015-03-08T11:30:37Z</time>
      </trkpt>
      <trkpt lat="43.65019" lon="6.27814">
        <ele>844.18</ele>
        <time>2015-03-08T11:30:48Z</time>
      </trkpt>
      <trkpt lat="43.65022" lon="6.27807">
        <ele>844.18</ele>
        <time>2015-03-08T11:30:52Z</time>
      </trkpt>
      <trkpt lat="43.65024" lon="6.27802">
        <ele>843.69</ele>
        <time>2015-03-08T11:30:54Z</time>
      </trkpt>
      <trkpt lat="43.65034" lon="6.27775">
        <ele>843.69</ele>
        <time>2015-03-08T11:31:04Z</time>
      </trkpt>
      <trkpt lat="43.65044" lon="6.2775">
        <ele>843.21</ele>
        <time>2015-03-08T11:31:15Z</time>
      </trkpt>
      <trkpt lat="43.65055" lon="6.27722">
        <ele>843.69</ele>
        <time>2015-03-08T11:31:29Z</time>
      </trkpt>
      <trkpt lat="43.65071" lon="6.27696">
        <ele>843.69</ele>
        <time>2015-03-08T11:31:45Z</time>
      </trkpt>
      <trkpt lat="43.6508" lon="6.27678">
        <ele>843.69</ele>
        <time>2015-03-08T11:31:54Z</time>
      </trkpt>
      <trkpt lat="43.65085" lon="6.27668">
        <ele>843.69</ele>
        <time>2015-03-08T11:32:00Z</time>
      </trkpt>
      <trkpt lat="43.6509" lon="6.27661">
        <ele>843.69</ele>
        <time>2015-03-08T11:32:05Z</time>
      </trkpt>
      <trkpt lat="43.65101" lon="6.27636">
        <ele>843.69</ele>
        <time>2015-03-08T11:32:19Z</time>
      </trkpt>
      <trkpt lat="43.65119" lon="6.27617">
        <ele>843.69</ele>
        <time>2015-03-08T11:32:35Z</time>
      </trkpt>
      <trkpt lat="43.65138" lon="6.27602">
        <ele>843.69</ele>
        <time>2015-03-08T11:32:48Z</time>
      </trkpt>
      <trkpt lat="43.6514" lon="6.276">
        <ele>844.18</ele>
        <time>2015-03-08T11:32:50Z</time>
      </trkpt>
      <trkpt lat="43.65148" lon="6.27593">
        <ele>844.18</ele>
        <time>2015-03-08T11:32:56Z</time>
      </trkpt>
      <trkpt lat="43.65154" lon="6.27587">
        <ele>842.25</ele>
        <time>2015-03-08T11:33:08Z</time>
      </trkpt>
      <trkpt lat="43.65156" lon="6.27589">
        <ele>841.77</ele>
        <time>2015-03-08T11:33:15Z</time>
      </trkpt>
      <trkpt lat="43.65156" lon="6.27601">
        <ele>838.41</ele>
        <time>2015-03-08T11:33:26Z</time>
      </trkpt>
      <trkpt lat="43.65162" lon="6.2761">
        <ele>836</ele>
        <time>2015-03-08T11:33:37Z</time>
      </trkpt>
      <trkpt lat="43.65182" lon="6.27613">
        <ele>833.6</ele>
        <time>2015-03-08T11:33:53Z</time>
      </trkpt>
      <trkpt lat="43.65184" lon="6.27613">
        <ele>833.6</ele>
        <time>2015-03-08T11:33:54Z</time>
      </trkpt>
      <trkpt lat="43.65187" lon="6.27612">
        <ele>834.08</ele>
        <time>2015-03-08T11:33:56Z</time>
      </trkpt>
      <trkpt lat="43.65204" lon="6.27596">
        <ele>835.52</ele>
        <time>2015-03-08T11:34:07Z</time>
      </trkpt>
      <trkpt lat="43.6522" lon="6.27572">
        <ele>836.48</ele>
        <time>2015-03-08T11:34:18Z</time>
      </trkpt>
      <trkpt lat="43.65228" lon="6.2756">
        <ele>837.45</ele>
        <time>2015-03-08T11:34:25Z</time>
      </trkpt>
      <trkpt lat="43.65231" lon="6.27552">
        <ele>837.93</ele>
        <time>2015-03-08T11:34:29Z</time>
      </trkpt>
      <trkpt lat="43.65243" lon="6.27524">
        <ele>838.89</ele>
        <time>2015-03-08T11:34:44Z</time>
      </trkpt>
      <trkpt lat="43.65248" lon="6.27513">
        <ele>838.89</ele>
        <time>2015-03-08T11:34:53Z</time>
      </trkpt>
      <trkpt lat="43.65253" lon="6.2751">
        <ele>839.37</ele>
        <time>2015-03-08T11:34:58Z</time>
      </trkpt>
      <trkpt lat="43.65267" lon="6.27488">
        <ele>839.85</ele>
        <time>2015-03-08T11:35:13Z</time>
      </trkpt>
      <trkpt lat="43.65273" lon="6.27484">
        <ele>839.85</ele>
        <time>2015-03-08T11:35:18Z</time>
      </trkpt>
      <trkpt lat="43.65277" lon="6.27481">
        <ele>839.85</ele>
        <time>2015-03-08T11:35:21Z</time>
      </trkpt>
      <trkpt lat="43.65283" lon="6.27472">
        <ele>840.33</ele>
        <time>2015-03-08T11:35:28Z</time>
      </trkpt>
      <trkpt lat="43.65285" lon="6.2747">
        <ele>840.33</ele>
        <time>2015-03-08T11:35:30Z</time>
      </trkpt>
      <trkpt lat="43.65296" lon="6.27457">
        <ele>840.33</ele>
        <time>2015-03-08T11:35:41Z</time>
      </trkpt>
      <trkpt lat="43.65298" lon="6.27454">
        <ele>840.33</ele>
        <time>2015-03-08T11:35:43Z</time>
      </trkpt>
      <trkpt lat="43.65304" lon="6.27449">
        <ele>840.81</ele>
        <time>2015-03-08T11:35:48Z</time>
      </trkpt>
      <trkpt lat="43.6532" lon="6.27435">
        <ele>841.77</ele>
        <time>2015-03-08T11:36:03Z</time>
      </trkpt>
      <trkpt lat="43.65338" lon="6.27426">
        <ele>841.77</ele>
        <time>2015-03-08T11:36:18Z</time>
      </trkpt>
      <trkpt lat="43.65344" lon="6.2742">
        <ele>842.25</ele>
        <time>2015-03-08T11:36:31Z</time>
      </trkpt>
      <trkpt lat="43.65343" lon="6.2741">
        <ele>843.21</ele>
        <time>2015-03-08T11:36:47Z</time>
      </trkpt>
      <trkpt lat="43.65343" lon="6.27409">
        <ele>842.73</ele>
        <time>2015-03-08T11:37:08Z</time>
      </trkpt>
      <trkpt lat="43.65343" lon="6.27408">
        <ele>843.21</ele>
        <time>2015-03-08T11:37:09Z</time>
      </trkpt>
      <trkpt lat="43.65345" lon="6.27405">
        <ele>843.21</ele>
        <time>2015-03-08T11:37:11Z</time>
      </trkpt>
      <trkpt lat="43.65352" lon="6.27379">
        <ele>843.21</ele>
        <time>2015-03-08T11:37:24Z</time>
      </trkpt>
      <trkpt lat="43.65353" lon="6.27377">
        <ele>843.21</ele>
        <time>2015-03-08T11:37:25Z</time>
      </trkpt>
      <trkpt lat="43.65353" lon="6.27373">
        <ele>843.69</ele>
        <time>2015-03-08T11:37:27Z</time>
      </trkpt>
      <trkpt lat="43.6534" lon="6.27354">
        <ele>845.14</ele>
        <time>2015-03-08T11:37:42Z</time>
      </trkpt>
      <trkpt lat="43.65337" lon="6.27337">
        <ele>846.1</ele>
        <time>2015-03-08T11:37:57Z</time>
      </trkpt>
      <trkpt lat="43.65333" lon="6.27323">
        <ele>846.58</ele>
        <time>2015-03-08T11:38:11Z</time>
      </trkpt>
      <trkpt lat="43.65332" lon="6.27316">
        <ele>846.58</ele>
        <time>2015-03-08T11:38:25Z</time>
      </trkpt>
      <trkpt lat="43.65331" lon="6.27311">
        <ele>845.62</ele>
        <time>2015-03-08T11:38:41Z</time>
      </trkpt>
      <trkpt lat="43.65332" lon="6.2731">
        <ele>846.58</ele>
        <time>2015-03-08T11:38:58Z</time>
      </trkpt>
      <trkpt lat="43.65331" lon="6.2731">
        <ele>846.1</ele>
        <time>2015-03-08T11:39:12Z</time>
      </trkpt>
      <trkpt lat="43.65332" lon="6.27311">
        <ele>847.06</ele>
        <time>2015-03-08T11:39:32Z</time>
      </trkpt>
      <trkpt lat="43.65332" lon="6.2731">
        <ele>846.58</ele>
        <time>2015-03-08T11:39:50Z</time>
      </trkpt>
      <trkpt lat="43.65331" lon="6.27308">
        <ele>846.1</ele>
        <time>2015-03-08T11:40:11Z</time>
      </trkpt>
      <trkpt lat="43.65331" lon="6.27307">
        <ele>847.54</ele>
        <time>2015-03-08T11:40:28Z</time>
      </trkpt>
      <trkpt lat="43.65331" lon="6.27307">
        <ele>847.54</ele>
        <time>2015-03-08T11:40:44Z</time>
      </trkpt>
      <trkpt lat="43.65329" lon="6.27308">
        <ele>848.02</ele>
        <time>2015-03-08T11:41:01Z</time>
      </trkpt>
      <trkpt lat="43.65328" lon="6.27309">
        <ele>847.54</ele>
        <time>2015-03-08T11:41:16Z</time>
      </trkpt>
      <trkpt lat="43.65326" lon="6.2731">
        <ele>847.54</ele>
        <time>2015-03-08T11:41:41Z</time>
      </trkpt>
      <trkpt lat="43.65325" lon="6.27304">
        <ele>848.02</ele>
        <time>2015-03-08T11:41:54Z</time>
      </trkpt>
      <trkpt lat="43.65326" lon="6.27302">
        <ele>848.98</ele>
        <time>2015-03-08T11:42:11Z</time>
      </trkpt>
      <trkpt lat="43.65324" lon="6.27302">
        <ele>848.98</ele>
        <time>2015-03-08T11:42:24Z</time>
      </trkpt>
      <trkpt lat="43.65324" lon="6.27298">
        <ele>849.46</ele>
        <time>2015-03-08T11:42:39Z</time>
      </trkpt>
      <trkpt lat="43.65323" lon="6.27297">
        <ele>849.94</ele>
        <time>2015-03-08T11:42:55Z</time>
      </trkpt>
      <trkpt lat="43.65327" lon="6.27302">
        <ele>848.98</ele>
        <time>2015-03-08T11:43:10Z</time>
      </trkpt>
      <trkpt lat="43.65328" lon="6.27301">
        <ele>849.46</ele>
        <time>2015-03-08T11:43:25Z</time>
      </trkpt>
      <trkpt lat="43.65331" lon="6.27303">
        <ele>848.98</ele>
        <time>2015-03-08T11:43:38Z</time>
      </trkpt>
      <trkpt lat="43.65328" lon="6.27304">
        <ele>848.98</ele>
        <time>2015-03-08T11:43:51Z</time>
      </trkpt>
      <trkpt lat="43.65327" lon="6.27305">
        <ele>849.46</ele>
        <time>2015-03-08T11:44:11Z</time>
      </trkpt>
      <trkpt lat="43.65323" lon="6.27305">
        <ele>850.42</ele>
        <time>2015-03-08T11:44:25Z</time>
      </trkpt>
      <trkpt lat="43.6532" lon="6.27303">
        <ele>850.42</ele>
        <time>2015-03-08T11:44:33Z</time>
      </trkpt>
      <trkpt lat="43.65326" lon="6.27289">
        <ele>850.42</ele>
        <time>2015-03-08T11:44:47Z</time>
      </trkpt>
      <trkpt lat="43.65326" lon="6.2729">
        <ele>850.42</ele>
        <time>2015-03-08T11:45:13Z</time>
      </trkpt>
      <trkpt lat="43.65321" lon="6.27297">
        <ele>850.9</ele>
        <time>2015-03-08T11:45:25Z</time>
      </trkpt>
      <trkpt lat="43.65318" lon="6.27301">
        <ele>850.42</ele>
        <time>2015-03-08T11:45:38Z</time>
      </trkpt>
      <trkpt lat="43.6532" lon="6.27304">
        <ele>850.9</ele>
        <time>2015-03-08T11:45:53Z</time>
      </trkpt>
      <trkpt lat="43.65322" lon="6.27303">
        <ele>850.9</ele>
        <time>2015-03-08T11:46:08Z</time>
      </trkpt>
      <trkpt lat="43.65324" lon="6.27302">
        <ele>850.9</ele>
        <time>2015-03-08T11:46:33Z</time>
      </trkpt>
      <trkpt lat="43.65325" lon="6.27305">
        <ele>851.38</ele>
        <time>2015-03-08T11:46:46Z</time>
      </trkpt>
      <trkpt lat="43.65325" lon="6.27306">
        <ele>850.9</ele>
        <time>2015-03-08T11:47:12Z</time>
      </trkpt>
      <trkpt lat="43.65326" lon="6.27306">
        <ele>851.38</ele>
        <time>2015-03-08T11:47:33Z</time>
      </trkpt>
      <trkpt lat="43.65331" lon="6.27303">
        <ele>849.94</ele>
        <time>2015-03-08T11:47:46Z</time>
      </trkpt>
      <trkpt lat="43.65332" lon="6.27301">
        <ele>849.94</ele>
        <time>2015-03-08T11:47:58Z</time>
      </trkpt>
      <trkpt lat="43.6533" lon="6.27297">
        <ele>850.9</ele>
        <time>2015-03-08T11:48:12Z</time>
      </trkpt>
      <trkpt lat="43.65329" lon="6.27298">
        <ele>850.9</ele>
        <time>2015-03-08T11:48:31Z</time>
      </trkpt>
      <trkpt lat="43.65329" lon="6.27299">
        <ele>850.9</ele>
        <time>2015-03-08T11:48:57Z</time>
      </trkpt>
      <trkpt lat="43.65329" lon="6.27299">
        <ele>850.9</ele>
        <time>2015-03-08T11:49:26Z</time>
      </trkpt>
      <trkpt lat="43.6533" lon="6.27299">
        <ele>850.9</ele>
        <time>2015-03-08T11:49:56Z</time>
      </trkpt>
      <trkpt lat="43.6533" lon="6.27299">
        <ele>850.9</ele>
        <time>2015-03-08T11:50:18Z</time>
      </trkpt>
      <trkpt lat="43.65326" lon="6.273">
        <ele>851.87</ele>
        <time>2015-03-08T11:50:29Z</time>
      </trkpt>
      <trkpt lat="43.65325" lon="6.27305">
        <ele>850.9</ele>
        <time>2015-03-08T11:50:43Z</time>
      </trkpt>
      <trkpt lat="43.65328" lon="6.2731">
        <ele>850.42</ele>
        <time>2015-03-08T11:51:00Z</time>
      </trkpt>
      <trkpt lat="43.65328" lon="6.27309">
        <ele>850.42</ele>
        <time>2015-03-08T11:51:23Z</time>
      </trkpt>
      <trkpt lat="43.65325" lon="6.27297">
        <ele>851.38</ele>
        <time>2015-03-08T11:51:35Z</time>
      </trkpt>
      <trkpt lat="43.65324" lon="6.27295">
        <ele>851.38</ele>
        <time>2015-03-08T11:51:52Z</time>
      </trkpt>
      <trkpt lat="43.65323" lon="6.27295">
        <ele>852.35</ele>
        <time>2015-03-08T11:52:07Z</time>
      </trkpt>
      <trkpt lat="43.65326" lon="6.27305">
        <ele>851.38</ele>
        <time>2015-03-08T11:52:23Z</time>
      </trkpt>
      <trkpt lat="43.65326" lon="6.27307">
        <ele>851.38</ele>
        <time>2015-03-08T11:53:01Z</time>
      </trkpt>
      <trkpt lat="43.65327" lon="6.27308">
        <ele>851.38</ele>
        <time>2015-03-08T11:53:35Z</time>
      </trkpt>
      <trkpt lat="43.65327" lon="6.27308">
        <ele>850.9</ele>
        <time>2015-03-08T11:54:06Z</time>
      </trkpt>
      <trkpt lat="43.65326" lon="6.27308">
        <ele>850.9</ele>
        <time>2015-03-08T11:54:25Z</time>
      </trkpt>
      <trkpt lat="43.65335" lon="6.27309">
        <ele>848.5</ele>
        <time>2015-03-08T11:54:42Z</time>
      </trkpt>
      <trkpt lat="43.65342" lon="6.27307">
        <ele>847.06</ele>
        <time>2015-03-08T11:55:01Z</time>
      </trkpt>
      <trkpt lat="43.65345" lon="6.27309">
        <ele>846.1</ele>
        <time>2015-03-08T11:55:16Z</time>
      </trkpt>
      <trkpt lat="43.65357" lon="6.27315">
        <ele>846.58</ele>
        <time>2015-03-08T11:55:57Z</time>
      </trkpt>
      <trkpt lat="43.65352" lon="6.27313">
        <ele>847.06</ele>
        <time>2015-03-08T11:56:15Z</time>
      </trkpt>
      <trkpt lat="43.65372" lon="6.27263">
        <ele>847.06</ele>
        <time>2015-03-08T11:56:45Z</time>
      </trkpt>
      <trkpt lat="43.65349" lon="6.27304">
        <ele>848.02</ele>
        <time>2015-03-08T11:57:00Z</time>
      </trkpt>
      <trkpt lat="43.65352" lon="6.27293">
        <ele>848.5</ele>
        <time>2015-03-08T11:57:12Z</time>
      </trkpt>
      <trkpt lat="43.65355" lon="6.27282">
        <ele>848.02</ele>
        <time>2015-03-08T11:57:27Z</time>
      </trkpt>
      <trkpt lat="43.65352" lon="6.27285">
        <ele>848.5</ele>
        <time>2015-03-08T11:57:44Z</time>
      </trkpt>
      <trkpt lat="43.65345" lon="6.27301">
        <ele>848.98</ele>
        <time>2015-03-08T11:57:57Z</time>
      </trkpt>
      <trkpt lat="43.65333" lon="6.27316">
        <ele>850.42</ele>
        <time>2015-03-08T11:58:10Z</time>
      </trkpt>
      <trkpt lat="43.65324" lon="6.27311">
        <ele>851.87</ele>
        <time>2015-03-08T11:58:25Z</time>
      </trkpt>
      <trkpt lat="43.65321" lon="6.27307">
        <ele>852.35</ele>
        <time>2015-03-08T11:58:39Z</time>
      </trkpt>
      <trkpt lat="43.65324" lon="6.27306">
        <ele>852.35</ele>
        <time>2015-03-08T11:59:06Z</time>
      </trkpt>
      <trkpt lat="43.65324" lon="6.27305">
        <ele>852.83</ele>
        <time>2015-03-08T11:59:28Z</time>
      </trkpt>
      <trkpt lat="43.65324" lon="6.27305">
        <ele>852.83</ele>
        <time>2015-03-08T11:59:53Z</time>
      </trkpt>
      <trkpt lat="43.65324" lon="6.27305">
        <ele>852.83</ele>
        <time>2015-03-08T12:00:24Z</time>
      </trkpt>
      <trkpt lat="43.65324" lon="6.27304">
        <ele>853.31</ele>
        <time>2015-03-08T12:00:51Z</time>
      </trkpt>
      <trkpt lat="43.65324" lon="6.27305">
        <ele>853.79</ele>
        <time>2015-03-08T12:01:13Z</time>
      </trkpt>
      <trkpt lat="43.65325" lon="6.27308">
        <ele>853.79</ele>
        <time>2015-03-08T12:01:15Z</time>
      </trkpt>
      <trkpt lat="43.65327" lon="6.2731">
        <ele>852.83</ele>
        <time>2015-03-08T12:01:28Z</time>
      </trkpt>
      <trkpt lat="43.65322" lon="6.27304">
        <ele>854.27</ele>
        <time>2015-03-08T12:01:43Z</time>
      </trkpt>
      <trkpt lat="43.65322" lon="6.27305">
        <ele>853.79</ele>
        <time>2015-03-08T12:02:04Z</time>
      </trkpt>
      <trkpt lat="43.65316" lon="6.27301">
        <ele>854.75</ele>
        <time>2015-03-08T12:02:18Z</time>
      </trkpt>
      <trkpt lat="43.65317" lon="6.27303">
        <ele>854.75</ele>
        <time>2015-03-08T12:02:35Z</time>
      </trkpt>
      <trkpt lat="43.65318" lon="6.27304">
        <ele>854.75</ele>
        <time>2015-03-08T12:03:03Z</time>
      </trkpt>
      <trkpt lat="43.65319" lon="6.27304">
        <ele>854.75</ele>
        <time>2015-03-08T12:03:19Z</time>
      </trkpt>
      <trkpt lat="43.65323" lon="6.27304">
        <ele>854.75</ele>
        <time>2015-03-08T12:03:41Z</time>
      </trkpt>
      <trkpt lat="43.65325" lon="6.27304">
        <ele>854.27</ele>
        <time>2015-03-08T12:03:54Z</time>
      </trkpt>
      <trkpt lat="43.65324" lon="6.27304">
        <ele>853.79</ele>
        <time>2015-03-08T12:04:25Z</time>
      </trkpt>
      <trkpt lat="43.65323" lon="6.27304">
        <ele>854.27</ele>
        <time>2015-03-08T12:04:56Z</time>
      </trkpt>
      <trkpt lat="43.65323" lon="6.27304">
        <ele>854.27</ele>
        <time>2015-03-08T12:05:24Z</time>
      </trkpt>
      <trkpt lat="43.65324" lon="6.27305">
        <ele>853.79</ele>
        <time>2015-03-08T12:05:52Z</time>
      </trkpt>
      <trkpt lat="43.65323" lon="6.27304">
        <ele>854.27</ele>
        <time>2015-03-08T12:06:20Z</time>
      </trkpt>
      <trkpt lat="43.65323" lon="6.27304">
        <ele>854.27</ele>
        <time>2015-03-08T12:06:54Z</time>
      </trkpt>
      <trkpt lat="43.65323" lon="6.27304">
        <ele>854.27</ele>
        <time>2015-03-08T12:07:23Z</time>
      </trkpt>
      <trkpt lat="43.65324" lon="6.27304">
        <ele>854.27</ele>
        <time>2015-03-08T12:07:53Z</time>
      </trkpt>
      <trkpt lat="43.65324" lon="6.27304">
        <ele>854.27</ele>
        <time>2015-03-08T12:08:25Z</time>
      </trkpt>
      <trkpt lat="43.65323" lon="6.27305">
        <ele>854.75</ele>
        <time>2015-03-08T12:08:59Z</time>
      </trkpt>
      <trkpt lat="43.65323" lon="6.27305">
        <ele>854.75</ele>
        <time>2015-03-08T12:09:30Z</time>
      </trkpt>
      <trkpt lat="43.65325" lon="6.27302">
        <ele>854.75</ele>
        <time>2015-03-08T12:10:00Z</time>
      </trkpt>
      <trkpt lat="43.65322" lon="6.27296">
        <ele>855.71</ele>
        <time>2015-03-08T12:10:13Z</time>
      </trkpt>
      <trkpt lat="43.6532" lon="6.27298">
        <ele>855.71</ele>
        <time>2015-03-08T12:10:29Z</time>
      </trkpt>
      <trkpt lat="43.65319" lon="6.27299">
        <ele>855.71</ele>
        <time>2015-03-08T12:10:47Z</time>
      </trkpt>
      <trkpt lat="43.65319" lon="6.27299">
        <ele>855.71</ele>
        <time>2015-03-08T12:11:08Z</time>
      </trkpt>
      <trkpt lat="43.6532" lon="6.273">
        <ele>855.71</ele>
        <time>2015-03-08T12:11:34Z</time>
      </trkpt>
      <trkpt lat="43.6532" lon="6.273">
        <ele>855.23</ele>
        <time>2015-03-08T12:11:56Z</time>
      </trkpt>
      <trkpt lat="43.65322" lon="6.273">
        <ele>855.71</ele>
        <time>2015-03-08T12:12:17Z</time>
      </trkpt>
      <trkpt lat="43.65322" lon="6.27299">
        <ele>856.19</ele>
        <time>2015-03-08T12:12:47Z</time>
      </trkpt>
      <trkpt lat="43.65321" lon="6.27298">
        <ele>856.19</ele>
        <time>2015-03-08T12:13:12Z</time>
      </trkpt>
      <trkpt lat="43.6532" lon="6.27298">
        <ele>855.71</ele>
        <time>2015-03-08T12:13:37Z</time>
      </trkpt>
      <trkpt lat="43.65322" lon="6.27299">
        <ele>855.71</ele>
        <time>2015-03-08T12:14:04Z</time>
      </trkpt>
      <trkpt lat="43.65322" lon="6.273">
        <ele>855.71</ele>
        <time>2015-03-08T12:14:24Z</time>
      </trkpt>
      <trkpt lat="43.65322" lon="6.27301">
        <ele>855.23</ele>
        <time>2015-03-08T12:14:51Z</time>
      </trkpt>
      <trkpt lat="43.65321" lon="6.27303">
        <ele>855.23</ele>
        <time>2015-03-08T12:15:21Z</time>
      </trkpt>
      <trkpt lat="43.6532" lon="6.27303">
        <ele>855.71</ele>
        <time>2015-03-08T12:15:49Z</time>
      </trkpt>
      <trkpt lat="43.65321" lon="6.27304">
        <ele>855.23</ele>
        <time>2015-03-08T12:16:08Z</time>
      </trkpt>
      <trkpt lat="43.65321" lon="6.27304">
        <ele>854.75</ele>
        <time>2015-03-08T12:16:37Z</time>
      </trkpt>
      <trkpt lat="43.65321" lon="6.27304">
        <ele>854.75</ele>
        <time>2015-03-08T12:16:52Z</time>
      </trkpt>
      <trkpt lat="43.6532" lon="6.27304">
        <ele>855.23</ele>
        <time>2015-03-08T12:17:13Z</time>
      </trkpt>
      <trkpt lat="43.6532" lon="6.27305">
        <ele>855.23</ele>
        <time>2015-03-08T12:17:28Z</time>
      </trkpt>
      <trkpt lat="43.6532" lon="6.27304">
        <ele>854.75</ele>
        <time>2015-03-08T12:17:46Z</time>
      </trkpt>
      <trkpt lat="43.6532" lon="6.27304">
        <ele>855.23</ele>
        <time>2015-03-08T12:18:06Z</time>
      </trkpt>
      <trkpt lat="43.6532" lon="6.27304">
        <ele>854.75</ele>
        <time>2015-03-08T12:18:25Z</time>
      </trkpt>
      <trkpt lat="43.6532" lon="6.27304">
        <ele>855.23</ele>
        <time>2015-03-08T12:18:49Z</time>
      </trkpt>
      <trkpt lat="43.65321" lon="6.27304">
        <ele>854.75</ele>
        <time>2015-03-08T12:19:16Z</time>
      </trkpt>
      <trkpt lat="43.65321" lon="6.27303">
        <ele>854.75</ele>
        <time>2015-03-08T12:19:43Z</time>
      </trkpt>
      <trkpt lat="43.65324" lon="6.27302">
        <ele>854.75</ele>
        <time>2015-03-08T12:19:57Z</time>
      </trkpt>
      <trkpt lat="43.65322" lon="6.27299">
        <ele>855.23</ele>
        <time>2015-03-08T12:20:20Z</time>
      </trkpt>
      <trkpt lat="43.65327" lon="6.27303">
        <ele>854.27</ele>
        <time>2015-03-08T12:20:33Z</time>
      </trkpt>
      <trkpt lat="43.65326" lon="6.27299">
        <ele>854.75</ele>
        <time>2015-03-08T12:20:51Z</time>
      </trkpt>
      <trkpt lat="43.65325" lon="6.273">
        <ele>855.23</ele>
        <time>2015-03-08T12:21:15Z</time>
      </trkpt>
      <trkpt lat="43.65325" lon="6.273">
        <ele>854.75</ele>
        <time>2015-03-08T12:21:30Z</time>
      </trkpt>
      <trkpt lat="43.65325" lon="6.273">
        <ele>854.75</ele>
        <time>2015-03-08T12:21:54Z</time>
      </trkpt>
      <trkpt lat="43.65324" lon="6.27301">
        <ele>855.23</ele>
        <time>2015-03-08T12:22:06Z</time>
      </trkpt>
      <trkpt lat="43.65323" lon="6.27301">
        <ele>854.75</ele>
        <time>2015-03-08T12:22:23Z</time>
      </trkpt>
      <trkpt lat="43.65324" lon="6.27301">
        <ele>854.75</ele>
        <time>2015-03-08T12:22:43Z</time>
      </trkpt>
      <trkpt lat="43.65325" lon="6.27296">
        <ele>854.75</ele>
        <time>2015-03-08T12:23:01Z</time>
      </trkpt>
      <trkpt lat="43.65323" lon="6.27294">
        <ele>854.75</ele>
        <time>2015-03-08T12:23:13Z</time>
      </trkpt>
      <trkpt lat="43.6532" lon="6.27299">
        <ele>855.71</ele>
        <time>2015-03-08T12:23:23Z</time>
      </trkpt>
      <trkpt lat="43.65319" lon="6.27298">
        <ele>855.23</ele>
        <time>2015-03-08T12:23:34Z</time>
      </trkpt>
      <trkpt lat="43.65319" lon="6.27298">
        <ele>855.23</ele>
        <time>2015-03-08T12:23:52Z</time>
      </trkpt>
      <trkpt lat="43.6532" lon="6.27299">
        <ele>855.71</ele>
        <time>2015-03-08T12:24:14Z</time>
      </trkpt>
      <trkpt lat="43.6532" lon="6.27299">
        <ele>855.23</ele>
        <time>2015-03-08T12:24:29Z</time>
      </trkpt>
      <trkpt lat="43.6532" lon="6.27299">
        <ele>854.75</ele>
        <time>2015-03-08T12:24:43Z</time>
      </trkpt>
      <trkpt lat="43.65319" lon="6.27301">
        <ele>855.23</ele>
        <time>2015-03-08T12:25:06Z</time>
      </trkpt>
      <trkpt lat="43.65319" lon="6.27301">
        <ele>855.23</ele>
        <time>2015-03-08T12:25:23Z</time>
      </trkpt>
      <trkpt lat="43.6532" lon="6.27299">
        <ele>855.71</ele>
        <time>2015-03-08T12:25:43Z</time>
      </trkpt>
      <trkpt lat="43.65317" lon="6.27299">
        <ele>855.23</ele>
        <time>2015-03-08T12:25:56Z</time>
      </trkpt>
      <trkpt lat="43.65317" lon="6.27303">
        <ele>855.23</ele>
        <time>2015-03-08T12:26:08Z</time>
      </trkpt>
      <trkpt lat="43.65317" lon="6.27303">
        <ele>855.23</ele>
        <time>2015-03-08T12:26:22Z</time>
      </trkpt>
      <trkpt lat="43.65317" lon="6.27303">
        <ele>855.23</ele>
        <time>2015-03-08T12:26:39Z</time>
      </trkpt>
      <trkpt lat="43.65316" lon="6.27304">
        <ele>855.71</ele>
        <time>2015-03-08T12:27:01Z</time>
      </trkpt>
      <trkpt lat="43.65315" lon="6.27303">
        <ele>855.23</ele>
        <time>2015-03-08T12:27:17Z</time>
      </trkpt>
      <trkpt lat="43.65315" lon="6.27302">
        <ele>855.71</ele>
        <time>2015-03-08T12:27:41Z</time>
      </trkpt>
      <trkpt lat="43.65315" lon="6.27302">
        <ele>855.23</ele>
        <time>2015-03-08T12:28:00Z</time>
      </trkpt>
      <trkpt lat="43.65315" lon="6.27301">
        <ele>855.71</ele>
        <time>2015-03-08T12:28:20Z</time>
      </trkpt>
      <trkpt lat="43.65316" lon="6.27301">
        <ele>855.71</ele>
        <time>2015-03-08T12:28:39Z</time>
      </trkpt>
      <trkpt lat="43.65316" lon="6.27303">
        <ele>856.19</ele>
        <time>2015-03-08T12:28:55Z</time>
      </trkpt>
      <trkpt lat="43.65316" lon="6.27303">
        <ele>855.71</ele>
        <time>2015-03-08T12:29:09Z</time>
      </trkpt>
      <trkpt lat="43.65316" lon="6.27303">
        <ele>856.19</ele>
        <time>2015-03-08T12:29:33Z</time>
      </trkpt>
      <trkpt lat="43.65317" lon="6.27303">
        <ele>855.71</ele>
        <time>2015-03-08T12:29:51Z</time>
      </trkpt>
      <trkpt lat="43.65318" lon="6.27304">
        <ele>856.19</ele>
        <time>2015-03-08T12:30:06Z</time>
      </trkpt>
      <trkpt lat="43.65318" lon="6.27303">
        <ele>856.19</ele>
        <time>2015-03-08T12:30:23Z</time>
      </trkpt>
      <trkpt lat="43.65316" lon="6.27303">
        <ele>856.19</ele>
        <time>2015-03-08T12:30:35Z</time>
      </trkpt>
      <trkpt lat="43.65315" lon="6.27303">
        <ele>856.19</ele>
        <time>2015-03-08T12:30:51Z</time>
      </trkpt>
      <trkpt lat="43.65316" lon="6.27304">
        <ele>856.19</ele>
        <time>2015-03-08T12:31:08Z</time>
      </trkpt>
      <trkpt lat="43.65316" lon="6.27304">
        <ele>856.19</ele>
        <time>2015-03-08T12:31:24Z</time>
      </trkpt>
      <trkpt lat="43.65317" lon="6.27305">
        <ele>856.19</ele>
        <time>2015-03-08T12:31:40Z</time>
      </trkpt>
      <trkpt lat="43.65316" lon="6.27305">
        <ele>856.19</ele>
        <time>2015-03-08T12:31:53Z</time>
      </trkpt>
      <trkpt lat="43.65316" lon="6.27305">
        <ele>856.19</ele>
        <time>2015-03-08T12:32:08Z</time>
      </trkpt>
      <trkpt lat="43.65317" lon="6.27305">
        <ele>856.67</ele>
        <time>2015-03-08T12:32:25Z</time>
      </trkpt>
      <trkpt lat="43.65318" lon="6.27306">
        <ele>856.19</ele>
        <time>2015-03-08T12:32:41Z</time>
      </trkpt>
      <trkpt lat="43.65319" lon="6.27305">
        <ele>856.19</ele>
        <time>2015-03-08T12:33:02Z</time>
      </trkpt>
      <trkpt lat="43.65319" lon="6.27304">
        <ele>856.19</ele>
        <time>2015-03-08T12:33:20Z</time>
      </trkpt>
      <trkpt lat="43.65319" lon="6.27304">
        <ele>855.71</ele>
        <time>2015-03-08T12:33:35Z</time>
      </trkpt>
      <trkpt lat="43.65319" lon="6.27304">
        <ele>856.19</ele>
        <time>2015-03-08T12:33:48Z</time>
      </trkpt>
      <trkpt lat="43.6532" lon="6.27303">
        <ele>856.67</ele>
        <time>2015-03-08T12:34:00Z</time>
      </trkpt>
      <trkpt lat="43.6532" lon="6.27302">
        <ele>856.19</ele>
        <time>2015-03-08T12:34:15Z</time>
      </trkpt>
      <trkpt lat="43.6532" lon="6.27302">
        <ele>856.19</ele>
        <time>2015-03-08T12:34:27Z</time>
      </trkpt>
      <trkpt lat="43.6532" lon="6.27303">
        <ele>856.67</ele>
        <time>2015-03-08T12:34:41Z</time>
      </trkpt>
      <trkpt lat="43.65319" lon="6.27304">
        <ele>856.67</ele>
        <time>2015-03-08T12:34:57Z</time>
      </trkpt>
      <trkpt lat="43.65318" lon="6.27303">
        <ele>856.67</ele>
        <time>2015-03-08T12:35:11Z</time>
      </trkpt>
      <trkpt lat="43.65317" lon="6.27301">
        <ele>856.67</ele>
        <time>2015-03-08T12:35:31Z</time>
      </trkpt>
      <trkpt lat="43.65321" lon="6.27303">
        <ele>856.67</ele>
        <time>2015-03-08T12:35:44Z</time>
      </trkpt>
      <trkpt lat="43.65321" lon="6.27306">
        <ele>856.67</ele>
        <time>2015-03-08T12:35:58Z</time>
      </trkpt>
      <trkpt lat="43.6532" lon="6.27306">
        <ele>857.15</ele>
        <time>2015-03-08T12:36:21Z</time>
      </trkpt>
      <trkpt lat="43.65319" lon="6.27305">
        <ele>857.15</ele>
        <time>2015-03-08T12:36:35Z</time>
      </trkpt>
      <trkpt lat="43.65319" lon="6.27305">
        <ele>857.15</ele>
        <time>2015-03-08T12:36:47Z</time>
      </trkpt>
      <trkpt lat="43.65319" lon="6.27304">
        <ele>857.15</ele>
        <time>2015-03-08T12:37:03Z</time>
      </trkpt>
      <trkpt lat="43.65321" lon="6.27303">
        <ele>856.67</ele>
        <time>2015-03-08T12:37:20Z</time>
      </trkpt>
      <trkpt lat="43.65326" lon="6.27306">
        <ele>856.19</ele>
        <time>2015-03-08T12:37:34Z</time>
      </trkpt>
      <trkpt lat="43.65324" lon="6.27306">
        <ele>855.71</ele>
        <time>2015-03-08T12:37:55Z</time>
      </trkpt>
      <trkpt lat="43.65324" lon="6.27306">
        <ele>856.19</ele>
        <time>2015-03-08T12:38:17Z</time>
      </trkpt>
      <trkpt lat="43.65323" lon="6.27307">
        <ele>855.71</ele>
        <time>2015-03-08T12:38:35Z</time>
      </trkpt>
      <trkpt lat="43.65323" lon="6.27307">
        <ele>856.19</ele>
        <time>2015-03-08T12:38:54Z</time>
      </trkpt>
      <trkpt lat="43.65323" lon="6.27306">
        <ele>856.19</ele>
        <time>2015-03-08T12:39:21Z</time>
      </trkpt>
      <trkpt lat="43.65323" lon="6.27306">
        <ele>856.19</ele>
        <time>2015-03-08T12:39:40Z</time>
      </trkpt>
      <trkpt lat="43.65324" lon="6.27308">
        <ele>855.71</ele>
        <time>2015-03-08T12:39:59Z</time>
      </trkpt>
      <trkpt lat="43.65324" lon="6.27306">
        <ele>857.15</ele>
        <time>2015-03-08T12:40:12Z</time>
      </trkpt>
      <trkpt lat="43.65323" lon="6.27306">
        <ele>856.67</ele>
        <time>2015-03-08T12:40:34Z</time>
      </trkpt>
      <trkpt lat="43.65322" lon="6.27306">
        <ele>856.67</ele>
        <time>2015-03-08T12:40:56Z</time>
      </trkpt>
      <trkpt lat="43.65322" lon="6.27306">
        <ele>856.67</ele>
        <time>2015-03-08T12:41:17Z</time>
      </trkpt>
      <trkpt lat="43.65322" lon="6.27307">
        <ele>856.67</ele>
        <time>2015-03-08T12:41:32Z</time>
      </trkpt>
      <trkpt lat="43.65322" lon="6.27306">
        <ele>856.19</ele>
        <time>2015-03-08T12:41:49Z</time>
      </trkpt>
      <trkpt lat="43.65323" lon="6.27308">
        <ele>855.71</ele>
        <time>2015-03-08T12:42:10Z</time>
      </trkpt>
      <trkpt lat="43.65326" lon="6.27308">
        <ele>855.23</ele>
        <time>2015-03-08T12:42:25Z</time>
      </trkpt>
      <trkpt lat="43.65327" lon="6.27309">
        <ele>855.23</ele>
        <time>2015-03-08T12:42:45Z</time>
      </trkpt>
      <trkpt lat="43.65328" lon="6.27307">
        <ele>854.75</ele>
        <time>2015-03-08T12:42:59Z</time>
      </trkpt>
      <trkpt lat="43.65328" lon="6.27307">
        <ele>855.23</ele>
        <time>2015-03-08T12:43:16Z</time>
      </trkpt>
      <trkpt lat="43.65329" lon="6.27309">
        <ele>854.75</ele>
        <time>2015-03-08T12:43:31Z</time>
      </trkpt>
      <trkpt lat="43.65328" lon="6.27309">
        <ele>854.27</ele>
        <time>2015-03-08T12:43:50Z</time>
      </trkpt>
      <trkpt lat="43.65328" lon="6.27309">
        <ele>856.19</ele>
        <time>2015-03-08T12:44:09Z</time>
      </trkpt>
      <trkpt lat="43.65329" lon="6.27313">
        <ele>854.75</ele>
        <time>2015-03-08T12:44:22Z</time>
      </trkpt>
      <trkpt lat="43.65329" lon="6.27315">
        <ele>854.75</ele>
        <time>2015-03-08T12:44:43Z</time>
      </trkpt>
      <trkpt lat="43.65329" lon="6.27315">
        <ele>854.75</ele>
        <time>2015-03-08T12:45:00Z</time>
      </trkpt>
      <trkpt lat="43.6533" lon="6.27314">
        <ele>854.75</ele>
        <time>2015-03-08T12:45:20Z</time>
      </trkpt>
      <trkpt lat="43.6533" lon="6.27314">
        <ele>854.75</ele>
        <time>2015-03-08T12:45:37Z</time>
      </trkpt>
      <trkpt lat="43.65329" lon="6.27314">
        <ele>855.23</ele>
        <time>2015-03-08T12:45:54Z</time>
      </trkpt>
      <trkpt lat="43.65329" lon="6.27308">
        <ele>854.75</ele>
        <time>2015-03-08T12:46:11Z</time>
      </trkpt>
      <trkpt lat="43.65329" lon="6.27309">
        <ele>854.75</ele>
        <time>2015-03-08T12:46:30Z</time>
      </trkpt>
      <trkpt lat="43.65336" lon="6.2733">
        <ele>853.79</ele>
        <time>2015-03-08T12:46:46Z</time>
      </trkpt>
      <trkpt lat="43.65335" lon="6.2733">
        <ele>854.27</ele>
        <time>2015-03-08T12:46:55Z</time>
      </trkpt>
      <trkpt lat="43.65333" lon="6.2732">
        <ele>854.27</ele>
        <time>2015-03-08T12:47:00Z</time>
      </trkpt>
      <trkpt lat="43.65328" lon="6.27313">
        <ele>854.75</ele>
        <time>2015-03-08T12:47:14Z</time>
      </trkpt>
      <trkpt lat="43.65328" lon="6.27315">
        <ele>854.75</ele>
        <time>2015-03-08T12:47:36Z</time>
      </trkpt>
      <trkpt lat="43.65328" lon="6.27316">
        <ele>854.27</ele>
        <time>2015-03-08T12:47:59Z</time>
      </trkpt>
      <trkpt lat="43.65332" lon="6.27318">
        <ele>854.75</ele>
        <time>2015-03-08T12:48:12Z</time>
      </trkpt>
      <trkpt lat="43.65333" lon="6.27319">
        <ele>854.75</ele>
        <time>2015-03-08T12:48:14Z</time>
      </trkpt>
      <trkpt lat="43.65338" lon="6.27323">
        <ele>854.27</ele>
        <time>2015-03-08T12:48:24Z</time>
      </trkpt>
      <trkpt lat="43.65333" lon="6.27314">
        <ele>854.27</ele>
        <time>2015-03-08T12:48:40Z</time>
      </trkpt>
      <trkpt lat="43.65328" lon="6.27314">
        <ele>854.75</ele>
        <time>2015-03-08T12:48:52Z</time>
      </trkpt>
      <trkpt lat="43.65327" lon="6.27313">
        <ele>854.27</ele>
        <time>2015-03-08T12:49:09Z</time>
      </trkpt>
      <trkpt lat="43.65328" lon="6.27314">
        <ele>854.27</ele>
        <time>2015-03-08T12:49:28Z</time>
      </trkpt>
      <trkpt lat="43.65328" lon="6.27313">
        <ele>854.27</ele>
        <time>2015-03-08T12:49:49Z</time>
      </trkpt>
      <trkpt lat="43.65328" lon="6.27309">
        <ele>854.27</ele>
        <time>2015-03-08T12:50:07Z</time>
      </trkpt>
      <trkpt lat="43.65327" lon="6.27309">
        <ele>854.27</ele>
        <time>2015-03-08T12:50:27Z</time>
      </trkpt>
      <trkpt lat="43.65326" lon="6.27309">
        <ele>854.75</ele>
        <time>2015-03-08T12:50:50Z</time>
      </trkpt>
      <trkpt lat="43.65324" lon="6.27308">
        <ele>855.23</ele>
        <time>2015-03-08T12:51:10Z</time>
      </trkpt>
      <trkpt lat="43.65323" lon="6.27307">
        <ele>855.23</ele>
        <time>2015-03-08T12:51:35Z</time>
      </trkpt>
      <trkpt lat="43.65322" lon="6.27307">
        <ele>855.23</ele>
        <time>2015-03-08T12:51:52Z</time>
      </trkpt>
      <trkpt lat="43.65323" lon="6.27307">
        <ele>855.23</ele>
        <time>2015-03-08T12:52:09Z</time>
      </trkpt>
      <trkpt lat="43.65322" lon="6.27307">
        <ele>855.23</ele>
        <time>2015-03-08T12:52:29Z</time>
      </trkpt>
      <trkpt lat="43.65326" lon="6.27316">
        <ele>854.27</ele>
        <time>2015-03-08T12:52:42Z</time>
      </trkpt>
      <trkpt lat="43.65332" lon="6.27316">
        <ele>853.79</ele>
        <time>2015-03-08T12:52:54Z</time>
      </trkpt>
      <trkpt lat="43.65338" lon="6.27297">
        <ele>853.31</ele>
        <time>2015-03-08T12:53:06Z</time>
      </trkpt>
      <trkpt lat="43.65343" lon="6.27277">
        <ele>852.83</ele>
        <time>2015-03-08T12:53:19Z</time>
      </trkpt>
      <trkpt lat="43.65346" lon="6.27273">
        <ele>852.35</ele>
        <time>2015-03-08T12:53:33Z</time>
      </trkpt>
      <trkpt lat="43.65358" lon="6.27271">
        <ele>850.9</ele>
        <time>2015-03-08T12:53:47Z</time>
      </trkpt>
      <trkpt lat="43.65365" lon="6.2726">
        <ele>851.38</ele>
        <time>2015-03-08T12:53:54Z</time>
      </trkpt>
      <trkpt lat="43.65367" lon="6.2725">
        <ele>851.38</ele>
        <time>2015-03-08T12:53:59Z</time>
      </trkpt>
      <trkpt lat="43.65366" lon="6.27232">
        <ele>852.35</ele>
        <time>2015-03-08T12:54:12Z</time>
      </trkpt>
      <trkpt lat="43.65366" lon="6.27222">
        <ele>851.87</ele>
        <time>2015-03-08T12:54:19Z</time>
      </trkpt>
      <trkpt lat="43.65366" lon="6.27194">
        <ele>851.38</ele>
        <time>2015-03-08T12:54:32Z</time>
      </trkpt>
      <trkpt lat="43.65371" lon="6.27173">
        <ele>849.94</ele>
        <time>2015-03-08T12:54:44Z</time>
      </trkpt>
      <trkpt lat="43.65372" lon="6.27171">
        <ele>849.46</ele>
        <time>2015-03-08T12:54:45Z</time>
      </trkpt>
      <trkpt lat="43.65382" lon="6.27146">
        <ele>849.94</ele>
        <time>2015-03-08T12:54:59Z</time>
      </trkpt>
      <trkpt lat="43.65383" lon="6.27126">
        <ele>850.42</ele>
        <time>2015-03-08T12:55:13Z</time>
      </trkpt>
      <trkpt lat="43.65385" lon="6.27117">
        <ele>850.42</ele>
        <time>2015-03-08T12:55:18Z</time>
      </trkpt>
      <trkpt lat="43.65387" lon="6.27109">
        <ele>849.94</ele>
        <time>2015-03-08T12:55:23Z</time>
      </trkpt>
      <trkpt lat="43.65388" lon="6.27091">
        <ele>849.94</ele>
        <time>2015-03-08T12:55:33Z</time>
      </trkpt>
      <trkpt lat="43.65387" lon="6.2707">
        <ele>849.46</ele>
        <time>2015-03-08T12:55:45Z</time>
      </trkpt>
      <trkpt lat="43.65387" lon="6.27057">
        <ele>849.94</ele>
        <time>2015-03-08T12:56:00Z</time>
      </trkpt>
      <trkpt lat="43.65388" lon="6.27049">
        <ele>849.94</ele>
        <time>2015-03-08T12:56:10Z</time>
      </trkpt>
      <trkpt lat="43.65388" lon="6.27043">
        <ele>850.42</ele>
        <time>2015-03-08T12:56:12Z</time>
      </trkpt>
      <trkpt lat="43.65392" lon="6.27022">
        <ele>850.42</ele>
        <time>2015-03-08T12:56:24Z</time>
      </trkpt>
      <trkpt lat="43.65392" lon="6.27015">
        <ele>850.42</ele>
        <time>2015-03-08T12:56:38Z</time>
      </trkpt>
      <trkpt lat="43.65392" lon="6.27014">
        <ele>850.9</ele>
        <time>2015-03-08T12:56:56Z</time>
      </trkpt>
      <trkpt lat="43.65391" lon="6.27014">
        <ele>850.9</ele>
        <time>2015-03-08T12:57:13Z</time>
      </trkpt>
      <trkpt lat="43.65393" lon="6.27015">
        <ele>851.38</ele>
        <time>2015-03-08T12:57:24Z</time>
      </trkpt>
      <trkpt lat="43.65393" lon="6.27007">
        <ele>851.87</ele>
        <time>2015-03-08T12:57:36Z</time>
      </trkpt>
      <trkpt lat="43.65396" lon="6.27002">
        <ele>851.38</ele>
        <time>2015-03-08T12:57:41Z</time>
      </trkpt>
      <trkpt lat="43.65401" lon="6.26988">
        <ele>851.87</ele>
        <time>2015-03-08T12:57:55Z</time>
      </trkpt>
      <trkpt lat="43.65406" lon="6.26962">
        <ele>851.87</ele>
        <time>2015-03-08T12:58:10Z</time>
      </trkpt>
      <trkpt lat="43.65407" lon="6.26935">
        <ele>853.31</ele>
        <time>2015-03-08T12:58:26Z</time>
      </trkpt>
      <trkpt lat="43.65412" lon="6.26912">
        <ele>853.79</ele>
        <time>2015-03-08T12:58:43Z</time>
      </trkpt>
      <trkpt lat="43.65413" lon="6.2689">
        <ele>853.79</ele>
        <time>2015-03-08T12:58:56Z</time>
      </trkpt>
      <trkpt lat="43.65413" lon="6.26866">
        <ele>855.23</ele>
        <time>2015-03-08T12:59:10Z</time>
      </trkpt>
      <trkpt lat="43.65417" lon="6.26839">
        <ele>855.71</ele>
        <time>2015-03-08T12:59:26Z</time>
      </trkpt>
      <trkpt lat="43.65414" lon="6.26827">
        <ele>856.19</ele>
        <time>2015-03-08T12:59:36Z</time>
      </trkpt>
      <trkpt lat="43.65417" lon="6.26806">
        <ele>856.19</ele>
        <time>2015-03-08T12:59:50Z</time>
      </trkpt>
      <trkpt lat="43.65417" lon="6.26782">
        <ele>856.19</ele>
        <time>2015-03-08T13:00:04Z</time>
      </trkpt>
      <trkpt lat="43.65418" lon="6.26775">
        <ele>856.19</ele>
        <time>2015-03-08T13:00:12Z</time>
      </trkpt>
      <trkpt lat="43.65419" lon="6.26753">
        <ele>857.15</ele>
        <time>2015-03-08T13:00:27Z</time>
      </trkpt>
      <trkpt lat="43.65424" lon="6.2673">
        <ele>857.15</ele>
        <time>2015-03-08T13:00:39Z</time>
      </trkpt>
      <trkpt lat="43.65425" lon="6.26703">
        <ele>856.67</ele>
        <time>2015-03-08T13:00:47Z</time>
      </trkpt>
      <trkpt lat="43.65421" lon="6.26696">
        <ele>858.11</ele>
        <time>2015-03-08T13:00:51Z</time>
      </trkpt>
      <trkpt lat="43.65422" lon="6.26692">
        <ele>857.63</ele>
        <time>2015-03-08T13:00:55Z</time>
      </trkpt>
      <trkpt lat="43.65422" lon="6.26685">
        <ele>857.63</ele>
        <time>2015-03-08T13:00:58Z</time>
      </trkpt>
      <trkpt lat="43.65432" lon="6.26659">
        <ele>859.56</ele>
        <time>2015-03-08T13:01:10Z</time>
      </trkpt>
      <trkpt lat="43.65436" lon="6.26633">
        <ele>860.52</ele>
        <time>2015-03-08T13:01:22Z</time>
      </trkpt>
      <trkpt lat="43.65436" lon="6.26614">
        <ele>861.48</ele>
        <time>2015-03-08T13:01:33Z</time>
      </trkpt>
      <trkpt lat="43.65433" lon="6.26578">
        <ele>862.44</ele>
        <time>2015-03-08T13:01:49Z</time>
      </trkpt>
      <trkpt lat="43.65432" lon="6.26553">
        <ele>862.92</ele>
        <time>2015-03-08T13:02:03Z</time>
      </trkpt>
      <trkpt lat="43.65433" lon="6.26527">
        <ele>863.88</ele>
        <time>2015-03-08T13:02:15Z</time>
      </trkpt>
      <trkpt lat="43.65431" lon="6.26497">
        <ele>864.36</ele>
        <time>2015-03-08T13:02:30Z</time>
      </trkpt>
      <trkpt lat="43.65437" lon="6.26474">
        <ele>862.44</ele>
        <time>2015-03-08T13:02:45Z</time>
      </trkpt>
      <trkpt lat="43.65445" lon="6.26459">
        <ele>860.52</ele>
        <time>2015-03-08T13:02:55Z</time>
      </trkpt>
      <trkpt lat="43.6545" lon="6.26441">
        <ele>860.52</ele>
        <time>2015-03-08T13:03:04Z</time>
      </trkpt>
      <trkpt lat="43.65448" lon="6.2643">
        <ele>861.48</ele>
        <time>2015-03-08T13:03:08Z</time>
      </trkpt>
      <trkpt lat="43.65437" lon="6.26411">
        <ele>863.4</ele>
        <time>2015-03-08T13:03:24Z</time>
      </trkpt>
      <trkpt lat="43.65437" lon="6.26409">
        <ele>863.88</ele>
        <time>2015-03-08T13:03:25Z</time>
      </trkpt>
      <trkpt lat="43.65443" lon="6.26382">
        <ele>863.88</ele>
        <time>2015-03-08T13:03:39Z</time>
      </trkpt>
      <trkpt lat="43.65443" lon="6.26374">
        <ele>863.88</ele>
        <time>2015-03-08T13:03:43Z</time>
      </trkpt>
      <trkpt lat="43.65447" lon="6.26355">
        <ele>864.36</ele>
        <time>2015-03-08T13:03:54Z</time>
      </trkpt>
      <trkpt lat="43.65446" lon="6.26333">
        <ele>863.88</ele>
        <time>2015-03-08T13:04:05Z</time>
      </trkpt>
      <trkpt lat="43.65435" lon="6.2632">
        <ele>863.4</ele>
        <time>2015-03-08T13:04:17Z</time>
      </trkpt>
      <trkpt lat="43.65428" lon="6.26308">
        <ele>862.92</ele>
        <time>2015-03-08T13:04:25Z</time>
      </trkpt>
      <trkpt lat="43.65426" lon="6.26305">
        <ele>863.4</ele>
        <time>2015-03-08T13:04:27Z</time>
      </trkpt>
      <trkpt lat="43.65431" lon="6.26279">
        <ele>865.8</ele>
        <time>2015-03-08T13:04:41Z</time>
      </trkpt>
      <trkpt lat="43.65421" lon="6.26256">
        <ele>868.69</ele>
        <time>2015-03-08T13:04:51Z</time>
      </trkpt>
      <trkpt lat="43.65418" lon="6.26251">
        <ele>869.65</ele>
        <time>2015-03-08T13:04:54Z</time>
      </trkpt>
      <trkpt lat="43.65416" lon="6.26244">
        <ele>870.13</ele>
        <time>2015-03-08T13:04:57Z</time>
      </trkpt>
      <trkpt lat="43.65426" lon="6.26222">
        <ele>873.98</ele>
        <time>2015-03-08T13:05:06Z</time>
      </trkpt>
      <trkpt lat="43.65426" lon="6.26216">
        <ele>875.42</ele>
        <time>2015-03-08T13:05:08Z</time>
      </trkpt>
      <trkpt lat="43.65425" lon="6.26213">
        <ele>876.38</ele>
        <time>2015-03-08T13:05:09Z</time>
      </trkpt>
      <trkpt lat="43.65424" lon="6.26202">
        <ele>877.82</ele>
        <time>2015-03-08T13:05:12Z</time>
      </trkpt>
      <trkpt lat="43.65421" lon="6.26195">
        <ele>880.22</ele>
        <time>2015-03-08T13:05:15Z</time>
      </trkpt>
      <trkpt lat="43.65419" lon="6.2619">
        <ele>879.74</ele>
        <time>2015-03-08T13:05:17Z</time>
      </trkpt>
      <trkpt lat="43.6541" lon="6.26178">
        <ele>882.63</ele>
        <time>2015-03-08T13:05:27Z</time>
      </trkpt>
      <trkpt lat="43.654" lon="6.26167">
        <ele>885.99</ele>
        <time>2015-03-08T13:05:36Z</time>
      </trkpt>
      <trkpt lat="43.65394" lon="6.2615">
        <ele>889.36</ele>
        <time>2015-03-08T13:05:49Z</time>
      </trkpt>
      <trkpt lat="43.65397" lon="6.26133">
        <ele>892.24</ele>
        <time>2015-03-08T13:06:01Z</time>
      </trkpt>
      <trkpt lat="43.65399" lon="6.26127">
        <ele>893.2</ele>
        <time>2015-03-08T13:06:05Z</time>
      </trkpt>
      <trkpt lat="43.65407" lon="6.26106">
        <ele>896.57</ele>
        <time>2015-03-08T13:06:18Z</time>
      </trkpt>
      <trkpt lat="43.65412" lon="6.26084">
        <ele>898.97</ele>
        <time>2015-03-08T13:06:35Z</time>
      </trkpt>
      <trkpt lat="43.65416" lon="6.2606">
        <ele>902.33</ele>
        <time>2015-03-08T13:06:51Z</time>
      </trkpt>
      <trkpt lat="43.65413" lon="6.26045">
        <ele>904.26</ele>
        <time>2015-03-08T13:07:02Z</time>
      </trkpt>
      <trkpt lat="43.65411" lon="6.26036">
        <ele>905.22</ele>
        <time>2015-03-08T13:07:06Z</time>
      </trkpt>
      <trkpt lat="43.6541" lon="6.26032">
        <ele>906.18</ele>
        <time>2015-03-08T13:07:08Z</time>
      </trkpt>
      <trkpt lat="43.65407" lon="6.26025">
        <ele>907.14</ele>
        <time>2015-03-08T13:07:12Z</time>
      </trkpt>
      <trkpt lat="43.65394" lon="6.26002">
        <ele>909.54</ele>
        <time>2015-03-08T13:07:26Z</time>
      </trkpt>
      <trkpt lat="43.65392" lon="6.25999">
        <ele>910.03</ele>
        <time>2015-03-08T13:07:29Z</time>
      </trkpt>
      <trkpt lat="43.65378" lon="6.25983">
        <ele>910.99</ele>
        <time>2015-03-08T13:07:44Z</time>
      </trkpt>
      <trkpt lat="43.65363" lon="6.25966">
        <ele>910.51</ele>
        <time>2015-03-08T13:07:59Z</time>
      </trkpt>
      <trkpt lat="43.65355" lon="6.25957">
        <ele>910.51</ele>
        <time>2015-03-08T13:08:08Z</time>
      </trkpt>
      <trkpt lat="43.65352" lon="6.25954">
        <ele>910.99</ele>
        <time>2015-03-08T13:08:10Z</time>
      </trkpt>
      <trkpt lat="43.65335" lon="6.2594">
        <ele>910.99</ele>
        <time>2015-03-08T13:08:23Z</time>
      </trkpt>
      <trkpt lat="43.65318" lon="6.25922">
        <ele>912.91</ele>
        <time>2015-03-08T13:08:40Z</time>
      </trkpt>
      <trkpt lat="43.65305" lon="6.25908">
        <ele>914.35</ele>
        <time>2015-03-08T13:08:54Z</time>
      </trkpt>
      <trkpt lat="43.65302" lon="6.25905">
        <ele>914.35</ele>
        <time>2015-03-08T13:08:56Z</time>
      </trkpt>
      <trkpt lat="43.65293" lon="6.25898">
        <ele>914.83</ele>
        <time>2015-03-08T13:09:05Z</time>
      </trkpt>
      <trkpt lat="43.65277" lon="6.25885">
        <ele>915.79</ele>
        <time>2015-03-08T13:09:18Z</time>
      </trkpt>
      <trkpt lat="43.65264" lon="6.2587">
        <ele>916.27</ele>
        <time>2015-03-08T13:09:31Z</time>
      </trkpt>
      <trkpt lat="43.65254" lon="6.25861">
        <ele>916.75</ele>
        <time>2015-03-08T13:09:39Z</time>
      </trkpt>
      <trkpt lat="43.65244" lon="6.25845">
        <ele>919.16</ele>
        <time>2015-03-08T13:09:49Z</time>
      </trkpt>
      <trkpt lat="43.65244" lon="6.25818">
        <ele>921.08</ele>
        <time>2015-03-08T13:10:02Z</time>
      </trkpt>
      <trkpt lat="43.6525" lon="6.25799">
        <ele>923</ele>
        <time>2015-03-08T13:10:14Z</time>
      </trkpt>
      <trkpt lat="43.65263" lon="6.25777">
        <ele>926.37</ele>
        <time>2015-03-08T13:10:30Z</time>
      </trkpt>
      <trkpt lat="43.6528" lon="6.25759">
        <ele>929.25</ele>
        <time>2015-03-08T13:10:47Z</time>
      </trkpt>
      <trkpt lat="43.65296" lon="6.25745">
        <ele>931.65</ele>
        <time>2015-03-08T13:11:04Z</time>
      </trkpt>
      <trkpt lat="43.65306" lon="6.25731">
        <ele>934.54</ele>
        <time>2015-03-08T13:11:18Z</time>
      </trkpt>
      <trkpt lat="43.65312" lon="6.25717">
        <ele>937.42</ele>
        <time>2015-03-08T13:11:30Z</time>
      </trkpt>
      <trkpt lat="43.65309" lon="6.25697">
        <ele>941.27</ele>
        <time>2015-03-08T13:11:42Z</time>
      </trkpt>
      <trkpt lat="43.65302" lon="6.2567">
        <ele>942.71</ele>
        <time>2015-03-08T13:12:00Z</time>
      </trkpt>
      <trkpt lat="43.65292" lon="6.2565">
        <ele>943.19</ele>
        <time>2015-03-08T13:12:17Z</time>
      </trkpt>
      <trkpt lat="43.6529" lon="6.25624">
        <ele>945.59</ele>
        <time>2015-03-08T13:12:34Z</time>
      </trkpt>
      <trkpt lat="43.65297" lon="6.256">
        <ele>946.07</ele>
        <time>2015-03-08T13:12:50Z</time>
      </trkpt>
      <trkpt lat="43.6531" lon="6.25571">
        <ele>948.48</ele>
        <time>2015-03-08T13:13:09Z</time>
      </trkpt>
      <trkpt lat="43.65313" lon="6.25555">
        <ele>949.92</ele>
        <time>2015-03-08T13:13:28Z</time>
      </trkpt>
      <trkpt lat="43.65315" lon="6.25534">
        <ele>950.88</ele>
        <time>2015-03-08T13:13:42Z</time>
      </trkpt>
      <trkpt lat="43.65316" lon="6.25516">
        <ele>950.4</ele>
        <time>2015-03-08T13:13:59Z</time>
      </trkpt>
      <trkpt lat="43.65324" lon="6.25488">
        <ele>950.88</ele>
        <time>2015-03-08T13:14:16Z</time>
      </trkpt>
      <trkpt lat="43.65327" lon="6.25446">
        <ele>951.36</ele>
        <time>2015-03-08T13:14:31Z</time>
      </trkpt>
      <trkpt lat="43.65328" lon="6.25424">
        <ele>952.32</ele>
        <time>2015-03-08T13:14:46Z</time>
      </trkpt>
      <trkpt lat="43.65326" lon="6.25391">
        <ele>953.77</ele>
        <time>2015-03-08T13:15:02Z</time>
      </trkpt>
      <trkpt lat="43.65328" lon="6.25358">
        <ele>955.69</ele>
        <time>2015-03-08T13:15:19Z</time>
      </trkpt>
      <trkpt lat="43.65327" lon="6.25347">
        <ele>956.65</ele>
        <time>2015-03-08T13:15:25Z</time>
      </trkpt>
      <trkpt lat="43.65327" lon="6.25322">
        <ele>958.57</ele>
        <time>2015-03-08T13:15:40Z</time>
      </trkpt>
      <trkpt lat="43.65333" lon="6.25315">
        <ele>960.49</ele>
        <time>2015-03-08T13:15:57Z</time>
      </trkpt>
      <trkpt lat="43.6534" lon="6.25293">
        <ele>962.9</ele>
        <time>2015-03-08T13:16:13Z</time>
      </trkpt>
      <trkpt lat="43.65345" lon="6.25275">
        <ele>966.26</ele>
        <time>2015-03-08T13:16:24Z</time>
      </trkpt>
      <trkpt lat="43.65352" lon="6.25256">
        <ele>969.15</ele>
        <time>2015-03-08T13:16:39Z</time>
      </trkpt>
      <trkpt lat="43.65356" lon="6.25244">
        <ele>971.55</ele>
        <time>2015-03-08T13:16:57Z</time>
      </trkpt>
      <trkpt lat="43.65357" lon="6.2522">
        <ele>973.47</ele>
        <time>2015-03-08T13:17:16Z</time>
      </trkpt>
      <trkpt lat="43.65365" lon="6.25204">
        <ele>974.91</ele>
        <time>2015-03-08T13:17:33Z</time>
      </trkpt>
      <trkpt lat="43.65373" lon="6.25188">
        <ele>975.39</ele>
        <time>2015-03-08T13:17:47Z</time>
      </trkpt>
      <trkpt lat="43.65384" lon="6.25177">
        <ele>975.39</ele>
        <time>2015-03-08T13:18:02Z</time>
      </trkpt>
      <trkpt lat="43.65384" lon="6.25175">
        <ele>975.39</ele>
        <time>2015-03-08T13:18:03Z</time>
      </trkpt>
      <trkpt lat="43.65375" lon="6.25136">
        <ele>976.84</ele>
        <time>2015-03-08T13:18:21Z</time>
      </trkpt>
      <trkpt lat="43.65369" lon="6.2511">
        <ele>977.8</ele>
        <time>2015-03-08T13:18:37Z</time>
      </trkpt>
      <trkpt lat="43.65365" lon="6.25087">
        <ele>978.76</ele>
        <time>2015-03-08T13:18:52Z</time>
      </trkpt>
      <trkpt lat="43.65368" lon="6.25063">
        <ele>981.64</ele>
        <time>2015-03-08T13:19:07Z</time>
      </trkpt>
      <trkpt lat="43.65371" lon="6.25045">
        <ele>982.6</ele>
        <time>2015-03-08T13:19:23Z</time>
      </trkpt>
      <trkpt lat="43.65369" lon="6.25039">
        <ele>982.6</ele>
        <time>2015-03-08T13:19:34Z</time>
      </trkpt>
      <trkpt lat="43.65368" lon="6.25032">
        <ele>983.57</ele>
        <time>2015-03-08T13:19:52Z</time>
      </trkpt>
      <trkpt lat="43.65362" lon="6.25022">
        <ele>985.01</ele>
        <time>2015-03-08T13:20:04Z</time>
      </trkpt>
      <trkpt lat="43.65361" lon="6.2502">
        <ele>985.01</ele>
        <time>2015-03-08T13:20:28Z</time>
      </trkpt>
      <trkpt lat="43.6536" lon="6.25019">
        <ele>985.01</ele>
        <time>2015-03-08T13:20:47Z</time>
      </trkpt>
      <trkpt lat="43.65359" lon="6.25019">
        <ele>985.49</ele>
        <time>2015-03-08T13:21:08Z</time>
      </trkpt>
      <trkpt lat="43.65359" lon="6.2502">
        <ele>985.49</ele>
        <time>2015-03-08T13:21:32Z</time>
      </trkpt>
      <trkpt lat="43.65359" lon="6.25019">
        <ele>985.49</ele>
        <time>2015-03-08T13:21:56Z</time>
      </trkpt>
      <trkpt lat="43.65358" lon="6.25018">
        <ele>985.49</ele>
        <time>2015-03-08T13:22:25Z</time>
      </trkpt>
      <trkpt lat="43.65359" lon="6.25019">
        <ele>985.01</ele>
        <time>2015-03-08T13:22:51Z</time>
      </trkpt>
      <trkpt lat="43.65361" lon="6.25016">
        <ele>985.01</ele>
        <time>2015-03-08T13:23:05Z</time>
      </trkpt>
      <trkpt lat="43.65364" lon="6.25003">
        <ele>985.97</ele>
        <time>2015-03-08T13:23:21Z</time>
      </trkpt>
      <trkpt lat="43.65363" lon="6.25001">
        <ele>986.45</ele>
        <time>2015-03-08T13:23:24Z</time>
      </trkpt>
      <trkpt lat="43.65361" lon="6.24982">
        <ele>987.41</ele>
        <time>2015-03-08T13:23:35Z</time>
      </trkpt>
      <trkpt lat="43.65361" lon="6.24963">
        <ele>989.81</ele>
        <time>2015-03-08T13:23:54Z</time>
      </trkpt>
      <trkpt lat="43.65363" lon="6.2495">
        <ele>989.33</ele>
        <time>2015-03-08T13:24:11Z</time>
      </trkpt>
      <trkpt lat="43.65362" lon="6.24947">
        <ele>989.33</ele>
        <time>2015-03-08T13:24:27Z</time>
      </trkpt>
      <trkpt lat="43.65363" lon="6.24947">
        <ele>989.81</ele>
        <time>2015-03-08T13:24:46Z</time>
      </trkpt>
      <trkpt lat="43.6536" lon="6.24952">
        <ele>990.3</ele>
        <time>2015-03-08T13:24:58Z</time>
      </trkpt>
      <trkpt lat="43.6536" lon="6.24951">
        <ele>990.78</ele>
        <time>2015-03-08T13:25:15Z</time>
      </trkpt>
      <trkpt lat="43.6538" lon="6.24938">
        <ele>991.74</ele>
        <time>2015-03-08T13:28:57Z</time>
      </trkpt>
      <trkpt lat="43.65351" lon="6.24961">
        <ele>989.81</ele>
        <time>2015-03-08T13:29:10Z</time>
      </trkpt>
      <trkpt lat="43.65351" lon="6.24964">
        <ele>990.3</ele>
        <time>2015-03-08T13:29:28Z</time>
      </trkpt>
      <trkpt lat="43.65348" lon="6.24964">
        <ele>990.3</ele>
        <time>2015-03-08T13:29:43Z</time>
      </trkpt>
      <trkpt lat="43.65349" lon="6.24965">
        <ele>989.81</ele>
        <time>2015-03-08T13:30:09Z</time>
      </trkpt>
      <trkpt lat="43.65348" lon="6.24961">
        <ele>990.3</ele>
        <time>2015-03-08T13:30:49Z</time>
      </trkpt>
      <trkpt lat="43.65349" lon="6.2496">
        <ele>991.74</ele>
        <time>2015-03-08T13:31:04Z</time>
      </trkpt>
      <trkpt lat="43.6535" lon="6.24959">
        <ele>990.78</ele>
        <time>2015-03-08T13:31:20Z</time>
      </trkpt>
      <trkpt lat="43.6535" lon="6.24957">
        <ele>991.26</ele>
        <time>2015-03-08T13:31:48Z</time>
      </trkpt>
      <trkpt lat="43.65352" lon="6.2495">
        <ele>991.26</ele>
        <time>2015-03-08T13:32:06Z</time>
      </trkpt>
      <trkpt lat="43.65353" lon="6.24947">
        <ele>990.3</ele>
        <time>2015-03-08T13:32:18Z</time>
      </trkpt>
      <trkpt lat="43.65353" lon="6.24945">
        <ele>990.78</ele>
        <time>2015-03-08T13:32:46Z</time>
      </trkpt>
      <trkpt lat="43.65354" lon="6.24943">
        <ele>990.78</ele>
        <time>2015-03-08T13:33:14Z</time>
      </trkpt>
      <trkpt lat="43.65354" lon="6.24942">
        <ele>990.78</ele>
        <time>2015-03-08T13:33:43Z</time>
      </trkpt>
      <trkpt lat="43.65355" lon="6.24943">
        <ele>990.78</ele>
        <time>2015-03-08T13:33:59Z</time>
      </trkpt>
      <trkpt lat="43.65356" lon="6.24944">
        <ele>990.3</ele>
        <time>2015-03-08T13:34:16Z</time>
      </trkpt>
      <trkpt lat="43.65357" lon="6.24946">
        <ele>990.3</ele>
        <time>2015-03-08T13:34:35Z</time>
      </trkpt>
      <trkpt lat="43.65357" lon="6.24947">
        <ele>989.81</ele>
        <time>2015-03-08T13:35:03Z</time>
      </trkpt>
      <trkpt lat="43.65358" lon="6.24948">
        <ele>989.33</ele>
        <time>2015-03-08T13:35:26Z</time>
      </trkpt>
      <trkpt lat="43.65359" lon="6.2495">
        <ele>987.41</ele>
        <time>2015-03-08T13:35:42Z</time>
      </trkpt>
      <trkpt lat="43.65359" lon="6.24954">
        <ele>987.89</ele>
        <time>2015-03-08T13:35:55Z</time>
      </trkpt>
      <trkpt lat="43.6536" lon="6.24957">
        <ele>987.89</ele>
        <time>2015-03-08T13:35:57Z</time>
      </trkpt>
      <trkpt lat="43.65364" lon="6.24971">
        <ele>986.45</ele>
        <time>2015-03-08T13:36:11Z</time>
      </trkpt>
      <trkpt lat="43.65365" lon="6.24973">
        <ele>985.01</ele>
        <time>2015-03-08T13:36:16Z</time>
      </trkpt>
      <trkpt lat="43.6537" lon="6.24995">
        <ele>983.09</ele>
        <time>2015-03-08T13:36:27Z</time>
      </trkpt>
      <trkpt lat="43.65372" lon="6.24999">
        <ele>983.57</ele>
        <time>2015-03-08T13:36:29Z</time>
      </trkpt>
      <trkpt lat="43.65375" lon="6.25028">
        <ele>981.64</ele>
        <time>2015-03-08T13:36:43Z</time>
      </trkpt>
      <trkpt lat="43.65376" lon="6.2503">
        <ele>981.64</ele>
        <time>2015-03-08T13:36:44Z</time>
      </trkpt>
      <trkpt lat="43.65372" lon="6.25062">
        <ele>978.76</ele>
        <time>2015-03-08T13:36:58Z</time>
      </trkpt>
      <trkpt lat="43.65372" lon="6.25066">
        <ele>978.28</ele>
        <time>2015-03-08T13:37:02Z</time>
      </trkpt>
      <trkpt lat="43.65376" lon="6.25094">
        <ele>977.8</ele>
        <time>2015-03-08T13:37:17Z</time>
      </trkpt>
      <trkpt lat="43.65377" lon="6.25107">
        <ele>976.36</ele>
        <time>2015-03-08T13:37:34Z</time>
      </trkpt>
      <trkpt lat="43.65381" lon="6.2512">
        <ele>976.36</ele>
        <time>2015-03-08T13:37:50Z</time>
      </trkpt>
      <trkpt lat="43.65371" lon="6.25143">
        <ele>975.39</ele>
        <time>2015-03-08T13:38:05Z</time>
      </trkpt>
      <trkpt lat="43.65372" lon="6.25147">
        <ele>975.39</ele>
        <time>2015-03-08T13:38:07Z</time>
      </trkpt>
      <trkpt lat="43.65377" lon="6.25157">
        <ele>974.91</ele>
        <time>2015-03-08T13:38:24Z</time>
      </trkpt>
      <trkpt lat="43.65378" lon="6.25176">
        <ele>974.43</ele>
        <time>2015-03-08T13:38:40Z</time>
      </trkpt>
      <trkpt lat="43.6537" lon="6.25196">
        <ele>974.43</ele>
        <time>2015-03-08T13:38:52Z</time>
      </trkpt>
      <trkpt lat="43.65361" lon="6.25216">
        <ele>972.51</ele>
        <time>2015-03-08T13:39:09Z</time>
      </trkpt>
      <trkpt lat="43.65361" lon="6.25217">
        <ele>972.03</ele>
        <time>2015-03-08T13:39:10Z</time>
      </trkpt>
      <trkpt lat="43.65362" lon="6.25241">
        <ele>969.63</ele>
        <time>2015-03-08T13:39:28Z</time>
      </trkpt>
      <trkpt lat="43.65371" lon="6.25237">
        <ele>970.11</ele>
        <time>2015-03-08T13:39:47Z</time>
      </trkpt>
      <trkpt lat="43.65389" lon="6.25221">
        <ele>970.59</ele>
        <time>2015-03-08T13:40:03Z</time>
      </trkpt>
      <trkpt lat="43.65406" lon="6.25206">
        <ele>971.07</ele>
        <time>2015-03-08T13:40:23Z</time>
      </trkpt>
      <trkpt lat="43.65422" lon="6.25194">
        <ele>970.59</ele>
        <time>2015-03-08T13:40:42Z</time>
      </trkpt>
      <trkpt lat="43.65443" lon="6.25187">
        <ele>969.63</ele>
        <time>2015-03-08T13:40:58Z</time>
      </trkpt>
      <trkpt lat="43.65458" lon="6.25177">
        <ele>967.22</ele>
        <time>2015-03-08T13:41:12Z</time>
      </trkpt>
      <trkpt lat="43.65479" lon="6.2516">
        <ele>965.3</ele>
        <time>2015-03-08T13:41:29Z</time>
      </trkpt>
      <trkpt lat="43.65488" lon="6.25138">
        <ele>964.34</ele>
        <time>2015-03-08T13:41:46Z</time>
      </trkpt>
      <trkpt lat="43.65491" lon="6.25118">
        <ele>962.9</ele>
        <time>2015-03-08T13:42:01Z</time>
      </trkpt>
      <trkpt lat="43.65491" lon="6.25114">
        <ele>962.42</ele>
        <time>2015-03-08T13:42:03Z</time>
      </trkpt>
      <trkpt lat="43.65486" lon="6.25086">
        <ele>959.53</ele>
        <time>2015-03-08T13:42:17Z</time>
      </trkpt>
      <trkpt lat="43.65472" lon="6.25068">
        <ele>956.17</ele>
        <time>2015-03-08T13:42:33Z</time>
      </trkpt>
      <trkpt lat="43.65469" lon="6.25067">
        <ele>956.17</ele>
        <time>2015-03-08T13:42:35Z</time>
      </trkpt>
      <trkpt lat="43.65466" lon="6.25066">
        <ele>955.69</ele>
        <time>2015-03-08T13:42:37Z</time>
      </trkpt>
      <trkpt lat="43.65447" lon="6.25051">
        <ele>953.77</ele>
        <time>2015-03-08T13:42:54Z</time>
      </trkpt>
      <trkpt lat="43.65435" lon="6.25033">
        <ele>953.28</ele>
        <time>2015-03-08T13:43:12Z</time>
      </trkpt>
      <trkpt lat="43.65435" lon="6.25028">
        <ele>953.28</ele>
        <time>2015-03-08T13:43:16Z</time>
      </trkpt>
      <trkpt lat="43.65434" lon="6.24994">
        <ele>951.84</ele>
        <time>2015-03-08T13:43:32Z</time>
      </trkpt>
      <trkpt lat="43.65433" lon="6.24965">
        <ele>949.44</ele>
        <time>2015-03-08T13:43:46Z</time>
      </trkpt>
      <trkpt lat="43.65433" lon="6.24959">
        <ele>948.96</ele>
        <time>2015-03-08T13:43:48Z</time>
      </trkpt>
      <trkpt lat="43.65432" lon="6.24931">
        <ele>948.48</ele>
        <time>2015-03-08T13:44:02Z</time>
      </trkpt>
      <trkpt lat="43.65433" lon="6.24904">
        <ele>946.56</ele>
        <time>2015-03-08T13:44:17Z</time>
      </trkpt>
      <trkpt lat="43.65436" lon="6.24886">
        <ele>946.56</ele>
        <time>2015-03-08T13:44:28Z</time>
      </trkpt>
      <trkpt lat="43.6544" lon="6.24866">
        <ele>946.07</ele>
        <time>2015-03-08T13:44:43Z</time>
      </trkpt>
      <trkpt lat="43.65439" lon="6.24865">
        <ele>946.07</ele>
        <time>2015-03-08T13:44:44Z</time>
      </trkpt>
      <trkpt lat="43.65437" lon="6.24853">
        <ele>946.56</ele>
        <time>2015-03-08T13:44:49Z</time>
      </trkpt>
      <trkpt lat="43.65446" lon="6.24836">
        <ele>945.59</ele>
        <time>2015-03-08T13:45:00Z</time>
      </trkpt>
      <trkpt lat="43.65449" lon="6.24834">
        <ele>945.11</ele>
        <time>2015-03-08T13:45:02Z</time>
      </trkpt>
      <trkpt lat="43.65453" lon="6.2483">
        <ele>944.63</ele>
        <time>2015-03-08T13:45:06Z</time>
      </trkpt>
      <trkpt lat="43.65458" lon="6.24824">
        <ele>943.67</ele>
        <time>2015-03-08T13:45:10Z</time>
      </trkpt>
      <trkpt lat="43.65461" lon="6.24821">
        <ele>943.19</ele>
        <time>2015-03-08T13:45:12Z</time>
      </trkpt>
      <trkpt lat="43.65469" lon="6.24798">
        <ele>942.23</ele>
        <time>2015-03-08T13:45:25Z</time>
      </trkpt>
      <trkpt lat="43.65484" lon="6.2478">
        <ele>944.63</ele>
        <time>2015-03-08T13:45:37Z</time>
      </trkpt>
      <trkpt lat="43.65496" lon="6.24755">
        <ele>944.63</ele>
        <time>2015-03-08T13:45:53Z</time>
      </trkpt>
      <trkpt lat="43.65508" lon="6.24725">
        <ele>943.19</ele>
        <time>2015-03-08T13:46:07Z</time>
      </trkpt>
      <trkpt lat="43.65518" lon="6.24711">
        <ele>939.83</ele>
        <time>2015-03-08T13:46:20Z</time>
      </trkpt>
      <trkpt lat="43.65528" lon="6.24702">
        <ele>935.98</ele>
        <time>2015-03-08T13:46:31Z</time>
      </trkpt>
      <trkpt lat="43.6553" lon="6.247">
        <ele>935.98</ele>
        <time>2015-03-08T13:46:33Z</time>
      </trkpt>
      <trkpt lat="43.6554" lon="6.24685">
        <ele>933.1</ele>
        <time>2015-03-08T13:46:45Z</time>
      </trkpt>
      <trkpt lat="43.65556" lon="6.24672">
        <ele>930.21</ele>
        <time>2015-03-08T13:47:00Z</time>
      </trkpt>
      <trkpt lat="43.65567" lon="6.24657">
        <ele>927.81</ele>
        <time>2015-03-08T13:47:12Z</time>
      </trkpt>
      <trkpt lat="43.65575" lon="6.24648">
        <ele>926.85</ele>
        <time>2015-03-08T13:47:20Z</time>
      </trkpt>
      <trkpt lat="43.65587" lon="6.24629">
        <ele>925.89</ele>
        <time>2015-03-08T13:47:34Z</time>
      </trkpt>
      <trkpt lat="43.65593" lon="6.24608">
        <ele>923.96</ele>
        <time>2015-03-08T13:47:45Z</time>
      </trkpt>
      <trkpt lat="43.65594" lon="6.24604">
        <ele>923.96</ele>
        <time>2015-03-08T13:47:48Z</time>
      </trkpt>
      <trkpt lat="43.65604" lon="6.24589">
        <ele>923.96</ele>
        <time>2015-03-08T13:48:01Z</time>
      </trkpt>
      <trkpt lat="43.65609" lon="6.24584">
        <ele>924.45</ele>
        <time>2015-03-08T13:48:15Z</time>
      </trkpt>
      <trkpt lat="43.65616" lon="6.24571">
        <ele>923.96</ele>
        <time>2015-03-08T13:48:26Z</time>
      </trkpt>
      <trkpt lat="43.65616" lon="6.24569">
        <ele>923.96</ele>
        <time>2015-03-08T13:48:27Z</time>
      </trkpt>
      <trkpt lat="43.65622" lon="6.24542">
        <ele>923.96</ele>
        <time>2015-03-08T13:48:40Z</time>
      </trkpt>
      <trkpt lat="43.65627" lon="6.24519">
        <ele>923.48</ele>
        <time>2015-03-08T13:48:52Z</time>
      </trkpt>
      <trkpt lat="43.65629" lon="6.24497">
        <ele>923</ele>
        <time>2015-03-08T13:49:08Z</time>
      </trkpt>
      <trkpt lat="43.65629" lon="6.24495">
        <ele>922.52</ele>
        <time>2015-03-08T13:49:09Z</time>
      </trkpt>
      <trkpt lat="43.65628" lon="6.24462">
        <ele>924.93</ele>
        <time>2015-03-08T13:49:25Z</time>
      </trkpt>
      <trkpt lat="43.65625" lon="6.24441">
        <ele>927.33</ele>
        <time>2015-03-08T13:49:39Z</time>
      </trkpt>
      <trkpt lat="43.65623" lon="6.24432">
        <ele>927.81</ele>
        <time>2015-03-08T13:49:44Z</time>
      </trkpt>
      <trkpt lat="43.65615" lon="6.24394">
        <ele>927.81</ele>
        <time>2015-03-08T13:50:00Z</time>
      </trkpt>
      <trkpt lat="43.65615" lon="6.24389">
        <ele>927.81</ele>
        <time>2015-03-08T13:50:03Z</time>
      </trkpt>
      <trkpt lat="43.65614" lon="6.24381">
        <ele>926.85</ele>
        <time>2015-03-08T13:50:07Z</time>
      </trkpt>
      <trkpt lat="43.65614" lon="6.24365">
        <ele>926.85</ele>
        <time>2015-03-08T13:50:16Z</time>
      </trkpt>
      <trkpt lat="43.65612" lon="6.24351">
        <ele>926.37</ele>
        <time>2015-03-08T13:50:22Z</time>
      </trkpt>
      <trkpt lat="43.65607" lon="6.2432">
        <ele>927.33</ele>
        <time>2015-03-08T13:50:37Z</time>
      </trkpt>
      <trkpt lat="43.65607" lon="6.24302">
        <ele>928.29</ele>
        <time>2015-03-08T13:50:49Z</time>
      </trkpt>
      <trkpt lat="43.65613" lon="6.2428">
        <ele>926.37</ele>
        <time>2015-03-08T13:51:02Z</time>
      </trkpt>
      <trkpt lat="43.65612" lon="6.24258">
        <ele>924.45</ele>
        <time>2015-03-08T13:51:13Z</time>
      </trkpt>
      <trkpt lat="43.65612" lon="6.24245">
        <ele>925.41</ele>
        <time>2015-03-08T13:51:21Z</time>
      </trkpt>
      <trkpt lat="43.65613" lon="6.2424">
        <ele>925.89</ele>
        <time>2015-03-08T13:51:23Z</time>
      </trkpt>
      <trkpt lat="43.65621" lon="6.24225">
        <ele>925.41</ele>
        <time>2015-03-08T13:51:34Z</time>
      </trkpt>
      <trkpt lat="43.65625" lon="6.24203">
        <ele>922.52</ele>
        <time>2015-03-08T13:51:45Z</time>
      </trkpt>
      <trkpt lat="43.65627" lon="6.24196">
        <ele>921.56</ele>
        <time>2015-03-08T13:51:49Z</time>
      </trkpt>
      <trkpt lat="43.65634" lon="6.24191">
        <ele>920.6</ele>
        <time>2015-03-08T13:51:55Z</time>
      </trkpt>
      <trkpt lat="43.65651" lon="6.2417">
        <ele>916.75</ele>
        <time>2015-03-08T13:52:12Z</time>
      </trkpt>
      <trkpt lat="43.65658" lon="6.24159">
        <ele>915.79</ele>
        <time>2015-03-08T13:52:18Z</time>
      </trkpt>
      <trkpt lat="43.65664" lon="6.24154">
        <ele>915.31</ele>
        <time>2015-03-08T13:52:23Z</time>
      </trkpt>
      <trkpt lat="43.65669" lon="6.24151">
        <ele>914.35</ele>
        <time>2015-03-08T13:52:27Z</time>
      </trkpt>
      <trkpt lat="43.65681" lon="6.24139">
        <ele>911.47</ele>
        <time>2015-03-08T13:52:39Z</time>
      </trkpt>
      <trkpt lat="43.6569" lon="6.24126">
        <ele>909.54</ele>
        <time>2015-03-08T13:52:50Z</time>
      </trkpt>
      <trkpt lat="43.65695" lon="6.24122">
        <ele>908.58</ele>
        <time>2015-03-08T13:52:55Z</time>
      </trkpt>
      <trkpt lat="43.65701" lon="6.24114">
        <ele>906.66</ele>
        <time>2015-03-08T13:53:03Z</time>
      </trkpt>
      <trkpt lat="43.65705" lon="6.24108">
        <ele>905.22</ele>
        <time>2015-03-08T13:53:09Z</time>
      </trkpt>
      <trkpt lat="43.6571" lon="6.24105">
        <ele>903.78</ele>
        <time>2015-03-08T13:53:13Z</time>
      </trkpt>
      <trkpt lat="43.6572" lon="6.241">
        <ele>901.85</ele>
        <time>2015-03-08T13:53:21Z</time>
      </trkpt>
      <trkpt lat="43.65739" lon="6.24085">
        <ele>901.37</ele>
        <time>2015-03-08T13:53:32Z</time>
      </trkpt>
      <trkpt lat="43.65746" lon="6.24062">
        <ele>903.3</ele>
        <time>2015-03-08T13:53:47Z</time>
      </trkpt>
      <trkpt lat="43.65748" lon="6.24059">
        <ele>902.33</ele>
        <time>2015-03-08T13:53:49Z</time>
      </trkpt>
      <trkpt lat="43.65751" lon="6.24046">
        <ele>902.82</ele>
        <time>2015-03-08T13:53:56Z</time>
      </trkpt>
      <trkpt lat="43.65753" lon="6.24027">
        <ele>903.78</ele>
        <time>2015-03-08T13:54:07Z</time>
      </trkpt>
      <trkpt lat="43.65758" lon="6.24013">
        <ele>903.78</ele>
        <time>2015-03-08T13:54:16Z</time>
      </trkpt>
      <trkpt lat="43.65764" lon="6.23994">
        <ele>904.26</ele>
        <time>2015-03-08T13:54:28Z</time>
      </trkpt>
      <trkpt lat="43.65774" lon="6.23972">
        <ele>903.78</ele>
        <time>2015-03-08T13:54:43Z</time>
      </trkpt>
      <trkpt lat="43.65785" lon="6.23951">
        <ele>903.3</ele>
        <time>2015-03-08T13:54:56Z</time>
      </trkpt>
      <trkpt lat="43.6579" lon="6.23946">
        <ele>903.3</ele>
        <time>2015-03-08T13:55:00Z</time>
      </trkpt>
      <trkpt lat="43.65795" lon="6.23937">
        <ele>903.3</ele>
        <time>2015-03-08T13:55:04Z</time>
      </trkpt>
      <trkpt lat="43.65811" lon="6.23908">
        <ele>903.3</ele>
        <time>2015-03-08T13:55:22Z</time>
      </trkpt>
      <trkpt lat="43.65824" lon="6.23888">
        <ele>900.41</ele>
        <time>2015-03-08T13:55:37Z</time>
      </trkpt>
      <trkpt lat="43.65837" lon="6.23867">
        <ele>898.97</ele>
        <time>2015-03-08T13:55:51Z</time>
      </trkpt>
      <trkpt lat="43.65838" lon="6.23866">
        <ele>898.49</ele>
        <time>2015-03-08T13:55:52Z</time>
      </trkpt>
      <trkpt lat="43.65848" lon="6.23849">
        <ele>896.09</ele>
        <time>2015-03-08T13:56:03Z</time>
      </trkpt>
      <trkpt lat="43.65857" lon="6.23834">
        <ele>894.64</ele>
        <time>2015-03-08T13:56:16Z</time>
      </trkpt>
      <trkpt lat="43.65863" lon="6.23829">
        <ele>893.68</ele>
        <time>2015-03-08T13:56:23Z</time>
      </trkpt>
      <trkpt lat="43.65869" lon="6.23819">
        <ele>891.76</ele>
        <time>2015-03-08T13:56:29Z</time>
      </trkpt>
      <trkpt lat="43.65871" lon="6.23812">
        <ele>890.8</ele>
        <time>2015-03-08T13:56:33Z</time>
      </trkpt>
      <trkpt lat="43.65877" lon="6.23806">
        <ele>889.36</ele>
        <time>2015-03-08T13:56:49Z</time>
      </trkpt>
      <trkpt lat="43.65889" lon="6.23798">
        <ele>884.07</ele>
        <time>2015-03-08T13:57:04Z</time>
      </trkpt>
      <trkpt lat="43.65891" lon="6.23798">
        <ele>885.51</ele>
        <time>2015-03-08T13:57:05Z</time>
      </trkpt>
      <trkpt lat="43.65893" lon="6.23797">
        <ele>888.88</ele>
        <time>2015-03-08T13:57:07Z</time>
      </trkpt>
      <trkpt lat="43.65895" lon="6.23797">
        <ele>885.99</ele>
        <time>2015-03-08T13:57:19Z</time>
      </trkpt>
      <trkpt lat="43.65896" lon="6.23796">
        <ele>889.84</ele>
        <time>2015-03-08T13:57:20Z</time>
      </trkpt>
      <trkpt lat="43.65897" lon="6.23796">
        <ele>886.95</ele>
        <time>2015-03-08T13:57:21Z</time>
      </trkpt>
      <trkpt lat="43.659" lon="6.23797">
        <ele>886.47</ele>
        <time>2015-03-08T13:57:36Z</time>
      </trkpt>
      <trkpt lat="43.659" lon="6.23794">
        <ele>885.99</ele>
        <time>2015-03-08T13:57:48Z</time>
      </trkpt>
      <trkpt lat="43.65902" lon="6.23793">
        <ele>885.99</ele>
        <time>2015-03-08T13:57:50Z</time>
      </trkpt>
      <trkpt lat="43.65914" lon="6.23785">
        <ele>882.15</ele>
        <time>2015-03-08T13:58:03Z</time>
      </trkpt>
      <trkpt lat="43.65922" lon="6.23782">
        <ele>879.74</ele>
        <time>2015-03-08T13:58:12Z</time>
      </trkpt>
      <trkpt lat="43.65938" lon="6.23773">
        <ele>876.38</ele>
        <time>2015-03-08T13:58:26Z</time>
      </trkpt>
      <trkpt lat="43.6594" lon="6.23771">
        <ele>875.9</ele>
        <time>2015-03-08T13:58:28Z</time>
      </trkpt>
      <trkpt lat="43.65955" lon="6.23764">
        <ele>873.98</ele>
        <time>2015-03-08T13:58:40Z</time>
      </trkpt>
      <trkpt lat="43.65965" lon="6.23753">
        <ele>871.57</ele>
        <time>2015-03-08T13:58:50Z</time>
      </trkpt>
      <trkpt lat="43.65969" lon="6.23742">
        <ele>871.09</ele>
        <time>2015-03-08T13:58:57Z</time>
      </trkpt>
      <trkpt lat="43.65978" lon="6.2373">
        <ele>868.21</ele>
        <time>2015-03-08T13:59:12Z</time>
      </trkpt>
      <trkpt lat="43.65986" lon="6.23721">
        <ele>865.32</ele>
        <time>2015-03-08T13:59:23Z</time>
      </trkpt>
      <trkpt lat="43.65997" lon="6.23706">
        <ele>862.92</ele>
        <time>2015-03-08T13:59:35Z</time>
      </trkpt>
      <trkpt lat="43.66002" lon="6.23693">
        <ele>861.96</ele>
        <time>2015-03-08T13:59:52Z</time>
      </trkpt>
      <trkpt lat="43.66005" lon="6.23688">
        <ele>860.52</ele>
        <time>2015-03-08T14:00:01Z</time>
      </trkpt>
      <trkpt lat="43.66009" lon="6.23674">
        <ele>857.63</ele>
        <time>2015-03-08T14:00:14Z</time>
      </trkpt>
      <trkpt lat="43.66018" lon="6.23657">
        <ele>855.71</ele>
        <time>2015-03-08T14:00:26Z</time>
      </trkpt>
      <trkpt lat="43.66024" lon="6.23637">
        <ele>853.79</ele>
        <time>2015-03-08T14:00:39Z</time>
      </trkpt>
      <trkpt lat="43.66027" lon="6.23628">
        <ele>852.83</ele>
        <time>2015-03-08T14:00:51Z</time>
      </trkpt>
      <trkpt lat="43.66028" lon="6.23623">
        <ele>852.35</ele>
        <time>2015-03-08T14:00:53Z</time>
      </trkpt>
      <trkpt lat="43.66034" lon="6.23596">
        <ele>850.9</ele>
        <time>2015-03-08T14:01:08Z</time>
      </trkpt>
      <trkpt lat="43.66034" lon="6.2359">
        <ele>849.94</ele>
        <time>2015-03-08T14:01:14Z</time>
      </trkpt>
      <trkpt lat="43.6603" lon="6.23581">
        <ele>849.94</ele>
        <time>2015-03-08T14:01:29Z</time>
      </trkpt>
      <trkpt lat="43.6603" lon="6.23581">
        <ele>849.46</ele>
        <time>2015-03-08T14:01:46Z</time>
      </trkpt>
      <trkpt lat="43.6603" lon="6.2358">
        <ele>849.46</ele>
        <time>2015-03-08T14:02:10Z</time>
      </trkpt>
      <trkpt lat="43.66031" lon="6.23577">
        <ele>850.42</ele>
        <time>2015-03-08T14:02:25Z</time>
      </trkpt>
      <trkpt lat="43.6603" lon="6.23578">
        <ele>850.42</ele>
        <time>2015-03-08T14:02:29Z</time>
      </trkpt>
      <trkpt lat="43.66021" lon="6.23586">
        <ele>850.42</ele>
        <time>2015-03-08T14:02:40Z</time>
      </trkpt>
      <trkpt lat="43.66003" lon="6.2361">
        <ele>850.42</ele>
        <time>2015-03-08T14:02:55Z</time>
      </trkpt>
      <trkpt lat="43.65984" lon="6.23642">
        <ele>848.98</ele>
        <time>2015-03-08T14:03:12Z</time>
      </trkpt>
      <trkpt lat="43.65963" lon="6.23662">
        <ele>847.06</ele>
        <time>2015-03-08T14:03:27Z</time>
      </trkpt>
      <trkpt lat="43.65946" lon="6.23682">
        <ele>846.1</ele>
        <time>2015-03-08T14:03:41Z</time>
      </trkpt>
      <trkpt lat="43.65923" lon="6.23695">
        <ele>845.14</ele>
        <time>2015-03-08T14:03:56Z</time>
      </trkpt>
      <trkpt lat="43.65899" lon="6.23701">
        <ele>843.21</ele>
        <time>2015-03-08T14:04:10Z</time>
      </trkpt>
      <trkpt lat="43.65877" lon="6.23713">
        <ele>842.25</ele>
        <time>2015-03-08T14:04:25Z</time>
      </trkpt>
      <trkpt lat="43.65861" lon="6.23726">
        <ele>842.73</ele>
        <time>2015-03-08T14:04:41Z</time>
      </trkpt>
      <trkpt lat="43.65846" lon="6.23737">
        <ele>845.62</ele>
        <time>2015-03-08T14:04:54Z</time>
      </trkpt>
      <trkpt lat="43.65841" lon="6.23742">
        <ele>848.02</ele>
        <time>2015-03-08T14:04:59Z</time>
      </trkpt>
      <trkpt lat="43.65833" lon="6.23758">
        <ele>851.38</ele>
        <time>2015-03-08T14:05:11Z</time>
      </trkpt>
      <trkpt lat="43.65832" lon="6.2376">
        <ele>851.38</ele>
        <time>2015-03-08T14:05:12Z</time>
      </trkpt>
      <trkpt lat="43.65816" lon="6.23772">
        <ele>854.75</ele>
        <time>2015-03-08T14:05:19Z</time>
      </trkpt>
      <trkpt lat="43.65801" lon="6.23781">
        <ele>857.63</ele>
        <time>2015-03-08T14:05:31Z</time>
      </trkpt>
      <trkpt lat="43.65798" lon="6.23782">
        <ele>859.56</ele>
        <time>2015-03-08T14:05:34Z</time>
      </trkpt>
      <trkpt lat="43.65791" lon="6.23787">
        <ele>861.48</ele>
        <time>2015-03-08T14:05:39Z</time>
      </trkpt>
      <trkpt lat="43.65771" lon="6.23796">
        <ele>862.92</ele>
        <time>2015-03-08T14:05:53Z</time>
      </trkpt>
      <trkpt lat="43.65767" lon="6.238">
        <ele>863.88</ele>
        <time>2015-03-08T14:05:57Z</time>
      </trkpt>
      <trkpt lat="43.6576" lon="6.2381">
        <ele>866.29</ele>
        <time>2015-03-08T14:06:02Z</time>
      </trkpt>
      <trkpt lat="43.65734" lon="6.23826">
        <ele>869.65</ele>
        <time>2015-03-08T14:06:11Z</time>
      </trkpt>
      <trkpt lat="43.65714" lon="6.23842">
        <ele>872.05</ele>
        <time>2015-03-08T14:06:24Z</time>
      </trkpt>
      <trkpt lat="43.65702" lon="6.23851">
        <ele>872.53</ele>
        <time>2015-03-08T14:06:40Z</time>
      </trkpt>
      <trkpt lat="43.65691" lon="6.2387">
        <ele>875.42</ele>
        <time>2015-03-08T14:06:57Z</time>
      </trkpt>
      <trkpt lat="43.65691" lon="6.23887">
        <ele>875.9</ele>
        <time>2015-03-08T14:07:07Z</time>
      </trkpt>
      <trkpt lat="43.65702" lon="6.2392">
        <ele>878.3</ele>
        <time>2015-03-08T14:07:21Z</time>
      </trkpt>
      <trkpt lat="43.65704" lon="6.23952">
        <ele>881.19</ele>
        <time>2015-03-08T14:07:41Z</time>
      </trkpt>
      <trkpt lat="43.65712" lon="6.23982">
        <ele>882.63</ele>
        <time>2015-03-08T14:08:00Z</time>
      </trkpt>
      <trkpt lat="43.65708" lon="6.2401">
        <ele>880.71</ele>
        <time>2015-03-08T14:08:12Z</time>
      </trkpt>
      <trkpt lat="43.65694" lon="6.24026">
        <ele>878.3</ele>
        <time>2015-03-08T14:08:23Z</time>
      </trkpt>
      <trkpt lat="43.65687" lon="6.24031">
        <ele>878.3</ele>
        <time>2015-03-08T14:08:28Z</time>
      </trkpt>
      <trkpt lat="43.6568" lon="6.24034">
        <ele>878.3</ele>
        <time>2015-03-08T14:08:32Z</time>
      </trkpt>
      <trkpt lat="43.65656" lon="6.24038">
        <ele>879.74</ele>
        <time>2015-03-08T14:08:47Z</time>
      </trkpt>
      <trkpt lat="43.65639" lon="6.24039">
        <ele>883.11</ele>
        <time>2015-03-08T14:08:54Z</time>
      </trkpt>
      <trkpt lat="43.6562" lon="6.24035">
        <ele>886.47</ele>
        <time>2015-03-08T14:09:02Z</time>
      </trkpt>
      <trkpt lat="43.65604" lon="6.24043">
        <ele>889.84</ele>
        <time>2015-03-08T14:09:10Z</time>
      </trkpt>
      <trkpt lat="43.65594" lon="6.24052">
        <ele>890.32</ele>
        <time>2015-03-08T14:09:23Z</time>
      </trkpt>
      <trkpt lat="43.65576" lon="6.24057">
        <ele>887.43</ele>
        <time>2015-03-08T14:09:35Z</time>
      </trkpt>
      <trkpt lat="43.65556" lon="6.24075">
        <ele>883.11</ele>
        <time>2015-03-08T14:09:49Z</time>
      </trkpt>
      <trkpt lat="43.65555" lon="6.24076">
        <ele>883.11</ele>
        <time>2015-03-08T14:09:50Z</time>
      </trkpt>
      <trkpt lat="43.65543" lon="6.24094">
        <ele>880.22</ele>
        <time>2015-03-08T14:10:01Z</time>
      </trkpt>
      <trkpt lat="43.65543" lon="6.24094">
        <ele>879.74</ele>
        <time>2015-03-08T14:10:12Z</time>
      </trkpt>
      <trkpt lat="43.65528" lon="6.24097">
        <ele>877.82</ele>
        <time>2015-03-08T14:10:25Z</time>
      </trkpt>
      <trkpt lat="43.6552" lon="6.24097">
        <ele>876.38</ele>
        <time>2015-03-08T14:10:32Z</time>
      </trkpt>
      <trkpt lat="43.65518" lon="6.24097">
        <ele>875.9</ele>
        <time>2015-03-08T14:10:34Z</time>
      </trkpt>
      <trkpt lat="43.65516" lon="6.24097">
        <ele>874.46</ele>
        <time>2015-03-08T14:10:36Z</time>
      </trkpt>
      <trkpt lat="43.65512" lon="6.24091">
        <ele>873.01</ele>
        <time>2015-03-08T14:10:41Z</time>
      </trkpt>
      <trkpt lat="43.65516" lon="6.24079">
        <ele>871.57</ele>
        <time>2015-03-08T14:10:49Z</time>
      </trkpt>
      <trkpt lat="43.65514" lon="6.24052">
        <ele>870.13</ele>
        <time>2015-03-08T14:11:02Z</time>
      </trkpt>
      <trkpt lat="43.65514" lon="6.24044">
        <ele>870.13</ele>
        <time>2015-03-08T14:11:06Z</time>
      </trkpt>
      <trkpt lat="43.65516" lon="6.2403">
        <ele>869.17</ele>
        <time>2015-03-08T14:11:16Z</time>
      </trkpt>
      <trkpt lat="43.6552" lon="6.24013">
        <ele>866.29</ele>
        <time>2015-03-08T14:11:28Z</time>
      </trkpt>
      <trkpt lat="43.65515" lon="6.23984">
        <ele>863.4</ele>
        <time>2015-03-08T14:11:40Z</time>
      </trkpt>
      <trkpt lat="43.65512" lon="6.23979">
        <ele>862.44</ele>
        <time>2015-03-08T14:11:44Z</time>
      </trkpt>
      <trkpt lat="43.6551" lon="6.23974">
        <ele>861.48</ele>
        <time>2015-03-08T14:11:47Z</time>
      </trkpt>
      <trkpt lat="43.65506" lon="6.23965">
        <ele>858.11</ele>
        <time>2015-03-08T14:11:54Z</time>
      </trkpt>
      <trkpt lat="43.65501" lon="6.23958">
        <ele>856.67</ele>
        <time>2015-03-08T14:12:00Z</time>
      </trkpt>
      <trkpt lat="43.65488" lon="6.23953">
        <ele>853.31</ele>
        <time>2015-03-08T14:12:13Z</time>
      </trkpt>
      <trkpt lat="43.65474" lon="6.23951">
        <ele>850.42</ele>
        <time>2015-03-08T14:12:25Z</time>
      </trkpt>
      <trkpt lat="43.65468" lon="6.23931">
        <ele>847.06</ele>
        <time>2015-03-08T14:12:38Z</time>
      </trkpt>
      <trkpt lat="43.65465" lon="6.23919">
        <ele>845.14</ele>
        <time>2015-03-08T14:12:45Z</time>
      </trkpt>
      <trkpt lat="43.65463" lon="6.23906">
        <ele>843.21</ele>
        <time>2015-03-08T14:12:53Z</time>
      </trkpt>
      <trkpt lat="43.65462" lon="6.23884">
        <ele>840.81</ele>
        <time>2015-03-08T14:13:08Z</time>
      </trkpt>
      <trkpt lat="43.65463" lon="6.23873">
        <ele>838.89</ele>
        <time>2015-03-08T14:13:24Z</time>
      </trkpt>
      <trkpt lat="43.65462" lon="6.2387">
        <ele>838.89</ele>
        <time>2015-03-08T14:13:25Z</time>
      </trkpt>
      <trkpt lat="43.65462" lon="6.23854">
        <ele>836</ele>
        <time>2015-03-08T14:13:36Z</time>
      </trkpt>
      <trkpt lat="43.65461" lon="6.23842">
        <ele>833.6</ele>
        <time>2015-03-08T14:13:48Z</time>
      </trkpt>
      <trkpt lat="43.65454" lon="6.23837">
        <ele>829.76</ele>
        <time>2015-03-08T14:13:59Z</time>
      </trkpt>
      <trkpt lat="43.6545" lon="6.23833">
        <ele>828.79</ele>
        <time>2015-03-08T14:14:02Z</time>
      </trkpt>
      <trkpt lat="43.65427" lon="6.23812">
        <ele>825.43</ele>
        <time>2015-03-08T14:14:16Z</time>
      </trkpt>
      <trkpt lat="43.65408" lon="6.23795">
        <ele>823.99</ele>
        <time>2015-03-08T14:14:30Z</time>
      </trkpt>
      <trkpt lat="43.65395" lon="6.23792">
        <ele>821.58</ele>
        <time>2015-03-08T14:14:40Z</time>
      </trkpt>
      <trkpt lat="43.65374" lon="6.23791">
        <ele>819.18</ele>
        <time>2015-03-08T14:14:55Z</time>
      </trkpt>
      <trkpt lat="43.65359" lon="6.23792">
        <ele>817.26</ele>
        <time>2015-03-08T14:15:10Z</time>
      </trkpt>
      <trkpt lat="43.65355" lon="6.23796">
        <ele>816.78</ele>
        <time>2015-03-08T14:15:12Z</time>
      </trkpt>
      <trkpt lat="43.65344" lon="6.23818">
        <ele>814.85</ele>
        <time>2015-03-08T14:15:29Z</time>
      </trkpt>
      <trkpt lat="43.65338" lon="6.23837">
        <ele>812.93</ele>
        <time>2015-03-08T14:15:45Z</time>
      </trkpt>
      <trkpt lat="43.65335" lon="6.23843">
        <ele>811.97</ele>
        <time>2015-03-08T14:15:51Z</time>
      </trkpt>
      <trkpt lat="43.65334" lon="6.23867">
        <ele>808.61</ele>
        <time>2015-03-08T14:16:07Z</time>
      </trkpt>
      <trkpt lat="43.65332" lon="6.23891">
        <ele>805.72</ele>
        <time>2015-03-08T14:16:22Z</time>
      </trkpt>
      <trkpt lat="43.65326" lon="6.2392">
        <ele>802.36</ele>
        <time>2015-03-08T14:16:35Z</time>
      </trkpt>
      <trkpt lat="43.65321" lon="6.23938">
        <ele>799.95</ele>
        <time>2015-03-08T14:16:46Z</time>
      </trkpt>
      <trkpt lat="43.65311" lon="6.23973">
        <ele>797.07</ele>
        <time>2015-03-08T14:17:00Z</time>
      </trkpt>
      <trkpt lat="43.65311" lon="6.2398">
        <ele>794.67</ele>
        <time>2015-03-08T14:17:11Z</time>
      </trkpt>
      <trkpt lat="43.6531" lon="6.23989">
        <ele>790.82</ele>
        <time>2015-03-08T14:17:23Z</time>
      </trkpt>
      <trkpt lat="43.65305" lon="6.23998">
        <ele>787.94</ele>
        <time>2015-03-08T14:17:37Z</time>
      </trkpt>
      <trkpt lat="43.65291" lon="6.2402">
        <ele>784.57</ele>
        <time>2015-03-08T14:17:50Z</time>
      </trkpt>
      <trkpt lat="43.65281" lon="6.24048">
        <ele>781.69</ele>
        <time>2015-03-08T14:18:03Z</time>
      </trkpt>
      <trkpt lat="43.65273" lon="6.24065">
        <ele>778.32</ele>
        <time>2015-03-08T14:18:14Z</time>
      </trkpt>
      <trkpt lat="43.65254" lon="6.24098">
        <ele>775.44</ele>
        <time>2015-03-08T14:18:26Z</time>
      </trkpt>
      <trkpt lat="43.65246" lon="6.24126">
        <ele>772.08</ele>
        <time>2015-03-08T14:18:40Z</time>
      </trkpt>
      <trkpt lat="43.65238" lon="6.24141">
        <ele>769.67</ele>
        <time>2015-03-08T14:18:56Z</time>
      </trkpt>
      <trkpt lat="43.65243" lon="6.24148">
        <ele>770.15</ele>
        <time>2015-03-08T14:19:10Z</time>
      </trkpt>
      <trkpt lat="43.65244" lon="6.24155">
        <ele>770.15</ele>
        <time>2015-03-08T14:19:35Z</time>
      </trkpt>
      <trkpt lat="43.65242" lon="6.24147">
        <ele>770.63</ele>
        <time>2015-03-08T14:20:03Z</time>
      </trkpt>
      <trkpt lat="43.6524" lon="6.24145">
        <ele>769.19</ele>
        <time>2015-03-08T14:20:22Z</time>
      </trkpt>
      <trkpt lat="43.65232" lon="6.24147">
        <ele>768.23</ele>
        <time>2015-03-08T14:20:39Z</time>
      </trkpt>
      <trkpt lat="43.65212" lon="6.24156">
        <ele>766.31</ele>
        <time>2015-03-08T14:20:55Z</time>
      </trkpt>
      <trkpt lat="43.652" lon="6.24167">
        <ele>764.39</ele>
        <time>2015-03-08T14:21:09Z</time>
      </trkpt>
      <trkpt lat="43.65186" lon="6.24179">
        <ele>761.98</ele>
        <time>2015-03-08T14:21:23Z</time>
      </trkpt>
      <trkpt lat="43.65175" lon="6.242">
        <ele>759.1</ele>
        <time>2015-03-08T14:21:37Z</time>
      </trkpt>
      <trkpt lat="43.65165" lon="6.24218">
        <ele>756.69</ele>
        <time>2015-03-08T14:21:52Z</time>
      </trkpt>
      <trkpt lat="43.65165" lon="6.24229">
        <ele>754.77</ele>
        <time>2015-03-08T14:22:07Z</time>
      </trkpt>
      <trkpt lat="43.65158" lon="6.2425">
        <ele>753.33</ele>
        <time>2015-03-08T14:22:17Z</time>
      </trkpt>
      <trkpt lat="43.65157" lon="6.24254">
        <ele>752.85</ele>
        <time>2015-03-08T14:22:21Z</time>
      </trkpt>
      <trkpt lat="43.65149" lon="6.24266">
        <ele>750.45</ele>
        <time>2015-03-08T14:22:30Z</time>
      </trkpt>
      <trkpt lat="43.65141" lon="6.2428">
        <ele>747.08</ele>
        <time>2015-03-08T14:22:42Z</time>
      </trkpt>
      <trkpt lat="43.65139" lon="6.24281">
        <ele>746.12</ele>
        <time>2015-03-08T14:22:48Z</time>
      </trkpt>
      <trkpt lat="43.65118" lon="6.24294">
        <ele>742.76</ele>
        <time>2015-03-08T14:23:05Z</time>
      </trkpt>
      <trkpt lat="43.65098" lon="6.24305">
        <ele>739.87</ele>
        <time>2015-03-08T14:23:22Z</time>
      </trkpt>
      <trkpt lat="43.65079" lon="6.24315">
        <ele>736.99</ele>
        <time>2015-03-08T14:23:35Z</time>
      </trkpt>
      <trkpt lat="43.6505" lon="6.24351">
        <ele>734.1</ele>
        <time>2015-03-08T14:23:49Z</time>
      </trkpt>
      <trkpt lat="43.65043" lon="6.24357">
        <ele>733.62</ele>
        <time>2015-03-08T14:23:53Z</time>
      </trkpt>
      <trkpt lat="43.65035" lon="6.24373">
        <ele>732.66</ele>
        <time>2015-03-08T14:24:05Z</time>
      </trkpt>
      <trkpt lat="43.65029" lon="6.24395">
        <ele>730.26</ele>
        <time>2015-03-08T14:24:17Z</time>
      </trkpt>
      <trkpt lat="43.65028" lon="6.24398">
        <ele>730.26</ele>
        <time>2015-03-08T14:24:19Z</time>
      </trkpt>
      <trkpt lat="43.65019" lon="6.24412">
        <ele>727.86</ele>
        <time>2015-03-08T14:24:32Z</time>
      </trkpt>
      <trkpt lat="43.65017" lon="6.24426">
        <ele>725.45</ele>
        <time>2015-03-08T14:24:45Z</time>
      </trkpt>
      <trkpt lat="43.65008" lon="6.24425">
        <ele>722.57</ele>
        <time>2015-03-08T14:25:03Z</time>
      </trkpt>
      <trkpt lat="43.64989" lon="6.24439">
        <ele>720.65</ele>
        <time>2015-03-08T14:25:21Z</time>
      </trkpt>
      <trkpt lat="43.64963" lon="6.24454">
        <ele>719.2</ele>
        <time>2015-03-08T14:25:41Z</time>
      </trkpt>
      <trkpt lat="43.64927" lon="6.24491">
        <ele>717.28</ele>
        <time>2015-03-08T14:25:57Z</time>
      </trkpt>
      <trkpt lat="43.64914" lon="6.24505">
        <ele>715.84</ele>
        <time>2015-03-08T14:26:09Z</time>
      </trkpt>
      <trkpt lat="43.6491" lon="6.24508">
        <ele>715.36</ele>
        <time>2015-03-08T14:26:12Z</time>
      </trkpt>
      <trkpt lat="43.64895" lon="6.24525">
        <ele>713.44</ele>
        <time>2015-03-08T14:26:26Z</time>
      </trkpt>
      <trkpt lat="43.64895" lon="6.24534">
        <ele>711.51</ele>
        <time>2015-03-08T14:26:33Z</time>
      </trkpt>
      <trkpt lat="43.64896" lon="6.24551">
        <ele>709.59</ele>
        <time>2015-03-08T14:26:44Z</time>
      </trkpt>
      <trkpt lat="43.64898" lon="6.24582">
        <ele>707.19</ele>
        <time>2015-03-08T14:26:57Z</time>
      </trkpt>
      <trkpt lat="43.64886" lon="6.24594">
        <ele>705.75</ele>
        <time>2015-03-08T14:27:09Z</time>
      </trkpt>
      <trkpt lat="43.64865" lon="6.24604">
        <ele>702.38</ele>
        <time>2015-03-08T14:27:25Z</time>
      </trkpt>
      <trkpt lat="43.64848" lon="6.24609">
        <ele>699.98</ele>
        <time>2015-03-08T14:27:40Z</time>
      </trkpt>
      <trkpt lat="43.64838" lon="6.24612">
        <ele>698.53</ele>
        <time>2015-03-08T14:27:52Z</time>
      </trkpt>
      <trkpt lat="43.64828" lon="6.24633">
        <ele>697.09</ele>
        <time>2015-03-08T14:28:04Z</time>
      </trkpt>
      <trkpt lat="43.64826" lon="6.24635">
        <ele>696.61</ele>
        <time>2015-03-08T14:28:06Z</time>
      </trkpt>
      <trkpt lat="43.64813" lon="6.24642">
        <ele>695.65</ele>
        <time>2015-03-08T14:28:16Z</time>
      </trkpt>
      <trkpt lat="43.64805" lon="6.24645">
        <ele>695.65</ele>
        <time>2015-03-08T14:28:21Z</time>
      </trkpt>
      <trkpt lat="43.64789" lon="6.24644">
        <ele>693.25</ele>
        <time>2015-03-08T14:28:36Z</time>
      </trkpt>
      <trkpt lat="43.6477" lon="6.24646">
        <ele>690.36</ele>
        <time>2015-03-08T14:28:48Z</time>
      </trkpt>
      <trkpt lat="43.64755" lon="6.24648">
        <ele>687</ele>
        <time>2015-03-08T14:29:02Z</time>
      </trkpt>
      <trkpt lat="43.6473" lon="6.24655">
        <ele>684.12</ele>
        <time>2015-03-08T14:29:19Z</time>
      </trkpt>
      <trkpt lat="43.64708" lon="6.2467">
        <ele>682.19</ele>
        <time>2015-03-08T14:29:34Z</time>
      </trkpt>
      <trkpt lat="43.64706" lon="6.24671">
        <ele>682.19</ele>
        <time>2015-03-08T14:29:35Z</time>
      </trkpt>
      <trkpt lat="43.64687" lon="6.2468">
        <ele>680.75</ele>
        <time>2015-03-08T14:29:50Z</time>
      </trkpt>
      <trkpt lat="43.64679" lon="6.24682">
        <ele>680.27</ele>
        <time>2015-03-08T14:29:54Z</time>
      </trkpt>
      <trkpt lat="43.64665" lon="6.24678">
        <ele>678.83</ele>
        <time>2015-03-08T14:30:05Z</time>
      </trkpt>
      <trkpt lat="43.64655" lon="6.24678">
        <ele>677.87</ele>
        <time>2015-03-08T14:30:13Z</time>
      </trkpt>
      <trkpt lat="43.64631" lon="6.24673">
        <ele>675.94</ele>
        <time>2015-03-08T14:30:31Z</time>
      </trkpt>
      <trkpt lat="43.64628" lon="6.24669">
        <ele>675.46</ele>
        <time>2015-03-08T14:30:36Z</time>
      </trkpt>
      <trkpt lat="43.64624" lon="6.24665">
        <ele>674.98</ele>
        <time>2015-03-08T14:30:39Z</time>
      </trkpt>
      <trkpt lat="43.64613" lon="6.24633">
        <ele>673.54</ele>
        <time>2015-03-08T14:30:55Z</time>
      </trkpt>
      <trkpt lat="43.64593" lon="6.24613">
        <ele>671.62</ele>
        <time>2015-03-08T14:31:11Z</time>
      </trkpt>
      <trkpt lat="43.6458" lon="6.24592">
        <ele>671.62</ele>
        <time>2015-03-08T14:31:26Z</time>
      </trkpt>
      <trkpt lat="43.64562" lon="6.2458">
        <ele>669.22</ele>
        <time>2015-03-08T14:31:41Z</time>
      </trkpt>
      <trkpt lat="43.6456" lon="6.24579">
        <ele>668.25</ele>
        <time>2015-03-08T14:31:42Z</time>
      </trkpt>
      <trkpt lat="43.64547" lon="6.24574">
        <ele>666.81</ele>
        <time>2015-03-08T14:31:52Z</time>
      </trkpt>
      <trkpt lat="43.64529" lon="6.24575">
        <ele>665.85</ele>
        <time>2015-03-08T14:32:06Z</time>
      </trkpt>
      <trkpt lat="43.64525" lon="6.24577">
        <ele>665.37</ele>
        <time>2015-03-08T14:32:09Z</time>
      </trkpt>
      <trkpt lat="43.64504" lon="6.24584">
        <ele>662.49</ele>
        <time>2015-03-08T14:32:29Z</time>
      </trkpt>
      <trkpt lat="43.64502" lon="6.2458">
        <ele>662.01</ele>
        <time>2015-03-08T14:32:33Z</time>
      </trkpt>
      <trkpt lat="43.64499" lon="6.24569">
        <ele>661.04</ele>
        <time>2015-03-08T14:32:38Z</time>
      </trkpt>
      <trkpt lat="43.64492" lon="6.24546">
        <ele>659.6</ele>
        <time>2015-03-08T14:32:51Z</time>
      </trkpt>
      <trkpt lat="43.64488" lon="6.24527">
        <ele>658.64</ele>
        <time>2015-03-08T14:33:02Z</time>
      </trkpt>
      <trkpt lat="43.64494" lon="6.24517">
        <ele>657.68</ele>
        <time>2015-03-08T14:33:05Z</time>
      </trkpt>
      <trkpt lat="43.64494" lon="6.2449">
        <ele>657.2</ele>
        <time>2015-03-08T14:33:20Z</time>
      </trkpt>
      <trkpt lat="43.64489" lon="6.24486">
        <ele>656.72</ele>
        <time>2015-03-08T14:33:24Z</time>
      </trkpt>
      <trkpt lat="43.64475" lon="6.2448">
        <ele>655.28</ele>
        <time>2015-03-08T14:33:36Z</time>
      </trkpt>
      <trkpt lat="43.64456" lon="6.24473">
        <ele>653.83</ele>
        <time>2015-03-08T14:33:54Z</time>
      </trkpt>
      <trkpt lat="43.64442" lon="6.2447">
        <ele>651.91</ele>
        <time>2015-03-08T14:34:10Z</time>
      </trkpt>
      <trkpt lat="43.6444" lon="6.24468">
        <ele>652.39</ele>
        <time>2015-03-08T14:34:12Z</time>
      </trkpt>
      <trkpt lat="43.6444" lon="6.24436">
        <ele>650.47</ele>
        <time>2015-03-08T14:34:26Z</time>
      </trkpt>
      <trkpt lat="43.6444" lon="6.24418">
        <ele>649.03</ele>
        <time>2015-03-08T14:34:42Z</time>
      </trkpt>
      <trkpt lat="43.64437" lon="6.24414">
        <ele>649.03</ele>
        <time>2015-03-08T14:34:46Z</time>
      </trkpt>
      <trkpt lat="43.64433" lon="6.24405">
        <ele>649.03</ele>
        <time>2015-03-08T14:34:52Z</time>
      </trkpt>
      <trkpt lat="43.64427" lon="6.24402">
        <ele>648.55</ele>
        <time>2015-03-08T14:34:54Z</time>
      </trkpt>
      <trkpt lat="43.64419" lon="6.24388">
        <ele>647.59</ele>
        <time>2015-03-08T14:35:03Z</time>
      </trkpt>
      <trkpt lat="43.64414" lon="6.24364">
        <ele>647.1</ele>
        <time>2015-03-08T14:35:15Z</time>
      </trkpt>
      <trkpt lat="43.64408" lon="6.2434">
        <ele>645.18</ele>
        <time>2015-03-08T14:35:28Z</time>
      </trkpt>
      <trkpt lat="43.64416" lon="6.24307">
        <ele>644.22</ele>
        <time>2015-03-08T14:35:41Z</time>
      </trkpt>
      <trkpt lat="43.64412" lon="6.24289">
        <ele>642.78</ele>
        <time>2015-03-08T14:35:54Z</time>
      </trkpt>
      <trkpt lat="43.64398" lon="6.24278">
        <ele>642.3</ele>
        <time>2015-03-08T14:36:06Z</time>
      </trkpt>
      <trkpt lat="43.64393" lon="6.24251">
        <ele>639.89</ele>
        <time>2015-03-08T14:36:24Z</time>
      </trkpt>
      <trkpt lat="43.64394" lon="6.24237">
        <ele>639.41</ele>
        <time>2015-03-08T14:36:34Z</time>
      </trkpt>
      <trkpt lat="43.64393" lon="6.24215">
        <ele>637.97</ele>
        <time>2015-03-08T14:36:45Z</time>
      </trkpt>
      <trkpt lat="43.64396" lon="6.2418">
        <ele>635.57</ele>
        <time>2015-03-08T14:37:02Z</time>
      </trkpt>
      <trkpt lat="43.64395" lon="6.24174">
        <ele>635.57</ele>
        <time>2015-03-08T14:37:05Z</time>
      </trkpt>
      <trkpt lat="43.64391" lon="6.2415">
        <ele>634.61</ele>
        <time>2015-03-08T14:37:18Z</time>
      </trkpt>
      <trkpt lat="43.64397" lon="6.24131">
        <ele>632.2</ele>
        <time>2015-03-08T14:37:30Z</time>
      </trkpt>
      <trkpt lat="43.644" lon="6.2411">
        <ele>630.76</ele>
        <time>2015-03-08T14:37:41Z</time>
      </trkpt>
      <trkpt lat="43.64403" lon="6.241">
        <ele>630.76</ele>
        <time>2015-03-08T14:37:48Z</time>
      </trkpt>
      <trkpt lat="43.64406" lon="6.24074">
        <ele>629.32</ele>
        <time>2015-03-08T14:38:04Z</time>
      </trkpt>
      <trkpt lat="43.64401" lon="6.24041">
        <ele>626.92</ele>
        <time>2015-03-08T14:38:19Z</time>
      </trkpt>
      <trkpt lat="43.64394" lon="6.24021">
        <ele>626.44</ele>
        <time>2015-03-08T14:38:31Z</time>
      </trkpt>
      <trkpt lat="43.64394" lon="6.23993">
        <ele>624.03</ele>
        <time>2015-03-08T14:38:46Z</time>
      </trkpt>
      <trkpt lat="43.644" lon="6.2397">
        <ele>621.63</ele>
        <time>2015-03-08T14:39:01Z</time>
      </trkpt>
      <trkpt lat="43.644" lon="6.23968">
        <ele>621.63</ele>
        <time>2015-03-08T14:39:02Z</time>
      </trkpt>
      <trkpt lat="43.64399" lon="6.23964">
        <ele>621.63</ele>
        <time>2015-03-08T14:39:04Z</time>
      </trkpt>
      <trkpt lat="43.64402" lon="6.23937">
        <ele>621.15</ele>
        <time>2015-03-08T14:39:20Z</time>
      </trkpt>
      <trkpt lat="43.64389" lon="6.23913">
        <ele>619.23</ele>
        <time>2015-03-08T14:39:36Z</time>
      </trkpt>
      <trkpt lat="43.64375" lon="6.23906">
        <ele>618.75</ele>
        <time>2015-03-08T14:39:49Z</time>
      </trkpt>
      <trkpt lat="43.64354" lon="6.23912">
        <ele>616.82</ele>
        <time>2015-03-08T14:40:04Z</time>
      </trkpt>
      <trkpt lat="43.64337" lon="6.2393">
        <ele>614.9</ele>
        <time>2015-03-08T14:40:20Z</time>
      </trkpt>
      <trkpt lat="43.64319" lon="6.23943">
        <ele>613.46</ele>
        <time>2015-03-08T14:40:38Z</time>
      </trkpt>
      <trkpt lat="43.64312" lon="6.23932">
        <ele>612.02</ele>
        <time>2015-03-08T14:40:52Z</time>
      </trkpt>
      <trkpt lat="43.64312" lon="6.23932">
        <ele>612.02</ele>
        <time>2015-03-08T14:41:08Z</time>
      </trkpt>
      <trkpt lat="43.64313" lon="6.23931">
        <ele>612.02</ele>
        <time>2015-03-08T14:41:29Z</time>
      </trkpt>
      <trkpt lat="43.64312" lon="6.23931">
        <ele>612.5</ele>
        <time>2015-03-08T14:41:53Z</time>
      </trkpt>
      <trkpt lat="43.64313" lon="6.23929">
        <ele>612.02</ele>
        <time>2015-03-08T14:42:13Z</time>
      </trkpt>
      <trkpt lat="43.64315" lon="6.23919">
        <ele>612.02</ele>
        <time>2015-03-08T14:42:27Z</time>
      </trkpt>
      <trkpt lat="43.64315" lon="6.23919">
        <ele>611.54</ele>
        <time>2015-03-08T14:42:50Z</time>
      </trkpt>
      <trkpt lat="43.64317" lon="6.23919">
        <ele>612.02</ele>
        <time>2015-03-08T14:43:10Z</time>
      </trkpt>
      <trkpt lat="43.6432" lon="6.23917">
        <ele>612.02</ele>
        <time>2015-03-08T14:43:17Z</time>
      </trkpt>
      <trkpt lat="43.64334" lon="6.23891">
        <ele>611.06</ele>
        <time>2015-03-08T14:43:31Z</time>
      </trkpt>
      <trkpt lat="43.64365" lon="6.23864">
        <ele>610.09</ele>
        <time>2015-03-08T14:43:49Z</time>
      </trkpt>
      <trkpt lat="43.64376" lon="6.2385">
        <ele>609.61</ele>
        <time>2015-03-08T14:43:59Z</time>
      </trkpt>
      <trkpt lat="43.64382" lon="6.23835">
        <ele>609.13</ele>
        <time>2015-03-08T14:44:09Z</time>
      </trkpt>
      <trkpt lat="43.64392" lon="6.23819">
        <ele>608.17</ele>
        <time>2015-03-08T14:44:20Z</time>
      </trkpt>
      <trkpt lat="43.64417" lon="6.23804">
        <ele>606.73</ele>
        <time>2015-03-08T14:44:39Z</time>
      </trkpt>
      <trkpt lat="43.6442" lon="6.23805">
        <ele>606.73</ele>
        <time>2015-03-08T14:44:40Z</time>
      </trkpt>
      <trkpt lat="43.64458" lon="6.23801">
        <ele>605.77</ele>
        <time>2015-03-08T14:44:52Z</time>
      </trkpt>
      <trkpt lat="43.64489" lon="6.23807">
        <ele>604.81</ele>
        <time>2015-03-08T14:45:07Z</time>
      </trkpt>
      <trkpt lat="43.64493" lon="6.23804">
        <ele>603.85</ele>
        <time>2015-03-08T14:45:11Z</time>
      </trkpt>
      <trkpt lat="43.64494" lon="6.23767">
        <ele>601.92</ele>
        <time>2015-03-08T14:45:29Z</time>
      </trkpt>
      <trkpt lat="43.64469" lon="6.23742">
        <ele>600</ele>
        <time>2015-03-08T14:45:44Z</time>
      </trkpt>
      <trkpt lat="43.64465" lon="6.23739">
        <ele>600</ele>
        <time>2015-03-08T14:45:48Z</time>
      </trkpt>
      <trkpt lat="43.6445" lon="6.23709">
        <ele>599.04</ele>
        <time>2015-03-08T14:46:07Z</time>
      </trkpt>
      <trkpt lat="43.64443" lon="6.23703">
        <ele>600</ele>
        <time>2015-03-08T14:46:12Z</time>
      </trkpt>
      <trkpt lat="43.64437" lon="6.23702">
        <ele>600.48</ele>
        <time>2015-03-08T14:46:15Z</time>
      </trkpt>
      <trkpt lat="43.64413" lon="6.23695">
        <ele>600.96</ele>
        <time>2015-03-08T14:46:34Z</time>
      </trkpt>
      <trkpt lat="43.64391" lon="6.23688">
        <ele>601.92</ele>
        <time>2015-03-08T14:46:51Z</time>
      </trkpt>
      <trkpt lat="43.64387" lon="6.23683">
        <ele>601.92</ele>
        <time>2015-03-08T14:46:57Z</time>
      </trkpt>
      <trkpt lat="43.64367" lon="6.23676">
        <ele>601.92</ele>
        <time>2015-03-08T14:47:05Z</time>
      </trkpt>
      <trkpt lat="43.6434" lon="6.23652">
        <ele>600.96</ele>
        <time>2015-03-08T14:47:20Z</time>
      </trkpt>
      <trkpt lat="43.64335" lon="6.23641">
        <ele>600.96</ele>
        <time>2015-03-08T14:47:28Z</time>
      </trkpt>
      <trkpt lat="43.64334" lon="6.23633">
        <ele>600.96</ele>
        <time>2015-03-08T14:47:32Z</time>
      </trkpt>
      <trkpt lat="43.64321" lon="6.23593">
        <ele>600.96</ele>
        <time>2015-03-08T14:47:49Z</time>
      </trkpt>
      <trkpt lat="43.6432" lon="6.23589">
        <ele>600.96</ele>
        <time>2015-03-08T14:47:51Z</time>
      </trkpt>
      <trkpt lat="43.64319" lon="6.23585">
        <ele>601.92</ele>
        <time>2015-03-08T14:47:53Z</time>
      </trkpt>
      <trkpt lat="43.64315" lon="6.23549">
        <ele>601.92</ele>
        <time>2015-03-08T14:48:06Z</time>
      </trkpt>
      <trkpt lat="43.64308" lon="6.23516">
        <ele>603.36</ele>
        <time>2015-03-08T14:48:24Z</time>
      </trkpt>
      <trkpt lat="43.64306" lon="6.23497">
        <ele>604.81</ele>
        <time>2015-03-08T14:48:34Z</time>
      </trkpt>
      <trkpt lat="43.64297" lon="6.23472">
        <ele>605.29</ele>
        <time>2015-03-08T14:48:49Z</time>
      </trkpt>
      <trkpt lat="43.64293" lon="6.23436">
        <ele>607.69</ele>
        <time>2015-03-08T14:49:08Z</time>
      </trkpt>
      <trkpt lat="43.64294" lon="6.23409">
        <ele>608.65</ele>
        <time>2015-03-08T14:49:21Z</time>
      </trkpt>
      <trkpt lat="43.64281" lon="6.23378">
        <ele>609.61</ele>
        <time>2015-03-08T14:49:41Z</time>
      </trkpt>
      <trkpt lat="43.64267" lon="6.23348">
        <ele>611.06</ele>
        <time>2015-03-08T14:50:00Z</time>
      </trkpt>
      <trkpt lat="43.64256" lon="6.23325">
        <ele>612.5</ele>
        <time>2015-03-08T14:50:18Z</time>
      </trkpt>
      <trkpt lat="43.64257" lon="6.23315">
        <ele>614.42</ele>
        <time>2015-03-08T14:50:26Z</time>
      </trkpt>
      <trkpt lat="43.64236" lon="6.23303">
        <ele>614.42</ele>
        <time>2015-03-08T14:50:45Z</time>
      </trkpt>
      <trkpt lat="43.64209" lon="6.23293">
        <ele>614.9</ele>
        <time>2015-03-08T14:51:04Z</time>
      </trkpt>
      <trkpt lat="43.64189" lon="6.23266">
        <ele>614.42</ele>
        <time>2015-03-08T14:51:22Z</time>
      </trkpt>
      <trkpt lat="43.64182" lon="6.23257">
        <ele>613.94</ele>
        <time>2015-03-08T14:51:28Z</time>
      </trkpt>
      <trkpt lat="43.64161" lon="6.23227">
        <ele>613.46</ele>
        <time>2015-03-08T14:51:47Z</time>
      </trkpt>
      <trkpt lat="43.64157" lon="6.23221">
        <ele>613.46</ele>
        <time>2015-03-08T14:51:52Z</time>
      </trkpt>
      <trkpt lat="43.64131" lon="6.23206">
        <ele>612.02</ele>
        <time>2015-03-08T14:52:11Z</time>
      </trkpt>
      <trkpt lat="43.64118" lon="6.23201">
        <ele>612.5</ele>
        <time>2015-03-08T14:52:28Z</time>
      </trkpt>
      <trkpt lat="43.64114" lon="6.23199">
        <ele>612.5</ele>
        <time>2015-03-08T14:52:50Z</time>
      </trkpt>
      <trkpt lat="43.64113" lon="6.23202">
        <ele>612.5</ele>
        <time>2015-03-08T14:53:16Z</time>
      </trkpt>
      <trkpt lat="43.64097" lon="6.23208">
        <ele>612.98</ele>
        <time>2015-03-08T14:53:34Z</time>
      </trkpt>
      <trkpt lat="43.64072" lon="6.2322">
        <ele>613.94</ele>
        <time>2015-03-08T14:53:52Z</time>
      </trkpt>
      <trkpt lat="43.64068" lon="6.2322">
        <ele>613.94</ele>
        <time>2015-03-08T14:53:54Z</time>
      </trkpt>
      <trkpt lat="43.64062" lon="6.23221">
        <ele>613.94</ele>
        <time>2015-03-08T14:53:57Z</time>
      </trkpt>
      <trkpt lat="43.64037" lon="6.23218">
        <ele>614.9</ele>
        <time>2015-03-08T14:54:08Z</time>
      </trkpt>
      <trkpt lat="43.63988" lon="6.23211">
        <ele>613.46</ele>
        <time>2015-03-08T14:54:20Z</time>
      </trkpt>
      <trkpt lat="43.63956" lon="6.23198">
        <ele>612.98</ele>
        <time>2015-03-08T14:54:27Z</time>
      </trkpt>
      <trkpt lat="43.63929" lon="6.23192">
        <ele>611.54</ele>
        <time>2015-03-08T14:54:33Z</time>
      </trkpt>
      <trkpt lat="43.6391" lon="6.23192">
        <ele>611.54</ele>
        <time>2015-03-08T14:54:37Z</time>
      </trkpt>
      <trkpt lat="43.63905" lon="6.23194">
        <ele>611.06</ele>
        <time>2015-03-08T14:54:38Z</time>
      </trkpt>
      <trkpt lat="43.63884" lon="6.232">
        <ele>612.02</ele>
        <time>2015-03-08T14:54:42Z</time>
      </trkpt>
      <trkpt lat="43.63853" lon="6.23205">
        <ele>612.98</ele>
        <time>2015-03-08T14:54:50Z</time>
      </trkpt>
      <trkpt lat="43.63804" lon="6.2321">
        <ele>613.94</ele>
        <time>2015-03-08T14:55:04Z</time>
      </trkpt>
      <trkpt lat="43.6373" lon="6.23216">
        <ele>615.38</ele>
        <time>2015-03-08T14:55:17Z</time>
      </trkpt>
      <trkpt lat="43.63725" lon="6.23218">
        <ele>615.86</ele>
        <time>2015-03-08T14:55:18Z</time>
      </trkpt>
      <trkpt lat="43.6372" lon="6.23222">
        <ele>616.34</ele>
        <time>2015-03-08T14:55:19Z</time>
      </trkpt>
      <trkpt lat="43.63707" lon="6.23235">
        <ele>618.26</ele>
        <time>2015-03-08T14:55:22Z</time>
      </trkpt>
      <trkpt lat="43.63703" lon="6.23239">
        <ele>618.75</ele>
        <time>2015-03-08T14:55:23Z</time>
      </trkpt>
      <trkpt lat="43.63688" lon="6.23258">
        <ele>620.67</ele>
        <time>2015-03-08T14:55:27Z</time>
      </trkpt>
      <trkpt lat="43.63668" lon="6.23281">
        <ele>623.55</ele>
        <time>2015-03-08T14:55:36Z</time>
      </trkpt>
      <trkpt lat="43.63662" lon="6.23301">
        <ele>626.44</ele>
        <time>2015-03-08T14:55:48Z</time>
      </trkpt>
      <trkpt lat="43.63656" lon="6.23312">
        <ele>629.8</ele>
        <time>2015-03-08T14:55:57Z</time>
      </trkpt>
      <trkpt lat="43.63654" lon="6.23313">
        <ele>630.76</ele>
        <time>2015-03-08T14:55:59Z</time>
      </trkpt>
      <trkpt lat="43.63651" lon="6.23312">
        <ele>630.76</ele>
        <time>2015-03-08T14:56:03Z</time>
      </trkpt>
      <trkpt lat="43.6365" lon="6.23311">
        <ele>630.76</ele>
        <time>2015-03-08T14:56:04Z</time>
      </trkpt>
      <trkpt lat="43.63649" lon="6.2331">
        <ele>631.24</ele>
        <time>2015-03-08T14:56:05Z</time>
      </trkpt>
      <trkpt lat="43.63648" lon="6.23308">
        <ele>631.24</ele>
        <time>2015-03-08T14:56:06Z</time>
      </trkpt>
      <trkpt lat="43.63647" lon="6.23307">
        <ele>631.24</ele>
        <time>2015-03-08T14:56:07Z</time>
      </trkpt>
      <trkpt lat="43.63647" lon="6.23306">
        <ele>631.72</ele>
        <time>2015-03-08T14:56:08Z</time>
      </trkpt>
      <trkpt lat="43.63646" lon="6.23304">
        <ele>631.72</ele>
        <time>2015-03-08T14:56:09Z</time>
      </trkpt>
      <trkpt lat="43.63646" lon="6.23303">
        <ele>631.24</ele>
        <time>2015-03-08T14:56:10Z</time>
      </trkpt>
      <trkpt lat="43.63645" lon="6.23302">
        <ele>631.72</ele>
        <time>2015-03-08T14:56:11Z</time>
      </trkpt>
      <trkpt lat="43.63644" lon="6.23301">
        <ele>631.72</ele>
        <time>2015-03-08T14:56:12Z</time>
      </trkpt>
      <trkpt lat="43.6364" lon="6.23297">
        <ele>632.2</ele>
        <time>2015-03-08T14:56:17Z</time>
      </trkpt>
      <trkpt lat="43.63613" lon="6.23295">
        <ele>632.2</ele>
        <time>2015-03-08T14:56:35Z</time>
      </trkpt>
      <trkpt lat="43.63607" lon="6.23298">
        <ele>632.2</ele>
        <time>2015-03-08T14:56:39Z</time>
      </trkpt>
      <trkpt lat="43.63577" lon="6.23294">
        <ele>633.65</ele>
        <time>2015-03-08T14:56:58Z</time>
      </trkpt>
      <trkpt lat="43.63575" lon="6.23293">
        <ele>633.65</ele>
        <time>2015-03-08T14:56:59Z</time>
      </trkpt>
      <trkpt lat="43.63573" lon="6.23292">
        <ele>634.13</ele>
        <time>2015-03-08T14:57:00Z</time>
      </trkpt>
      <trkpt lat="43.63571" lon="6.23291">
        <ele>634.13</ele>
        <time>2015-03-08T14:57:01Z</time>
      </trkpt>
      <trkpt lat="43.63552" lon="6.23287">
        <ele>634.61</ele>
        <time>2015-03-08T14:57:14Z</time>
      </trkpt>
      <trkpt lat="43.63528" lon="6.23281">
        <ele>635.57</ele>
        <time>2015-03-08T14:57:31Z</time>
      </trkpt>
      <trkpt lat="43.63497" lon="6.2328">
        <ele>636.53</ele>
        <time>2015-03-08T14:57:52Z</time>
      </trkpt>
      <trkpt lat="43.63476" lon="6.23297">
        <ele>636.53</ele>
        <time>2015-03-08T14:58:08Z</time>
      </trkpt>
      <trkpt lat="43.63462" lon="6.23311">
        <ele>637.01</ele>
        <time>2015-03-08T14:58:20Z</time>
      </trkpt>
      <trkpt lat="43.63443" lon="6.23325">
        <ele>636.05</ele>
        <time>2015-03-08T14:58:37Z</time>
      </trkpt>
      <trkpt lat="43.63439" lon="6.23324">
        <ele>635.57</ele>
        <time>2015-03-08T14:58:41Z</time>
      </trkpt>
      <trkpt lat="43.63424" lon="6.2328">
        <ele>635.09</ele>
        <time>2015-03-08T14:58:58Z</time>
      </trkpt>
      <trkpt lat="43.63414" lon="6.23257">
        <ele>635.09</ele>
        <time>2015-03-08T14:59:11Z</time>
      </trkpt>
      <trkpt lat="43.63413" lon="6.23255">
        <ele>635.09</ele>
        <time>2015-03-08T14:59:12Z</time>
      </trkpt>
      <trkpt lat="43.63393" lon="6.23228">
        <ele>636.05</ele>
        <time>2015-03-08T14:59:33Z</time>
      </trkpt>
      <trkpt lat="43.63369" lon="6.23221">
        <ele>636.53</ele>
        <time>2015-03-08T14:59:50Z</time>
      </trkpt>
      <trkpt lat="43.6334" lon="6.23216">
        <ele>637.01</ele>
        <time>2015-03-08T15:00:14Z</time>
      </trkpt>
      <trkpt lat="43.63315" lon="6.23215">
        <ele>638.45</ele>
        <time>2015-03-08T15:00:34Z</time>
      </trkpt>
      <trkpt lat="43.63296" lon="6.23226">
        <ele>639.89</ele>
        <time>2015-03-08T15:00:52Z</time>
      </trkpt>
      <trkpt lat="43.63295" lon="6.23227">
        <ele>639.89</ele>
        <time>2015-03-08T15:00:53Z</time>
      </trkpt>
      <trkpt lat="43.63288" lon="6.23236">
        <ele>641.34</ele>
        <time>2015-03-08T15:01:02Z</time>
      </trkpt>
      <trkpt lat="43.63283" lon="6.2326">
        <ele>641.82</ele>
        <time>2015-03-08T15:01:16Z</time>
      </trkpt>
      <trkpt lat="43.6328" lon="6.23288">
        <ele>642.3</ele>
        <time>2015-03-08T15:01:32Z</time>
      </trkpt>
      <trkpt lat="43.63277" lon="6.23303">
        <ele>642.3</ele>
        <time>2015-03-08T15:01:40Z</time>
      </trkpt>
      <trkpt lat="43.63279" lon="6.2333">
        <ele>642.78</ele>
        <time>2015-03-08T15:01:56Z</time>
      </trkpt>
      <trkpt lat="43.63279" lon="6.23333">
        <ele>642.78</ele>
        <time>2015-03-08T15:01:57Z</time>
      </trkpt>
      <trkpt lat="43.63279" lon="6.23335">
        <ele>642.78</ele>
        <time>2015-03-08T15:01:58Z</time>
      </trkpt>
      <trkpt lat="43.6329" lon="6.23364">
        <ele>643.26</ele>
        <time>2015-03-08T15:02:17Z</time>
      </trkpt>
      <trkpt lat="43.6329" lon="6.23367">
        <ele>643.74</ele>
        <time>2015-03-08T15:02:18Z</time>
      </trkpt>
      <trkpt lat="43.63289" lon="6.23403">
        <ele>643.26</ele>
        <time>2015-03-08T15:02:35Z</time>
      </trkpt>
      <trkpt lat="43.63286" lon="6.23406">
        <ele>643.26</ele>
        <time>2015-03-08T15:02:37Z</time>
      </trkpt>
      <trkpt lat="43.63284" lon="6.23406">
        <ele>643.26</ele>
        <time>2015-03-08T15:02:38Z</time>
      </trkpt>
      <trkpt lat="43.63244" lon="6.23404">
        <ele>643.74</ele>
        <time>2015-03-08T15:03:03Z</time>
      </trkpt>
      <trkpt lat="43.63217" lon="6.23403">
        <ele>644.22</ele>
        <time>2015-03-08T15:03:24Z</time>
      </trkpt>
      <trkpt lat="43.63187" lon="6.23413">
        <ele>644.22</ele>
        <time>2015-03-08T15:03:45Z</time>
      </trkpt>
      <trkpt lat="43.63181" lon="6.2342">
        <ele>644.22</ele>
        <time>2015-03-08T15:03:51Z</time>
      </trkpt>
      <trkpt lat="43.6318" lon="6.23421">
        <ele>644.7</ele>
        <time>2015-03-08T15:03:52Z</time>
      </trkpt>
      <trkpt lat="43.63177" lon="6.23427">
        <ele>644.7</ele>
        <time>2015-03-08T15:03:55Z</time>
      </trkpt>
      <trkpt lat="43.63163" lon="6.23451">
        <ele>644.22</ele>
        <time>2015-03-08T15:04:10Z</time>
      </trkpt>
      <trkpt lat="43.63152" lon="6.23486">
        <ele>644.22</ele>
        <time>2015-03-08T15:04:28Z</time>
      </trkpt>
      <trkpt lat="43.63139" lon="6.23519">
        <ele>644.22</ele>
        <time>2015-03-08T15:04:47Z</time>
      </trkpt>
      <trkpt lat="43.63124" lon="6.23555">
        <ele>644.22</ele>
        <time>2015-03-08T15:05:06Z</time>
      </trkpt>
      <trkpt lat="43.63122" lon="6.2356">
        <ele>644.22</ele>
        <time>2015-03-08T15:05:09Z</time>
      </trkpt>
      <trkpt lat="43.6312" lon="6.23566">
        <ele>644.22</ele>
        <time>2015-03-08T15:05:12Z</time>
      </trkpt>
      <trkpt lat="43.63123" lon="6.23604">
        <ele>644.22</ele>
        <time>2015-03-08T15:05:28Z</time>
      </trkpt>
      <trkpt lat="43.63131" lon="6.23623">
        <ele>644.22</ele>
        <time>2015-03-08T15:05:32Z</time>
      </trkpt>
      <trkpt lat="43.63134" lon="6.23628">
        <ele>644.7</ele>
        <time>2015-03-08T15:05:33Z</time>
      </trkpt>
      <trkpt lat="43.63139" lon="6.23638">
        <ele>644.7</ele>
        <time>2015-03-08T15:05:35Z</time>
      </trkpt>
      <trkpt lat="43.63153" lon="6.2368">
        <ele>644.22</ele>
        <time>2015-03-08T15:05:42Z</time>
      </trkpt>
      <trkpt lat="43.63155" lon="6.23689">
        <ele>644.7</ele>
        <time>2015-03-08T15:05:43Z</time>
      </trkpt>
      <trkpt lat="43.63156" lon="6.23706">
        <ele>644.7</ele>
        <time>2015-03-08T15:05:45Z</time>
      </trkpt>
      <trkpt lat="43.63155" lon="6.2372">
        <ele>644.22</ele>
        <time>2015-03-08T15:05:47Z</time>
      </trkpt>
      <trkpt lat="43.63154" lon="6.23726">
        <ele>643.74</ele>
        <time>2015-03-08T15:05:48Z</time>
      </trkpt>
      <trkpt lat="43.63153" lon="6.23731">
        <ele>644.7</ele>
        <time>2015-03-08T15:05:49Z</time>
      </trkpt>
      <trkpt lat="43.63146" lon="6.23745">
        <ele>643.26</ele>
        <time>2015-03-08T15:05:53Z</time>
      </trkpt>
      <trkpt lat="43.63142" lon="6.23746">
        <ele>642.3</ele>
        <time>2015-03-08T15:05:54Z</time>
      </trkpt>
      <trkpt lat="43.63103" lon="6.23734">
        <ele>643.74</ele>
        <time>2015-03-08T15:06:00Z</time>
      </trkpt>
      <trkpt lat="43.63025" lon="6.23734">
        <ele>644.7</ele>
        <time>2015-03-08T15:06:10Z</time>
      </trkpt>
      <trkpt lat="43.63018" lon="6.23738">
        <ele>644.22</ele>
        <time>2015-03-08T15:06:11Z</time>
      </trkpt>
      <trkpt lat="43.63011" lon="6.23742">
        <ele>644.22</ele>
        <time>2015-03-08T15:06:12Z</time>
      </trkpt>
      <trkpt lat="43.63005" lon="6.23748">
        <ele>644.22</ele>
        <time>2015-03-08T15:06:13Z</time>
      </trkpt>
      <trkpt lat="43.62999" lon="6.23754">
        <ele>644.22</ele>
        <time>2015-03-08T15:06:14Z</time>
      </trkpt>
      <trkpt lat="43.62992" lon="6.23761">
        <ele>644.22</ele>
        <time>2015-03-08T15:06:15Z</time>
      </trkpt>
      <trkpt lat="43.62986" lon="6.23769">
        <ele>644.22</ele>
        <time>2015-03-08T15:06:16Z</time>
      </trkpt>
      <trkpt lat="43.62981" lon="6.2378">
        <ele>644.22</ele>
        <time>2015-03-08T15:06:17Z</time>
      </trkpt>
      <trkpt lat="43.62976" lon="6.2379">
        <ele>644.22</ele>
        <time>2015-03-08T15:06:18Z</time>
      </trkpt>
      <trkpt lat="43.62973" lon="6.238">
        <ele>644.22</ele>
        <time>2015-03-08T15:06:19Z</time>
      </trkpt>
      <trkpt lat="43.62967" lon="6.23819">
        <ele>644.7</ele>
        <time>2015-03-08T15:06:21Z</time>
      </trkpt>
      <trkpt lat="43.62966" lon="6.23827">
        <ele>644.22</ele>
        <time>2015-03-08T15:06:22Z</time>
      </trkpt>
      <trkpt lat="43.62966" lon="6.23835">
        <ele>644.22</ele>
        <time>2015-03-08T15:06:23Z</time>
      </trkpt>
      <trkpt lat="43.62968" lon="6.23844">
        <ele>644.7</ele>
        <time>2015-03-08T15:06:24Z</time>
      </trkpt>
      <trkpt lat="43.62971" lon="6.23852">
        <ele>644.7</ele>
        <time>2015-03-08T15:06:25Z</time>
      </trkpt>
      <trkpt lat="43.62975" lon="6.23859">
        <ele>644.7</ele>
        <time>2015-03-08T15:06:26Z</time>
      </trkpt>
      <trkpt lat="43.62991" lon="6.23886">
        <ele>644.7</ele>
        <time>2015-03-08T15:06:30Z</time>
      </trkpt>
      <trkpt lat="43.62992" lon="6.23893">
        <ele>643.74</ele>
        <time>2015-03-08T15:06:31Z</time>
      </trkpt>
      <trkpt lat="43.62994" lon="6.239">
        <ele>644.22</ele>
        <time>2015-03-08T15:06:32Z</time>
      </trkpt>
      <trkpt lat="43.62997" lon="6.23926">
        <ele>645.18</ele>
        <time>2015-03-08T15:06:37Z</time>
      </trkpt>
      <trkpt lat="43.62979" lon="6.2394">
        <ele>645.18</ele>
        <time>2015-03-08T15:06:43Z</time>
      </trkpt>
      <trkpt lat="43.62927" lon="6.23931">
        <ele>644.22</ele>
        <time>2015-03-08T15:06:44Z</time>
      </trkpt>
      <trkpt lat="43.6292" lon="6.23929">
        <ele>643.74</ele>
        <time>2015-03-08T15:06:45Z</time>
      </trkpt>
      <trkpt lat="43.62914" lon="6.23927">
        <ele>645.18</ele>
        <time>2015-03-08T15:06:46Z</time>
      </trkpt>
      <trkpt lat="43.62907" lon="6.23926">
        <ele>644.22</ele>
        <time>2015-03-08T15:06:47Z</time>
      </trkpt>
      <trkpt lat="43.62901" lon="6.23924">
        <ele>646.14</ele>
        <time>2015-03-08T15:06:48Z</time>
      </trkpt>
      <trkpt lat="43.62869" lon="6.23906">
        <ele>644.7</ele>
        <time>2015-03-08T15:06:54Z</time>
      </trkpt>
      <trkpt lat="43.62862" lon="6.23904">
        <ele>644.7</ele>
        <time>2015-03-08T15:06:55Z</time>
      </trkpt>
      <trkpt lat="43.62856" lon="6.23905">
        <ele>644.7</ele>
        <time>2015-03-08T15:06:56Z</time>
      </trkpt>
      <trkpt lat="43.62849" lon="6.23907">
        <ele>644.7</ele>
        <time>2015-03-08T15:06:57Z</time>
      </trkpt>
      <trkpt lat="43.62843" lon="6.23911">
        <ele>644.7</ele>
        <time>2015-03-08T15:06:58Z</time>
      </trkpt>
      <trkpt lat="43.62837" lon="6.23915">
        <ele>644.7</ele>
        <time>2015-03-08T15:06:59Z</time>
      </trkpt>
      <trkpt lat="43.62811" lon="6.23944">
        <ele>644.7</ele>
        <time>2015-03-08T15:07:04Z</time>
      </trkpt>
      <trkpt lat="43.62805" lon="6.23952">
        <ele>644.7</ele>
        <time>2015-03-08T15:07:05Z</time>
      </trkpt>
      <trkpt lat="43.62796" lon="6.23971">
        <ele>644.7</ele>
        <time>2015-03-08T15:07:07Z</time>
      </trkpt>
      <trkpt lat="43.62794" lon="6.23981">
        <ele>644.7</ele>
        <time>2015-03-08T15:07:08Z</time>
      </trkpt>
      <trkpt lat="43.62792" lon="6.23992">
        <ele>645.18</ele>
        <time>2015-03-08T15:07:09Z</time>
      </trkpt>
      <trkpt lat="43.62792" lon="6.2401">
        <ele>644.7</ele>
        <time>2015-03-08T15:07:11Z</time>
      </trkpt>
      <trkpt lat="43.62794" lon="6.2402">
        <ele>645.18</ele>
        <time>2015-03-08T15:07:12Z</time>
      </trkpt>
      <trkpt lat="43.62805" lon="6.24055">
        <ele>644.7</ele>
        <time>2015-03-08T15:07:16Z</time>
      </trkpt>
      <trkpt lat="43.62808" lon="6.2407">
        <ele>645.18</ele>
        <time>2015-03-08T15:07:18Z</time>
      </trkpt>
      <trkpt lat="43.62811" lon="6.24108">
        <ele>645.18</ele>
        <time>2015-03-08T15:07:23Z</time>
      </trkpt>
      <trkpt lat="43.62818" lon="6.24144">
        <ele>645.18</ele>
        <time>2015-03-08T15:07:28Z</time>
      </trkpt>
      <trkpt lat="43.62823" lon="6.24155">
        <ele>645.66</ele>
        <time>2015-03-08T15:07:30Z</time>
      </trkpt>
      <trkpt lat="43.62838" lon="6.24186">
        <ele>645.18</ele>
        <time>2015-03-08T15:07:38Z</time>
      </trkpt>
      <trkpt lat="43.62838" lon="6.24188">
        <ele>646.14</ele>
        <time>2015-03-08T15:07:39Z</time>
      </trkpt>
      <trkpt lat="43.62837" lon="6.24192">
        <ele>645.66</ele>
        <time>2015-03-08T15:07:40Z</time>
      </trkpt>
      <trkpt lat="43.62837" lon="6.24196">
        <ele>646.14</ele>
        <time>2015-03-08T15:07:41Z</time>
      </trkpt>
      <trkpt lat="43.62836" lon="6.24198">
        <ele>646.14</ele>
        <time>2015-03-08T15:07:42Z</time>
      </trkpt>
      <trkpt lat="43.62835" lon="6.242">
        <ele>646.14</ele>
        <time>2015-03-08T15:07:43Z</time>
      </trkpt>
      <trkpt lat="43.62833" lon="6.24203">
        <ele>645.66</ele>
        <time>2015-03-08T15:07:44Z</time>
      </trkpt>
      <trkpt lat="43.62813" lon="6.24217">
        <ele>646.14</ele>
        <time>2015-03-08T15:07:56Z</time>
      </trkpt>
      <trkpt lat="43.62791" lon="6.24219">
        <ele>647.59</ele>
        <time>2015-03-08T15:08:12Z</time>
      </trkpt>
      <trkpt lat="43.62783" lon="6.24219">
        <ele>647.59</ele>
        <time>2015-03-08T15:08:19Z</time>
      </trkpt>
      <trkpt lat="43.62779" lon="6.24219">
        <ele>648.07</ele>
        <time>2015-03-08T15:08:22Z</time>
      </trkpt>
      <trkpt lat="43.6275" lon="6.2421">
        <ele>649.03</ele>
        <time>2015-03-08T15:08:40Z</time>
      </trkpt>
      <trkpt lat="43.62733" lon="6.24201">
        <ele>649.51</ele>
        <time>2015-03-08T15:08:56Z</time>
      </trkpt>
      <trkpt lat="43.62726" lon="6.24201">
        <ele>649.03</ele>
        <time>2015-03-08T15:09:01Z</time>
      </trkpt>
      <trkpt lat="43.62719" lon="6.24202">
        <ele>649.03</ele>
        <time>2015-03-08T15:09:05Z</time>
      </trkpt>
      <trkpt lat="43.62695" lon="6.24202">
        <ele>648.55</ele>
        <time>2015-03-08T15:09:20Z</time>
      </trkpt>
      <trkpt lat="43.6268" lon="6.24203">
        <ele>648.55</ele>
        <time>2015-03-08T15:09:31Z</time>
      </trkpt>
      <trkpt lat="43.62677" lon="6.24203">
        <ele>649.03</ele>
        <time>2015-03-08T15:09:34Z</time>
      </trkpt>
      <trkpt lat="43.62657" lon="6.24204">
        <ele>650.47</ele>
        <time>2015-03-08T15:09:50Z</time>
      </trkpt>
      <trkpt lat="43.62638" lon="6.24217">
        <ele>650.95</ele>
        <time>2015-03-08T15:10:06Z</time>
      </trkpt>
      <trkpt lat="43.62623" lon="6.24225">
        <ele>651.91</ele>
        <time>2015-03-08T15:10:18Z</time>
      </trkpt>
      <trkpt lat="43.62621" lon="6.24225">
        <ele>652.39</ele>
        <time>2015-03-08T15:10:19Z</time>
      </trkpt>
      <trkpt lat="43.6262" lon="6.24226">
        <ele>652.39</ele>
        <time>2015-03-08T15:10:20Z</time>
      </trkpt>
      <trkpt lat="43.62618" lon="6.24227">
        <ele>652.39</ele>
        <time>2015-03-08T15:10:21Z</time>
      </trkpt>
      <trkpt lat="43.62617" lon="6.24228">
        <ele>652.39</ele>
        <time>2015-03-08T15:10:22Z</time>
      </trkpt>
      <trkpt lat="43.62613" lon="6.24232">
        <ele>652.39</ele>
        <time>2015-03-08T15:10:26Z</time>
      </trkpt>
      <trkpt lat="43.62612" lon="6.24234">
        <ele>652.39</ele>
        <time>2015-03-08T15:10:27Z</time>
      </trkpt>
      <trkpt lat="43.62598" lon="6.24257">
        <ele>654.8</ele>
        <time>2015-03-08T15:10:44Z</time>
      </trkpt>
      <trkpt lat="43.62585" lon="6.24287">
        <ele>655.28</ele>
        <time>2015-03-08T15:10:58Z</time>
      </trkpt>
      <trkpt lat="43.62575" lon="6.24313">
        <ele>654.8</ele>
        <time>2015-03-08T15:11:07Z</time>
      </trkpt>
      <trkpt lat="43.6258" lon="6.24351">
        <ele>654.31</ele>
        <time>2015-03-08T15:11:18Z</time>
      </trkpt>
      <trkpt lat="43.62601" lon="6.24402">
        <ele>654.31</ele>
        <time>2015-03-08T15:11:31Z</time>
      </trkpt>
      <trkpt lat="43.6262" lon="6.24442">
        <ele>654.31</ele>
        <time>2015-03-08T15:11:40Z</time>
      </trkpt>
      <trkpt lat="43.62647" lon="6.24476">
        <ele>656.72</ele>
        <time>2015-03-08T15:11:50Z</time>
      </trkpt>
      <trkpt lat="43.62677" lon="6.24517">
        <ele>658.64</ele>
        <time>2015-03-08T15:12:03Z</time>
      </trkpt>
      <trkpt lat="43.62712" lon="6.24541">
        <ele>659.12</ele>
        <time>2015-03-08T15:12:14Z</time>
      </trkpt>
      <trkpt lat="43.6274" lon="6.24574">
        <ele>660.56</ele>
        <time>2015-03-08T15:12:25Z</time>
      </trkpt>
      <trkpt lat="43.62758" lon="6.24577">
        <ele>661.52</ele>
        <time>2015-03-08T15:12:39Z</time>
      </trkpt>
      <trkpt lat="43.62759" lon="6.24576">
        <ele>661.52</ele>
        <time>2015-03-08T15:12:40Z</time>
      </trkpt>
      <trkpt lat="43.62764" lon="6.24575">
        <ele>661.52</ele>
        <time>2015-03-08T15:12:43Z</time>
      </trkpt>
      <trkpt lat="43.62765" lon="6.24576">
        <ele>661.52</ele>
        <time>2015-03-08T15:12:44Z</time>
      </trkpt>
      <trkpt lat="43.62781" lon="6.24582">
        <ele>662.01</ele>
        <time>2015-03-08T15:12:55Z</time>
      </trkpt>
      <trkpt lat="43.62782" lon="6.24583">
        <ele>662.01</ele>
        <time>2015-03-08T15:12:56Z</time>
      </trkpt>
      <trkpt lat="43.62797" lon="6.24603">
        <ele>662.49</ele>
        <time>2015-03-08T15:13:10Z</time>
      </trkpt>
      <trkpt lat="43.62797" lon="6.24637">
        <ele>662.01</ele>
        <time>2015-03-08T15:13:26Z</time>
      </trkpt>
      <trkpt lat="43.628" lon="6.24674">
        <ele>662.01</ele>
        <time>2015-03-08T15:13:45Z</time>
      </trkpt>
      <trkpt lat="43.62806" lon="6.24708">
        <ele>662.97</ele>
        <time>2015-03-08T15:14:02Z</time>
      </trkpt>
      <trkpt lat="43.62808" lon="6.24715">
        <ele>662.97</ele>
        <time>2015-03-08T15:14:06Z</time>
      </trkpt>
      <trkpt lat="43.62809" lon="6.24719">
        <ele>662.49</ele>
        <time>2015-03-08T15:14:08Z</time>
      </trkpt>
      <trkpt lat="43.62805" lon="6.24728">
        <ele>663.45</ele>
        <time>2015-03-08T15:14:13Z</time>
      </trkpt>
      <trkpt lat="43.62782" lon="6.24743">
        <ele>663.93</ele>
        <time>2015-03-08T15:14:27Z</time>
      </trkpt>
      <trkpt lat="43.62777" lon="6.24746">
        <ele>663.93</ele>
        <time>2015-03-08T15:14:31Z</time>
      </trkpt>
      <trkpt lat="43.62753" lon="6.24757">
        <ele>664.41</ele>
        <time>2015-03-08T15:14:48Z</time>
      </trkpt>
      <trkpt lat="43.6275" lon="6.24759">
        <ele>664.41</ele>
        <time>2015-03-08T15:14:51Z</time>
      </trkpt>
      <trkpt lat="43.62737" lon="6.24775">
        <ele>664.41</ele>
        <time>2015-03-08T15:15:05Z</time>
      </trkpt>
      <trkpt lat="43.62731" lon="6.24807">
        <ele>663.93</ele>
        <time>2015-03-08T15:15:21Z</time>
      </trkpt>
      <trkpt lat="43.62731" lon="6.24811">
        <ele>663.93</ele>
        <time>2015-03-08T15:15:23Z</time>
      </trkpt>
      <trkpt lat="43.62722" lon="6.24834">
        <ele>663.93</ele>
        <time>2015-03-08T15:15:39Z</time>
      </trkpt>
      <trkpt lat="43.62714" lon="6.2484">
        <ele>663.93</ele>
        <time>2015-03-08T15:15:43Z</time>
      </trkpt>
      <trkpt lat="43.62712" lon="6.24841">
        <ele>664.41</ele>
        <time>2015-03-08T15:15:44Z</time>
      </trkpt>
      <trkpt lat="43.62686" lon="6.24869">
        <ele>663.93</ele>
        <time>2015-03-08T15:15:54Z</time>
      </trkpt>
      <trkpt lat="43.62684" lon="6.24875">
        <ele>663.45</ele>
        <time>2015-03-08T15:15:55Z</time>
      </trkpt>
      <trkpt lat="43.62676" lon="6.24896">
        <ele>662.97</ele>
        <time>2015-03-08T15:15:58Z</time>
      </trkpt>
      <trkpt lat="43.62674" lon="6.24903">
        <ele>662.97</ele>
        <time>2015-03-08T15:15:59Z</time>
      </trkpt>
      <trkpt lat="43.62673" lon="6.24911">
        <ele>662.97</ele>
        <time>2015-03-08T15:16:00Z</time>
      </trkpt>
      <trkpt lat="43.62672" lon="6.24917">
        <ele>662.97</ele>
        <time>2015-03-08T15:16:01Z</time>
      </trkpt>
      <trkpt lat="43.62672" lon="6.24923">
        <ele>662.97</ele>
        <time>2015-03-08T15:16:02Z</time>
      </trkpt>
      <trkpt lat="43.62673" lon="6.24928">
        <ele>663.45</ele>
        <time>2015-03-08T15:16:03Z</time>
      </trkpt>
      <trkpt lat="43.62674" lon="6.24933">
        <ele>663.93</ele>
        <time>2015-03-08T15:16:04Z</time>
      </trkpt>
      <trkpt lat="43.62675" lon="6.24938">
        <ele>663.45</ele>
        <time>2015-03-08T15:16:05Z</time>
      </trkpt>
      <trkpt lat="43.62681" lon="6.24951">
        <ele>663.93</ele>
        <time>2015-03-08T15:16:08Z</time>
      </trkpt>
      <trkpt lat="43.62684" lon="6.24956">
        <ele>663.93</ele>
        <time>2015-03-08T15:16:09Z</time>
      </trkpt>
      <trkpt lat="43.62686" lon="6.24962">
        <ele>663.45</ele>
        <time>2015-03-08T15:16:10Z</time>
      </trkpt>
      <trkpt lat="43.62689" lon="6.24967">
        <ele>663.45</ele>
        <time>2015-03-08T15:16:11Z</time>
      </trkpt>
      <trkpt lat="43.62692" lon="6.24972">
        <ele>663.45</ele>
        <time>2015-03-08T15:16:12Z</time>
      </trkpt>
      <trkpt lat="43.62694" lon="6.24977">
        <ele>663.93</ele>
        <time>2015-03-08T15:16:13Z</time>
      </trkpt>
      <trkpt lat="43.62697" lon="6.24982">
        <ele>663.93</ele>
        <time>2015-03-08T15:16:14Z</time>
      </trkpt>
      <trkpt lat="43.62699" lon="6.24986">
        <ele>664.41</ele>
        <time>2015-03-08T15:16:15Z</time>
      </trkpt>
      <trkpt lat="43.62706" lon="6.25035">
        <ele>663.93</ele>
        <time>2015-03-08T15:16:26Z</time>
      </trkpt>
      <trkpt lat="43.62695" lon="6.25042">
        <ele>663.93</ele>
        <time>2015-03-08T15:16:30Z</time>
      </trkpt>
      <trkpt lat="43.62691" lon="6.25043">
        <ele>663.93</ele>
        <time>2015-03-08T15:16:31Z</time>
      </trkpt>
      <trkpt lat="43.62686" lon="6.25045">
        <ele>664.41</ele>
        <time>2015-03-08T15:16:32Z</time>
      </trkpt>
      <trkpt lat="43.62681" lon="6.25047">
        <ele>664.41</ele>
        <time>2015-03-08T15:16:33Z</time>
      </trkpt>
      <trkpt lat="43.62676" lon="6.25048">
        <ele>664.41</ele>
        <time>2015-03-08T15:16:34Z</time>
      </trkpt>
      <trkpt lat="43.62671" lon="6.2505">
        <ele>663.93</ele>
        <time>2015-03-08T15:16:35Z</time>
      </trkpt>
      <trkpt lat="43.62666" lon="6.25052">
        <ele>664.41</ele>
        <time>2015-03-08T15:16:36Z</time>
      </trkpt>
      <trkpt lat="43.62662" lon="6.25054">
        <ele>664.41</ele>
        <time>2015-03-08T15:16:37Z</time>
      </trkpt>
      <trkpt lat="43.62632" lon="6.25069">
        <ele>662.97</ele>
        <time>2015-03-08T15:16:47Z</time>
      </trkpt>
      <trkpt lat="43.62598" lon="6.25077">
        <ele>662.49</ele>
        <time>2015-03-08T15:16:59Z</time>
      </trkpt>
      <trkpt lat="43.62596" lon="6.25079">
        <ele>662.49</ele>
        <time>2015-03-08T15:17:00Z</time>
      </trkpt>
      <trkpt lat="43.62591" lon="6.25088">
        <ele>662.01</ele>
        <time>2015-03-08T15:17:04Z</time>
      </trkpt>
      <trkpt lat="43.6259" lon="6.25091">
        <ele>662.01</ele>
        <time>2015-03-08T15:17:05Z</time>
      </trkpt>
      <trkpt lat="43.62591" lon="6.25093">
        <ele>662.01</ele>
        <time>2015-03-08T15:17:06Z</time>
      </trkpt>
      <trkpt lat="43.62595" lon="6.25119">
        <ele>661.52</ele>
        <time>2015-03-08T15:17:17Z</time>
      </trkpt>
      <trkpt lat="43.62595" lon="6.25121">
        <ele>661.52</ele>
        <time>2015-03-08T15:17:18Z</time>
      </trkpt>
      <trkpt lat="43.62595" lon="6.25124">
        <ele>661.52</ele>
        <time>2015-03-08T15:17:19Z</time>
      </trkpt>
      <trkpt lat="43.62596" lon="6.25126">
        <ele>661.52</ele>
        <time>2015-03-08T15:17:20Z</time>
      </trkpt>
      <trkpt lat="43.62596" lon="6.25129">
        <ele>661.04</ele>
        <time>2015-03-08T15:17:21Z</time>
      </trkpt>
      <trkpt lat="43.62597" lon="6.25131">
        <ele>661.04</ele>
        <time>2015-03-08T15:17:22Z</time>
      </trkpt>
      <trkpt lat="43.62598" lon="6.25132">
        <ele>661.04</ele>
        <time>2015-03-08T15:17:23Z</time>
      </trkpt>
      <trkpt lat="43.62599" lon="6.25135">
        <ele>661.04</ele>
        <time>2015-03-08T15:17:24Z</time>
      </trkpt>
      <trkpt lat="43.626" lon="6.25137">
        <ele>661.04</ele>
        <time>2015-03-08T15:17:25Z</time>
      </trkpt>
      <trkpt lat="43.62606" lon="6.25151">
        <ele>660.56</ele>
        <time>2015-03-08T15:17:32Z</time>
      </trkpt>
      <trkpt lat="43.62606" lon="6.25153">
        <ele>660.56</ele>
        <time>2015-03-08T15:17:33Z</time>
      </trkpt>
      <trkpt lat="43.62607" lon="6.25155">
        <ele>660.56</ele>
        <time>2015-03-08T15:17:34Z</time>
      </trkpt>
      <trkpt lat="43.62608" lon="6.25156">
        <ele>660.08</ele>
        <time>2015-03-08T15:17:35Z</time>
      </trkpt>
      <trkpt lat="43.62609" lon="6.25158">
        <ele>660.56</ele>
        <time>2015-03-08T15:17:36Z</time>
      </trkpt>
      <trkpt lat="43.62609" lon="6.2516">
        <ele>660.08</ele>
        <time>2015-03-08T15:17:37Z</time>
      </trkpt>
      <trkpt lat="43.6261" lon="6.25162">
        <ele>660.56</ele>
        <time>2015-03-08T15:17:38Z</time>
      </trkpt>
      <trkpt lat="43.6261" lon="6.25163">
        <ele>660.08</ele>
        <time>2015-03-08T15:17:39Z</time>
      </trkpt>
      <trkpt lat="43.62612" lon="6.25167">
        <ele>660.08</ele>
        <time>2015-03-08T15:17:41Z</time>
      </trkpt>
      <trkpt lat="43.62622" lon="6.25187">
        <ele>658.64</ele>
        <time>2015-03-08T15:17:54Z</time>
      </trkpt>
      <trkpt lat="43.62625" lon="6.25208">
        <ele>658.16</ele>
        <time>2015-03-08T15:18:03Z</time>
      </trkpt>
      <trkpt lat="43.62623" lon="6.25213">
        <ele>658.16</ele>
        <time>2015-03-08T15:18:05Z</time>
      </trkpt>
      <trkpt lat="43.62603" lon="6.25228">
        <ele>657.2</ele>
        <time>2015-03-08T15:18:19Z</time>
      </trkpt>
      <trkpt lat="43.62574" lon="6.25237">
        <ele>655.76</ele>
        <time>2015-03-08T15:18:34Z</time>
      </trkpt>
      <trkpt lat="43.62553" lon="6.25248">
        <ele>655.28</ele>
        <time>2015-03-08T15:18:49Z</time>
      </trkpt>
      <trkpt lat="43.62543" lon="6.2526">
        <ele>654.8</ele>
        <time>2015-03-08T15:19:01Z</time>
      </trkpt>
      <trkpt lat="43.62539" lon="6.25267">
        <ele>654.8</ele>
        <time>2015-03-08T15:19:04Z</time>
      </trkpt>
      <trkpt lat="43.62538" lon="6.25269">
        <ele>654.8</ele>
        <time>2015-03-08T15:19:05Z</time>
      </trkpt>
      <trkpt lat="43.62537" lon="6.25272">
        <ele>654.8</ele>
        <time>2015-03-08T15:19:06Z</time>
      </trkpt>
      <trkpt lat="43.62531" lon="6.25303">
        <ele>655.76</ele>
        <time>2015-03-08T15:19:20Z</time>
      </trkpt>
      <trkpt lat="43.6254" lon="6.25329">
        <ele>656.24</ele>
        <time>2015-03-08T15:19:35Z</time>
      </trkpt>
      <trkpt lat="43.62546" lon="6.25339">
        <ele>655.76</ele>
        <time>2015-03-08T15:19:43Z</time>
      </trkpt>
      <trkpt lat="43.62547" lon="6.25342">
        <ele>655.76</ele>
        <time>2015-03-08T15:19:45Z</time>
      </trkpt>
      <trkpt lat="43.62552" lon="6.25358">
        <ele>655.28</ele>
        <time>2015-03-08T15:19:54Z</time>
      </trkpt>
      <trkpt lat="43.62554" lon="6.25364">
        <ele>655.76</ele>
        <time>2015-03-08T15:19:56Z</time>
      </trkpt>
      <trkpt lat="43.62555" lon="6.25383">
        <ele>654.31</ele>
        <time>2015-03-08T15:20:03Z</time>
      </trkpt>
      <trkpt lat="43.62555" lon="6.25385">
        <ele>654.31</ele>
        <time>2015-03-08T15:20:04Z</time>
      </trkpt>
      <trkpt lat="43.62547" lon="6.25399">
        <ele>653.35</ele>
        <time>2015-03-08T15:20:13Z</time>
      </trkpt>
      <trkpt lat="43.62534" lon="6.25433">
        <ele>653.83</ele>
        <time>2015-03-08T15:20:33Z</time>
      </trkpt>
      <trkpt lat="43.62526" lon="6.25456">
        <ele>653.35</ele>
        <time>2015-03-08T15:20:44Z</time>
      </trkpt>
      <trkpt lat="43.62523" lon="6.25462">
        <ele>653.35</ele>
        <time>2015-03-08T15:20:47Z</time>
      </trkpt>
      <trkpt lat="43.62507" lon="6.25484">
        <ele>651.43</ele>
        <time>2015-03-08T15:21:02Z</time>
      </trkpt>
      <trkpt lat="43.62502" lon="6.25487">
        <ele>649.99</ele>
        <time>2015-03-08T15:21:07Z</time>
      </trkpt>
      <trkpt lat="43.62484" lon="6.2551">
        <ele>648.55</ele>
        <time>2015-03-08T15:21:20Z</time>
      </trkpt>
      <trkpt lat="43.62472" lon="6.25539">
        <ele>647.1</ele>
        <time>2015-03-08T15:21:34Z</time>
      </trkpt>
      <trkpt lat="43.62462" lon="6.25569">
        <ele>645.18</ele>
        <time>2015-03-08T15:21:48Z</time>
      </trkpt>
      <trkpt lat="43.62459" lon="6.2558">
        <ele>644.7</ele>
        <time>2015-03-08T15:21:53Z</time>
      </trkpt>
      <trkpt lat="43.62461" lon="6.25593">
        <ele>643.74</ele>
        <time>2015-03-08T15:22:00Z</time>
      </trkpt>
      <trkpt lat="43.62466" lon="6.25608">
        <ele>642.3</ele>
        <time>2015-03-08T15:22:08Z</time>
      </trkpt>
      <trkpt lat="43.62466" lon="6.25611">
        <ele>642.78</ele>
        <time>2015-03-08T15:22:09Z</time>
      </trkpt>
      <trkpt lat="43.62465" lon="6.25636">
        <ele>641.34</ele>
        <time>2015-03-08T15:22:20Z</time>
      </trkpt>
      <trkpt lat="43.62456" lon="6.25628">
        <ele>640.38</ele>
        <time>2015-03-08T15:22:27Z</time>
      </trkpt>
      <trkpt lat="43.62455" lon="6.25625">
        <ele>639.89</ele>
        <time>2015-03-08T15:22:28Z</time>
      </trkpt>
      <trkpt lat="43.62454" lon="6.25624">
        <ele>639.89</ele>
        <time>2015-03-08T15:22:29Z</time>
      </trkpt>
      <trkpt lat="43.62454" lon="6.25621">
        <ele>639.89</ele>
        <time>2015-03-08T15:22:30Z</time>
      </trkpt>
      <trkpt lat="43.62454" lon="6.25619">
        <ele>639.89</ele>
        <time>2015-03-08T15:22:31Z</time>
      </trkpt>
      <trkpt lat="43.62453" lon="6.25617">
        <ele>639.41</ele>
        <time>2015-03-08T15:22:32Z</time>
      </trkpt>
      <trkpt lat="43.62452" lon="6.25615">
        <ele>639.41</ele>
        <time>2015-03-08T15:22:33Z</time>
      </trkpt>
      <trkpt lat="43.62451" lon="6.25613">
        <ele>638.93</ele>
        <time>2015-03-08T15:22:34Z</time>
      </trkpt>
      <trkpt lat="43.62438" lon="6.25593">
        <ele>636.53</ele>
        <time>2015-03-08T15:22:46Z</time>
      </trkpt>
      <trkpt lat="43.62435" lon="6.2559">
        <ele>636.53</ele>
        <time>2015-03-08T15:22:48Z</time>
      </trkpt>
      <trkpt lat="43.62429" lon="6.25582">
        <ele>635.57</ele>
        <time>2015-03-08T15:22:53Z</time>
      </trkpt>
      <trkpt lat="43.62428" lon="6.25581">
        <ele>635.09</ele>
        <time>2015-03-08T15:22:54Z</time>
      </trkpt>
      <trkpt lat="43.62418" lon="6.25564">
        <ele>633.65</ele>
        <time>2015-03-08T15:23:04Z</time>
      </trkpt>
      <trkpt lat="43.62411" lon="6.2556">
        <ele>631.72</ele>
        <time>2015-03-08T15:23:12Z</time>
      </trkpt>
      <trkpt lat="43.62405" lon="6.25548">
        <ele>630.76</ele>
        <time>2015-03-08T15:23:17Z</time>
      </trkpt>
      <trkpt lat="43.62394" lon="6.25524">
        <ele>629.32</ele>
        <time>2015-03-08T15:23:30Z</time>
      </trkpt>
      <trkpt lat="43.62386" lon="6.25501">
        <ele>626.92</ele>
        <time>2015-03-08T15:23:41Z</time>
      </trkpt>
      <trkpt lat="43.62375" lon="6.25475">
        <ele>624.99</ele>
        <time>2015-03-08T15:23:52Z</time>
      </trkpt>
      <trkpt lat="43.62369" lon="6.25459">
        <ele>624.03</ele>
        <time>2015-03-08T15:23:59Z</time>
      </trkpt>
      <trkpt lat="43.62369" lon="6.25457">
        <ele>624.03</ele>
        <time>2015-03-08T15:24:00Z</time>
      </trkpt>
      <trkpt lat="43.62369" lon="6.25455">
        <ele>623.55</ele>
        <time>2015-03-08T15:24:01Z</time>
      </trkpt>
      <trkpt lat="43.62369" lon="6.25453">
        <ele>623.55</ele>
        <time>2015-03-08T15:24:02Z</time>
      </trkpt>
      <trkpt lat="43.62368" lon="6.2545">
        <ele>623.07</ele>
        <time>2015-03-08T15:24:03Z</time>
      </trkpt>
      <trkpt lat="43.62368" lon="6.25448">
        <ele>623.07</ele>
        <time>2015-03-08T15:24:04Z</time>
      </trkpt>
      <trkpt lat="43.62368" lon="6.25447">
        <ele>622.59</ele>
        <time>2015-03-08T15:24:05Z</time>
      </trkpt>
      <trkpt lat="43.62367" lon="6.25445">
        <ele>622.59</ele>
        <time>2015-03-08T15:24:06Z</time>
      </trkpt>
      <trkpt lat="43.62367" lon="6.25443">
        <ele>622.59</ele>
        <time>2015-03-08T15:24:07Z</time>
      </trkpt>
      <trkpt lat="43.62362" lon="6.25435">
        <ele>621.63</ele>
        <time>2015-03-08T15:24:13Z</time>
      </trkpt>
      <trkpt lat="43.6235" lon="6.2541">
        <ele>618.26</ele>
        <time>2015-03-08T15:24:25Z</time>
      </trkpt>
      <trkpt lat="43.62343" lon="6.25398">
        <ele>616.34</ele>
        <time>2015-03-08T15:24:32Z</time>
      </trkpt>
      <trkpt lat="43.62341" lon="6.25397">
        <ele>615.86</ele>
        <time>2015-03-08T15:24:33Z</time>
      </trkpt>
      <trkpt lat="43.6234" lon="6.25396">
        <ele>616.34</ele>
        <time>2015-03-08T15:24:34Z</time>
      </trkpt>
      <trkpt lat="43.62338" lon="6.25396">
        <ele>615.86</ele>
        <time>2015-03-08T15:24:35Z</time>
      </trkpt>
      <trkpt lat="43.62337" lon="6.25395">
        <ele>615.38</ele>
        <time>2015-03-08T15:24:36Z</time>
      </trkpt>
      <trkpt lat="43.62335" lon="6.25395">
        <ele>614.9</ele>
        <time>2015-03-08T15:24:37Z</time>
      </trkpt>
      <trkpt lat="43.62334" lon="6.25396">
        <ele>614.9</ele>
        <time>2015-03-08T15:24:38Z</time>
      </trkpt>
      <trkpt lat="43.62327" lon="6.2539">
        <ele>613.46</ele>
        <time>2015-03-08T15:24:48Z</time>
      </trkpt>
      <trkpt lat="43.62324" lon="6.25388">
        <ele>612.98</ele>
        <time>2015-03-08T15:24:52Z</time>
      </trkpt>
      <trkpt lat="43.62307" lon="6.25373">
        <ele>609.61</ele>
        <time>2015-03-08T15:25:05Z</time>
      </trkpt>
      <trkpt lat="43.62296" lon="6.25358">
        <ele>606.73</ele>
        <time>2015-03-08T15:25:16Z</time>
      </trkpt>
      <trkpt lat="43.62276" lon="6.25333">
        <ele>603.85</ele>
        <time>2015-03-08T15:25:29Z</time>
      </trkpt>
      <trkpt lat="43.62273" lon="6.2533">
        <ele>602.88</ele>
        <time>2015-03-08T15:25:31Z</time>
      </trkpt>
      <trkpt lat="43.62271" lon="6.25327">
        <ele>602.4</ele>
        <time>2015-03-08T15:25:33Z</time>
      </trkpt>
      <trkpt lat="43.6227" lon="6.25325">
        <ele>601.92</ele>
        <time>2015-03-08T15:25:34Z</time>
      </trkpt>
      <trkpt lat="43.62269" lon="6.25323">
        <ele>601.92</ele>
        <time>2015-03-08T15:25:35Z</time>
      </trkpt>
      <trkpt lat="43.62268" lon="6.25321">
        <ele>601.44</ele>
        <time>2015-03-08T15:25:36Z</time>
      </trkpt>
      <trkpt lat="43.62263" lon="6.25309">
        <ele>599.04</ele>
        <time>2015-03-08T15:25:46Z</time>
      </trkpt>
      <trkpt lat="43.62263" lon="6.25307">
        <ele>599.04</ele>
        <time>2015-03-08T15:25:47Z</time>
      </trkpt>
      <trkpt lat="43.62263" lon="6.25305">
        <ele>598.56</ele>
        <time>2015-03-08T15:25:48Z</time>
      </trkpt>
      <trkpt lat="43.62263" lon="6.25301">
        <ele>598.08</ele>
        <time>2015-03-08T15:25:50Z</time>
      </trkpt>
      <trkpt lat="43.62254" lon="6.25281">
        <ele>596.64</ele>
        <time>2015-03-08T15:26:00Z</time>
      </trkpt>
      <trkpt lat="43.6225" lon="6.25287">
        <ele>595.67</ele>
        <time>2015-03-08T15:26:05Z</time>
      </trkpt>
      <trkpt lat="43.6224" lon="6.25308">
        <ele>592.79</ele>
        <time>2015-03-08T15:26:19Z</time>
      </trkpt>
      <trkpt lat="43.62234" lon="6.25312">
        <ele>592.31</ele>
        <time>2015-03-08T15:26:34Z</time>
      </trkpt>
      <trkpt lat="43.62232" lon="6.25314">
        <ele>592.31</ele>
        <time>2015-03-08T15:27:07Z</time>
      </trkpt>
      <trkpt lat="43.62232" lon="6.25313">
        <ele>591.35</ele>
        <time>2015-03-08T15:27:22Z</time>
      </trkpt>
      <trkpt lat="43.62231" lon="6.25313">
        <ele>590.87</ele>
        <time>2015-03-08T15:27:37Z</time>
      </trkpt>
      <trkpt lat="43.6223" lon="6.25312">
        <ele>591.83</ele>
        <time>2015-03-08T15:27:57Z</time>
      </trkpt>
      <trkpt lat="43.62227" lon="6.25308">
        <ele>590.39</ele>
        <time>2015-03-08T15:28:12Z</time>
      </trkpt>
      <trkpt lat="43.62226" lon="6.25306">
        <ele>589.91</ele>
        <time>2015-03-08T15:28:28Z</time>
      </trkpt>
      <trkpt lat="43.62217" lon="6.25311">
        <ele>587.02</ele>
        <time>2015-03-08T15:28:40Z</time>
      </trkpt>
      <trkpt lat="43.62203" lon="6.25321">
        <ele>584.14</ele>
        <time>2015-03-08T15:28:54Z</time>
      </trkpt>
      <trkpt lat="43.62192" lon="6.25322">
        <ele>582.7</ele>
        <time>2015-03-08T15:29:05Z</time>
      </trkpt>
      <trkpt lat="43.62184" lon="6.25315">
        <ele>581.25</ele>
        <time>2015-03-08T15:29:14Z</time>
      </trkpt>
      <trkpt lat="43.62182" lon="6.25314">
        <ele>581.25</ele>
        <time>2015-03-08T15:29:28Z</time>
      </trkpt>
      <trkpt lat="43.62178" lon="6.25317">
        <ele>581.25</ele>
        <time>2015-03-08T15:29:43Z</time>
      </trkpt>
      <trkpt lat="43.62176" lon="6.25324">
        <ele>581.25</ele>
        <time>2015-03-08T15:29:53Z</time>
      </trkpt>
      <trkpt lat="43.62177" lon="6.25321">
        <ele>581.25</ele>
        <time>2015-03-08T15:29:56Z</time>
      </trkpt>
      <trkpt lat="43.62179" lon="6.25311">
        <ele>581.25</ele>
        <time>2015-03-08T15:30:01Z</time>
      </trkpt>
      <trkpt lat="43.62176" lon="6.25301">
        <ele>578.85</ele>
        <time>2015-03-08T15:30:07Z</time>
      </trkpt>
      <trkpt lat="43.6216" lon="6.25286">
        <ele>575.97</ele>
        <time>2015-03-08T15:30:20Z</time>
      </trkpt>
      <trkpt lat="43.62156" lon="6.25286">
        <ele>575.97</ele>
        <time>2015-03-08T15:30:24Z</time>
      </trkpt>
      <trkpt lat="43.62149" lon="6.25295">
        <ele>575.49</ele>
        <time>2015-03-08T15:30:30Z</time>
      </trkpt>
      <trkpt lat="43.62147" lon="6.25301">
        <ele>575.97</ele>
        <time>2015-03-08T15:30:40Z</time>
      </trkpt>
      <trkpt lat="43.62145" lon="6.25304">
        <ele>575.49</ele>
        <time>2015-03-08T15:30:42Z</time>
      </trkpt>
      <trkpt lat="43.62138" lon="6.25318">
        <ele>575.49</ele>
        <time>2015-03-08T15:30:49Z</time>
      </trkpt>
      <trkpt lat="43.62131" lon="6.25338">
        <ele>575.01</ele>
        <time>2015-03-08T15:31:03Z</time>
      </trkpt>
      <trkpt lat="43.62128" lon="6.25344">
        <ele>575.01</ele>
        <time>2015-03-08T15:31:16Z</time>
      </trkpt>
      <trkpt lat="43.62125" lon="6.2536">
        <ele>574.53</ele>
        <time>2015-03-08T15:31:28Z</time>
      </trkpt>
      <trkpt lat="43.6212" lon="6.25367">
        <ele>574.53</ele>
        <time>2015-03-08T15:31:40Z</time>
      </trkpt>
      <trkpt lat="43.62119" lon="6.25369">
        <ele>574.53</ele>
        <time>2015-03-08T15:31:43Z</time>
      </trkpt>
      <trkpt lat="43.62117" lon="6.25377">
        <ele>575.01</ele>
        <time>2015-03-08T15:31:56Z</time>
      </trkpt>
      <trkpt lat="43.62114" lon="6.25385">
        <ele>575.01</ele>
        <time>2015-03-08T15:32:11Z</time>
      </trkpt>
      <trkpt lat="43.62112" lon="6.2539">
        <ele>575.01</ele>
        <time>2015-03-08T15:32:14Z</time>
      </trkpt>
      <trkpt lat="43.62102" lon="6.25401">
        <ele>575.01</ele>
        <time>2015-03-08T15:32:22Z</time>
      </trkpt>
      <trkpt lat="43.62089" lon="6.25414">
        <ele>573.08</ele>
        <time>2015-03-08T15:32:30Z</time>
      </trkpt>
      <trkpt lat="43.62079" lon="6.25449">
        <ele>572.12</ele>
        <time>2015-03-08T15:32:47Z</time>
      </trkpt>
      <trkpt lat="43.62073" lon="6.25465">
        <ele>571.64</ele>
        <time>2015-03-08T15:32:55Z</time>
      </trkpt>
      <trkpt lat="43.62068" lon="6.25477">
        <ele>570.68</ele>
        <time>2015-03-08T15:33:01Z</time>
      </trkpt>
      <trkpt lat="43.62064" lon="6.25492">
        <ele>570.2</ele>
        <time>2015-03-08T15:33:09Z</time>
      </trkpt>
      <trkpt lat="43.62057" lon="6.25505">
        <ele>569.24</ele>
        <time>2015-03-08T15:33:19Z</time>
      </trkpt>
      <trkpt lat="43.62045" lon="6.25518">
        <ele>568.76</ele>
        <time>2015-03-08T15:33:28Z</time>
      </trkpt>
      <trkpt lat="43.62031" lon="6.25538">
        <ele>567.8</ele>
        <time>2015-03-08T15:33:40Z</time>
      </trkpt>
      <trkpt lat="43.62025" lon="6.25553">
        <ele>567.32</ele>
        <time>2015-03-08T15:33:46Z</time>
      </trkpt>
      <trkpt lat="43.62025" lon="6.25556">
        <ele>566.83</ele>
        <time>2015-03-08T15:33:48Z</time>
      </trkpt>
      <trkpt lat="43.62025" lon="6.25561">
        <ele>566.83</ele>
        <time>2015-03-08T15:33:51Z</time>
      </trkpt>
      <trkpt lat="43.62023" lon="6.25594">
        <ele>565.39</ele>
        <time>2015-03-08T15:34:07Z</time>
      </trkpt>
      <trkpt lat="43.62018" lon="6.25623">
        <ele>563.47</ele>
        <time>2015-03-08T15:34:22Z</time>
      </trkpt>
      <trkpt lat="43.62015" lon="6.2563">
        <ele>563.47</ele>
        <time>2015-03-08T15:34:25Z</time>
      </trkpt>
      <trkpt lat="43.62015" lon="6.25635">
        <ele>562.99</ele>
        <time>2015-03-08T15:34:28Z</time>
      </trkpt>
      <trkpt lat="43.6201" lon="6.25645">
        <ele>562.03</ele>
        <time>2015-03-08T15:34:32Z</time>
      </trkpt>
      <trkpt lat="43.62005" lon="6.25651">
        <ele>561.07</ele>
        <time>2015-03-08T15:34:37Z</time>
      </trkpt>
      <trkpt lat="43.62002" lon="6.25655">
        <ele>559.62</ele>
        <time>2015-03-08T15:34:40Z</time>
      </trkpt>
      <trkpt lat="43.61991" lon="6.25672">
        <ele>557.7</ele>
        <time>2015-03-08T15:34:51Z</time>
      </trkpt>
      <trkpt lat="43.61983" lon="6.25689">
        <ele>556.74</ele>
        <time>2015-03-08T15:34:59Z</time>
      </trkpt>
      <trkpt lat="43.61975" lon="6.25702">
        <ele>555.78</ele>
        <time>2015-03-08T15:35:06Z</time>
      </trkpt>
      <trkpt lat="43.61966" lon="6.25713">
        <ele>554.82</ele>
        <time>2015-03-08T15:35:14Z</time>
      </trkpt>
      <trkpt lat="43.61948" lon="6.25738">
        <ele>553.86</ele>
        <time>2015-03-08T15:35:31Z</time>
      </trkpt>
      <trkpt lat="43.61929" lon="6.25756">
        <ele>551.93</ele>
        <time>2015-03-08T15:35:44Z</time>
      </trkpt>
      <trkpt lat="43.61924" lon="6.25762">
        <ele>551.93</ele>
        <time>2015-03-08T15:35:48Z</time>
      </trkpt>
      <trkpt lat="43.61906" lon="6.25785">
        <ele>550.01</ele>
        <time>2015-03-08T15:36:03Z</time>
      </trkpt>
      <trkpt lat="43.61904" lon="6.25788">
        <ele>549.53</ele>
        <time>2015-03-08T15:36:05Z</time>
      </trkpt>
      <trkpt lat="43.61886" lon="6.25811">
        <ele>548.57</ele>
        <time>2015-03-08T15:36:18Z</time>
      </trkpt>
      <trkpt lat="43.61885" lon="6.25813">
        <ele>548.57</ele>
        <time>2015-03-08T15:36:19Z</time>
      </trkpt>
      <trkpt lat="43.61871" lon="6.25834">
        <ele>547.61</ele>
        <time>2015-03-08T15:36:34Z</time>
      </trkpt>
      <trkpt lat="43.6185" lon="6.25857">
        <ele>547.61</ele>
        <time>2015-03-08T15:36:50Z</time>
      </trkpt>
      <trkpt lat="43.61834" lon="6.25875">
        <ele>548.57</ele>
        <time>2015-03-08T15:37:05Z</time>
      </trkpt>
      <trkpt lat="43.61818" lon="6.25895">
        <ele>549.53</ele>
        <time>2015-03-08T15:37:21Z</time>
      </trkpt>
      <trkpt lat="43.61812" lon="6.25899">
        <ele>549.05</ele>
        <time>2015-03-08T15:37:26Z</time>
      </trkpt>
      <trkpt lat="43.61802" lon="6.25894">
        <ele>548.09</ele>
        <time>2015-03-08T15:37:31Z</time>
      </trkpt>
      <trkpt lat="43.61795" lon="6.25893">
        <ele>548.09</ele>
        <time>2015-03-08T15:37:39Z</time>
      </trkpt>
      <trkpt lat="43.61775" lon="6.25898">
        <ele>546.65</ele>
        <time>2015-03-08T15:37:52Z</time>
      </trkpt>
      <trkpt lat="43.61774" lon="6.25899">
        <ele>546.17</ele>
        <time>2015-03-08T15:37:53Z</time>
      </trkpt>
      <trkpt lat="43.61763" lon="6.25906">
        <ele>545.2</ele>
        <time>2015-03-08T15:37:59Z</time>
      </trkpt>
      <trkpt lat="43.61753" lon="6.25902">
        <ele>544.24</ele>
        <time>2015-03-08T15:38:06Z</time>
      </trkpt>
      <trkpt lat="43.61745" lon="6.25896">
        <ele>543.76</ele>
        <time>2015-03-08T15:38:12Z</time>
      </trkpt>
      <trkpt lat="43.61737" lon="6.25879">
        <ele>542.32</ele>
        <time>2015-03-08T15:38:21Z</time>
      </trkpt>
      <trkpt lat="43.61731" lon="6.25867">
        <ele>541.36</ele>
        <time>2015-03-08T15:38:28Z</time>
      </trkpt>
      <trkpt lat="43.61711" lon="6.25866">
        <ele>538.96</ele>
        <time>2015-03-08T15:38:41Z</time>
      </trkpt>
      <trkpt lat="43.61705" lon="6.25866">
        <ele>538.48</ele>
        <time>2015-03-08T15:38:45Z</time>
      </trkpt>
      <trkpt lat="43.61693" lon="6.25858">
        <ele>537.99</ele>
        <time>2015-03-08T15:38:53Z</time>
      </trkpt>
      <trkpt lat="43.61681" lon="6.25853">
        <ele>537.03</ele>
        <time>2015-03-08T15:39:01Z</time>
      </trkpt>
      <trkpt lat="43.6166" lon="6.25852">
        <ele>534.63</ele>
        <time>2015-03-08T15:39:14Z</time>
      </trkpt>
      <trkpt lat="43.61645" lon="6.25849">
        <ele>533.67</ele>
        <time>2015-03-08T15:39:25Z</time>
      </trkpt>
      <trkpt lat="43.61628" lon="6.25849">
        <ele>532.71</ele>
        <time>2015-03-08T15:39:35Z</time>
      </trkpt>
      <trkpt lat="43.61621" lon="6.25845">
        <ele>531.75</ele>
        <time>2015-03-08T15:39:40Z</time>
      </trkpt>
      <trkpt lat="43.61599" lon="6.2584">
        <ele>529.82</ele>
        <time>2015-03-08T15:39:53Z</time>
      </trkpt>
      <trkpt lat="43.61578" lon="6.2584">
        <ele>528.38</ele>
        <time>2015-03-08T15:40:05Z</time>
      </trkpt>
      <trkpt lat="43.61576" lon="6.25841">
        <ele>527.9</ele>
        <time>2015-03-08T15:40:07Z</time>
      </trkpt>
      <trkpt lat="43.61567" lon="6.25852">
        <ele>527.9</ele>
        <time>2015-03-08T15:40:14Z</time>
      </trkpt>
      <trkpt lat="43.61561" lon="6.25867">
        <ele>525.98</ele>
        <time>2015-03-08T15:40:24Z</time>
      </trkpt>
      <trkpt lat="43.61553" lon="6.25885">
        <ele>523.09</ele>
        <time>2015-03-08T15:40:35Z</time>
      </trkpt>
      <trkpt lat="43.61548" lon="6.25895">
        <ele>523.58</ele>
        <time>2015-03-08T15:40:42Z</time>
      </trkpt>
      <trkpt lat="43.61538" lon="6.2592">
        <ele>526.94</ele>
        <time>2015-03-08T15:40:49Z</time>
      </trkpt>
      <trkpt lat="43.61533" lon="6.25946">
        <ele>530.3</ele>
        <time>2015-03-08T15:40:56Z</time>
      </trkpt>
      <trkpt lat="43.61526" lon="6.25965">
        <ele>533.19</ele>
        <time>2015-03-08T15:41:01Z</time>
      </trkpt>
      <trkpt lat="43.61524" lon="6.25968">
        <ele>533.19</ele>
        <time>2015-03-08T15:41:02Z</time>
      </trkpt>
      <trkpt lat="43.61503" lon="6.25984">
        <ele>536.55</ele>
        <time>2015-03-08T15:41:09Z</time>
      </trkpt>
      <trkpt lat="43.61497" lon="6.25986">
        <ele>537.51</ele>
        <time>2015-03-08T15:41:11Z</time>
      </trkpt>
      <trkpt lat="43.61466" lon="6.25987">
        <ele>541.36</ele>
        <time>2015-03-08T15:41:21Z</time>
      </trkpt>
      <trkpt lat="43.61462" lon="6.25985">
        <ele>542.32</ele>
        <time>2015-03-08T15:41:23Z</time>
      </trkpt>
      <trkpt lat="43.61453" lon="6.25981">
        <ele>543.76</ele>
        <time>2015-03-08T15:41:27Z</time>
      </trkpt>
      <trkpt lat="43.61421" lon="6.25975">
        <ele>543.28</ele>
        <time>2015-03-08T15:41:38Z</time>
      </trkpt>
      <trkpt lat="43.61378" lon="6.25974">
        <ele>543.76</ele>
        <time>2015-03-08T15:41:48Z</time>
      </trkpt>
      <trkpt lat="43.61366" lon="6.25977">
        <ele>543.76</ele>
        <time>2015-03-08T15:41:51Z</time>
      </trkpt>
      <trkpt lat="43.61351" lon="6.25982">
        <ele>543.76</ele>
        <time>2015-03-08T15:41:55Z</time>
      </trkpt>
      <trkpt lat="43.61347" lon="6.25984">
        <ele>543.76</ele>
        <time>2015-03-08T15:41:56Z</time>
      </trkpt>
      <trkpt lat="43.61344" lon="6.25986">
        <ele>543.76</ele>
        <time>2015-03-08T15:41:57Z</time>
      </trkpt>
      <trkpt lat="43.61341" lon="6.25989">
        <ele>543.76</ele>
        <time>2015-03-08T15:41:58Z</time>
      </trkpt>
      <trkpt lat="43.61338" lon="6.25992">
        <ele>544.24</ele>
        <time>2015-03-08T15:41:59Z</time>
      </trkpt>
      <trkpt lat="43.61335" lon="6.25995">
        <ele>543.28</ele>
        <time>2015-03-08T15:42:00Z</time>
      </trkpt>
      <trkpt lat="43.61332" lon="6.25998">
        <ele>543.28</ele>
        <time>2015-03-08T15:42:01Z</time>
      </trkpt>
      <trkpt lat="43.61327" lon="6.26001">
        <ele>542.8</ele>
        <time>2015-03-08T15:42:02Z</time>
      </trkpt>
      <trkpt lat="43.61313" lon="6.26012">
        <ele>541.84</ele>
        <time>2015-03-08T15:42:05Z</time>
      </trkpt>
      <trkpt lat="43.61309" lon="6.26016">
        <ele>542.32</ele>
        <time>2015-03-08T15:42:06Z</time>
      </trkpt>
      <trkpt lat="43.61302" lon="6.26025">
        <ele>541.36</ele>
        <time>2015-03-08T15:42:08Z</time>
      </trkpt>
      <trkpt lat="43.613" lon="6.26031">
        <ele>541.36</ele>
        <time>2015-03-08T15:42:09Z</time>
      </trkpt>
      <trkpt lat="43.61299" lon="6.26036">
        <ele>541.36</ele>
        <time>2015-03-08T15:42:10Z</time>
      </trkpt>
      <trkpt lat="43.61297" lon="6.26041">
        <ele>540.88</ele>
        <time>2015-03-08T15:42:11Z</time>
      </trkpt>
      <trkpt lat="43.61295" lon="6.26045">
        <ele>541.36</ele>
        <time>2015-03-08T15:42:12Z</time>
      </trkpt>
      <trkpt lat="43.61282" lon="6.26072">
        <ele>540.4</ele>
        <time>2015-03-08T15:42:19Z</time>
      </trkpt>
      <trkpt lat="43.61279" lon="6.26073">
        <ele>539.92</ele>
        <time>2015-03-08T15:42:20Z</time>
      </trkpt>
      <trkpt lat="43.61259" lon="6.26075">
        <ele>539.44</ele>
        <time>2015-03-08T15:42:27Z</time>
      </trkpt>
      <trkpt lat="43.61257" lon="6.26074">
        <ele>539.44</ele>
        <time>2015-03-08T15:42:28Z</time>
      </trkpt>
      <trkpt lat="43.61231" lon="6.26082">
        <ele>538.96</ele>
        <time>2015-03-08T15:42:37Z</time>
      </trkpt>
      <trkpt lat="43.61201" lon="6.261">
        <ele>538.96</ele>
        <time>2015-03-08T15:42:45Z</time>
      </trkpt>
      <trkpt lat="43.61164" lon="6.26113">
        <ele>539.44</ele>
        <time>2015-03-08T15:42:55Z</time>
      </trkpt>
      <trkpt lat="43.61129" lon="6.26097">
        <ele>540.88</ele>
        <time>2015-03-08T15:43:05Z</time>
      </trkpt>
      <trkpt lat="43.61098" lon="6.26097">
        <ele>540.4</ele>
        <time>2015-03-08T15:43:13Z</time>
      </trkpt>
      <trkpt lat="43.6109" lon="6.26091">
        <ele>540.4</ele>
        <time>2015-03-08T15:43:15Z</time>
      </trkpt>
      <trkpt lat="43.61059" lon="6.26047">
        <ele>539.92</ele>
        <time>2015-03-08T15:43:26Z</time>
      </trkpt>
      <trkpt lat="43.61045" lon="6.26016">
        <ele>537.99</ele>
        <time>2015-03-08T15:43:36Z</time>
      </trkpt>
      <trkpt lat="43.61036" lon="6.2601">
        <ele>537.51</ele>
        <time>2015-03-08T15:43:38Z</time>
      </trkpt>
      <trkpt lat="43.61031" lon="6.26008">
        <ele>537.99</ele>
        <time>2015-03-08T15:43:39Z</time>
      </trkpt>
      <trkpt lat="43.61028" lon="6.26005">
        <ele>538.96</ele>
        <time>2015-03-08T15:43:40Z</time>
      </trkpt>
      <trkpt lat="43.61005" lon="6.25966">
        <ele>539.92</ele>
        <time>2015-03-08T15:43:50Z</time>
      </trkpt>
      <trkpt lat="43.60984" lon="6.25925">
        <ele>539.92</ele>
        <time>2015-03-08T15:44:00Z</time>
      </trkpt>
      <trkpt lat="43.6098" lon="6.25915">
        <ele>538.96</ele>
        <time>2015-03-08T15:44:02Z</time>
      </trkpt>
      <trkpt lat="43.60974" lon="6.25901">
        <ele>537.99</ele>
        <time>2015-03-08T15:44:05Z</time>
      </trkpt>
      <trkpt lat="43.60966" lon="6.25878">
        <ele>537.03</ele>
        <time>2015-03-08T15:44:09Z</time>
      </trkpt>
      <trkpt lat="43.60945" lon="6.25828">
        <ele>536.55</ele>
        <time>2015-03-08T15:44:19Z</time>
      </trkpt>
      <trkpt lat="43.60938" lon="6.25816">
        <ele>536.07</ele>
        <time>2015-03-08T15:44:25Z</time>
      </trkpt>
      <trkpt lat="43.60936" lon="6.25814">
        <ele>536.07</ele>
        <time>2015-03-08T15:44:26Z</time>
      </trkpt>
      <trkpt lat="43.60935" lon="6.25813">
        <ele>536.07</ele>
        <time>2015-03-08T15:44:27Z</time>
      </trkpt>
      <trkpt lat="43.60927" lon="6.25802">
        <ele>536.07</ele>
        <time>2015-03-08T15:44:40Z</time>
      </trkpt>
      <trkpt lat="43.60927" lon="6.258">
        <ele>536.07</ele>
        <time>2015-03-08T15:45:03Z</time>
      </trkpt>
      <trkpt lat="43.60924" lon="6.25798">
        <ele>535.59</ele>
        <time>2015-03-08T15:45:05Z</time>
      </trkpt>
      <trkpt lat="43.6092" lon="6.25799">
        <ele>535.59</ele>
        <time>2015-03-08T15:45:07Z</time>
      </trkpt>
      <trkpt lat="43.60912" lon="6.25802">
        <ele>535.59</ele>
        <time>2015-03-08T15:45:21Z</time>
      </trkpt>
      <trkpt lat="43.60908" lon="6.25809">
        <ele>535.11</ele>
        <time>2015-03-08T15:45:29Z</time>
      </trkpt>
      <trkpt lat="43.60905" lon="6.25811">
        <ele>535.11</ele>
        <time>2015-03-08T15:45:31Z</time>
      </trkpt>
      <trkpt lat="43.60904" lon="6.25813">
        <ele>535.59</ele>
        <time>2015-03-08T15:45:32Z</time>
      </trkpt>
      <trkpt lat="43.60899" lon="6.25818">
        <ele>535.59</ele>
        <time>2015-03-08T15:45:38Z</time>
      </trkpt>
      <trkpt lat="43.60896" lon="6.2582">
        <ele>535.59</ele>
        <time>2015-03-08T15:45:40Z</time>
      </trkpt>
      <trkpt lat="43.60894" lon="6.25821">
        <ele>535.59</ele>
        <time>2015-03-08T15:45:41Z</time>
      </trkpt>
      <trkpt lat="43.60892" lon="6.25822">
        <ele>535.59</ele>
        <time>2015-03-08T15:45:42Z</time>
      </trkpt>
      <trkpt lat="43.60872" lon="6.25839">
        <ele>536.07</ele>
        <time>2015-03-08T15:45:58Z</time>
      </trkpt>
      <trkpt lat="43.60859" lon="6.25858">
        <ele>535.11</ele>
        <time>2015-03-08T15:46:08Z</time>
      </trkpt>
      <trkpt lat="43.60859" lon="6.25863">
        <ele>535.11</ele>
        <time>2015-03-08T15:46:09Z</time>
      </trkpt>
      <trkpt lat="43.6086" lon="6.25866">
        <ele>535.11</ele>
        <time>2015-03-08T15:46:10Z</time>
      </trkpt>
      <trkpt lat="43.6086" lon="6.25869">
        <ele>535.11</ele>
        <time>2015-03-08T15:46:11Z</time>
      </trkpt>
      <trkpt lat="43.60859" lon="6.25873">
        <ele>534.63</ele>
        <time>2015-03-08T15:46:12Z</time>
      </trkpt>
      <trkpt lat="43.60859" lon="6.25876">
        <ele>534.63</ele>
        <time>2015-03-08T15:46:13Z</time>
      </trkpt>
      <trkpt lat="43.60859" lon="6.25879">
        <ele>534.63</ele>
        <time>2015-03-08T15:46:14Z</time>
      </trkpt>
      <trkpt lat="43.60857" lon="6.2589">
        <ele>534.63</ele>
        <time>2015-03-08T15:46:28Z</time>
      </trkpt>
      <trkpt lat="43.60857" lon="6.25898">
        <ele>533.67</ele>
        <time>2015-03-08T15:46:33Z</time>
      </trkpt>
      <trkpt lat="43.60856" lon="6.2591">
        <ele>532.23</ele>
        <time>2015-03-08T15:46:38Z</time>
      </trkpt>
      <trkpt lat="43.60847" lon="6.25937">
        <ele>530.3</ele>
        <time>2015-03-08T15:46:50Z</time>
      </trkpt>
      <trkpt lat="43.60845" lon="6.25938">
        <ele>530.3</ele>
        <time>2015-03-08T15:46:51Z</time>
      </trkpt>
      <trkpt lat="43.6084" lon="6.25942">
        <ele>529.82</ele>
        <time>2015-03-08T15:46:54Z</time>
      </trkpt>
      <trkpt lat="43.60824" lon="6.25941">
        <ele>528.86</ele>
        <time>2015-03-08T15:47:03Z</time>
      </trkpt>
      <trkpt lat="43.60799" lon="6.25933">
        <ele>526.94</ele>
        <time>2015-03-08T15:47:18Z</time>
      </trkpt>
      <trkpt lat="43.60781" lon="6.25922">
        <ele>524.54</ele>
        <time>2015-03-08T15:47:30Z</time>
      </trkpt>
      <trkpt lat="43.60765" lon="6.2591">
        <ele>522.13</ele>
        <time>2015-03-08T15:47:41Z</time>
      </trkpt>
      <trkpt lat="43.60753" lon="6.25902">
        <ele>521.17</ele>
        <time>2015-03-08T15:47:49Z</time>
      </trkpt>
      <trkpt lat="43.60744" lon="6.25897">
        <ele>519.73</ele>
        <time>2015-03-08T15:47:56Z</time>
      </trkpt>
      <trkpt lat="43.60739" lon="6.25894">
        <ele>519.73</ele>
        <time>2015-03-08T15:47:59Z</time>
      </trkpt>
      <trkpt lat="43.6072" lon="6.25883">
        <ele>515.88</ele>
        <time>2015-03-08T15:48:12Z</time>
      </trkpt>
      <trkpt lat="43.60706" lon="6.25864">
        <ele>515.88</ele>
        <time>2015-03-08T15:48:26Z</time>
      </trkpt>
      <trkpt lat="43.60702" lon="6.25837">
        <ele>514.92</ele>
        <time>2015-03-08T15:48:40Z</time>
      </trkpt>
      <trkpt lat="43.60705" lon="6.25811">
        <ele>515.4</ele>
        <time>2015-03-08T15:48:56Z</time>
      </trkpt>
      <trkpt lat="43.60706" lon="6.25778">
        <ele>516.85</ele>
        <time>2015-03-08T15:49:12Z</time>
      </trkpt>
      <trkpt lat="43.60706" lon="6.25764">
        <ele>517.33</ele>
        <time>2015-03-08T15:49:19Z</time>
      </trkpt>
      <trkpt lat="43.60706" lon="6.2576">
        <ele>517.33</ele>
        <time>2015-03-08T15:49:21Z</time>
      </trkpt>
      <trkpt lat="43.60703" lon="6.25728">
        <ele>517.81</ele>
        <time>2015-03-08T15:49:37Z</time>
      </trkpt>
      <trkpt lat="43.607" lon="6.25707">
        <ele>518.29</ele>
        <time>2015-03-08T15:49:48Z</time>
      </trkpt>
      <trkpt lat="43.60696" lon="6.25682">
        <ele>518.29</ele>
        <time>2015-03-08T15:50:02Z</time>
      </trkpt>
      <trkpt lat="43.60696" lon="6.25681">
        <ele>517.81</ele>
        <time>2015-03-08T15:50:03Z</time>
      </trkpt>
      <trkpt lat="43.60686" lon="6.25656">
        <ele>517.33</ele>
        <time>2015-03-08T15:50:16Z</time>
      </trkpt>
      <trkpt lat="43.60675" lon="6.25635">
        <ele>517.33</ele>
        <time>2015-03-08T15:50:27Z</time>
      </trkpt>
      <trkpt lat="43.60672" lon="6.25631">
        <ele>516.85</ele>
        <time>2015-03-08T15:50:29Z</time>
      </trkpt>
      <trkpt lat="43.60658" lon="6.25604">
        <ele>515.88</ele>
        <time>2015-03-08T15:50:43Z</time>
      </trkpt>
      <trkpt lat="43.60656" lon="6.25601">
        <ele>515.88</ele>
        <time>2015-03-08T15:50:45Z</time>
      </trkpt>
      <trkpt lat="43.6064" lon="6.25577">
        <ele>516.85</ele>
        <time>2015-03-08T15:51:01Z</time>
      </trkpt>
      <trkpt lat="43.60625" lon="6.25551">
        <ele>515.88</ele>
        <time>2015-03-08T15:51:17Z</time>
      </trkpt>
      <trkpt lat="43.60608" lon="6.25527">
        <ele>514.44</ele>
        <time>2015-03-08T15:51:33Z</time>
      </trkpt>
      <trkpt lat="43.60605" lon="6.25518">
        <ele>513.48</ele>
        <time>2015-03-08T15:51:37Z</time>
      </trkpt>
      <trkpt lat="43.60596" lon="6.25496">
        <ele>511.08</ele>
        <time>2015-03-08T15:51:49Z</time>
      </trkpt>
      <trkpt lat="43.60599" lon="6.25464">
        <ele>508.67</ele>
        <time>2015-03-08T15:52:04Z</time>
      </trkpt>
      <trkpt lat="43.60604" lon="6.2545">
        <ele>508.19</ele>
        <time>2015-03-08T15:52:11Z</time>
      </trkpt>
      <trkpt lat="43.60607" lon="6.2544">
        <ele>507.71</ele>
        <time>2015-03-08T15:52:15Z</time>
      </trkpt>
      <trkpt lat="43.6062" lon="6.25399">
        <ele>508.67</ele>
        <time>2015-03-08T15:52:25Z</time>
      </trkpt>
      <trkpt lat="43.60622" lon="6.25386">
        <ele>509.64</ele>
        <time>2015-03-08T15:52:27Z</time>
      </trkpt>
      <trkpt lat="43.60624" lon="6.25361">
        <ele>513</ele>
        <time>2015-03-08T15:52:32Z</time>
      </trkpt>
      <trkpt lat="43.60626" lon="6.25324">
        <ele>513</ele>
        <time>2015-03-08T15:52:41Z</time>
      </trkpt>
      <trkpt lat="43.60629" lon="6.25314">
        <ele>513</ele>
        <time>2015-03-08T15:52:43Z</time>
      </trkpt>
      <trkpt lat="43.60633" lon="6.25302">
        <ele>512.52</ele>
        <time>2015-03-08T15:52:45Z</time>
      </trkpt>
      <trkpt lat="43.60637" lon="6.25291">
        <ele>512.52</ele>
        <time>2015-03-08T15:52:47Z</time>
      </trkpt>
      <trkpt lat="43.6064" lon="6.25286">
        <ele>513</ele>
        <time>2015-03-08T15:52:48Z</time>
      </trkpt>
      <trkpt lat="43.60647" lon="6.25269">
        <ele>512.52</ele>
        <time>2015-03-08T15:52:52Z</time>
      </trkpt>
      <trkpt lat="43.60646" lon="6.25265">
        <ele>512.52</ele>
        <time>2015-03-08T15:52:53Z</time>
      </trkpt>
      <trkpt lat="43.60646" lon="6.2526">
        <ele>513</ele>
        <time>2015-03-08T15:52:54Z</time>
      </trkpt>
      <trkpt lat="43.60622" lon="6.25222">
        <ele>515.88</ele>
        <time>2015-03-08T15:53:05Z</time>
      </trkpt>
      <trkpt lat="43.60598" lon="6.25209">
        <ele>519.25</ele>
        <time>2015-03-08T15:53:13Z</time>
      </trkpt>
      <trkpt lat="43.60595" lon="6.25206">
        <ele>519.73</ele>
        <time>2015-03-08T15:53:14Z</time>
      </trkpt>
      <trkpt lat="43.60579" lon="6.25183">
        <ele>519.73</ele>
        <time>2015-03-08T15:53:22Z</time>
      </trkpt>
      <trkpt lat="43.60569" lon="6.25158">
        <ele>518.29</ele>
        <time>2015-03-08T15:53:26Z</time>
      </trkpt>
      <trkpt lat="43.60565" lon="6.25151">
        <ele>518.29</ele>
        <time>2015-03-08T15:53:27Z</time>
      </trkpt>
      <trkpt lat="43.60541" lon="6.25112">
        <ele>518.77</ele>
        <time>2015-03-08T15:53:37Z</time>
      </trkpt>
      <trkpt lat="43.60537" lon="6.25107">
        <ele>518.29</ele>
        <time>2015-03-08T15:53:38Z</time>
      </trkpt>
      <trkpt lat="43.60534" lon="6.25101">
        <ele>517.81</ele>
        <time>2015-03-08T15:53:39Z</time>
      </trkpt>
      <trkpt lat="43.60531" lon="6.25095">
        <ele>517.33</ele>
        <time>2015-03-08T15:53:40Z</time>
      </trkpt>
      <trkpt lat="43.6052" lon="6.2508">
        <ele>516.85</ele>
        <time>2015-03-08T15:53:43Z</time>
      </trkpt>
      <trkpt lat="43.60493" lon="6.25055">
        <ele>518.77</ele>
        <time>2015-03-08T15:53:52Z</time>
      </trkpt>
      <trkpt lat="43.60464" lon="6.25043">
        <ele>518.29</ele>
        <time>2015-03-08T15:54:01Z</time>
      </trkpt>
      <trkpt lat="43.60461" lon="6.25039">
        <ele>517.81</ele>
        <time>2015-03-08T15:54:02Z</time>
      </trkpt>
      <trkpt lat="43.60458" lon="6.25035">
        <ele>517.33</ele>
        <time>2015-03-08T15:54:03Z</time>
      </trkpt>
      <trkpt lat="43.60437" lon="6.24982">
        <ele>516.85</ele>
        <time>2015-03-08T15:54:15Z</time>
      </trkpt>
      <trkpt lat="43.60424" lon="6.24938">
        <ele>514.92</ele>
        <time>2015-03-08T15:54:27Z</time>
      </trkpt>
      <trkpt lat="43.6042" lon="6.2493">
        <ele>515.4</ele>
        <time>2015-03-08T15:54:40Z</time>
      </trkpt>
      <trkpt lat="43.60419" lon="6.24927">
        <ele>508.67</ele>
        <time>2015-03-08T15:54:48Z</time>
      </trkpt>
      <trkpt lat="43.60418" lon="6.24928">
        <ele>516.37</ele>
        <time>2015-03-08T15:54:49Z</time>
      </trkpt>
      <trkpt lat="43.60418" lon="6.24928">
        <ele>514.44</ele>
        <time>2015-03-08T15:55:06Z</time>
      </trkpt>
      <trkpt lat="43.60418" lon="6.24928">
        <ele>514.44</ele>
        <time>2015-03-08T15:55:19Z</time>
      </trkpt>
      <trkpt lat="43.60417" lon="6.2492">
        <ele>513.96</ele>
        <time>2015-03-08T15:55:31Z</time>
      </trkpt>
      <trkpt lat="43.60414" lon="6.24915">
        <ele>513.48</ele>
        <time>2015-03-08T15:55:36Z</time>
      </trkpt>
      <trkpt lat="43.60411" lon="6.24912">
        <ele>513.48</ele>
        <time>2015-03-08T15:55:41Z</time>
      </trkpt>
      <trkpt lat="43.60397" lon="6.24894">
        <ele>511.08</ele>
        <time>2015-03-08T15:55:56Z</time>
      </trkpt>
      <trkpt lat="43.60385" lon="6.24884">
        <ele>508.19</ele>
        <time>2015-03-08T15:56:08Z</time>
      </trkpt>
      <trkpt lat="43.60377" lon="6.24879">
        <ele>507.23</ele>
        <time>2015-03-08T15:56:15Z</time>
      </trkpt>
      <trkpt lat="43.60361" lon="6.24866">
        <ele>503.87</ele>
        <time>2015-03-08T15:56:29Z</time>
      </trkpt>
      <trkpt lat="43.60346" lon="6.24868">
        <ele>502.43</ele>
        <time>2015-03-08T15:56:40Z</time>
      </trkpt>
      <trkpt lat="43.60335" lon="6.24869">
        <ele>501.46</ele>
        <time>2015-03-08T15:56:49Z</time>
      </trkpt>
      <trkpt lat="43.6033" lon="6.24863">
        <ele>500.5</ele>
        <time>2015-03-08T15:56:53Z</time>
      </trkpt>
      <trkpt lat="43.60319" lon="6.24853">
        <ele>498.1</ele>
        <time>2015-03-08T15:57:04Z</time>
      </trkpt>
      <trkpt lat="43.60308" lon="6.24844">
        <ele>497.62</ele>
        <time>2015-03-08T15:57:11Z</time>
      </trkpt>
      <trkpt lat="43.60304" lon="6.24835">
        <ele>496.66</ele>
        <time>2015-03-08T15:57:18Z</time>
      </trkpt>
      <trkpt lat="43.60302" lon="6.24831">
        <ele>496.18</ele>
        <time>2015-03-08T15:57:21Z</time>
      </trkpt>
      <trkpt lat="43.603" lon="6.24824">
        <ele>495.22</ele>
        <time>2015-03-08T15:57:26Z</time>
      </trkpt>
      <trkpt lat="43.60298" lon="6.24821">
        <ele>495.22</ele>
        <time>2015-03-08T15:57:28Z</time>
      </trkpt>
      <trkpt lat="43.60292" lon="6.24806">
        <ele>493.29</ele>
        <time>2015-03-08T15:57:39Z</time>
      </trkpt>
      <trkpt lat="43.60291" lon="6.24804">
        <ele>493.29</ele>
        <time>2015-03-08T15:57:40Z</time>
      </trkpt>
      <trkpt lat="43.60288" lon="6.24782">
        <ele>493.29</ele>
        <time>2015-03-08T15:57:52Z</time>
      </trkpt>
      <trkpt lat="43.6028" lon="6.24763">
        <ele>492.81</ele>
        <time>2015-03-08T15:58:02Z</time>
      </trkpt>
      <trkpt lat="43.60268" lon="6.24743">
        <ele>491.85</ele>
        <time>2015-03-08T15:58:17Z</time>
      </trkpt>
      <trkpt lat="43.60269" lon="6.24739">
        <ele>491.37</ele>
        <time>2015-03-08T15:58:20Z</time>
      </trkpt>
      <trkpt lat="43.60271" lon="6.24735">
        <ele>491.37</ele>
        <time>2015-03-08T15:58:23Z</time>
      </trkpt>
      <trkpt lat="43.6027" lon="6.24721">
        <ele>488.01</ele>
        <time>2015-03-08T15:58:37Z</time>
      </trkpt>
      <trkpt lat="43.60267" lon="6.24713">
        <ele>487.05</ele>
        <time>2015-03-08T15:58:42Z</time>
      </trkpt>
      <trkpt lat="43.60268" lon="6.24705">
        <ele>485.6</ele>
        <time>2015-03-08T15:58:46Z</time>
      </trkpt>
      <trkpt lat="43.60273" lon="6.24686">
        <ele>482.24</ele>
        <time>2015-03-08T15:58:58Z</time>
      </trkpt>
      <trkpt lat="43.60281" lon="6.24674">
        <ele>480.8</ele>
        <time>2015-03-08T15:59:05Z</time>
      </trkpt>
      <trkpt lat="43.60287" lon="6.24662">
        <ele>479.84</ele>
        <time>2015-03-08T15:59:13Z</time>
      </trkpt>
      <trkpt lat="43.60276" lon="6.24662">
        <ele>477.91</ele>
        <time>2015-03-08T15:59:23Z</time>
      </trkpt>
      <trkpt lat="43.60275" lon="6.24661">
        <ele>477.91</ele>
        <time>2015-03-08T15:59:24Z</time>
      </trkpt>
      <trkpt lat="43.6027" lon="6.24655">
        <ele>475.99</ele>
        <time>2015-03-08T15:59:30Z</time>
      </trkpt>
      <trkpt lat="43.6028" lon="6.24638">
        <ele>473.59</ele>
        <time>2015-03-08T15:59:43Z</time>
      </trkpt>
      <trkpt lat="43.60284" lon="6.24617">
        <ele>471.18</ele>
        <time>2015-03-08T15:59:57Z</time>
      </trkpt>
      <trkpt lat="43.60284" lon="6.24611">
        <ele>470.7</ele>
        <time>2015-03-08T16:00:00Z</time>
      </trkpt>
      <trkpt lat="43.60283" lon="6.24608">
        <ele>470.22</ele>
        <time>2015-03-08T16:00:02Z</time>
      </trkpt>
      <trkpt lat="43.60278" lon="6.24599">
        <ele>467.34</ele>
        <time>2015-03-08T16:00:12Z</time>
      </trkpt>
      <trkpt lat="43.60266" lon="6.24592">
        <ele>466.38</ele>
        <time>2015-03-08T16:00:26Z</time>
      </trkpt>
      <trkpt lat="43.60257" lon="6.24593">
        <ele>464.93</ele>
        <time>2015-03-08T16:00:35Z</time>
      </trkpt>
      <trkpt lat="43.60244" lon="6.24595">
        <ele>463.49</ele>
        <time>2015-03-08T16:00:45Z</time>
      </trkpt>
      <trkpt lat="43.60238" lon="6.24597">
        <ele>462.53</ele>
        <time>2015-03-08T16:00:49Z</time>
      </trkpt>
      <trkpt lat="43.60229" lon="6.24598">
        <ele>461.57</ele>
        <time>2015-03-08T16:00:55Z</time>
      </trkpt>
      <trkpt lat="43.60217" lon="6.2461">
        <ele>460.61</ele>
        <time>2015-03-08T16:01:07Z</time>
      </trkpt>
      <trkpt lat="43.60214" lon="6.24618">
        <ele>460.13</ele>
        <time>2015-03-08T16:01:12Z</time>
      </trkpt>
      <trkpt lat="43.60204" lon="6.24635">
        <ele>459.65</ele>
        <time>2015-03-08T16:01:30Z</time>
      </trkpt>
      <trkpt lat="43.60197" lon="6.24656">
        <ele>459.17</ele>
        <time>2015-03-08T16:01:43Z</time>
      </trkpt>
      <trkpt lat="43.60196" lon="6.24659">
        <ele>459.17</ele>
        <time>2015-03-08T16:01:45Z</time>
      </trkpt>
      <trkpt lat="43.60195" lon="6.24663">
        <ele>459.17</ele>
        <time>2015-03-08T16:01:47Z</time>
      </trkpt>
      <trkpt lat="43.60186" lon="6.24682">
        <ele>458.69</ele>
        <time>2015-03-08T16:02:00Z</time>
      </trkpt>
      <trkpt lat="43.60185" lon="6.24686">
        <ele>458.69</ele>
        <time>2015-03-08T16:02:06Z</time>
      </trkpt>
      <trkpt lat="43.60179" lon="6.24696">
        <ele>458.21</ele>
        <time>2015-03-08T16:02:19Z</time>
      </trkpt>
      <trkpt lat="43.60178" lon="6.247">
        <ele>457.72</ele>
        <time>2015-03-08T16:02:41Z</time>
      </trkpt>
      <trkpt lat="43.60178" lon="6.24702">
        <ele>458.21</ele>
        <time>2015-03-08T16:02:57Z</time>
      </trkpt>
      <trkpt lat="43.60173" lon="6.24704">
        <ele>457.72</ele>
        <time>2015-03-08T16:03:08Z</time>
      </trkpt>
      <trkpt lat="43.60171" lon="6.24707">
        <ele>458.21</ele>
        <time>2015-03-08T16:03:21Z</time>
      </trkpt>
      <trkpt lat="43.60171" lon="6.24709">
        <ele>457.72</ele>
        <time>2015-03-08T16:03:45Z</time>
      </trkpt>
      <trkpt lat="43.6017" lon="6.24709">
        <ele>457.72</ele>
        <time>2015-03-08T16:04:05Z</time>
      </trkpt>
      <trkpt lat="43.6017" lon="6.2471">
        <ele>457.72</ele>
        <time>2015-03-08T16:04:22Z</time>
      </trkpt>
      <trkpt lat="43.60169" lon="6.24712">
        <ele>457.24</ele>
        <time>2015-03-08T16:04:37Z</time>
      </trkpt>
      <trkpt lat="43.60169" lon="6.24712">
        <ele>457.72</ele>
        <time>2015-03-08T16:04:55Z</time>
      </trkpt>
      <trkpt lat="43.60168" lon="6.24713">
        <ele>457.72</ele>
        <time>2015-03-08T16:05:13Z</time>
      </trkpt>
      <trkpt lat="43.60168" lon="6.24713">
        <ele>457.72</ele>
        <time>2015-03-08T16:05:31Z</time>
      </trkpt>
      <trkpt lat="43.60168" lon="6.24714">
        <ele>457.24</ele>
        <time>2015-03-08T16:05:50Z</time>
      </trkpt>
      <trkpt lat="43.60169" lon="6.24714">
        <ele>457.72</ele>
        <time>2015-03-08T16:06:12Z</time>
      </trkpt>
      <trkpt lat="43.60169" lon="6.24714">
        <ele>457.72</ele>
        <time>2015-03-08T16:06:31Z</time>
      </trkpt>
      <trkpt lat="43.60169" lon="6.24714">
        <ele>457.72</ele>
        <time>2015-03-08T16:06:49Z</time>
      </trkpt>
      <trkpt lat="43.60169" lon="6.24714">
        <ele>457.72</ele>
        <time>2015-03-08T16:07:10Z</time>
      </trkpt>
      <trkpt lat="43.60169" lon="6.24714">
        <ele>457.72</ele>
        <time>2015-03-08T16:07:37Z</time>
      </trkpt>
      <trkpt lat="43.60169" lon="6.24714">
        <ele>457.72</ele>
        <time>2015-03-08T16:08:00Z</time>
      </trkpt>
      <trkpt lat="43.60168" lon="6.24716">
        <ele>457.72</ele>
        <time>2015-03-08T16:08:17Z</time>
      </trkpt>
      <trkpt lat="43.60168" lon="6.24716">
        <ele>458.21</ele>
        <time>2015-03-08T16:08:37Z</time>
      </trkpt>
      <trkpt lat="43.60168" lon="6.2472">
        <ele>458.21</ele>
        <time>2015-03-08T16:08:57Z</time>
      </trkpt>
      <trkpt lat="43.60166" lon="6.24721">
        <ele>458.21</ele>
        <time>2015-03-08T16:09:29Z</time>
      </trkpt>
      <trkpt lat="43.60165" lon="6.24722">
        <ele>458.21</ele>
        <time>2015-03-08T16:09:54Z</time>
      </trkpt>
      <trkpt lat="43.60161" lon="6.24723">
        <ele>457.72</ele>
        <time>2015-03-08T16:10:19Z</time>
      </trkpt>
      <trkpt lat="43.6016" lon="6.24722">
        <ele>458.21</ele>
        <time>2015-03-08T16:10:40Z</time>
      </trkpt>
      <trkpt lat="43.6016" lon="6.24721">
        <ele>458.21</ele>
        <time>2015-03-08T16:11:05Z</time>
      </trkpt>
      <trkpt lat="43.60159" lon="6.24723">
        <ele>457.24</ele>
        <time>2015-03-08T16:11:27Z</time>
      </trkpt>
      <trkpt lat="43.6016" lon="6.24724">
        <ele>457.24</ele>
        <time>2015-03-08T16:11:56Z</time>
      </trkpt>
      <trkpt lat="43.60158" lon="6.24728">
        <ele>457.72</ele>
        <time>2015-03-08T16:12:13Z</time>
      </trkpt>
      <trkpt lat="43.60156" lon="6.24741">
        <ele>458.21</ele>
        <time>2015-03-08T16:12:29Z</time>
      </trkpt>
      <trkpt lat="43.60156" lon="6.24741">
        <ele>457.72</ele>
        <time>2015-03-08T16:12:42Z</time>
      </trkpt>
      <trkpt lat="43.60151" lon="6.24743">
        <ele>457.72</ele>
        <time>2015-03-08T16:12:51Z</time>
      </trkpt>
      <trkpt lat="43.60145" lon="6.24746">
        <ele>457.24</ele>
        <time>2015-03-08T16:12:56Z</time>
      </trkpt>
      <trkpt lat="43.60137" lon="6.24755">
        <ele>457.24</ele>
        <time>2015-03-08T16:13:05Z</time>
      </trkpt>
      <trkpt lat="43.60122" lon="6.24774">
        <ele>457.24</ele>
        <time>2015-03-08T16:13:20Z</time>
      </trkpt>
      <trkpt lat="43.60119" lon="6.24779">
        <ele>456.76</ele>
        <time>2015-03-08T16:13:34Z</time>
      </trkpt>
      <trkpt lat="43.60116" lon="6.24784">
        <ele>457.24</ele>
        <time>2015-03-08T16:13:39Z</time>
      </trkpt>
      <trkpt lat="43.6011" lon="6.24802">
        <ele>456.76</ele>
        <time>2015-03-08T16:13:53Z</time>
      </trkpt>
      <trkpt lat="43.60109" lon="6.24802">
        <ele>457.24</ele>
        <time>2015-03-08T16:14:12Z</time>
      </trkpt>
      <trkpt lat="43.60105" lon="6.24808">
        <ele>456.76</ele>
        <time>2015-03-08T16:14:26Z</time>
      </trkpt>
      <trkpt lat="43.60102" lon="6.24809">
        <ele>457.24</ele>
        <time>2015-03-08T16:14:44Z</time>
      </trkpt>
      <trkpt lat="43.60099" lon="6.2481">
        <ele>456.76</ele>
        <time>2015-03-08T16:15:01Z</time>
      </trkpt>
      <trkpt lat="43.60095" lon="6.24811">
        <ele>456.76</ele>
        <time>2015-03-08T16:15:09Z</time>
      </trkpt>
      <trkpt lat="43.60087" lon="6.248">
        <ele>454.84</ele>
        <time>2015-03-08T16:15:18Z</time>
      </trkpt>
      <trkpt lat="43.60083" lon="6.24793">
        <ele>453.4</ele>
        <time>2015-03-08T16:15:25Z</time>
      </trkpt>
      <trkpt lat="43.6008" lon="6.2479">
        <ele>453.4</ele>
        <time>2015-03-08T16:15:28Z</time>
      </trkpt>
      <trkpt lat="43.60075" lon="6.24787">
        <ele>452.44</ele>
        <time>2015-03-08T16:15:40Z</time>
      </trkpt>
      <trkpt lat="43.60071" lon="6.24787">
        <ele>451.96</ele>
        <time>2015-03-08T16:15:51Z</time>
      </trkpt>
      <trkpt lat="43.60067" lon="6.24787">
        <ele>451.96</ele>
        <time>2015-03-08T16:16:03Z</time>
      </trkpt>
      <trkpt lat="43.60068" lon="6.24788">
        <ele>452.44</ele>
        <time>2015-03-08T16:16:14Z</time>
      </trkpt>
      <trkpt lat="43.60069" lon="6.24791">
        <ele>452.44</ele>
        <time>2015-03-08T16:16:24Z</time>
      </trkpt>
      <trkpt lat="43.60069" lon="6.24791">
        <ele>452.44</ele>
        <time>2015-03-08T16:16:36Z</time>
      </trkpt>
      <trkpt lat="43.60067" lon="6.24795">
        <ele>452.44</ele>
        <time>2015-03-08T16:16:51Z</time>
      </trkpt>
      <trkpt lat="43.60066" lon="6.24796">
        <ele>451.96</ele>
        <time>2015-03-08T16:17:07Z</time>
      </trkpt>
      <trkpt lat="43.60052" lon="6.24812">
        <ele>451.96</ele>
        <time>2015-03-08T16:17:21Z</time>
      </trkpt>
      <trkpt lat="43.60038" lon="6.24829">
        <ele>451.96</ele>
        <time>2015-03-08T16:17:37Z</time>
      </trkpt>
      <trkpt lat="43.60026" lon="6.24843">
        <ele>451.48</ele>
        <time>2015-03-08T16:17:51Z</time>
      </trkpt>
      <trkpt lat="43.60014" lon="6.24861">
        <ele>451.96</ele>
        <time>2015-03-08T16:18:06Z</time>
      </trkpt>
      <trkpt lat="43.60012" lon="6.24878">
        <ele>452.44</ele>
        <time>2015-03-08T16:18:19Z</time>
      </trkpt>
      <trkpt lat="43.60011" lon="6.24888">
        <ele>453.4</ele>
        <time>2015-03-08T16:18:32Z</time>
      </trkpt>
      <trkpt lat="43.60011" lon="6.24887">
        <ele>452.92</ele>
        <time>2015-03-08T16:18:48Z</time>
      </trkpt>
      <trkpt lat="43.6001" lon="6.24887">
        <ele>453.4</ele>
        <time>2015-03-08T16:19:05Z</time>
      </trkpt>
      <trkpt lat="43.6001" lon="6.24887">
        <ele>453.88</ele>
        <time>2015-03-08T16:19:34Z</time>
      </trkpt>
      <trkpt lat="43.6001" lon="6.24887">
        <ele>453.88</ele>
        <time>2015-03-08T16:19:54Z</time>
      </trkpt>
      <trkpt lat="43.6001" lon="6.24887">
        <ele>453.88</ele>
        <time>2015-03-08T16:20:16Z</time>
      </trkpt>
      <trkpt lat="43.6001" lon="6.24886">
        <ele>453.88</ele>
        <time>2015-03-08T16:20:48Z</time>
      </trkpt>
      <trkpt lat="43.60011" lon="6.24886">
        <ele>453.88</ele>
        <time>2015-03-08T16:21:16Z</time>
      </trkpt>
      <trkpt lat="43.60011" lon="6.24887">
        <ele>453.88</ele>
        <time>2015-03-08T16:21:37Z</time>
      </trkpt>
      <trkpt lat="43.60012" lon="6.24888">
        <ele>454.36</ele>
        <time>2015-03-08T16:22:05Z</time>
      </trkpt>
      <trkpt lat="43.60011" lon="6.24887">
        <ele>454.36</ele>
        <time>2015-03-08T16:22:26Z</time>
      </trkpt>
      <trkpt lat="43.6001" lon="6.24888">
        <ele>454.84</ele>
        <time>2015-03-08T16:22:42Z</time>
      </trkpt>
      <trkpt lat="43.60009" lon="6.24892">
        <ele>454.84</ele>
        <time>2015-03-08T16:22:56Z</time>
      </trkpt>
      <trkpt lat="43.6001" lon="6.24893">
        <ele>455.32</ele>
        <time>2015-03-08T16:23:12Z</time>
      </trkpt>
      <trkpt lat="43.6001" lon="6.24893">
        <ele>454.84</ele>
        <time>2015-03-08T16:23:39Z</time>
      </trkpt>
      <trkpt lat="43.60009" lon="6.24893">
        <ele>455.32</ele>
        <time>2015-03-08T16:24:09Z</time>
      </trkpt>
      <trkpt lat="43.60009" lon="6.24893">
        <ele>455.32</ele>
        <time>2015-03-08T16:24:32Z</time>
      </trkpt>
      <trkpt lat="43.60011" lon="6.24895">
        <ele>455.32</ele>
        <time>2015-03-08T16:24:52Z</time>
      </trkpt>
      <trkpt lat="43.60012" lon="6.24903">
        <ele>455.32</ele>
        <time>2015-03-08T16:25:11Z</time>
      </trkpt>
      <trkpt lat="43.6001" lon="6.24905">
        <ele>454.84</ele>
        <time>2015-03-08T16:25:30Z</time>
      </trkpt>
      <trkpt lat="43.6001" lon="6.24905">
        <ele>455.32</ele>
        <time>2015-03-08T16:25:58Z</time>
      </trkpt>
      <trkpt lat="43.6001" lon="6.24905">
        <ele>454.84</ele>
        <time>2015-03-08T16:26:29Z</time>
      </trkpt>
      <trkpt lat="43.6001" lon="6.24905">
        <ele>454.84</ele>
        <time>2015-03-08T16:27:01Z</time>
      </trkpt>
      <trkpt lat="43.6001" lon="6.24905">
        <ele>455.8</ele>
        <time>2015-03-08T16:27:20Z</time>
      </trkpt>
      <trkpt lat="43.6001" lon="6.24906">
        <ele>455.8</ele>
        <time>2015-03-08T16:27:55Z</time>
      </trkpt>
      <trkpt lat="43.60008" lon="6.24904">
        <ele>454.84</ele>
        <time>2015-03-08T16:28:21Z</time>
      </trkpt>
      <trkpt lat="43.60004" lon="6.24899">
        <ele>454.36</ele>
        <time>2015-03-08T16:28:32Z</time>
      </trkpt>
      <trkpt lat="43.59999" lon="6.24894">
        <ele>453.4</ele>
        <time>2015-03-08T16:28:39Z</time>
      </trkpt>
      <trkpt lat="43.59991" lon="6.2491">
        <ele>453.88</ele>
        <time>2015-03-08T16:28:53Z</time>
      </trkpt>
      <trkpt lat="43.5999" lon="6.24913">
        <ele>453.88</ele>
        <time>2015-03-08T16:28:56Z</time>
      </trkpt>
      <trkpt lat="43.59984" lon="6.24928">
        <ele>454.36</ele>
        <time>2015-03-08T16:29:12Z</time>
      </trkpt>
      <trkpt lat="43.59979" lon="6.24943">
        <ele>455.32</ele>
        <time>2015-03-08T16:29:28Z</time>
      </trkpt>
      <trkpt lat="43.59981" lon="6.24941">
        <ele>455.32</ele>
        <time>2015-03-08T16:29:41Z</time>
      </trkpt>
      <trkpt lat="43.59978" lon="6.24947">
        <ele>455.8</ele>
        <time>2015-03-08T16:29:53Z</time>
      </trkpt>
      <trkpt lat="43.59972" lon="6.24962">
        <ele>456.28</ele>
        <time>2015-03-08T16:30:06Z</time>
      </trkpt>
      <trkpt lat="43.5997" lon="6.24968">
        <ele>456.28</ele>
        <time>2015-03-08T16:30:10Z</time>
      </trkpt>
      <trkpt lat="43.59962" lon="6.24988">
        <ele>457.24</ele>
        <time>2015-03-08T16:30:25Z</time>
      </trkpt>
      <trkpt lat="43.59962" lon="6.25005">
        <ele>458.21</ele>
        <time>2015-03-08T16:30:38Z</time>
      </trkpt>
      <trkpt lat="43.59956" lon="6.25028">
        <ele>458.69</ele>
        <time>2015-03-08T16:30:50Z</time>
      </trkpt>
      <trkpt lat="43.59956" lon="6.2503">
        <ele>458.69</ele>
        <time>2015-03-08T16:30:51Z</time>
      </trkpt>
      <trkpt lat="43.59949" lon="6.25052">
        <ele>456.76</ele>
        <time>2015-03-08T16:31:06Z</time>
      </trkpt>
      <trkpt lat="43.59946" lon="6.25075">
        <ele>456.28</ele>
        <time>2015-03-08T16:31:20Z</time>
      </trkpt>
      <trkpt lat="43.59946" lon="6.25082">
        <ele>455.8</ele>
        <time>2015-03-08T16:31:43Z</time>
      </trkpt>
      <trkpt lat="43.59944" lon="6.25081">
        <ele>455.8</ele>
        <time>2015-03-08T16:32:02Z</time>
      </trkpt>
      <trkpt lat="43.59943" lon="6.25077">
        <ele>455.8</ele>
        <time>2015-03-08T16:32:20Z</time>
      </trkpt>
      <trkpt lat="43.59942" lon="6.25078">
        <ele>456.28</ele>
        <time>2015-03-08T16:32:40Z</time>
      </trkpt>
      <trkpt lat="43.59947" lon="6.2508">
        <ele>456.28</ele>
        <time>2015-03-08T16:33:00Z</time>
      </trkpt>
      <trkpt lat="43.59945" lon="6.25079">
        <ele>456.28</ele>
        <time>2015-03-08T16:33:15Z</time>
      </trkpt>
      <trkpt lat="43.59942" lon="6.25076">
        <ele>456.28</ele>
        <time>2015-03-08T16:33:26Z</time>
      </trkpt>
      <trkpt lat="43.5994" lon="6.25076">
        <ele>455.8</ele>
        <time>2015-03-08T16:33:41Z</time>
      </trkpt>
      <trkpt lat="43.5994" lon="6.25076">
        <ele>455.8</ele>
        <time>2015-03-08T16:33:59Z</time>
      </trkpt>
      <trkpt lat="43.5994" lon="6.25077">
        <ele>455.8</ele>
        <time>2015-03-08T16:34:19Z</time>
      </trkpt>
      <trkpt lat="43.59938" lon="6.25073">
        <ele>456.28</ele>
        <time>2015-03-08T16:34:37Z</time>
      </trkpt>
      <trkpt lat="43.5994" lon="6.25072">
        <ele>455.8</ele>
        <time>2015-03-08T16:35:01Z</time>
      </trkpt>
      <trkpt lat="43.59941" lon="6.25076">
        <ele>455.8</ele>
        <time>2015-03-08T16:35:25Z</time>
      </trkpt>
      <trkpt lat="43.59944" lon="6.25079">
        <ele>455.8</ele>
        <time>2015-03-08T16:35:53Z</time>
      </trkpt>
      <trkpt lat="43.59944" lon="6.25075">
        <ele>455.8</ele>
        <time>2015-03-08T16:36:07Z</time>
      </trkpt>
      <trkpt lat="43.59941" lon="6.25074">
        <ele>455.32</ele>
        <time>2015-03-08T16:36:19Z</time>
      </trkpt>
      <trkpt lat="43.59938" lon="6.25072">
        <ele>455.32</ele>
        <time>2015-03-08T16:36:39Z</time>
      </trkpt>
      <trkpt lat="43.59936" lon="6.25073">
        <ele>455.8</ele>
        <time>2015-03-08T16:36:55Z</time>
      </trkpt>
      <trkpt lat="43.59937" lon="6.25075">
        <ele>455.8</ele>
        <time>2015-03-08T16:37:09Z</time>
      </trkpt>
      <trkpt lat="43.59937" lon="6.25075">
        <ele>455.32</ele>
        <time>2015-03-08T16:37:22Z</time>
      </trkpt>
      <trkpt lat="43.59939" lon="6.25076">
        <ele>455.8</ele>
        <time>2015-03-08T16:37:41Z</time>
      </trkpt>
      <trkpt lat="43.59939" lon="6.25076">
        <ele>455.8</ele>
        <time>2015-03-08T16:37:57Z</time>
      </trkpt>
      <trkpt lat="43.59942" lon="6.2508">
        <ele>455.8</ele>
        <time>2015-03-08T16:38:13Z</time>
      </trkpt>
      <trkpt lat="43.59945" lon="6.25082">
        <ele>455.8</ele>
        <time>2015-03-08T16:38:31Z</time>
      </trkpt>
      <trkpt lat="43.59943" lon="6.2508">
        <ele>455.8</ele>
        <time>2015-03-08T16:38:51Z</time>
      </trkpt>
      <trkpt lat="43.59941" lon="6.25076">
        <ele>455.8</ele>
        <time>2015-03-08T16:39:05Z</time>
      </trkpt>
      <trkpt lat="43.59942" lon="6.25075">
        <ele>455.8</ele>
        <time>2015-03-08T16:39:27Z</time>
      </trkpt>
      <trkpt lat="43.59942" lon="6.25074">
        <ele>455.8</ele>
        <time>2015-03-08T16:39:49Z</time>
      </trkpt>
      <trkpt lat="43.59942" lon="6.25075">
        <ele>455.8</ele>
        <time>2015-03-08T16:40:10Z</time>
      </trkpt>
      <trkpt lat="43.59942" lon="6.25075">
        <ele>455.8</ele>
        <time>2015-03-08T16:40:30Z</time>
      </trkpt>
      <trkpt lat="43.59941" lon="6.25076">
        <ele>455.8</ele>
        <time>2015-03-08T16:40:51Z</time>
      </trkpt>
      <trkpt lat="43.5994" lon="6.25077">
        <ele>455.8</ele>
        <time>2015-03-08T16:41:04Z</time>
      </trkpt>
      <trkpt lat="43.59942" lon="6.25083">
        <ele>455.8</ele>
        <time>2015-03-08T16:41:21Z</time>
      </trkpt>
      <trkpt lat="43.59942" lon="6.25079">
        <ele>454.84</ele>
        <time>2015-03-08T16:41:35Z</time>
      </trkpt>
      <trkpt lat="43.59943" lon="6.25076">
        <ele>454.84</ele>
        <time>2015-03-08T16:41:50Z</time>
      </trkpt>
      <trkpt lat="43.59941" lon="6.25076">
        <ele>455.8</ele>
        <time>2015-03-08T16:42:02Z</time>
      </trkpt>
      <trkpt lat="43.59943" lon="6.25083">
        <ele>455.32</ele>
        <time>2015-03-08T16:42:21Z</time>
      </trkpt>
      <trkpt lat="43.59942" lon="6.25085">
        <ele>455.32</ele>
        <time>2015-03-08T16:42:33Z</time>
      </trkpt>
      <trkpt lat="43.59948" lon="6.25082">
        <ele>456.76</ele>
        <time>2015-03-08T16:42:49Z</time>
      </trkpt>
      <trkpt lat="43.59936" lon="6.25081">
        <ele>455.8</ele>
        <time>2015-03-08T16:43:00Z</time>
      </trkpt>
      <trkpt lat="43.59935" lon="6.25084">
        <ele>455.8</ele>
        <time>2015-03-08T16:43:13Z</time>
      </trkpt>
      <trkpt lat="43.59935" lon="6.25083">
        <ele>455.32</ele>
        <time>2015-03-08T16:43:14Z</time>
      </trkpt>
      <trkpt lat="43.59939" lon="6.2507">
        <ele>455.32</ele>
        <time>2015-03-08T16:43:27Z</time>
      </trkpt>
      <trkpt lat="43.59937" lon="6.25064">
        <ele>455.8</ele>
        <time>2015-03-08T16:43:41Z</time>
      </trkpt>
      <trkpt lat="43.59938" lon="6.25065">
        <ele>455.8</ele>
        <time>2015-03-08T16:43:58Z</time>
      </trkpt>
      <trkpt lat="43.59938" lon="6.25065">
        <ele>455.8</ele>
        <time>2015-03-08T16:44:20Z</time>
      </trkpt>
      <trkpt lat="43.59938" lon="6.25067">
        <ele>455.8</ele>
        <time>2015-03-08T16:44:22Z</time>
      </trkpt>
      <trkpt lat="43.5994" lon="6.25074">
        <ele>455.8</ele>
        <time>2015-03-08T16:44:26Z</time>
      </trkpt>
      <trkpt lat="43.59942" lon="6.25077">
        <ele>455.32</ele>
        <time>2015-03-08T16:44:28Z</time>
      </trkpt>
      <trkpt lat="43.59943" lon="6.25078">
        <ele>455.8</ele>
        <time>2015-03-08T16:44:41Z</time>
      </trkpt>
      <trkpt lat="43.5994" lon="6.25072">
        <ele>455.8</ele>
        <time>2015-03-08T16:44:55Z</time>
      </trkpt>
      <trkpt lat="43.5994" lon="6.2507">
        <ele>455.8</ele>
        <time>2015-03-08T16:45:22Z</time>
      </trkpt>
      <trkpt lat="43.5994" lon="6.2507">
        <ele>450.52</ele>
        <time>2015-03-08T16:45:38Z</time>
      </trkpt>
      <trkpt lat="43.5994" lon="6.2507">
        <ele>460.13</ele>
        <time>2015-03-08T16:45:39Z</time>
      </trkpt>
      <trkpt lat="43.5994" lon="6.2507">
        <ele>456.76</ele>
        <time>2015-03-08T16:45:40Z</time>
      </trkpt>
      <trkpt lat="43.5994" lon="6.2507">
        <ele>456.28</ele>
        <time>2015-03-08T16:45:42Z</time>
      </trkpt>
      <trkpt lat="43.5994" lon="6.2507">
        <ele>439.46</ele>
        <time>2015-03-08T16:45:44Z</time>
      </trkpt>
      <trkpt lat="43.5994" lon="6.2507">
        <ele>470.7</ele>
        <time>2015-03-08T16:45:45Z</time>
      </trkpt>
      <trkpt lat="43.5994" lon="6.2507">
        <ele>456.76</ele>
        <time>2015-03-08T16:45:46Z</time>
      </trkpt>
      <trkpt lat="43.5994" lon="6.25069">
        <ele>456.28</ele>
        <time>2015-03-08T16:46:24Z</time>
      </trkpt>
      <trkpt lat="43.5994" lon="6.25068">
        <ele>456.28</ele>
        <time>2015-03-08T16:46:52Z</time>
      </trkpt>
      <trkpt lat="43.59939" lon="6.25068">
        <ele>456.28</ele>
        <time>2015-03-08T16:47:19Z</time>
      </trkpt>
    </trkseg>
  </trk>
</gpx>